<?xml version="1.0" encoding="UTF-8" standalone="no" ?>
<gpx xmlns="http://www.topografix.com/GPX/1/1" xmlns:xsi="http://www.w3.org/2001/XMLSchema-instance" xsi:schemaLocation="http://www.topografix.com/GPX/1/1 http://www.topografix.com/GPX/1/1/gpx.xsd" version="1.1" creator="VisuGPX - https://www.visugpx.com">
  <metadata>
    <name>Rando vtt Romagnieu 04.11.2012</name>
    <desc><![CDATA[Départ depuis l église, 
rando agréable

]]></desc>
  </metadata>
  <trk>
    <name><![CDATA[4 nov. 2012 08:41:21]]></name>
    <cmt><![CDATA[4 nov. 2012 08:41:21]]></cmt>
    <trkseg>
      <trkpt lat="45.57006" lon="5.64157">
        <ele>269</ele>
        <time>2012-11-04T07:41:38Z</time>
      </trkpt>
      <trkpt lat="45.57009" lon="5.64154">
        <ele>278</ele>
        <time>2012-11-04T07:42:38Z</time>
      </trkpt>
      <trkpt lat="45.57012" lon="5.6416">
        <ele>278</ele>
        <time>2012-11-04T07:42:57Z</time>
      </trkpt>
      <trkpt lat="45.57003" lon="5.64173">
        <ele>275</ele>
        <time>2012-11-04T07:43:20Z</time>
      </trkpt>
      <trkpt lat="45.57008" lon="5.6417">
        <ele>273</ele>
        <time>2012-11-04T07:43:26Z</time>
      </trkpt>
      <trkpt lat="45.57007" lon="5.64165">
        <ele>272</ele>
        <time>2012-11-04T07:43:34Z</time>
      </trkpt>
      <trkpt lat="45.57007" lon="5.64168">
        <ele>270</ele>
        <time>2012-11-04T07:43:44Z</time>
      </trkpt>
      <trkpt lat="45.57012" lon="5.64169">
        <ele>270</ele>
        <time>2012-11-04T07:43:46Z</time>
      </trkpt>
      <trkpt lat="45.57016" lon="5.64165">
        <ele>267</ele>
        <time>2012-11-04T07:43:50Z</time>
      </trkpt>
      <trkpt lat="45.57022" lon="5.6416">
        <ele>266</ele>
        <time>2012-11-04T07:43:54Z</time>
      </trkpt>
      <trkpt lat="45.57026" lon="5.64156">
        <ele>265</ele>
        <time>2012-11-04T07:43:56Z</time>
      </trkpt>
      <trkpt lat="45.5703" lon="5.64149">
        <ele>264</ele>
        <time>2012-11-04T07:43:58Z</time>
      </trkpt>
      <trkpt lat="45.57034" lon="5.64142">
        <ele>264</ele>
        <time>2012-11-04T07:43:59Z</time>
      </trkpt>
      <trkpt lat="45.57037" lon="5.64135">
        <ele>264</ele>
        <time>2012-11-04T07:44:02Z</time>
      </trkpt>
      <trkpt lat="45.5704" lon="5.64129">
        <ele>264</ele>
        <time>2012-11-04T07:44:03Z</time>
      </trkpt>
      <trkpt lat="45.57042" lon="5.64121">
        <ele>263</ele>
        <time>2012-11-04T07:44:07Z</time>
      </trkpt>
      <trkpt lat="45.57044" lon="5.64114">
        <ele>262</ele>
        <time>2012-11-04T07:44:11Z</time>
      </trkpt>
      <trkpt lat="45.57046" lon="5.64106">
        <ele>261</ele>
        <time>2012-11-04T07:44:14Z</time>
      </trkpt>
      <trkpt lat="45.5705" lon="5.641">
        <ele>261</ele>
        <time>2012-11-04T07:44:17Z</time>
      </trkpt>
      <trkpt lat="45.57055" lon="5.64097">
        <ele>260</ele>
        <time>2012-11-04T07:44:19Z</time>
      </trkpt>
      <trkpt lat="45.5706" lon="5.641">
        <ele>259</ele>
        <time>2012-11-04T07:44:29Z</time>
      </trkpt>
      <trkpt lat="45.57066" lon="5.64102">
        <ele>259</ele>
        <time>2012-11-04T07:44:32Z</time>
      </trkpt>
      <trkpt lat="45.57067" lon="5.64098">
        <ele>257</ele>
        <time>2012-11-04T07:44:52Z</time>
      </trkpt>
      <trkpt lat="45.57065" lon="5.64094">
        <ele>257</ele>
        <time>2012-11-04T07:44:59Z</time>
      </trkpt>
      <trkpt lat="45.57065" lon="5.64088">
        <ele>256</ele>
        <time>2012-11-04T07:45:10Z</time>
      </trkpt>
      <trkpt lat="45.5707" lon="5.6409">
        <ele>257</ele>
        <time>2012-11-04T07:45:22Z</time>
      </trkpt>
      <trkpt lat="45.57071" lon="5.64084">
        <ele>258</ele>
        <time>2012-11-04T07:45:42Z</time>
      </trkpt>
      <trkpt lat="45.57062" lon="5.64097">
        <ele>258</ele>
        <time>2012-11-04T07:46:14Z</time>
      </trkpt>
      <trkpt lat="45.57063" lon="5.64087">
        <ele>258</ele>
        <time>2012-11-04T07:46:49Z</time>
      </trkpt>
      <trkpt lat="45.57065" lon="5.64086">
        <ele>258</ele>
        <time>2012-11-04T07:47:01Z</time>
      </trkpt>
      <trkpt lat="45.57066" lon="5.64093">
        <ele>257</ele>
        <time>2012-11-04T07:48:22Z</time>
      </trkpt>
      <trkpt lat="45.57069" lon="5.64099">
        <ele>257</ele>
        <time>2012-11-04T07:48:26Z</time>
      </trkpt>
      <trkpt lat="45.5707" lon="5.64105">
        <ele>257</ele>
        <time>2012-11-04T07:48:56Z</time>
      </trkpt>
      <trkpt lat="45.57066" lon="5.64104">
        <ele>258</ele>
        <time>2012-11-04T07:49:13Z</time>
      </trkpt>
      <trkpt lat="45.57062" lon="5.64099">
        <ele>257</ele>
        <time>2012-11-04T07:49:15Z</time>
      </trkpt>
      <trkpt lat="45.57057" lon="5.64093">
        <ele>257</ele>
        <time>2012-11-04T07:49:18Z</time>
      </trkpt>
      <trkpt lat="45.57053" lon="5.64088">
        <ele>257</ele>
        <time>2012-11-04T07:49:21Z</time>
      </trkpt>
      <trkpt lat="45.57049" lon="5.64085">
        <ele>257</ele>
        <time>2012-11-04T07:49:24Z</time>
      </trkpt>
      <trkpt lat="45.57044" lon="5.64084">
        <ele>257</ele>
        <time>2012-11-04T07:49:27Z</time>
      </trkpt>
      <trkpt lat="45.57041" lon="5.64091">
        <ele>258</ele>
        <time>2012-11-04T07:49:29Z</time>
      </trkpt>
      <trkpt lat="45.5704" lon="5.64098">
        <ele>260</ele>
        <time>2012-11-04T07:49:33Z</time>
      </trkpt>
      <trkpt lat="45.57039" lon="5.64104">
        <ele>261</ele>
        <time>2012-11-04T07:49:36Z</time>
      </trkpt>
      <trkpt lat="45.57037" lon="5.64113">
        <ele>261</ele>
        <time>2012-11-04T07:49:39Z</time>
      </trkpt>
      <trkpt lat="45.57035" lon="5.6412">
        <ele>261</ele>
        <time>2012-11-04T07:49:41Z</time>
      </trkpt>
      <trkpt lat="45.57032" lon="5.64129">
        <ele>262</ele>
        <time>2012-11-04T07:49:43Z</time>
      </trkpt>
      <trkpt lat="45.57029" lon="5.64136">
        <ele>263</ele>
        <time>2012-11-04T07:49:44Z</time>
      </trkpt>
      <trkpt lat="45.57027" lon="5.64143">
        <ele>264</ele>
        <time>2012-11-04T07:49:48Z</time>
      </trkpt>
      <trkpt lat="45.57026" lon="5.6415">
        <ele>265</ele>
        <time>2012-11-04T07:49:50Z</time>
      </trkpt>
      <trkpt lat="45.57027" lon="5.64157">
        <ele>267</ele>
        <time>2012-11-04T07:49:52Z</time>
      </trkpt>
      <trkpt lat="45.57028" lon="5.64165">
        <ele>267</ele>
        <time>2012-11-04T07:49:55Z</time>
      </trkpt>
      <trkpt lat="45.57032" lon="5.64172">
        <ele>268</ele>
        <time>2012-11-04T07:49:57Z</time>
      </trkpt>
      <trkpt lat="45.57037" lon="5.64177">
        <ele>268</ele>
        <time>2012-11-04T07:49:59Z</time>
      </trkpt>
      <trkpt lat="45.57044" lon="5.64182">
        <ele>269</ele>
        <time>2012-11-04T07:50:01Z</time>
      </trkpt>
      <trkpt lat="45.57054" lon="5.64194">
        <ele>270</ele>
        <time>2012-11-04T07:50:04Z</time>
      </trkpt>
      <trkpt lat="45.5706" lon="5.642">
        <ele>271</ele>
        <time>2012-11-04T07:50:05Z</time>
      </trkpt>
      <trkpt lat="45.57072" lon="5.64224">
        <ele>270</ele>
        <time>2012-11-04T07:50:10Z</time>
      </trkpt>
      <trkpt lat="45.57074" lon="5.64231">
        <ele>270</ele>
        <time>2012-11-04T07:50:11Z</time>
      </trkpt>
      <trkpt lat="45.57077" lon="5.64237">
        <ele>270</ele>
        <time>2012-11-04T07:50:12Z</time>
      </trkpt>
      <trkpt lat="45.57082" lon="5.64247">
        <ele>270</ele>
        <time>2012-11-04T07:50:14Z</time>
      </trkpt>
      <trkpt lat="45.5709" lon="5.6426">
        <ele>270</ele>
        <time>2012-11-04T07:50:15Z</time>
      </trkpt>
      <trkpt lat="45.57094" lon="5.64266">
        <ele>270</ele>
        <time>2012-11-04T07:50:17Z</time>
      </trkpt>
      <trkpt lat="45.57098" lon="5.64271">
        <ele>270</ele>
        <time>2012-11-04T07:50:18Z</time>
      </trkpt>
      <trkpt lat="45.57102" lon="5.64276">
        <ele>270</ele>
        <time>2012-11-04T07:50:19Z</time>
      </trkpt>
      <trkpt lat="45.57108" lon="5.64283">
        <ele>271</ele>
        <time>2012-11-04T07:50:23Z</time>
      </trkpt>
      <trkpt lat="45.57112" lon="5.64287">
        <ele>271</ele>
        <time>2012-11-04T07:50:23Z</time>
      </trkpt>
      <trkpt lat="45.57118" lon="5.64299">
        <ele>273</ele>
        <time>2012-11-04T07:50:26Z</time>
      </trkpt>
      <trkpt lat="45.5712" lon="5.64307">
        <ele>273</ele>
        <time>2012-11-04T07:50:27Z</time>
      </trkpt>
      <trkpt lat="45.57121" lon="5.64318">
        <ele>273</ele>
        <time>2012-11-04T07:50:28Z</time>
      </trkpt>
      <trkpt lat="45.57123" lon="5.64326">
        <ele>274</ele>
        <time>2012-11-04T07:50:29Z</time>
      </trkpt>
      <trkpt lat="45.57124" lon="5.64334">
        <ele>274</ele>
        <time>2012-11-04T07:50:30Z</time>
      </trkpt>
      <trkpt lat="45.57123" lon="5.64341">
        <ele>274</ele>
        <time>2012-11-04T07:50:31Z</time>
      </trkpt>
      <trkpt lat="45.57124" lon="5.64351">
        <ele>274</ele>
        <time>2012-11-04T07:50:32Z</time>
      </trkpt>
      <trkpt lat="45.57125" lon="5.6436">
        <ele>274</ele>
        <time>2012-11-04T07:50:33Z</time>
      </trkpt>
      <trkpt lat="45.57126" lon="5.6437">
        <ele>273</ele>
        <time>2012-11-04T07:50:34Z</time>
      </trkpt>
      <trkpt lat="45.57126" lon="5.64381">
        <ele>273</ele>
        <time>2012-11-04T07:50:34Z</time>
      </trkpt>
      <trkpt lat="45.57127" lon="5.64389">
        <ele>273</ele>
        <time>2012-11-04T07:50:35Z</time>
      </trkpt>
      <trkpt lat="45.57127" lon="5.64397">
        <ele>272</ele>
        <time>2012-11-04T07:50:36Z</time>
      </trkpt>
      <trkpt lat="45.57138" lon="5.64414">
        <ele>272</ele>
        <time>2012-11-04T07:50:38Z</time>
      </trkpt>
      <trkpt lat="45.57136" lon="5.64437">
        <ele>272</ele>
        <time>2012-11-04T07:50:41Z</time>
      </trkpt>
      <trkpt lat="45.57134" lon="5.64448">
        <ele>271</ele>
        <time>2012-11-04T07:50:42Z</time>
      </trkpt>
      <trkpt lat="45.57132" lon="5.64458">
        <ele>271</ele>
        <time>2012-11-04T07:50:43Z</time>
      </trkpt>
      <trkpt lat="45.5713" lon="5.64468">
        <ele>271</ele>
        <time>2012-11-04T07:50:44Z</time>
      </trkpt>
      <trkpt lat="45.57128" lon="5.64478">
        <ele>270</ele>
        <time>2012-11-04T07:50:45Z</time>
      </trkpt>
      <trkpt lat="45.57127" lon="5.64485">
        <ele>270</ele>
        <time>2012-11-04T07:50:46Z</time>
      </trkpt>
      <trkpt lat="45.57125" lon="5.64493">
        <ele>270</ele>
        <time>2012-11-04T07:50:47Z</time>
      </trkpt>
      <trkpt lat="45.57123" lon="5.645">
        <ele>270</ele>
        <time>2012-11-04T07:50:48Z</time>
      </trkpt>
      <trkpt lat="45.57122" lon="5.64506">
        <ele>270</ele>
        <time>2012-11-04T07:50:49Z</time>
      </trkpt>
      <trkpt lat="45.57118" lon="5.64518">
        <ele>269</ele>
        <time>2012-11-04T07:50:51Z</time>
      </trkpt>
      <trkpt lat="45.57116" lon="5.64527">
        <ele>269</ele>
        <time>2012-11-04T07:50:53Z</time>
      </trkpt>
      <trkpt lat="45.57114" lon="5.64534">
        <ele>269</ele>
        <time>2012-11-04T07:50:54Z</time>
      </trkpt>
      <trkpt lat="45.57112" lon="5.64543">
        <ele>267</ele>
        <time>2012-11-04T07:50:57Z</time>
      </trkpt>
      <trkpt lat="45.5711" lon="5.64552">
        <ele>267</ele>
        <time>2012-11-04T07:50:59Z</time>
      </trkpt>
      <trkpt lat="45.57108" lon="5.64563">
        <ele>267</ele>
        <time>2012-11-04T07:51:00Z</time>
      </trkpt>
      <trkpt lat="45.57106" lon="5.64575">
        <ele>266</ele>
        <time>2012-11-04T07:51:02Z</time>
      </trkpt>
      <trkpt lat="45.57103" lon="5.64588">
        <ele>266</ele>
        <time>2012-11-04T07:51:05Z</time>
      </trkpt>
      <trkpt lat="45.57101" lon="5.646">
        <ele>266</ele>
        <time>2012-11-04T07:51:07Z</time>
      </trkpt>
      <trkpt lat="45.571" lon="5.64606">
        <ele>267</ele>
        <time>2012-11-04T07:51:07Z</time>
      </trkpt>
      <trkpt lat="45.57097" lon="5.64618">
        <ele>266</ele>
        <time>2012-11-04T07:51:09Z</time>
      </trkpt>
      <trkpt lat="45.57096" lon="5.64625">
        <ele>266</ele>
        <time>2012-11-04T07:51:11Z</time>
      </trkpt>
      <trkpt lat="45.57094" lon="5.64636">
        <ele>266</ele>
        <time>2012-11-04T07:51:13Z</time>
      </trkpt>
      <trkpt lat="45.57092" lon="5.64647">
        <ele>266</ele>
        <time>2012-11-04T07:51:15Z</time>
      </trkpt>
      <trkpt lat="45.5709" lon="5.64658">
        <ele>264</ele>
        <time>2012-11-04T07:51:17Z</time>
      </trkpt>
      <trkpt lat="45.57088" lon="5.64668">
        <ele>262</ele>
        <time>2012-11-04T07:51:19Z</time>
      </trkpt>
      <trkpt lat="45.57086" lon="5.6468">
        <ele>261</ele>
        <time>2012-11-04T07:51:21Z</time>
      </trkpt>
      <trkpt lat="45.57082" lon="5.64698">
        <ele>259</ele>
        <time>2012-11-04T07:51:23Z</time>
      </trkpt>
      <trkpt lat="45.57081" lon="5.64704">
        <ele>259</ele>
        <time>2012-11-04T07:51:25Z</time>
      </trkpt>
      <trkpt lat="45.57079" lon="5.64714">
        <ele>259</ele>
        <time>2012-11-04T07:51:27Z</time>
      </trkpt>
      <trkpt lat="45.57077" lon="5.64736">
        <ele>256</ele>
        <time>2012-11-04T07:51:43Z</time>
      </trkpt>
      <trkpt lat="45.57077" lon="5.64744">
        <ele>254</ele>
        <time>2012-11-04T07:51:47Z</time>
      </trkpt>
      <trkpt lat="45.57076" lon="5.64752">
        <ele>253</ele>
        <time>2012-11-04T07:51:49Z</time>
      </trkpt>
      <trkpt lat="45.57075" lon="5.6476">
        <ele>252</ele>
        <time>2012-11-04T07:51:51Z</time>
      </trkpt>
      <trkpt lat="45.57075" lon="5.64769">
        <ele>251</ele>
        <time>2012-11-04T07:51:53Z</time>
      </trkpt>
      <trkpt lat="45.57074" lon="5.64775">
        <ele>251</ele>
        <time>2012-11-04T07:51:54Z</time>
      </trkpt>
      <trkpt lat="45.57073" lon="5.64797">
        <ele>250</ele>
        <time>2012-11-04T07:51:55Z</time>
      </trkpt>
      <trkpt lat="45.57072" lon="5.6481">
        <ele>251</ele>
        <time>2012-11-04T07:51:58Z</time>
      </trkpt>
      <trkpt lat="45.57071" lon="5.64817">
        <ele>251</ele>
        <time>2012-11-04T07:51:58Z</time>
      </trkpt>
      <trkpt lat="45.5707" lon="5.64825">
        <ele>251</ele>
        <time>2012-11-04T07:52:00Z</time>
      </trkpt>
      <trkpt lat="45.5707" lon="5.64831">
        <ele>251</ele>
        <time>2012-11-04T07:52:02Z</time>
      </trkpt>
      <trkpt lat="45.57089" lon="5.64835">
        <ele>251</ele>
        <time>2012-11-04T07:52:05Z</time>
      </trkpt>
      <trkpt lat="45.57094" lon="5.64837">
        <ele>250</ele>
        <time>2012-11-04T07:52:06Z</time>
      </trkpt>
      <trkpt lat="45.57107" lon="5.64849">
        <ele>249</ele>
        <time>2012-11-04T07:52:09Z</time>
      </trkpt>
      <trkpt lat="45.57112" lon="5.64854">
        <ele>249</ele>
        <time>2012-11-04T07:52:10Z</time>
      </trkpt>
      <trkpt lat="45.57115" lon="5.64858">
        <ele>248</ele>
        <time>2012-11-04T07:52:10Z</time>
      </trkpt>
      <trkpt lat="45.57142" lon="5.64892">
        <ele>248</ele>
        <time>2012-11-04T07:52:15Z</time>
      </trkpt>
      <trkpt lat="45.57145" lon="5.64899">
        <ele>248</ele>
        <time>2012-11-04T07:52:17Z</time>
      </trkpt>
      <trkpt lat="45.57149" lon="5.64907">
        <ele>247</ele>
        <time>2012-11-04T07:52:18Z</time>
      </trkpt>
      <trkpt lat="45.57154" lon="5.64918">
        <ele>247</ele>
        <time>2012-11-04T07:52:19Z</time>
      </trkpt>
      <trkpt lat="45.57159" lon="5.64927">
        <ele>247</ele>
        <time>2012-11-04T07:52:19Z</time>
      </trkpt>
      <trkpt lat="45.57166" lon="5.64933">
        <ele>247</ele>
        <time>2012-11-04T07:52:21Z</time>
      </trkpt>
      <trkpt lat="45.5717" lon="5.64941">
        <ele>247</ele>
        <time>2012-11-04T07:52:22Z</time>
      </trkpt>
      <trkpt lat="45.57176" lon="5.64948">
        <ele>247</ele>
        <time>2012-11-04T07:52:23Z</time>
      </trkpt>
      <trkpt lat="45.57182" lon="5.64956">
        <ele>246</ele>
        <time>2012-11-04T07:52:24Z</time>
      </trkpt>
      <trkpt lat="45.57187" lon="5.64962">
        <ele>246</ele>
        <time>2012-11-04T07:52:25Z</time>
      </trkpt>
      <trkpt lat="45.57192" lon="5.64969">
        <ele>245</ele>
        <time>2012-11-04T07:52:26Z</time>
      </trkpt>
      <trkpt lat="45.57197" lon="5.64977">
        <ele>245</ele>
        <time>2012-11-04T07:52:27Z</time>
      </trkpt>
      <trkpt lat="45.57203" lon="5.64981">
        <ele>245</ele>
        <time>2012-11-04T07:52:28Z</time>
      </trkpt>
      <trkpt lat="45.57206" lon="5.64985">
        <ele>245</ele>
        <time>2012-11-04T07:52:29Z</time>
      </trkpt>
      <trkpt lat="45.57211" lon="5.64993">
        <ele>245</ele>
        <time>2012-11-04T07:52:30Z</time>
      </trkpt>
      <trkpt lat="45.57214" lon="5.64998">
        <ele>245</ele>
        <time>2012-11-04T07:52:30Z</time>
      </trkpt>
      <trkpt lat="45.57217" lon="5.65003">
        <ele>245</ele>
        <time>2012-11-04T07:52:31Z</time>
      </trkpt>
      <trkpt lat="45.57221" lon="5.65008">
        <ele>245</ele>
        <time>2012-11-04T07:52:32Z</time>
      </trkpt>
      <trkpt lat="45.57225" lon="5.65013">
        <ele>245</ele>
        <time>2012-11-04T07:52:33Z</time>
      </trkpt>
      <trkpt lat="45.5723" lon="5.65019">
        <ele>245</ele>
        <time>2012-11-04T07:52:35Z</time>
      </trkpt>
      <trkpt lat="45.57234" lon="5.65023">
        <ele>245</ele>
        <time>2012-11-04T07:52:36Z</time>
      </trkpt>
      <trkpt lat="45.57239" lon="5.65029">
        <ele>245</ele>
        <time>2012-11-04T07:52:37Z</time>
      </trkpt>
      <trkpt lat="45.57245" lon="5.65032">
        <ele>244</ele>
        <time>2012-11-04T07:52:38Z</time>
      </trkpt>
      <trkpt lat="45.57251" lon="5.65037">
        <ele>244</ele>
        <time>2012-11-04T07:52:39Z</time>
      </trkpt>
      <trkpt lat="45.57256" lon="5.65042">
        <ele>243</ele>
        <time>2012-11-04T07:52:40Z</time>
      </trkpt>
      <trkpt lat="45.5726" lon="5.65047">
        <ele>242</ele>
        <time>2012-11-04T07:52:41Z</time>
      </trkpt>
      <trkpt lat="45.57263" lon="5.65052">
        <ele>241</ele>
        <time>2012-11-04T07:52:42Z</time>
      </trkpt>
      <trkpt lat="45.57267" lon="5.65057">
        <ele>241</ele>
        <time>2012-11-04T07:52:43Z</time>
      </trkpt>
      <trkpt lat="45.57273" lon="5.65059">
        <ele>240</ele>
        <time>2012-11-04T07:52:45Z</time>
      </trkpt>
      <trkpt lat="45.5728" lon="5.65059">
        <ele>239</ele>
        <time>2012-11-04T07:52:45Z</time>
      </trkpt>
      <trkpt lat="45.57286" lon="5.65059">
        <ele>238</ele>
        <time>2012-11-04T07:52:47Z</time>
      </trkpt>
      <trkpt lat="45.57291" lon="5.65059">
        <ele>236</ele>
        <time>2012-11-04T07:52:48Z</time>
      </trkpt>
      <trkpt lat="45.57298" lon="5.6506">
        <ele>235</ele>
        <time>2012-11-04T07:52:49Z</time>
      </trkpt>
      <trkpt lat="45.57303" lon="5.65059">
        <ele>234</ele>
        <time>2012-11-04T07:52:50Z</time>
      </trkpt>
      <trkpt lat="45.5731" lon="5.6506">
        <ele>232</ele>
        <time>2012-11-04T07:52:51Z</time>
      </trkpt>
      <trkpt lat="45.57317" lon="5.6506">
        <ele>231</ele>
        <time>2012-11-04T07:52:53Z</time>
      </trkpt>
      <trkpt lat="45.57324" lon="5.65051">
        <ele>229</ele>
        <time>2012-11-04T07:52:54Z</time>
      </trkpt>
      <trkpt lat="45.57328" lon="5.65041">
        <ele>229</ele>
        <time>2012-11-04T07:52:57Z</time>
      </trkpt>
      <trkpt lat="45.57329" lon="5.65031">
        <ele>229</ele>
        <time>2012-11-04T07:52:59Z</time>
      </trkpt>
      <trkpt lat="45.5733" lon="5.65024">
        <ele>229</ele>
        <time>2012-11-04T07:52:59Z</time>
      </trkpt>
      <trkpt lat="45.57332" lon="5.65017">
        <ele>229</ele>
        <time>2012-11-04T07:53:01Z</time>
      </trkpt>
      <trkpt lat="45.57332" lon="5.65008">
        <ele>230</ele>
        <time>2012-11-04T07:53:03Z</time>
      </trkpt>
      <trkpt lat="45.57332" lon="5.64998">
        <ele>230</ele>
        <time>2012-11-04T07:53:05Z</time>
      </trkpt>
      <trkpt lat="45.57335" lon="5.64993">
        <ele>231</ele>
        <time>2012-11-04T07:53:07Z</time>
      </trkpt>
      <trkpt lat="45.57339" lon="5.64987">
        <ele>233</ele>
        <time>2012-11-04T07:53:10Z</time>
      </trkpt>
      <trkpt lat="45.57347" lon="5.64983">
        <ele>233</ele>
        <time>2012-11-04T07:53:11Z</time>
      </trkpt>
      <trkpt lat="45.57353" lon="5.64977">
        <ele>233</ele>
        <time>2012-11-04T07:53:14Z</time>
      </trkpt>
      <trkpt lat="45.57358" lon="5.64972">
        <ele>233</ele>
        <time>2012-11-04T07:53:16Z</time>
      </trkpt>
      <trkpt lat="45.57362" lon="5.64968">
        <ele>233</ele>
        <time>2012-11-04T07:53:18Z</time>
      </trkpt>
      <trkpt lat="45.57366" lon="5.64964">
        <ele>233</ele>
        <time>2012-11-04T07:53:20Z</time>
      </trkpt>
      <trkpt lat="45.57372" lon="5.64958">
        <ele>234</ele>
        <time>2012-11-04T07:53:22Z</time>
      </trkpt>
      <trkpt lat="45.57377" lon="5.64953">
        <ele>234</ele>
        <time>2012-11-04T07:53:23Z</time>
      </trkpt>
      <trkpt lat="45.57383" lon="5.64948">
        <ele>234</ele>
        <time>2012-11-04T07:53:26Z</time>
      </trkpt>
      <trkpt lat="45.57389" lon="5.64942">
        <ele>233</ele>
        <time>2012-11-04T07:53:27Z</time>
      </trkpt>
      <trkpt lat="45.57394" lon="5.64938">
        <ele>233</ele>
        <time>2012-11-04T07:53:30Z</time>
      </trkpt>
      <trkpt lat="45.57402" lon="5.64933">
        <ele>233</ele>
        <time>2012-11-04T07:53:32Z</time>
      </trkpt>
      <trkpt lat="45.5741" lon="5.64928">
        <ele>232</ele>
        <time>2012-11-04T07:53:33Z</time>
      </trkpt>
      <trkpt lat="45.57417" lon="5.64924">
        <ele>232</ele>
        <time>2012-11-04T07:53:36Z</time>
      </trkpt>
      <trkpt lat="45.57424" lon="5.64919">
        <ele>232</ele>
        <time>2012-11-04T07:53:37Z</time>
      </trkpt>
      <trkpt lat="45.5743" lon="5.64913">
        <ele>233</ele>
        <time>2012-11-04T07:53:40Z</time>
      </trkpt>
      <trkpt lat="45.57437" lon="5.64909">
        <ele>233</ele>
        <time>2012-11-04T07:53:41Z</time>
      </trkpt>
      <trkpt lat="45.57445" lon="5.64906">
        <ele>232</ele>
        <time>2012-11-04T07:53:43Z</time>
      </trkpt>
      <trkpt lat="45.5745" lon="5.64902">
        <ele>231</ele>
        <time>2012-11-04T07:53:45Z</time>
      </trkpt>
      <trkpt lat="45.57456" lon="5.64897">
        <ele>231</ele>
        <time>2012-11-04T07:53:48Z</time>
      </trkpt>
      <trkpt lat="45.57462" lon="5.64893">
        <ele>231</ele>
        <time>2012-11-04T07:53:49Z</time>
      </trkpt>
      <trkpt lat="45.57467" lon="5.64889">
        <ele>230</ele>
        <time>2012-11-04T07:53:51Z</time>
      </trkpt>
      <trkpt lat="45.57472" lon="5.64885">
        <ele>229</ele>
        <time>2012-11-04T07:53:54Z</time>
      </trkpt>
      <trkpt lat="45.57476" lon="5.64882">
        <ele>229</ele>
        <time>2012-11-04T07:53:56Z</time>
      </trkpt>
      <trkpt lat="45.57481" lon="5.64878">
        <ele>229</ele>
        <time>2012-11-04T07:53:58Z</time>
      </trkpt>
      <trkpt lat="45.57485" lon="5.64874">
        <ele>229</ele>
        <time>2012-11-04T07:54:00Z</time>
      </trkpt>
      <trkpt lat="45.5749" lon="5.6487">
        <ele>228</ele>
        <time>2012-11-04T07:54:02Z</time>
      </trkpt>
      <trkpt lat="45.57495" lon="5.64867">
        <ele>226</ele>
        <time>2012-11-04T07:54:04Z</time>
      </trkpt>
      <trkpt lat="45.57499" lon="5.64864">
        <ele>226</ele>
        <time>2012-11-04T07:54:06Z</time>
      </trkpt>
      <trkpt lat="45.57504" lon="5.64859">
        <ele>225</ele>
        <time>2012-11-04T07:54:07Z</time>
      </trkpt>
      <trkpt lat="45.5751" lon="5.64854">
        <ele>225</ele>
        <time>2012-11-04T07:54:10Z</time>
      </trkpt>
      <trkpt lat="45.57515" lon="5.6485">
        <ele>224</ele>
        <time>2012-11-04T07:54:11Z</time>
      </trkpt>
      <trkpt lat="45.57519" lon="5.64846">
        <ele>224</ele>
        <time>2012-11-04T07:54:14Z</time>
      </trkpt>
      <trkpt lat="45.57525" lon="5.64842">
        <ele>225</ele>
        <time>2012-11-04T07:54:15Z</time>
      </trkpt>
      <trkpt lat="45.57531" lon="5.64837">
        <ele>225</ele>
        <time>2012-11-04T07:54:18Z</time>
      </trkpt>
      <trkpt lat="45.57536" lon="5.64834">
        <ele>226</ele>
        <time>2012-11-04T07:54:19Z</time>
      </trkpt>
      <trkpt lat="45.57543" lon="5.64829">
        <ele>227</ele>
        <time>2012-11-04T07:54:22Z</time>
      </trkpt>
      <trkpt lat="45.57548" lon="5.64826">
        <ele>228</ele>
        <time>2012-11-04T07:54:23Z</time>
      </trkpt>
      <trkpt lat="45.57552" lon="5.64822">
        <ele>229</ele>
        <time>2012-11-04T07:54:26Z</time>
      </trkpt>
      <trkpt lat="45.57558" lon="5.64817">
        <ele>231</ele>
        <time>2012-11-04T07:54:29Z</time>
      </trkpt>
      <trkpt lat="45.5756" lon="5.64811">
        <ele>232</ele>
        <time>2012-11-04T07:54:31Z</time>
      </trkpt>
      <trkpt lat="45.57565" lon="5.64804">
        <ele>233</ele>
        <time>2012-11-04T07:54:33Z</time>
      </trkpt>
      <trkpt lat="45.57616" lon="5.64755">
        <ele>256</ele>
        <time>2012-11-04T07:54:57Z</time>
      </trkpt>
      <trkpt lat="45.57622" lon="5.64748">
        <ele>256</ele>
        <time>2012-11-04T07:54:59Z</time>
      </trkpt>
      <trkpt lat="45.57628" lon="5.6474">
        <ele>255</ele>
        <time>2012-11-04T07:55:01Z</time>
      </trkpt>
      <trkpt lat="45.57634" lon="5.64732">
        <ele>254</ele>
        <time>2012-11-04T07:55:03Z</time>
      </trkpt>
      <trkpt lat="45.57638" lon="5.64726">
        <ele>254</ele>
        <time>2012-11-04T07:55:05Z</time>
      </trkpt>
      <trkpt lat="45.57644" lon="5.6472">
        <ele>253</ele>
        <time>2012-11-04T07:55:08Z</time>
      </trkpt>
      <trkpt lat="45.57649" lon="5.64714">
        <ele>253</ele>
        <time>2012-11-04T07:55:10Z</time>
      </trkpt>
      <trkpt lat="45.57655" lon="5.64706">
        <ele>252</ele>
        <time>2012-11-04T07:55:12Z</time>
      </trkpt>
      <trkpt lat="45.57658" lon="5.64701">
        <ele>251</ele>
        <time>2012-11-04T07:55:12Z</time>
      </trkpt>
      <trkpt lat="45.57662" lon="5.64697">
        <ele>251</ele>
        <time>2012-11-04T07:55:14Z</time>
      </trkpt>
      <trkpt lat="45.57671" lon="5.64685">
        <ele>250</ele>
        <time>2012-11-04T07:55:16Z</time>
      </trkpt>
      <trkpt lat="45.5768" lon="5.64677">
        <ele>249</ele>
        <time>2012-11-04T07:55:19Z</time>
      </trkpt>
      <trkpt lat="45.57684" lon="5.64674">
        <ele>248</ele>
        <time>2012-11-04T07:55:19Z</time>
      </trkpt>
      <trkpt lat="45.57691" lon="5.64667">
        <ele>246</ele>
        <time>2012-11-04T07:55:22Z</time>
      </trkpt>
      <trkpt lat="45.57698" lon="5.64661">
        <ele>245</ele>
        <time>2012-11-04T07:55:23Z</time>
      </trkpt>
      <trkpt lat="45.57704" lon="5.64655">
        <ele>244</ele>
        <time>2012-11-04T07:55:26Z</time>
      </trkpt>
      <trkpt lat="45.57707" lon="5.6465">
        <ele>244</ele>
        <time>2012-11-04T07:55:27Z</time>
      </trkpt>
      <trkpt lat="45.57713" lon="5.64641">
        <ele>243</ele>
        <time>2012-11-04T07:55:29Z</time>
      </trkpt>
      <trkpt lat="45.57719" lon="5.64633">
        <ele>242</ele>
        <time>2012-11-04T07:55:31Z</time>
      </trkpt>
      <trkpt lat="45.57725" lon="5.64627">
        <ele>242</ele>
        <time>2012-11-04T07:55:33Z</time>
      </trkpt>
      <trkpt lat="45.57732" lon="5.64624">
        <ele>242</ele>
        <time>2012-11-04T07:55:35Z</time>
      </trkpt>
      <trkpt lat="45.57741" lon="5.64619">
        <ele>242</ele>
        <time>2012-11-04T07:55:37Z</time>
      </trkpt>
      <trkpt lat="45.57749" lon="5.64614">
        <ele>242</ele>
        <time>2012-11-04T07:55:39Z</time>
      </trkpt>
      <trkpt lat="45.57754" lon="5.6461">
        <ele>242</ele>
        <time>2012-11-04T07:55:39Z</time>
      </trkpt>
      <trkpt lat="45.57758" lon="5.64607">
        <ele>242</ele>
        <time>2012-11-04T07:55:41Z</time>
      </trkpt>
      <trkpt lat="45.57765" lon="5.64602">
        <ele>242</ele>
        <time>2012-11-04T07:55:42Z</time>
      </trkpt>
      <trkpt lat="45.5777" lon="5.64598">
        <ele>242</ele>
        <time>2012-11-04T07:55:44Z</time>
      </trkpt>
      <trkpt lat="45.57777" lon="5.64593">
        <ele>241</ele>
        <time>2012-11-04T07:55:46Z</time>
      </trkpt>
      <trkpt lat="45.57785" lon="5.64588">
        <ele>241</ele>
        <time>2012-11-04T07:55:48Z</time>
      </trkpt>
      <trkpt lat="45.57793" lon="5.64584">
        <ele>242</ele>
        <time>2012-11-04T07:55:49Z</time>
      </trkpt>
      <trkpt lat="45.57801" lon="5.64581">
        <ele>243</ele>
        <time>2012-11-04T07:55:51Z</time>
      </trkpt>
      <trkpt lat="45.57808" lon="5.64579">
        <ele>244</ele>
        <time>2012-11-04T07:55:54Z</time>
      </trkpt>
      <trkpt lat="45.57817" lon="5.64576">
        <ele>242</ele>
        <time>2012-11-04T07:55:55Z</time>
      </trkpt>
      <trkpt lat="45.57825" lon="5.64574">
        <ele>240</ele>
        <time>2012-11-04T07:55:58Z</time>
      </trkpt>
      <trkpt lat="45.57835" lon="5.64568">
        <ele>239</ele>
        <time>2012-11-04T07:55:59Z</time>
      </trkpt>
      <trkpt lat="45.5784" lon="5.64565">
        <ele>238</ele>
        <time>2012-11-04T07:55:59Z</time>
      </trkpt>
      <trkpt lat="45.57849" lon="5.64564">
        <ele>236</ele>
        <time>2012-11-04T07:56:02Z</time>
      </trkpt>
      <trkpt lat="45.57857" lon="5.64564">
        <ele>233</ele>
        <time>2012-11-04T07:56:03Z</time>
      </trkpt>
      <trkpt lat="45.57862" lon="5.64565">
        <ele>232</ele>
        <time>2012-11-04T07:56:05Z</time>
      </trkpt>
      <trkpt lat="45.5787" lon="5.64566">
        <ele>230</ele>
        <time>2012-11-04T07:56:07Z</time>
      </trkpt>
      <trkpt lat="45.57877" lon="5.64564">
        <ele>228</ele>
        <time>2012-11-04T07:56:08Z</time>
      </trkpt>
      <trkpt lat="45.57886" lon="5.64564">
        <ele>227</ele>
        <time>2012-11-04T07:56:10Z</time>
      </trkpt>
      <trkpt lat="45.5789" lon="5.64563">
        <ele>227</ele>
        <time>2012-11-04T07:56:12Z</time>
      </trkpt>
      <trkpt lat="45.57898" lon="5.64562">
        <ele>226</ele>
        <time>2012-11-04T07:56:14Z</time>
      </trkpt>
      <trkpt lat="45.57906" lon="5.64559">
        <ele>226</ele>
        <time>2012-11-04T07:56:15Z</time>
      </trkpt>
      <trkpt lat="45.57913" lon="5.64555">
        <ele>226</ele>
        <time>2012-11-04T07:56:18Z</time>
      </trkpt>
      <trkpt lat="45.5792" lon="5.64551">
        <ele>226</ele>
        <time>2012-11-04T07:56:20Z</time>
      </trkpt>
      <trkpt lat="45.57927" lon="5.64545">
        <ele>226</ele>
        <time>2012-11-04T07:56:22Z</time>
      </trkpt>
      <trkpt lat="45.57936" lon="5.64538">
        <ele>227</ele>
        <time>2012-11-04T07:56:24Z</time>
      </trkpt>
      <trkpt lat="45.5794" lon="5.64536">
        <ele>227</ele>
        <time>2012-11-04T07:56:25Z</time>
      </trkpt>
      <trkpt lat="45.57945" lon="5.6453">
        <ele>227</ele>
        <time>2012-11-04T07:56:27Z</time>
      </trkpt>
      <trkpt lat="45.5795" lon="5.64528">
        <ele>227</ele>
        <time>2012-11-04T07:56:27Z</time>
      </trkpt>
      <trkpt lat="45.57956" lon="5.64522">
        <ele>228</ele>
        <time>2012-11-04T07:56:29Z</time>
      </trkpt>
      <trkpt lat="45.57961" lon="5.64515">
        <ele>228</ele>
        <time>2012-11-04T07:56:32Z</time>
      </trkpt>
      <trkpt lat="45.57968" lon="5.6451">
        <ele>227</ele>
        <time>2012-11-04T07:56:33Z</time>
      </trkpt>
      <trkpt lat="45.57976" lon="5.64503">
        <ele>226</ele>
        <time>2012-11-04T07:56:35Z</time>
      </trkpt>
      <trkpt lat="45.57983" lon="5.64498">
        <ele>226</ele>
        <time>2012-11-04T07:56:38Z</time>
      </trkpt>
      <trkpt lat="45.57991" lon="5.64493">
        <ele>226</ele>
        <time>2012-11-04T07:56:39Z</time>
      </trkpt>
      <trkpt lat="45.57999" lon="5.64488">
        <ele>225</ele>
        <time>2012-11-04T07:56:42Z</time>
      </trkpt>
      <trkpt lat="45.58007" lon="5.64483">
        <ele>225</ele>
        <time>2012-11-04T07:56:43Z</time>
      </trkpt>
      <trkpt lat="45.58015" lon="5.64476">
        <ele>225</ele>
        <time>2012-11-04T07:56:46Z</time>
      </trkpt>
      <trkpt lat="45.5802" lon="5.64471">
        <ele>225</ele>
        <time>2012-11-04T07:56:47Z</time>
      </trkpt>
      <trkpt lat="45.58024" lon="5.64467">
        <ele>225</ele>
        <time>2012-11-04T07:56:48Z</time>
      </trkpt>
      <trkpt lat="45.58029" lon="5.64464">
        <ele>225</ele>
        <time>2012-11-04T07:56:49Z</time>
      </trkpt>
      <trkpt lat="45.58037" lon="5.64457">
        <ele>225</ele>
        <time>2012-11-04T07:56:51Z</time>
      </trkpt>
      <trkpt lat="45.58045" lon="5.64452">
        <ele>224</ele>
        <time>2012-11-04T07:56:53Z</time>
      </trkpt>
      <trkpt lat="45.58054" lon="5.64445">
        <ele>224</ele>
        <time>2012-11-04T07:56:55Z</time>
      </trkpt>
      <trkpt lat="45.58058" lon="5.64442">
        <ele>224</ele>
        <time>2012-11-04T07:56:55Z</time>
      </trkpt>
      <trkpt lat="45.58066" lon="5.64435">
        <ele>225</ele>
        <time>2012-11-04T07:56:58Z</time>
      </trkpt>
      <trkpt lat="45.5807" lon="5.64432">
        <ele>225</ele>
        <time>2012-11-04T07:56:59Z</time>
      </trkpt>
      <trkpt lat="45.58077" lon="5.64424">
        <ele>225</ele>
        <time>2012-11-04T07:57:01Z</time>
      </trkpt>
      <trkpt lat="45.58084" lon="5.64417">
        <ele>225</ele>
        <time>2012-11-04T07:57:02Z</time>
      </trkpt>
      <trkpt lat="45.58088" lon="5.64413">
        <ele>225</ele>
        <time>2012-11-04T07:57:03Z</time>
      </trkpt>
      <trkpt lat="45.58093" lon="5.6441">
        <ele>225</ele>
        <time>2012-11-04T07:57:04Z</time>
      </trkpt>
      <trkpt lat="45.58102" lon="5.64406">
        <ele>226</ele>
        <time>2012-11-04T07:57:07Z</time>
      </trkpt>
      <trkpt lat="45.58106" lon="5.64403">
        <ele>226</ele>
        <time>2012-11-04T07:57:07Z</time>
      </trkpt>
      <trkpt lat="45.58111" lon="5.644">
        <ele>226</ele>
        <time>2012-11-04T07:57:09Z</time>
      </trkpt>
      <trkpt lat="45.58116" lon="5.64395">
        <ele>226</ele>
        <time>2012-11-04T07:57:10Z</time>
      </trkpt>
      <trkpt lat="45.58119" lon="5.64391">
        <ele>226</ele>
        <time>2012-11-04T07:57:11Z</time>
      </trkpt>
      <trkpt lat="45.58128" lon="5.64385">
        <ele>226</ele>
        <time>2012-11-04T07:57:12Z</time>
      </trkpt>
      <trkpt lat="45.58132" lon="5.64383">
        <ele>227</ele>
        <time>2012-11-04T07:57:14Z</time>
      </trkpt>
      <trkpt lat="45.58139" lon="5.64377">
        <ele>226</ele>
        <time>2012-11-04T07:57:15Z</time>
      </trkpt>
      <trkpt lat="45.58146" lon="5.64369">
        <ele>226</ele>
        <time>2012-11-04T07:57:18Z</time>
      </trkpt>
      <trkpt lat="45.5815" lon="5.64366">
        <ele>227</ele>
        <time>2012-11-04T07:57:19Z</time>
      </trkpt>
      <trkpt lat="45.58157" lon="5.6436">
        <ele>227</ele>
        <time>2012-11-04T07:57:21Z</time>
      </trkpt>
      <trkpt lat="45.58161" lon="5.64356">
        <ele>227</ele>
        <time>2012-11-04T07:57:22Z</time>
      </trkpt>
      <trkpt lat="45.58168" lon="5.64348">
        <ele>227</ele>
        <time>2012-11-04T07:57:24Z</time>
      </trkpt>
      <trkpt lat="45.58172" lon="5.64344">
        <ele>227</ele>
        <time>2012-11-04T07:57:25Z</time>
      </trkpt>
      <trkpt lat="45.58181" lon="5.64337">
        <ele>227</ele>
        <time>2012-11-04T07:57:27Z</time>
      </trkpt>
      <trkpt lat="45.58185" lon="5.64333">
        <ele>227</ele>
        <time>2012-11-04T07:57:27Z</time>
      </trkpt>
      <trkpt lat="45.5819" lon="5.64328">
        <ele>227</ele>
        <time>2012-11-04T07:57:29Z</time>
      </trkpt>
      <trkpt lat="45.58197" lon="5.64322">
        <ele>226</ele>
        <time>2012-11-04T07:57:31Z</time>
      </trkpt>
      <trkpt lat="45.58203" lon="5.64321">
        <ele>226</ele>
        <time>2012-11-04T07:57:32Z</time>
      </trkpt>
      <trkpt lat="45.58207" lon="5.64318">
        <ele>226</ele>
        <time>2012-11-04T07:57:33Z</time>
      </trkpt>
      <trkpt lat="45.58215" lon="5.64314">
        <ele>226</ele>
        <time>2012-11-04T07:57:35Z</time>
      </trkpt>
      <trkpt lat="45.58219" lon="5.6431">
        <ele>226</ele>
        <time>2012-11-04T07:57:35Z</time>
      </trkpt>
      <trkpt lat="45.58223" lon="5.64307">
        <ele>226</ele>
        <time>2012-11-04T07:57:36Z</time>
      </trkpt>
      <trkpt lat="45.58228" lon="5.64304">
        <ele>225</ele>
        <time>2012-11-04T07:57:38Z</time>
      </trkpt>
      <trkpt lat="45.58236" lon="5.64298">
        <ele>225</ele>
        <time>2012-11-04T07:57:39Z</time>
      </trkpt>
      <trkpt lat="45.5824" lon="5.64294">
        <ele>225</ele>
        <time>2012-11-04T07:57:41Z</time>
      </trkpt>
      <trkpt lat="45.58244" lon="5.64289">
        <ele>225</ele>
        <time>2012-11-04T07:57:41Z</time>
      </trkpt>
      <trkpt lat="45.58249" lon="5.64286">
        <ele>225</ele>
        <time>2012-11-04T07:57:42Z</time>
      </trkpt>
      <trkpt lat="45.58253" lon="5.64283">
        <ele>225</ele>
        <time>2012-11-04T07:57:43Z</time>
      </trkpt>
      <trkpt lat="45.58257" lon="5.64279">
        <ele>225</ele>
        <time>2012-11-04T07:57:45Z</time>
      </trkpt>
      <trkpt lat="45.58262" lon="5.64277">
        <ele>225</ele>
        <time>2012-11-04T07:57:46Z</time>
      </trkpt>
      <trkpt lat="45.58268" lon="5.64273">
        <ele>225</ele>
        <time>2012-11-04T07:57:47Z</time>
      </trkpt>
      <trkpt lat="45.58272" lon="5.64269">
        <ele>225</ele>
        <time>2012-11-04T07:57:48Z</time>
      </trkpt>
      <trkpt lat="45.58277" lon="5.64266">
        <ele>225</ele>
        <time>2012-11-04T07:57:50Z</time>
      </trkpt>
      <trkpt lat="45.58285" lon="5.6426">
        <ele>224</ele>
        <time>2012-11-04T07:57:51Z</time>
      </trkpt>
      <trkpt lat="45.58299" lon="5.64253">
        <ele>225</ele>
        <time>2012-11-04T07:57:55Z</time>
      </trkpt>
      <trkpt lat="45.58306" lon="5.64243">
        <ele>225</ele>
        <time>2012-11-04T07:57:57Z</time>
      </trkpt>
      <trkpt lat="45.58318" lon="5.64234">
        <ele>225</ele>
        <time>2012-11-04T07:57:59Z</time>
      </trkpt>
      <trkpt lat="45.58323" lon="5.64231">
        <ele>225</ele>
        <time>2012-11-04T07:57:59Z</time>
      </trkpt>
      <trkpt lat="45.58328" lon="5.64222">
        <ele>225</ele>
        <time>2012-11-04T07:58:01Z</time>
      </trkpt>
      <trkpt lat="45.58333" lon="5.64219">
        <ele>224</ele>
        <time>2012-11-04T07:58:02Z</time>
      </trkpt>
      <trkpt lat="45.58341" lon="5.64213">
        <ele>224</ele>
        <time>2012-11-04T07:58:04Z</time>
      </trkpt>
      <trkpt lat="45.58352" lon="5.64204">
        <ele>223</ele>
        <time>2012-11-04T07:58:08Z</time>
      </trkpt>
      <trkpt lat="45.58359" lon="5.64195">
        <ele>223</ele>
        <time>2012-11-04T07:58:10Z</time>
      </trkpt>
      <trkpt lat="45.58369" lon="5.64192">
        <ele>223</ele>
        <time>2012-11-04T07:58:11Z</time>
      </trkpt>
      <trkpt lat="45.58374" lon="5.6419">
        <ele>222</ele>
        <time>2012-11-04T07:58:13Z</time>
      </trkpt>
      <trkpt lat="45.58383" lon="5.64187">
        <ele>222</ele>
        <time>2012-11-04T07:58:14Z</time>
      </trkpt>
      <trkpt lat="45.5839" lon="5.64181">
        <ele>223</ele>
        <time>2012-11-04T07:58:17Z</time>
      </trkpt>
      <trkpt lat="45.58396" lon="5.64176">
        <ele>223</ele>
        <time>2012-11-04T07:58:19Z</time>
      </trkpt>
      <trkpt lat="45.584" lon="5.64171">
        <ele>223</ele>
        <time>2012-11-04T07:58:19Z</time>
      </trkpt>
      <trkpt lat="45.58406" lon="5.64164">
        <ele>224</ele>
        <time>2012-11-04T07:58:22Z</time>
      </trkpt>
      <trkpt lat="45.5841" lon="5.64161">
        <ele>224</ele>
        <time>2012-11-04T07:58:22Z</time>
      </trkpt>
      <trkpt lat="45.58415" lon="5.64159">
        <ele>224</ele>
        <time>2012-11-04T07:58:23Z</time>
      </trkpt>
      <trkpt lat="45.58418" lon="5.64154">
        <ele>224</ele>
        <time>2012-11-04T07:58:24Z</time>
      </trkpt>
      <trkpt lat="45.58422" lon="5.64151">
        <ele>224</ele>
        <time>2012-11-04T07:58:26Z</time>
      </trkpt>
      <trkpt lat="45.58427" lon="5.64147">
        <ele>224</ele>
        <time>2012-11-04T07:58:27Z</time>
      </trkpt>
      <trkpt lat="45.58431" lon="5.64144">
        <ele>224</ele>
        <time>2012-11-04T07:58:27Z</time>
      </trkpt>
      <trkpt lat="45.58436" lon="5.6414">
        <ele>224</ele>
        <time>2012-11-04T07:58:29Z</time>
      </trkpt>
      <trkpt lat="45.5844" lon="5.64137">
        <ele>224</ele>
        <time>2012-11-04T07:58:30Z</time>
      </trkpt>
      <trkpt lat="45.58447" lon="5.6413">
        <ele>224</ele>
        <time>2012-11-04T07:58:31Z</time>
      </trkpt>
      <trkpt lat="45.58451" lon="5.64127">
        <ele>223</ele>
        <time>2012-11-04T07:58:33Z</time>
      </trkpt>
      <trkpt lat="45.58457" lon="5.64122">
        <ele>223</ele>
        <time>2012-11-04T07:58:34Z</time>
      </trkpt>
      <trkpt lat="45.58461" lon="5.64119">
        <ele>223</ele>
        <time>2012-11-04T07:58:35Z</time>
      </trkpt>
      <trkpt lat="45.58465" lon="5.64116">
        <ele>223</ele>
        <time>2012-11-04T07:58:36Z</time>
      </trkpt>
      <trkpt lat="45.58469" lon="5.64112">
        <ele>222</ele>
        <time>2012-11-04T07:58:37Z</time>
      </trkpt>
      <trkpt lat="45.58473" lon="5.64108">
        <ele>222</ele>
        <time>2012-11-04T07:58:38Z</time>
      </trkpt>
      <trkpt lat="45.58477" lon="5.64105">
        <ele>222</ele>
        <time>2012-11-04T07:58:39Z</time>
      </trkpt>
      <trkpt lat="45.58485" lon="5.64098">
        <ele>222</ele>
        <time>2012-11-04T07:58:41Z</time>
      </trkpt>
      <trkpt lat="45.58489" lon="5.64095">
        <ele>222</ele>
        <time>2012-11-04T07:58:42Z</time>
      </trkpt>
      <trkpt lat="45.58494" lon="5.64092">
        <ele>222</ele>
        <time>2012-11-04T07:58:43Z</time>
      </trkpt>
      <trkpt lat="45.58499" lon="5.64089">
        <ele>221</ele>
        <time>2012-11-04T07:58:43Z</time>
      </trkpt>
      <trkpt lat="45.58503" lon="5.64084">
        <ele>222</ele>
        <time>2012-11-04T07:58:45Z</time>
      </trkpt>
      <trkpt lat="45.58509" lon="5.64082">
        <ele>222</ele>
        <time>2012-11-04T07:58:46Z</time>
      </trkpt>
      <trkpt lat="45.58513" lon="5.64079">
        <ele>223</ele>
        <time>2012-11-04T07:58:47Z</time>
      </trkpt>
      <trkpt lat="45.58518" lon="5.64076">
        <ele>223</ele>
        <time>2012-11-04T07:58:47Z</time>
      </trkpt>
      <trkpt lat="45.58527" lon="5.64068">
        <ele>224</ele>
        <time>2012-11-04T07:58:50Z</time>
      </trkpt>
      <trkpt lat="45.58531" lon="5.64064">
        <ele>223</ele>
        <time>2012-11-04T07:58:50Z</time>
      </trkpt>
      <trkpt lat="45.58538" lon="5.64057">
        <ele>224</ele>
        <time>2012-11-04T07:58:53Z</time>
      </trkpt>
      <trkpt lat="45.58548" lon="5.64055">
        <ele>224</ele>
        <time>2012-11-04T07:58:55Z</time>
      </trkpt>
      <trkpt lat="45.58553" lon="5.64052">
        <ele>224</ele>
        <time>2012-11-04T07:58:56Z</time>
      </trkpt>
      <trkpt lat="45.58557" lon="5.64049">
        <ele>224</ele>
        <time>2012-11-04T07:58:57Z</time>
      </trkpt>
      <trkpt lat="45.58565" lon="5.64044">
        <ele>224</ele>
        <time>2012-11-04T07:58:59Z</time>
      </trkpt>
      <trkpt lat="45.58569" lon="5.64041">
        <ele>224</ele>
        <time>2012-11-04T07:59:00Z</time>
      </trkpt>
      <trkpt lat="45.58573" lon="5.64037">
        <ele>224</ele>
        <time>2012-11-04T07:59:00Z</time>
      </trkpt>
      <trkpt lat="45.58577" lon="5.64033">
        <ele>224</ele>
        <time>2012-11-04T07:59:02Z</time>
      </trkpt>
      <trkpt lat="45.58582" lon="5.6403">
        <ele>224</ele>
        <time>2012-11-04T07:59:03Z</time>
      </trkpt>
      <trkpt lat="45.58589" lon="5.64022">
        <ele>223</ele>
        <time>2012-11-04T07:59:05Z</time>
      </trkpt>
      <trkpt lat="45.58593" lon="5.64019">
        <ele>223</ele>
        <time>2012-11-04T07:59:06Z</time>
      </trkpt>
      <trkpt lat="45.58597" lon="5.64016">
        <ele>223</ele>
        <time>2012-11-04T07:59:06Z</time>
      </trkpt>
      <trkpt lat="45.58604" lon="5.64012">
        <ele>223</ele>
        <time>2012-11-04T07:59:09Z</time>
      </trkpt>
      <trkpt lat="45.58611" lon="5.64004">
        <ele>223</ele>
        <time>2012-11-04T07:59:11Z</time>
      </trkpt>
      <trkpt lat="45.5862" lon="5.63998">
        <ele>223</ele>
        <time>2012-11-04T07:59:13Z</time>
      </trkpt>
      <trkpt lat="45.58629" lon="5.6399">
        <ele>222</ele>
        <time>2012-11-04T07:59:15Z</time>
      </trkpt>
      <trkpt lat="45.58633" lon="5.63987">
        <ele>223</ele>
        <time>2012-11-04T07:59:15Z</time>
      </trkpt>
      <trkpt lat="45.58638" lon="5.63981">
        <ele>223</ele>
        <time>2012-11-04T07:59:18Z</time>
      </trkpt>
      <trkpt lat="45.58643" lon="5.63979">
        <ele>223</ele>
        <time>2012-11-04T07:59:19Z</time>
      </trkpt>
      <trkpt lat="45.58648" lon="5.63974">
        <ele>223</ele>
        <time>2012-11-04T07:59:19Z</time>
      </trkpt>
      <trkpt lat="45.58654" lon="5.63969">
        <ele>223</ele>
        <time>2012-11-04T07:59:22Z</time>
      </trkpt>
      <trkpt lat="45.5866" lon="5.63967">
        <ele>223</ele>
        <time>2012-11-04T07:59:23Z</time>
      </trkpt>
      <trkpt lat="45.58664" lon="5.63963">
        <ele>224</ele>
        <time>2012-11-04T07:59:24Z</time>
      </trkpt>
      <trkpt lat="45.58669" lon="5.6396">
        <ele>224</ele>
        <time>2012-11-04T07:59:25Z</time>
      </trkpt>
      <trkpt lat="45.58675" lon="5.63955">
        <ele>223</ele>
        <time>2012-11-04T07:59:26Z</time>
      </trkpt>
      <trkpt lat="45.58679" lon="5.63951">
        <ele>223</ele>
        <time>2012-11-04T07:59:27Z</time>
      </trkpt>
      <trkpt lat="45.58683" lon="5.63948">
        <ele>223</ele>
        <time>2012-11-04T07:59:27Z</time>
      </trkpt>
      <trkpt lat="45.58692" lon="5.63948">
        <ele>224</ele>
        <time>2012-11-04T07:59:30Z</time>
      </trkpt>
      <trkpt lat="45.58697" lon="5.63945">
        <ele>224</ele>
        <time>2012-11-04T07:59:31Z</time>
      </trkpt>
      <trkpt lat="45.58704" lon="5.63939">
        <ele>225</ele>
        <time>2012-11-04T07:59:33Z</time>
      </trkpt>
      <trkpt lat="45.58709" lon="5.63935">
        <ele>225</ele>
        <time>2012-11-04T07:59:34Z</time>
      </trkpt>
      <trkpt lat="45.58717" lon="5.6393">
        <ele>225</ele>
        <time>2012-11-04T07:59:35Z</time>
      </trkpt>
      <trkpt lat="45.58722" lon="5.63925">
        <ele>225</ele>
        <time>2012-11-04T07:59:38Z</time>
      </trkpt>
      <trkpt lat="45.5873" lon="5.6392">
        <ele>225</ele>
        <time>2012-11-04T07:59:39Z</time>
      </trkpt>
      <trkpt lat="45.58736" lon="5.63914">
        <ele>225</ele>
        <time>2012-11-04T07:59:42Z</time>
      </trkpt>
      <trkpt lat="45.58745" lon="5.63904">
        <ele>224</ele>
        <time>2012-11-04T07:59:43Z</time>
      </trkpt>
      <trkpt lat="45.58753" lon="5.63897">
        <ele>224</ele>
        <time>2012-11-04T07:59:45Z</time>
      </trkpt>
      <trkpt lat="45.5876" lon="5.63893">
        <ele>224</ele>
        <time>2012-11-04T07:59:47Z</time>
      </trkpt>
      <trkpt lat="45.58766" lon="5.63888">
        <ele>224</ele>
        <time>2012-11-04T07:59:49Z</time>
      </trkpt>
      <trkpt lat="45.5877" lon="5.63886">
        <ele>224</ele>
        <time>2012-11-04T07:59:50Z</time>
      </trkpt>
      <trkpt lat="45.58778" lon="5.63881">
        <ele>224</ele>
        <time>2012-11-04T07:59:52Z</time>
      </trkpt>
      <trkpt lat="45.58786" lon="5.63877">
        <ele>224</ele>
        <time>2012-11-04T07:59:54Z</time>
      </trkpt>
      <trkpt lat="45.58796" lon="5.63868">
        <ele>224</ele>
        <time>2012-11-04T07:59:56Z</time>
      </trkpt>
      <trkpt lat="45.588" lon="5.63864">
        <ele>223</ele>
        <time>2012-11-04T07:59:57Z</time>
      </trkpt>
      <trkpt lat="45.58807" lon="5.6386">
        <ele>223</ele>
        <time>2012-11-04T07:59:59Z</time>
      </trkpt>
      <trkpt lat="45.58813" lon="5.63854">
        <ele>223</ele>
        <time>2012-11-04T08:00:01Z</time>
      </trkpt>
      <trkpt lat="45.58819" lon="5.63849">
        <ele>223</ele>
        <time>2012-11-04T08:00:03Z</time>
      </trkpt>
      <trkpt lat="45.58824" lon="5.63848">
        <ele>223</ele>
        <time>2012-11-04T08:00:03Z</time>
      </trkpt>
      <trkpt lat="45.58831" lon="5.63844">
        <ele>223</ele>
        <time>2012-11-04T08:00:06Z</time>
      </trkpt>
      <trkpt lat="45.58838" lon="5.63838">
        <ele>224</ele>
        <time>2012-11-04T08:00:08Z</time>
      </trkpt>
      <trkpt lat="45.58845" lon="5.63832">
        <ele>224</ele>
        <time>2012-11-04T08:00:10Z</time>
      </trkpt>
      <trkpt lat="45.58849" lon="5.63829">
        <ele>224</ele>
        <time>2012-11-04T08:00:11Z</time>
      </trkpt>
      <trkpt lat="45.58853" lon="5.63825">
        <ele>224</ele>
        <time>2012-11-04T08:00:12Z</time>
      </trkpt>
      <trkpt lat="45.58858" lon="5.63822">
        <ele>224</ele>
        <time>2012-11-04T08:00:12Z</time>
      </trkpt>
      <trkpt lat="45.58862" lon="5.63818">
        <ele>224</ele>
        <time>2012-11-04T08:00:13Z</time>
      </trkpt>
      <trkpt lat="45.58869" lon="5.63812">
        <ele>224</ele>
        <time>2012-11-04T08:00:16Z</time>
      </trkpt>
      <trkpt lat="45.58876" lon="5.63808">
        <ele>225</ele>
        <time>2012-11-04T08:00:17Z</time>
      </trkpt>
      <trkpt lat="45.58882" lon="5.63804">
        <ele>225</ele>
        <time>2012-11-04T08:00:19Z</time>
      </trkpt>
      <trkpt lat="45.58895" lon="5.63793">
        <ele>225</ele>
        <time>2012-11-04T08:00:19Z</time>
      </trkpt>
      <trkpt lat="45.58901" lon="5.63789">
        <ele>225</ele>
        <time>2012-11-04T08:00:21Z</time>
      </trkpt>
      <trkpt lat="45.58906" lon="5.63787">
        <ele>225</ele>
        <time>2012-11-04T08:00:22Z</time>
      </trkpt>
      <trkpt lat="45.58909" lon="5.63783">
        <ele>226</ele>
        <time>2012-11-04T08:00:23Z</time>
      </trkpt>
      <trkpt lat="45.58913" lon="5.6378">
        <ele>226</ele>
        <time>2012-11-04T08:00:23Z</time>
      </trkpt>
      <trkpt lat="45.5892" lon="5.63773">
        <ele>227</ele>
        <time>2012-11-04T08:00:25Z</time>
      </trkpt>
      <trkpt lat="45.58927" lon="5.63767">
        <ele>228</ele>
        <time>2012-11-04T08:00:28Z</time>
      </trkpt>
      <trkpt lat="45.58936" lon="5.63758">
        <ele>229</ele>
        <time>2012-11-04T08:00:30Z</time>
      </trkpt>
      <trkpt lat="45.58941" lon="5.63753">
        <ele>230</ele>
        <time>2012-11-04T08:00:31Z</time>
      </trkpt>
      <trkpt lat="45.58945" lon="5.63749">
        <ele>230</ele>
        <time>2012-11-04T08:00:32Z</time>
      </trkpt>
      <trkpt lat="45.58951" lon="5.63743">
        <ele>230</ele>
        <time>2012-11-04T08:00:33Z</time>
      </trkpt>
      <trkpt lat="45.58955" lon="5.6374">
        <ele>230</ele>
        <time>2012-11-04T08:00:34Z</time>
      </trkpt>
      <trkpt lat="45.58963" lon="5.63737">
        <ele>231</ele>
        <time>2012-11-04T08:00:37Z</time>
      </trkpt>
      <trkpt lat="45.58967" lon="5.63732">
        <ele>231</ele>
        <time>2012-11-04T08:00:38Z</time>
      </trkpt>
      <trkpt lat="45.58976" lon="5.63724">
        <ele>232</ele>
        <time>2012-11-04T08:00:39Z</time>
      </trkpt>
      <trkpt lat="45.58984" lon="5.63717">
        <ele>232</ele>
        <time>2012-11-04T08:00:42Z</time>
      </trkpt>
      <trkpt lat="45.58992" lon="5.63712">
        <ele>233</ele>
        <time>2012-11-04T08:00:44Z</time>
      </trkpt>
      <trkpt lat="45.59" lon="5.63708">
        <ele>234</ele>
        <time>2012-11-04T08:00:46Z</time>
      </trkpt>
      <trkpt lat="45.59005" lon="5.63706">
        <ele>234</ele>
        <time>2012-11-04T08:00:46Z</time>
      </trkpt>
      <trkpt lat="45.59009" lon="5.63703">
        <ele>234</ele>
        <time>2012-11-04T08:00:47Z</time>
      </trkpt>
      <trkpt lat="45.59014" lon="5.63701">
        <ele>233</ele>
        <time>2012-11-04T08:00:49Z</time>
      </trkpt>
      <trkpt lat="45.59019" lon="5.63697">
        <ele>233</ele>
        <time>2012-11-04T08:00:50Z</time>
      </trkpt>
      <trkpt lat="45.59027" lon="5.63691">
        <ele>233</ele>
        <time>2012-11-04T08:00:51Z</time>
      </trkpt>
      <trkpt lat="45.59031" lon="5.63687">
        <ele>233</ele>
        <time>2012-11-04T08:00:52Z</time>
      </trkpt>
      <trkpt lat="45.59034" lon="5.63683">
        <ele>233</ele>
        <time>2012-11-04T08:00:54Z</time>
      </trkpt>
      <trkpt lat="45.59042" lon="5.63677">
        <ele>233</ele>
        <time>2012-11-04T08:00:56Z</time>
      </trkpt>
      <trkpt lat="45.59046" lon="5.63674">
        <ele>233</ele>
        <time>2012-11-04T08:00:57Z</time>
      </trkpt>
      <trkpt lat="45.59054" lon="5.63667">
        <ele>232</ele>
        <time>2012-11-04T08:00:59Z</time>
      </trkpt>
      <trkpt lat="45.59062" lon="5.6366">
        <ele>232</ele>
        <time>2012-11-04T08:01:00Z</time>
      </trkpt>
      <trkpt lat="45.59069" lon="5.63656">
        <ele>232</ele>
        <time>2012-11-04T08:01:03Z</time>
      </trkpt>
      <trkpt lat="45.59076" lon="5.63652">
        <ele>231</ele>
        <time>2012-11-04T08:01:05Z</time>
      </trkpt>
      <trkpt lat="45.59083" lon="5.63647">
        <ele>231</ele>
        <time>2012-11-04T08:01:07Z</time>
      </trkpt>
      <trkpt lat="45.5909" lon="5.63642">
        <ele>231</ele>
        <time>2012-11-04T08:01:09Z</time>
      </trkpt>
      <trkpt lat="45.59096" lon="5.63636">
        <ele>230</ele>
        <time>2012-11-04T08:01:11Z</time>
      </trkpt>
      <trkpt lat="45.59104" lon="5.6363">
        <ele>230</ele>
        <time>2012-11-04T08:01:13Z</time>
      </trkpt>
      <trkpt lat="45.59108" lon="5.63627">
        <ele>230</ele>
        <time>2012-11-04T08:01:14Z</time>
      </trkpt>
      <trkpt lat="45.59113" lon="5.63623">
        <ele>230</ele>
        <time>2012-11-04T08:01:15Z</time>
      </trkpt>
      <trkpt lat="45.59118" lon="5.63619">
        <ele>229</ele>
        <time>2012-11-04T08:01:15Z</time>
      </trkpt>
      <trkpt lat="45.59123" lon="5.63615">
        <ele>229</ele>
        <time>2012-11-04T08:01:17Z</time>
      </trkpt>
      <trkpt lat="45.59127" lon="5.63611">
        <ele>229</ele>
        <time>2012-11-04T08:01:18Z</time>
      </trkpt>
      <trkpt lat="45.59131" lon="5.63607">
        <ele>229</ele>
        <time>2012-11-04T08:01:19Z</time>
      </trkpt>
      <trkpt lat="45.59139" lon="5.636">
        <ele>229</ele>
        <time>2012-11-04T08:01:21Z</time>
      </trkpt>
      <trkpt lat="45.59153" lon="5.63589">
        <ele>229</ele>
        <time>2012-11-04T08:01:22Z</time>
      </trkpt>
      <trkpt lat="45.59158" lon="5.63583">
        <ele>229</ele>
        <time>2012-11-04T08:01:23Z</time>
      </trkpt>
      <trkpt lat="45.59165" lon="5.63581">
        <ele>229</ele>
        <time>2012-11-04T08:01:23Z</time>
      </trkpt>
      <trkpt lat="45.59176" lon="5.63577">
        <ele>229</ele>
        <time>2012-11-04T08:01:26Z</time>
      </trkpt>
      <trkpt lat="45.59184" lon="5.63574">
        <ele>229</ele>
        <time>2012-11-04T08:01:27Z</time>
      </trkpt>
      <trkpt lat="45.59188" lon="5.63571">
        <ele>229</ele>
        <time>2012-11-04T08:01:29Z</time>
      </trkpt>
      <trkpt lat="45.59192" lon="5.63567">
        <ele>229</ele>
        <time>2012-11-04T08:01:30Z</time>
      </trkpt>
      <trkpt lat="45.59198" lon="5.63565">
        <ele>229</ele>
        <time>2012-11-04T08:01:31Z</time>
      </trkpt>
      <trkpt lat="45.59203" lon="5.63561">
        <ele>229</ele>
        <time>2012-11-04T08:01:31Z</time>
      </trkpt>
      <trkpt lat="45.59208" lon="5.63558">
        <ele>229</ele>
        <time>2012-11-04T08:01:32Z</time>
      </trkpt>
      <trkpt lat="45.59213" lon="5.63555">
        <ele>229</ele>
        <time>2012-11-04T08:01:33Z</time>
      </trkpt>
      <trkpt lat="45.5922" lon="5.63549">
        <ele>229</ele>
        <time>2012-11-04T08:01:35Z</time>
      </trkpt>
      <trkpt lat="45.59224" lon="5.63545">
        <ele>229</ele>
        <time>2012-11-04T08:01:36Z</time>
      </trkpt>
      <trkpt lat="45.59229" lon="5.63539">
        <ele>228</ele>
        <time>2012-11-04T08:01:36Z</time>
      </trkpt>
      <trkpt lat="45.59233" lon="5.63532">
        <ele>227</ele>
        <time>2012-11-04T08:01:38Z</time>
      </trkpt>
      <trkpt lat="45.59239" lon="5.63528">
        <ele>226</ele>
        <time>2012-11-04T08:01:40Z</time>
      </trkpt>
      <trkpt lat="45.59246" lon="5.63522">
        <ele>226</ele>
        <time>2012-11-04T08:01:42Z</time>
      </trkpt>
      <trkpt lat="45.5925" lon="5.63519">
        <ele>225</ele>
        <time>2012-11-04T08:01:43Z</time>
      </trkpt>
      <trkpt lat="45.59254" lon="5.63512">
        <ele>225</ele>
        <time>2012-11-04T08:01:43Z</time>
      </trkpt>
      <trkpt lat="45.59258" lon="5.63509">
        <ele>225</ele>
        <time>2012-11-04T08:01:45Z</time>
      </trkpt>
      <trkpt lat="45.59265" lon="5.63504">
        <ele>225</ele>
        <time>2012-11-04T08:01:47Z</time>
      </trkpt>
      <trkpt lat="45.59273" lon="5.63498">
        <ele>225</ele>
        <time>2012-11-04T08:01:49Z</time>
      </trkpt>
      <trkpt lat="45.5928" lon="5.63492">
        <ele>225</ele>
        <time>2012-11-04T08:01:51Z</time>
      </trkpt>
      <trkpt lat="45.59287" lon="5.63486">
        <ele>226</ele>
        <time>2012-11-04T08:01:53Z</time>
      </trkpt>
      <trkpt lat="45.59294" lon="5.63482">
        <ele>226</ele>
        <time>2012-11-04T08:01:55Z</time>
      </trkpt>
      <trkpt lat="45.59301" lon="5.6348">
        <ele>227</ele>
        <time>2012-11-04T08:01:57Z</time>
      </trkpt>
      <trkpt lat="45.59309" lon="5.63479">
        <ele>227</ele>
        <time>2012-11-04T08:01:59Z</time>
      </trkpt>
      <trkpt lat="45.59316" lon="5.63476">
        <ele>227</ele>
        <time>2012-11-04T08:02:00Z</time>
      </trkpt>
      <trkpt lat="45.59325" lon="5.63471">
        <ele>227</ele>
        <time>2012-11-04T08:02:03Z</time>
      </trkpt>
      <trkpt lat="45.5933" lon="5.63468">
        <ele>227</ele>
        <time>2012-11-04T08:02:04Z</time>
      </trkpt>
      <trkpt lat="45.59334" lon="5.63465">
        <ele>227</ele>
        <time>2012-11-04T08:02:05Z</time>
      </trkpt>
      <trkpt lat="45.59339" lon="5.63462">
        <ele>227</ele>
        <time>2012-11-04T08:02:06Z</time>
      </trkpt>
      <trkpt lat="45.59343" lon="5.63459">
        <ele>227</ele>
        <time>2012-11-04T08:02:07Z</time>
      </trkpt>
      <trkpt lat="45.59347" lon="5.63456">
        <ele>227</ele>
        <time>2012-11-04T08:02:08Z</time>
      </trkpt>
      <trkpt lat="45.59352" lon="5.63452">
        <ele>228</ele>
        <time>2012-11-04T08:02:09Z</time>
      </trkpt>
      <trkpt lat="45.59356" lon="5.63447">
        <ele>228</ele>
        <time>2012-11-04T08:02:10Z</time>
      </trkpt>
      <trkpt lat="45.59361" lon="5.63443">
        <ele>228</ele>
        <time>2012-11-04T08:02:11Z</time>
      </trkpt>
      <trkpt lat="45.59374" lon="5.6343">
        <ele>228</ele>
        <time>2012-11-04T08:02:11Z</time>
      </trkpt>
      <trkpt lat="45.59378" lon="5.63427">
        <ele>229</ele>
        <time>2012-11-04T08:02:13Z</time>
      </trkpt>
      <trkpt lat="45.59384" lon="5.63421">
        <ele>229</ele>
        <time>2012-11-04T08:02:14Z</time>
      </trkpt>
      <trkpt lat="45.59389" lon="5.63417">
        <ele>230</ele>
        <time>2012-11-04T08:02:15Z</time>
      </trkpt>
      <trkpt lat="45.59396" lon="5.63413">
        <ele>230</ele>
        <time>2012-11-04T08:02:16Z</time>
      </trkpt>
      <trkpt lat="45.59403" lon="5.63409">
        <ele>229</ele>
        <time>2012-11-04T08:02:17Z</time>
      </trkpt>
      <trkpt lat="45.59407" lon="5.63406">
        <ele>229</ele>
        <time>2012-11-04T08:02:18Z</time>
      </trkpt>
      <trkpt lat="45.59411" lon="5.63401">
        <ele>229</ele>
        <time>2012-11-04T08:02:19Z</time>
      </trkpt>
      <trkpt lat="45.59416" lon="5.63396">
        <ele>229</ele>
        <time>2012-11-04T08:02:20Z</time>
      </trkpt>
      <trkpt lat="45.59421" lon="5.63392">
        <ele>229</ele>
        <time>2012-11-04T08:02:21Z</time>
      </trkpt>
      <trkpt lat="45.59426" lon="5.63388">
        <ele>228</ele>
        <time>2012-11-04T08:02:22Z</time>
      </trkpt>
      <trkpt lat="45.59432" lon="5.63383">
        <ele>228</ele>
        <time>2012-11-04T08:02:22Z</time>
      </trkpt>
      <trkpt lat="45.59436" lon="5.63377">
        <ele>228</ele>
        <time>2012-11-04T08:02:23Z</time>
      </trkpt>
      <trkpt lat="45.59443" lon="5.63372">
        <ele>227</ele>
        <time>2012-11-04T08:02:25Z</time>
      </trkpt>
      <trkpt lat="45.5945" lon="5.63366">
        <ele>228</ele>
        <time>2012-11-04T08:02:27Z</time>
      </trkpt>
      <trkpt lat="45.59457" lon="5.6336">
        <ele>228</ele>
        <time>2012-11-04T08:02:29Z</time>
      </trkpt>
      <trkpt lat="45.59465" lon="5.63352">
        <ele>228</ele>
        <time>2012-11-04T08:02:31Z</time>
      </trkpt>
      <trkpt lat="45.59474" lon="5.63345">
        <ele>228</ele>
        <time>2012-11-04T08:02:33Z</time>
      </trkpt>
      <trkpt lat="45.59479" lon="5.63341">
        <ele>228</ele>
        <time>2012-11-04T08:02:34Z</time>
      </trkpt>
      <trkpt lat="45.59486" lon="5.63339">
        <ele>227</ele>
        <time>2012-11-04T08:02:36Z</time>
      </trkpt>
      <trkpt lat="45.5949" lon="5.63335">
        <ele>227</ele>
        <time>2012-11-04T08:02:37Z</time>
      </trkpt>
      <trkpt lat="45.59497" lon="5.63328">
        <ele>227</ele>
        <time>2012-11-04T08:02:38Z</time>
      </trkpt>
      <trkpt lat="45.59502" lon="5.63323">
        <ele>227</ele>
        <time>2012-11-04T08:02:39Z</time>
      </trkpt>
      <trkpt lat="45.59507" lon="5.6332">
        <ele>226</ele>
        <time>2012-11-04T08:02:40Z</time>
      </trkpt>
      <trkpt lat="45.59512" lon="5.63317">
        <ele>226</ele>
        <time>2012-11-04T08:02:41Z</time>
      </trkpt>
      <trkpt lat="45.59517" lon="5.63313">
        <ele>225</ele>
        <time>2012-11-04T08:02:42Z</time>
      </trkpt>
      <trkpt lat="45.59525" lon="5.63308">
        <ele>225</ele>
        <time>2012-11-04T08:02:44Z</time>
      </trkpt>
      <trkpt lat="45.59533" lon="5.63303">
        <ele>225</ele>
        <time>2012-11-04T08:02:45Z</time>
      </trkpt>
      <trkpt lat="45.59541" lon="5.63298">
        <ele>225</ele>
        <time>2012-11-04T08:02:48Z</time>
      </trkpt>
      <trkpt lat="45.59548" lon="5.63294">
        <ele>225</ele>
        <time>2012-11-04T08:02:50Z</time>
      </trkpt>
      <trkpt lat="45.59553" lon="5.63292">
        <ele>225</ele>
        <time>2012-11-04T08:02:51Z</time>
      </trkpt>
      <trkpt lat="45.59561" lon="5.63288">
        <ele>226</ele>
        <time>2012-11-04T08:02:52Z</time>
      </trkpt>
      <trkpt lat="45.59565" lon="5.63286">
        <ele>227</ele>
        <time>2012-11-04T08:02:54Z</time>
      </trkpt>
      <trkpt lat="45.59569" lon="5.63283">
        <ele>227</ele>
        <time>2012-11-04T08:02:55Z</time>
      </trkpt>
      <trkpt lat="45.59573" lon="5.63279">
        <ele>227</ele>
        <time>2012-11-04T08:02:56Z</time>
      </trkpt>
      <trkpt lat="45.59582" lon="5.63269">
        <ele>228</ele>
        <time>2012-11-04T08:02:56Z</time>
      </trkpt>
      <trkpt lat="45.59586" lon="5.63267">
        <ele>228</ele>
        <time>2012-11-04T08:02:57Z</time>
      </trkpt>
      <trkpt lat="45.59591" lon="5.63264">
        <ele>228</ele>
        <time>2012-11-04T08:02:58Z</time>
      </trkpt>
      <trkpt lat="45.596" lon="5.63255">
        <ele>228</ele>
        <time>2012-11-04T08:03:00Z</time>
      </trkpt>
      <trkpt lat="45.59608" lon="5.63248">
        <ele>227</ele>
        <time>2012-11-04T08:03:03Z</time>
      </trkpt>
      <trkpt lat="45.59614" lon="5.63241">
        <ele>226</ele>
        <time>2012-11-04T08:03:04Z</time>
      </trkpt>
      <trkpt lat="45.59618" lon="5.63235">
        <ele>226</ele>
        <time>2012-11-04T08:03:05Z</time>
      </trkpt>
      <trkpt lat="45.59622" lon="5.63231">
        <ele>225</ele>
        <time>2012-11-04T08:03:06Z</time>
      </trkpt>
      <trkpt lat="45.59626" lon="5.63228">
        <ele>225</ele>
        <time>2012-11-04T08:03:07Z</time>
      </trkpt>
      <trkpt lat="45.5963" lon="5.63225">
        <ele>225</ele>
        <time>2012-11-04T08:03:08Z</time>
      </trkpt>
      <trkpt lat="45.59635" lon="5.63221">
        <ele>225</ele>
        <time>2012-11-04T08:03:09Z</time>
      </trkpt>
      <trkpt lat="45.59646" lon="5.63211">
        <ele>224</ele>
        <time>2012-11-04T08:03:11Z</time>
      </trkpt>
      <trkpt lat="45.59652" lon="5.63209">
        <ele>225</ele>
        <time>2012-11-04T08:03:12Z</time>
      </trkpt>
      <trkpt lat="45.59656" lon="5.63206">
        <ele>225</ele>
        <time>2012-11-04T08:03:13Z</time>
      </trkpt>
      <trkpt lat="45.59661" lon="5.632">
        <ele>225</ele>
        <time>2012-11-04T08:03:14Z</time>
      </trkpt>
      <trkpt lat="45.59667" lon="5.63197">
        <ele>225</ele>
        <time>2012-11-04T08:03:15Z</time>
      </trkpt>
      <trkpt lat="45.59671" lon="5.63194">
        <ele>224</ele>
        <time>2012-11-04T08:03:15Z</time>
      </trkpt>
      <trkpt lat="45.59679" lon="5.63188">
        <ele>224</ele>
        <time>2012-11-04T08:03:18Z</time>
      </trkpt>
      <trkpt lat="45.59684" lon="5.63184">
        <ele>224</ele>
        <time>2012-11-04T08:03:19Z</time>
      </trkpt>
      <trkpt lat="45.59692" lon="5.63177">
        <ele>223</ele>
        <time>2012-11-04T08:03:21Z</time>
      </trkpt>
      <trkpt lat="45.59696" lon="5.63173">
        <ele>223</ele>
        <time>2012-11-04T08:03:22Z</time>
      </trkpt>
      <trkpt lat="45.59699" lon="5.63165">
        <ele>223</ele>
        <time>2012-11-04T08:03:23Z</time>
      </trkpt>
      <trkpt lat="45.59704" lon="5.63161">
        <ele>222</ele>
        <time>2012-11-04T08:03:23Z</time>
      </trkpt>
      <trkpt lat="45.5971" lon="5.63159">
        <ele>222</ele>
        <time>2012-11-04T08:03:25Z</time>
      </trkpt>
      <trkpt lat="45.59714" lon="5.63155">
        <ele>222</ele>
        <time>2012-11-04T08:03:26Z</time>
      </trkpt>
      <trkpt lat="45.59719" lon="5.63148">
        <ele>221</ele>
        <time>2012-11-04T08:03:27Z</time>
      </trkpt>
      <trkpt lat="45.59722" lon="5.63142">
        <ele>220</ele>
        <time>2012-11-04T08:03:27Z</time>
      </trkpt>
      <trkpt lat="45.5973" lon="5.63135">
        <ele>219</ele>
        <time>2012-11-04T08:03:30Z</time>
      </trkpt>
      <trkpt lat="45.59738" lon="5.6313">
        <ele>219</ele>
        <time>2012-11-04T08:03:31Z</time>
      </trkpt>
      <trkpt lat="45.59743" lon="5.63127">
        <ele>218</ele>
        <time>2012-11-04T08:03:33Z</time>
      </trkpt>
      <trkpt lat="45.59747" lon="5.63123">
        <ele>218</ele>
        <time>2012-11-04T08:03:34Z</time>
      </trkpt>
      <trkpt lat="45.59754" lon="5.63119">
        <ele>218</ele>
        <time>2012-11-04T08:03:36Z</time>
      </trkpt>
      <trkpt lat="45.59758" lon="5.63115">
        <ele>218</ele>
        <time>2012-11-04T08:03:37Z</time>
      </trkpt>
      <trkpt lat="45.59766" lon="5.6311">
        <ele>218</ele>
        <time>2012-11-04T08:03:39Z</time>
      </trkpt>
      <trkpt lat="45.5977" lon="5.63106">
        <ele>219</ele>
        <time>2012-11-04T08:03:40Z</time>
      </trkpt>
      <trkpt lat="45.59777" lon="5.631">
        <ele>219</ele>
        <time>2012-11-04T08:03:42Z</time>
      </trkpt>
      <trkpt lat="45.59784" lon="5.63094">
        <ele>219</ele>
        <time>2012-11-04T08:03:43Z</time>
      </trkpt>
      <trkpt lat="45.59788" lon="5.63088">
        <ele>220</ele>
        <time>2012-11-04T08:03:46Z</time>
      </trkpt>
      <trkpt lat="45.5979" lon="5.63083">
        <ele>221</ele>
        <time>2012-11-04T08:03:47Z</time>
      </trkpt>
      <trkpt lat="45.59789" lon="5.63073">
        <ele>220</ele>
        <time>2012-11-04T08:03:51Z</time>
      </trkpt>
      <trkpt lat="45.59788" lon="5.63066">
        <ele>219</ele>
        <time>2012-11-04T08:03:53Z</time>
      </trkpt>
      <trkpt lat="45.59789" lon="5.63057">
        <ele>218</ele>
        <time>2012-11-04T08:03:55Z</time>
      </trkpt>
      <trkpt lat="45.59792" lon="5.63049">
        <ele>217</ele>
        <time>2012-11-04T08:03:56Z</time>
      </trkpt>
      <trkpt lat="45.59797" lon="5.6304">
        <ele>217</ele>
        <time>2012-11-04T08:03:59Z</time>
      </trkpt>
      <trkpt lat="45.59803" lon="5.63024">
        <ele>217</ele>
        <time>2012-11-04T08:04:00Z</time>
      </trkpt>
      <trkpt lat="45.59805" lon="5.63017">
        <ele>217</ele>
        <time>2012-11-04T08:04:01Z</time>
      </trkpt>
      <trkpt lat="45.59809" lon="5.63009">
        <ele>217</ele>
        <time>2012-11-04T08:04:02Z</time>
      </trkpt>
      <trkpt lat="45.59812" lon="5.63001">
        <ele>217</ele>
        <time>2012-11-04T08:04:03Z</time>
      </trkpt>
      <trkpt lat="45.59812" lon="5.62992">
        <ele>217</ele>
        <time>2012-11-04T08:04:03Z</time>
      </trkpt>
      <trkpt lat="45.59814" lon="5.62985">
        <ele>217</ele>
        <time>2012-11-04T08:04:05Z</time>
      </trkpt>
      <trkpt lat="45.59809" lon="5.62977">
        <ele>217</ele>
        <time>2012-11-04T08:04:06Z</time>
      </trkpt>
      <trkpt lat="45.59807" lon="5.6297">
        <ele>217</ele>
        <time>2012-11-04T08:04:08Z</time>
      </trkpt>
      <trkpt lat="45.59809" lon="5.62958">
        <ele>217</ele>
        <time>2012-11-04T08:04:10Z</time>
      </trkpt>
      <trkpt lat="45.5981" lon="5.62948">
        <ele>218</ele>
        <time>2012-11-04T08:04:11Z</time>
      </trkpt>
      <trkpt lat="45.59813" lon="5.62937">
        <ele>218</ele>
        <time>2012-11-04T08:04:14Z</time>
      </trkpt>
      <trkpt lat="45.59816" lon="5.62929">
        <ele>218</ele>
        <time>2012-11-04T08:04:15Z</time>
      </trkpt>
      <trkpt lat="45.59821" lon="5.62926">
        <ele>218</ele>
        <time>2012-11-04T08:04:16Z</time>
      </trkpt>
      <trkpt lat="45.59826" lon="5.62916">
        <ele>218</ele>
        <time>2012-11-04T08:04:18Z</time>
      </trkpt>
      <trkpt lat="45.59828" lon="5.6291">
        <ele>218</ele>
        <time>2012-11-04T08:04:19Z</time>
      </trkpt>
      <trkpt lat="45.5983" lon="5.62904">
        <ele>219</ele>
        <time>2012-11-04T08:04:20Z</time>
      </trkpt>
      <trkpt lat="45.5983" lon="5.62897">
        <ele>219</ele>
        <time>2012-11-04T08:04:21Z</time>
      </trkpt>
      <trkpt lat="45.59832" lon="5.62885">
        <ele>219</ele>
        <time>2012-11-04T08:04:23Z</time>
      </trkpt>
      <trkpt lat="45.59834" lon="5.62874">
        <ele>219</ele>
        <time>2012-11-04T08:04:24Z</time>
      </trkpt>
      <trkpt lat="45.59837" lon="5.62865">
        <ele>220</ele>
        <time>2012-11-04T08:04:27Z</time>
      </trkpt>
      <trkpt lat="45.5984" lon="5.62855">
        <ele>219</ele>
        <time>2012-11-04T08:04:29Z</time>
      </trkpt>
      <trkpt lat="45.59843" lon="5.62851">
        <ele>219</ele>
        <time>2012-11-04T08:04:31Z</time>
      </trkpt>
      <trkpt lat="45.59849" lon="5.62851">
        <ele>218</ele>
        <time>2012-11-04T08:04:33Z</time>
      </trkpt>
      <trkpt lat="45.59856" lon="5.62854">
        <ele>216</ele>
        <time>2012-11-04T08:04:34Z</time>
      </trkpt>
      <trkpt lat="45.59863" lon="5.62856">
        <ele>214</ele>
        <time>2012-11-04T08:04:37Z</time>
      </trkpt>
      <trkpt lat="45.59869" lon="5.62857">
        <ele>213</ele>
        <time>2012-11-04T08:04:38Z</time>
      </trkpt>
      <trkpt lat="45.59875" lon="5.62858">
        <ele>213</ele>
        <time>2012-11-04T08:04:41Z</time>
      </trkpt>
      <trkpt lat="45.59882" lon="5.62859">
        <ele>213</ele>
        <time>2012-11-04T08:04:43Z</time>
      </trkpt>
      <trkpt lat="45.59889" lon="5.62859">
        <ele>213</ele>
        <time>2012-11-04T08:04:45Z</time>
      </trkpt>
      <trkpt lat="45.59894" lon="5.6286">
        <ele>214</ele>
        <time>2012-11-04T08:04:47Z</time>
      </trkpt>
      <trkpt lat="45.599" lon="5.62858">
        <ele>216</ele>
        <time>2012-11-04T08:04:50Z</time>
      </trkpt>
      <trkpt lat="45.59913" lon="5.6284">
        <ele>224</ele>
        <time>2012-11-04T08:04:55Z</time>
      </trkpt>
      <trkpt lat="45.59918" lon="5.62836">
        <ele>225</ele>
        <time>2012-11-04T08:04:58Z</time>
      </trkpt>
      <trkpt lat="45.59924" lon="5.62831">
        <ele>225</ele>
        <time>2012-11-04T08:04:59Z</time>
      </trkpt>
      <trkpt lat="45.59929" lon="5.62824">
        <ele>225</ele>
        <time>2012-11-04T08:05:02Z</time>
      </trkpt>
      <trkpt lat="45.59933" lon="5.62815">
        <ele>225</ele>
        <time>2012-11-04T08:05:04Z</time>
      </trkpt>
      <trkpt lat="45.59937" lon="5.62806">
        <ele>224</ele>
        <time>2012-11-04T08:05:06Z</time>
      </trkpt>
      <trkpt lat="45.59941" lon="5.62798">
        <ele>223</ele>
        <time>2012-11-04T08:05:07Z</time>
      </trkpt>
      <trkpt lat="45.59947" lon="5.62789">
        <ele>223</ele>
        <time>2012-11-04T08:05:09Z</time>
      </trkpt>
      <trkpt lat="45.59953" lon="5.62781">
        <ele>223</ele>
        <time>2012-11-04T08:05:12Z</time>
      </trkpt>
      <trkpt lat="45.59957" lon="5.62772">
        <ele>222</ele>
        <time>2012-11-04T08:05:14Z</time>
      </trkpt>
      <trkpt lat="45.59963" lon="5.62764">
        <ele>223</ele>
        <time>2012-11-04T08:05:16Z</time>
      </trkpt>
      <trkpt lat="45.5997" lon="5.62755">
        <ele>223</ele>
        <time>2012-11-04T08:05:18Z</time>
      </trkpt>
      <trkpt lat="45.59973" lon="5.6275">
        <ele>224</ele>
        <time>2012-11-04T08:05:19Z</time>
      </trkpt>
      <trkpt lat="45.59977" lon="5.62744">
        <ele>224</ele>
        <time>2012-11-04T08:05:20Z</time>
      </trkpt>
      <trkpt lat="45.59986" lon="5.62729">
        <ele>225</ele>
        <time>2012-11-04T08:05:21Z</time>
      </trkpt>
      <trkpt lat="45.59989" lon="5.62723">
        <ele>225</ele>
        <time>2012-11-04T08:05:23Z</time>
      </trkpt>
      <trkpt lat="45.59993" lon="5.62717">
        <ele>225</ele>
        <time>2012-11-04T08:05:24Z</time>
      </trkpt>
      <trkpt lat="45.59998" lon="5.62711">
        <ele>225</ele>
        <time>2012-11-04T08:05:26Z</time>
      </trkpt>
      <trkpt lat="45.60001" lon="5.62702">
        <ele>225</ele>
        <time>2012-11-04T08:05:26Z</time>
      </trkpt>
      <trkpt lat="45.60005" lon="5.62691">
        <ele>224</ele>
        <time>2012-11-04T08:05:29Z</time>
      </trkpt>
      <trkpt lat="45.60007" lon="5.62685">
        <ele>223</ele>
        <time>2012-11-04T08:05:30Z</time>
      </trkpt>
      <trkpt lat="45.60011" lon="5.62679">
        <ele>222</ele>
        <time>2012-11-04T08:05:31Z</time>
      </trkpt>
      <trkpt lat="45.60016" lon="5.62668">
        <ele>222</ele>
        <time>2012-11-04T08:05:33Z</time>
      </trkpt>
      <trkpt lat="45.60019" lon="5.62663">
        <ele>222</ele>
        <time>2012-11-04T08:05:34Z</time>
      </trkpt>
      <trkpt lat="45.60022" lon="5.62658">
        <ele>222</ele>
        <time>2012-11-04T08:05:35Z</time>
      </trkpt>
      <trkpt lat="45.60026" lon="5.62653">
        <ele>222</ele>
        <time>2012-11-04T08:05:36Z</time>
      </trkpt>
      <trkpt lat="45.60029" lon="5.62648">
        <ele>222</ele>
        <time>2012-11-04T08:05:37Z</time>
      </trkpt>
      <trkpt lat="45.60032" lon="5.62643">
        <ele>223</ele>
        <time>2012-11-04T08:05:38Z</time>
      </trkpt>
      <trkpt lat="45.60037" lon="5.62635">
        <ele>223</ele>
        <time>2012-11-04T08:05:40Z</time>
      </trkpt>
      <trkpt lat="45.60043" lon="5.62626">
        <ele>223</ele>
        <time>2012-11-04T08:05:42Z</time>
      </trkpt>
      <trkpt lat="45.60047" lon="5.62617">
        <ele>224</ele>
        <time>2012-11-04T08:05:43Z</time>
      </trkpt>
      <trkpt lat="45.60051" lon="5.62606">
        <ele>222</ele>
        <time>2012-11-04T08:05:46Z</time>
      </trkpt>
      <trkpt lat="45.60054" lon="5.62594">
        <ele>220</ele>
        <time>2012-11-04T08:05:48Z</time>
      </trkpt>
      <trkpt lat="45.60059" lon="5.62584">
        <ele>220</ele>
        <time>2012-11-04T08:05:50Z</time>
      </trkpt>
      <trkpt lat="45.60064" lon="5.62575">
        <ele>220</ele>
        <time>2012-11-04T08:05:51Z</time>
      </trkpt>
      <trkpt lat="45.6007" lon="5.62567">
        <ele>220</ele>
        <time>2012-11-04T08:05:53Z</time>
      </trkpt>
      <trkpt lat="45.60073" lon="5.62562">
        <ele>220</ele>
        <time>2012-11-04T08:05:54Z</time>
      </trkpt>
      <trkpt lat="45.60076" lon="5.62556">
        <ele>219</ele>
        <time>2012-11-04T08:05:55Z</time>
      </trkpt>
      <trkpt lat="45.60082" lon="5.62547">
        <ele>219</ele>
        <time>2012-11-04T08:05:57Z</time>
      </trkpt>
      <trkpt lat="45.60086" lon="5.62538">
        <ele>219</ele>
        <time>2012-11-04T08:05:58Z</time>
      </trkpt>
      <trkpt lat="45.6009" lon="5.62532">
        <ele>219</ele>
        <time>2012-11-04T08:05:59Z</time>
      </trkpt>
      <trkpt lat="45.60094" lon="5.62527">
        <ele>219</ele>
        <time>2012-11-04T08:06:01Z</time>
      </trkpt>
      <trkpt lat="45.60096" lon="5.6252">
        <ele>219</ele>
        <time>2012-11-04T08:06:02Z</time>
      </trkpt>
      <trkpt lat="45.60101" lon="5.6251">
        <ele>220</ele>
        <time>2012-11-04T08:06:04Z</time>
      </trkpt>
      <trkpt lat="45.60107" lon="5.625">
        <ele>220</ele>
        <time>2012-11-04T08:06:06Z</time>
      </trkpt>
      <trkpt lat="45.60112" lon="5.62491">
        <ele>220</ele>
        <time>2012-11-04T08:06:08Z</time>
      </trkpt>
      <trkpt lat="45.60118" lon="5.62482">
        <ele>221</ele>
        <time>2012-11-04T08:06:10Z</time>
      </trkpt>
      <trkpt lat="45.60123" lon="5.62472">
        <ele>222</ele>
        <time>2012-11-04T08:06:12Z</time>
      </trkpt>
      <trkpt lat="45.60129" lon="5.62463">
        <ele>223</ele>
        <time>2012-11-04T08:06:14Z</time>
      </trkpt>
      <trkpt lat="45.60135" lon="5.62455">
        <ele>224</ele>
        <time>2012-11-04T08:06:16Z</time>
      </trkpt>
      <trkpt lat="45.60141" lon="5.62447">
        <ele>224</ele>
        <time>2012-11-04T08:06:18Z</time>
      </trkpt>
      <trkpt lat="45.60145" lon="5.62442">
        <ele>225</ele>
        <time>2012-11-04T08:06:19Z</time>
      </trkpt>
      <trkpt lat="45.60154" lon="5.62432">
        <ele>225</ele>
        <time>2012-11-04T08:06:21Z</time>
      </trkpt>
      <trkpt lat="45.6016" lon="5.62425">
        <ele>225</ele>
        <time>2012-11-04T08:06:23Z</time>
      </trkpt>
      <trkpt lat="45.60168" lon="5.62414">
        <ele>225</ele>
        <time>2012-11-04T08:06:25Z</time>
      </trkpt>
      <trkpt lat="45.60176" lon="5.62407">
        <ele>226</ele>
        <time>2012-11-04T08:06:27Z</time>
      </trkpt>
      <trkpt lat="45.60179" lon="5.62403">
        <ele>226</ele>
        <time>2012-11-04T08:06:28Z</time>
      </trkpt>
      <trkpt lat="45.60186" lon="5.62395">
        <ele>227</ele>
        <time>2012-11-04T08:06:30Z</time>
      </trkpt>
      <trkpt lat="45.60191" lon="5.6239">
        <ele>227</ele>
        <time>2012-11-04T08:06:31Z</time>
      </trkpt>
      <trkpt lat="45.60197" lon="5.62384">
        <ele>228</ele>
        <time>2012-11-04T08:06:33Z</time>
      </trkpt>
      <trkpt lat="45.60201" lon="5.62382">
        <ele>228</ele>
        <time>2012-11-04T08:06:34Z</time>
      </trkpt>
      <trkpt lat="45.60205" lon="5.62378">
        <ele>228</ele>
        <time>2012-11-04T08:06:35Z</time>
      </trkpt>
      <trkpt lat="45.60209" lon="5.62375">
        <ele>228</ele>
        <time>2012-11-04T08:06:36Z</time>
      </trkpt>
      <trkpt lat="45.60217" lon="5.62369">
        <ele>228</ele>
        <time>2012-11-04T08:06:38Z</time>
      </trkpt>
      <trkpt lat="45.60228" lon="5.62361">
        <ele>228</ele>
        <time>2012-11-04T08:06:39Z</time>
      </trkpt>
      <trkpt lat="45.60232" lon="5.62358">
        <ele>228</ele>
        <time>2012-11-04T08:06:40Z</time>
      </trkpt>
      <trkpt lat="45.60236" lon="5.62354">
        <ele>228</ele>
        <time>2012-11-04T08:06:42Z</time>
      </trkpt>
      <trkpt lat="45.6024" lon="5.6235">
        <ele>228</ele>
        <time>2012-11-04T08:06:43Z</time>
      </trkpt>
      <trkpt lat="45.60247" lon="5.62346">
        <ele>228</ele>
        <time>2012-11-04T08:06:45Z</time>
      </trkpt>
      <trkpt lat="45.60252" lon="5.6234">
        <ele>227</ele>
        <time>2012-11-04T08:06:46Z</time>
      </trkpt>
      <trkpt lat="45.60257" lon="5.62337">
        <ele>227</ele>
        <time>2012-11-04T08:06:47Z</time>
      </trkpt>
      <trkpt lat="45.60262" lon="5.62332">
        <ele>227</ele>
        <time>2012-11-04T08:06:48Z</time>
      </trkpt>
      <trkpt lat="45.60269" lon="5.62328">
        <ele>227</ele>
        <time>2012-11-04T08:06:49Z</time>
      </trkpt>
      <trkpt lat="45.60273" lon="5.62324">
        <ele>227</ele>
        <time>2012-11-04T08:06:50Z</time>
      </trkpt>
      <trkpt lat="45.60277" lon="5.62321">
        <ele>226</ele>
        <time>2012-11-04T08:06:51Z</time>
      </trkpt>
      <trkpt lat="45.60285" lon="5.62316">
        <ele>224</ele>
        <time>2012-11-04T08:06:53Z</time>
      </trkpt>
      <trkpt lat="45.6029" lon="5.62314">
        <ele>224</ele>
        <time>2012-11-04T08:06:53Z</time>
      </trkpt>
      <trkpt lat="45.60297" lon="5.62309">
        <ele>223</ele>
        <time>2012-11-04T08:06:55Z</time>
      </trkpt>
      <trkpt lat="45.60304" lon="5.62303">
        <ele>222</ele>
        <time>2012-11-04T08:06:58Z</time>
      </trkpt>
      <trkpt lat="45.60312" lon="5.62299">
        <ele>221</ele>
        <time>2012-11-04T08:07:00Z</time>
      </trkpt>
      <trkpt lat="45.60321" lon="5.62297">
        <ele>221</ele>
        <time>2012-11-04T08:07:01Z</time>
      </trkpt>
      <trkpt lat="45.60329" lon="5.62296">
        <ele>221</ele>
        <time>2012-11-04T08:07:04Z</time>
      </trkpt>
      <trkpt lat="45.60337" lon="5.62296">
        <ele>221</ele>
        <time>2012-11-04T08:07:06Z</time>
      </trkpt>
      <trkpt lat="45.60342" lon="5.62295">
        <ele>220</ele>
        <time>2012-11-04T08:07:07Z</time>
      </trkpt>
      <trkpt lat="45.60353" lon="5.62292">
        <ele>220</ele>
        <time>2012-11-04T08:07:08Z</time>
      </trkpt>
      <trkpt lat="45.60358" lon="5.6229">
        <ele>220</ele>
        <time>2012-11-04T08:07:09Z</time>
      </trkpt>
      <trkpt lat="45.60367" lon="5.62288">
        <ele>219</ele>
        <time>2012-11-04T08:07:11Z</time>
      </trkpt>
      <trkpt lat="45.60375" lon="5.62285">
        <ele>220</ele>
        <time>2012-11-04T08:07:13Z</time>
      </trkpt>
      <trkpt lat="45.60381" lon="5.62285">
        <ele>220</ele>
        <time>2012-11-04T08:07:14Z</time>
      </trkpt>
      <trkpt lat="45.60386" lon="5.62285">
        <ele>220</ele>
        <time>2012-11-04T08:07:15Z</time>
      </trkpt>
      <trkpt lat="45.60394" lon="5.62284">
        <ele>220</ele>
        <time>2012-11-04T08:07:16Z</time>
      </trkpt>
      <trkpt lat="45.604" lon="5.62283">
        <ele>220</ele>
        <time>2012-11-04T08:07:17Z</time>
      </trkpt>
      <trkpt lat="45.60405" lon="5.62282">
        <ele>219</ele>
        <time>2012-11-04T08:07:18Z</time>
      </trkpt>
      <trkpt lat="45.60412" lon="5.62282">
        <ele>219</ele>
        <time>2012-11-04T08:07:19Z</time>
      </trkpt>
      <trkpt lat="45.60417" lon="5.62281">
        <ele>219</ele>
        <time>2012-11-04T08:07:19Z</time>
      </trkpt>
      <trkpt lat="45.60425" lon="5.6228">
        <ele>218</ele>
        <time>2012-11-04T08:07:22Z</time>
      </trkpt>
      <trkpt lat="45.60431" lon="5.62277">
        <ele>218</ele>
        <time>2012-11-04T08:07:22Z</time>
      </trkpt>
      <trkpt lat="45.60436" lon="5.62274">
        <ele>218</ele>
        <time>2012-11-04T08:07:23Z</time>
      </trkpt>
      <trkpt lat="45.60441" lon="5.62272">
        <ele>218</ele>
        <time>2012-11-04T08:07:25Z</time>
      </trkpt>
      <trkpt lat="45.6045" lon="5.62269">
        <ele>217</ele>
        <time>2012-11-04T08:07:27Z</time>
      </trkpt>
      <trkpt lat="45.60458" lon="5.62269">
        <ele>217</ele>
        <time>2012-11-04T08:07:28Z</time>
      </trkpt>
      <trkpt lat="45.60463" lon="5.62267">
        <ele>217</ele>
        <time>2012-11-04T08:07:29Z</time>
      </trkpt>
      <trkpt lat="45.60468" lon="5.62266">
        <ele>217</ele>
        <time>2012-11-04T08:07:30Z</time>
      </trkpt>
      <trkpt lat="45.60474" lon="5.62265">
        <ele>216</ele>
        <time>2012-11-04T08:07:31Z</time>
      </trkpt>
      <trkpt lat="45.6048" lon="5.62264">
        <ele>216</ele>
        <time>2012-11-04T08:07:31Z</time>
      </trkpt>
      <trkpt lat="45.60489" lon="5.62263">
        <ele>215</ele>
        <time>2012-11-04T08:07:33Z</time>
      </trkpt>
      <trkpt lat="45.60498" lon="5.62263">
        <ele>215</ele>
        <time>2012-11-04T08:07:36Z</time>
      </trkpt>
      <trkpt lat="45.60504" lon="5.62262">
        <ele>216</ele>
        <time>2012-11-04T08:07:38Z</time>
      </trkpt>
      <trkpt lat="45.60509" lon="5.62264">
        <ele>217</ele>
        <time>2012-11-04T08:07:38Z</time>
      </trkpt>
      <trkpt lat="45.60514" lon="5.62261">
        <ele>216</ele>
        <time>2012-11-04T08:07:39Z</time>
      </trkpt>
      <trkpt lat="45.6052" lon="5.6226">
        <ele>216</ele>
        <time>2012-11-04T08:07:41Z</time>
      </trkpt>
      <trkpt lat="45.60531" lon="5.62257">
        <ele>216</ele>
        <time>2012-11-04T08:07:43Z</time>
      </trkpt>
      <trkpt lat="45.60537" lon="5.62256">
        <ele>216</ele>
        <time>2012-11-04T08:07:44Z</time>
      </trkpt>
      <trkpt lat="45.60543" lon="5.62253">
        <ele>216</ele>
        <time>2012-11-04T08:07:46Z</time>
      </trkpt>
      <trkpt lat="45.6055" lon="5.62251">
        <ele>216</ele>
        <time>2012-11-04T08:07:48Z</time>
      </trkpt>
      <trkpt lat="45.60557" lon="5.62251">
        <ele>216</ele>
        <time>2012-11-04T08:07:50Z</time>
      </trkpt>
      <trkpt lat="45.60563" lon="5.62251">
        <ele>216</ele>
        <time>2012-11-04T08:07:51Z</time>
      </trkpt>
      <trkpt lat="45.60569" lon="5.6225">
        <ele>217</ele>
        <time>2012-11-04T08:07:52Z</time>
      </trkpt>
      <trkpt lat="45.60573" lon="5.62249">
        <ele>217</ele>
        <time>2012-11-04T08:07:53Z</time>
      </trkpt>
      <trkpt lat="45.60581" lon="5.62248">
        <ele>218</ele>
        <time>2012-11-04T08:07:55Z</time>
      </trkpt>
      <trkpt lat="45.6059" lon="5.62247">
        <ele>218</ele>
        <time>2012-11-04T08:07:57Z</time>
      </trkpt>
      <trkpt lat="45.60594" lon="5.62247">
        <ele>218</ele>
        <time>2012-11-04T08:07:58Z</time>
      </trkpt>
      <trkpt lat="45.60599" lon="5.62247">
        <ele>219</ele>
        <time>2012-11-04T08:07:59Z</time>
      </trkpt>
      <trkpt lat="45.6061" lon="5.62245">
        <ele>219</ele>
        <time>2012-11-04T08:08:00Z</time>
      </trkpt>
      <trkpt lat="45.60616" lon="5.62244">
        <ele>219</ele>
        <time>2012-11-04T08:08:01Z</time>
      </trkpt>
      <trkpt lat="45.60623" lon="5.62242">
        <ele>220</ele>
        <time>2012-11-04T08:08:03Z</time>
      </trkpt>
      <trkpt lat="45.60637" lon="5.6224">
        <ele>220</ele>
        <time>2012-11-04T08:08:05Z</time>
      </trkpt>
      <trkpt lat="45.60644" lon="5.6224">
        <ele>220</ele>
        <time>2012-11-04T08:08:06Z</time>
      </trkpt>
      <trkpt lat="45.60649" lon="5.6224">
        <ele>219</ele>
        <time>2012-11-04T08:08:06Z</time>
      </trkpt>
      <trkpt lat="45.60654" lon="5.6224">
        <ele>220</ele>
        <time>2012-11-04T08:08:08Z</time>
      </trkpt>
      <trkpt lat="45.60659" lon="5.62241">
        <ele>220</ele>
        <time>2012-11-04T08:08:09Z</time>
      </trkpt>
      <trkpt lat="45.60669" lon="5.62242">
        <ele>220</ele>
        <time>2012-11-04T08:08:11Z</time>
      </trkpt>
      <trkpt lat="45.60674" lon="5.62241">
        <ele>220</ele>
        <time>2012-11-04T08:08:12Z</time>
      </trkpt>
      <trkpt lat="45.60682" lon="5.62242">
        <ele>221</ele>
        <time>2012-11-04T08:08:14Z</time>
      </trkpt>
      <trkpt lat="45.60691" lon="5.62241">
        <ele>221</ele>
        <time>2012-11-04T08:08:16Z</time>
      </trkpt>
      <trkpt lat="45.607" lon="5.6224">
        <ele>221</ele>
        <time>2012-11-04T08:08:18Z</time>
      </trkpt>
      <trkpt lat="45.60705" lon="5.62238">
        <ele>221</ele>
        <time>2012-11-04T08:08:19Z</time>
      </trkpt>
      <trkpt lat="45.6071" lon="5.62238">
        <ele>221</ele>
        <time>2012-11-04T08:08:20Z</time>
      </trkpt>
      <trkpt lat="45.60714" lon="5.62237">
        <ele>221</ele>
        <time>2012-11-04T08:08:21Z</time>
      </trkpt>
      <trkpt lat="45.60719" lon="5.62235">
        <ele>221</ele>
        <time>2012-11-04T08:08:21Z</time>
      </trkpt>
      <trkpt lat="45.60727" lon="5.62232">
        <ele>221</ele>
        <time>2012-11-04T08:08:23Z</time>
      </trkpt>
      <trkpt lat="45.60735" lon="5.62228">
        <ele>221</ele>
        <time>2012-11-04T08:08:26Z</time>
      </trkpt>
      <trkpt lat="45.60741" lon="5.62226">
        <ele>221</ele>
        <time>2012-11-04T08:08:27Z</time>
      </trkpt>
      <trkpt lat="45.60745" lon="5.62225">
        <ele>221</ele>
        <time>2012-11-04T08:08:28Z</time>
      </trkpt>
      <trkpt lat="45.6075" lon="5.62224">
        <ele>221</ele>
        <time>2012-11-04T08:08:29Z</time>
      </trkpt>
      <trkpt lat="45.60758" lon="5.62224">
        <ele>222</ele>
        <time>2012-11-04T08:08:30Z</time>
      </trkpt>
      <trkpt lat="45.60764" lon="5.62224">
        <ele>222</ele>
        <time>2012-11-04T08:08:31Z</time>
      </trkpt>
      <trkpt lat="45.60769" lon="5.62223">
        <ele>223</ele>
        <time>2012-11-04T08:08:32Z</time>
      </trkpt>
      <trkpt lat="45.60775" lon="5.62222">
        <ele>223</ele>
        <time>2012-11-04T08:08:33Z</time>
      </trkpt>
      <trkpt lat="45.6078" lon="5.62222">
        <ele>223</ele>
        <time>2012-11-04T08:08:34Z</time>
      </trkpt>
      <trkpt lat="45.60786" lon="5.62221">
        <ele>223</ele>
        <time>2012-11-04T08:08:35Z</time>
      </trkpt>
      <trkpt lat="45.60794" lon="5.62218">
        <ele>223</ele>
        <time>2012-11-04T08:08:36Z</time>
      </trkpt>
      <trkpt lat="45.608" lon="5.62215">
        <ele>223</ele>
        <time>2012-11-04T08:08:37Z</time>
      </trkpt>
      <trkpt lat="45.60808" lon="5.62214">
        <ele>223</ele>
        <time>2012-11-04T08:08:39Z</time>
      </trkpt>
      <trkpt lat="45.60813" lon="5.62213">
        <ele>223</ele>
        <time>2012-11-04T08:08:40Z</time>
      </trkpt>
      <trkpt lat="45.60817" lon="5.62212">
        <ele>223</ele>
        <time>2012-11-04T08:08:41Z</time>
      </trkpt>
      <trkpt lat="45.60822" lon="5.62207">
        <ele>223</ele>
        <time>2012-11-04T08:08:42Z</time>
      </trkpt>
      <trkpt lat="45.60828" lon="5.62206">
        <ele>223</ele>
        <time>2012-11-04T08:08:43Z</time>
      </trkpt>
      <trkpt lat="45.60834" lon="5.62203">
        <ele>223</ele>
        <time>2012-11-04T08:08:44Z</time>
      </trkpt>
      <trkpt lat="45.6084" lon="5.62204">
        <ele>223</ele>
        <time>2012-11-04T08:08:45Z</time>
      </trkpt>
      <trkpt lat="45.60846" lon="5.62204">
        <ele>223</ele>
        <time>2012-11-04T08:08:46Z</time>
      </trkpt>
      <trkpt lat="45.60855" lon="5.62203">
        <ele>223</ele>
        <time>2012-11-04T08:08:48Z</time>
      </trkpt>
      <trkpt lat="45.6086" lon="5.62202">
        <ele>223</ele>
        <time>2012-11-04T08:08:49Z</time>
      </trkpt>
      <trkpt lat="45.60865" lon="5.62201">
        <ele>223</ele>
        <time>2012-11-04T08:08:50Z</time>
      </trkpt>
      <trkpt lat="45.60871" lon="5.62199">
        <ele>223</ele>
        <time>2012-11-04T08:08:51Z</time>
      </trkpt>
      <trkpt lat="45.60876" lon="5.62198">
        <ele>223</ele>
        <time>2012-11-04T08:08:52Z</time>
      </trkpt>
      <trkpt lat="45.60882" lon="5.62198">
        <ele>223</ele>
        <time>2012-11-04T08:08:53Z</time>
      </trkpt>
      <trkpt lat="45.60888" lon="5.62198">
        <ele>223</ele>
        <time>2012-11-04T08:08:54Z</time>
      </trkpt>
      <trkpt lat="45.60893" lon="5.62197">
        <ele>223</ele>
        <time>2012-11-04T08:08:55Z</time>
      </trkpt>
      <trkpt lat="45.60898" lon="5.62197">
        <ele>223</ele>
        <time>2012-11-04T08:08:56Z</time>
      </trkpt>
      <trkpt lat="45.60903" lon="5.62197">
        <ele>222</ele>
        <time>2012-11-04T08:08:57Z</time>
      </trkpt>
      <trkpt lat="45.60912" lon="5.62197">
        <ele>222</ele>
        <time>2012-11-04T08:08:59Z</time>
      </trkpt>
      <trkpt lat="45.6092" lon="5.62197">
        <ele>222</ele>
        <time>2012-11-04T08:09:00Z</time>
      </trkpt>
      <trkpt lat="45.60933" lon="5.62201">
        <ele>222</ele>
        <time>2012-11-04T08:09:02Z</time>
      </trkpt>
      <trkpt lat="45.6094" lon="5.62204">
        <ele>222</ele>
        <time>2012-11-04T08:09:04Z</time>
      </trkpt>
      <trkpt lat="45.60945" lon="5.62203">
        <ele>222</ele>
        <time>2012-11-04T08:09:05Z</time>
      </trkpt>
      <trkpt lat="45.60951" lon="5.62202">
        <ele>223</ele>
        <time>2012-11-04T08:09:06Z</time>
      </trkpt>
      <trkpt lat="45.60957" lon="5.62197">
        <ele>223</ele>
        <time>2012-11-04T08:09:07Z</time>
      </trkpt>
      <trkpt lat="45.60962" lon="5.62194">
        <ele>223</ele>
        <time>2012-11-04T08:09:08Z</time>
      </trkpt>
      <trkpt lat="45.60967" lon="5.62192">
        <ele>223</ele>
        <time>2012-11-04T08:09:09Z</time>
      </trkpt>
      <trkpt lat="45.60972" lon="5.62192">
        <ele>224</ele>
        <time>2012-11-04T08:09:10Z</time>
      </trkpt>
      <trkpt lat="45.6098" lon="5.62187">
        <ele>224</ele>
        <time>2012-11-04T08:09:12Z</time>
      </trkpt>
      <trkpt lat="45.60985" lon="5.62185">
        <ele>224</ele>
        <time>2012-11-04T08:09:13Z</time>
      </trkpt>
      <trkpt lat="45.6099" lon="5.62183">
        <ele>223</ele>
        <time>2012-11-04T08:09:14Z</time>
      </trkpt>
      <trkpt lat="45.61003" lon="5.62179">
        <ele>223</ele>
        <time>2012-11-04T08:09:15Z</time>
      </trkpt>
      <trkpt lat="45.61008" lon="5.62179">
        <ele>222</ele>
        <time>2012-11-04T08:09:16Z</time>
      </trkpt>
      <trkpt lat="45.61013" lon="5.62177">
        <ele>221</ele>
        <time>2012-11-04T08:09:17Z</time>
      </trkpt>
      <trkpt lat="45.61018" lon="5.62176">
        <ele>221</ele>
        <time>2012-11-04T08:09:18Z</time>
      </trkpt>
      <trkpt lat="45.61026" lon="5.62176">
        <ele>221</ele>
        <time>2012-11-04T08:09:20Z</time>
      </trkpt>
      <trkpt lat="45.61033" lon="5.62175">
        <ele>220</ele>
        <time>2012-11-04T08:09:22Z</time>
      </trkpt>
      <trkpt lat="45.61042" lon="5.62174">
        <ele>221</ele>
        <time>2012-11-04T08:09:24Z</time>
      </trkpt>
      <trkpt lat="45.61053" lon="5.62171">
        <ele>220</ele>
        <time>2012-11-04T08:09:26Z</time>
      </trkpt>
      <trkpt lat="45.61061" lon="5.62169">
        <ele>220</ele>
        <time>2012-11-04T08:09:28Z</time>
      </trkpt>
      <trkpt lat="45.61067" lon="5.62168">
        <ele>221</ele>
        <time>2012-11-04T08:09:29Z</time>
      </trkpt>
      <trkpt lat="45.61071" lon="5.62168">
        <ele>221</ele>
        <time>2012-11-04T08:09:30Z</time>
      </trkpt>
      <trkpt lat="45.61079" lon="5.62165">
        <ele>222</ele>
        <time>2012-11-04T08:09:32Z</time>
      </trkpt>
      <trkpt lat="45.61087" lon="5.62164">
        <ele>223</ele>
        <time>2012-11-04T08:09:34Z</time>
      </trkpt>
      <trkpt lat="45.61095" lon="5.62163">
        <ele>223</ele>
        <time>2012-11-04T08:09:35Z</time>
      </trkpt>
      <trkpt lat="45.61101" lon="5.62162">
        <ele>224</ele>
        <time>2012-11-04T08:09:36Z</time>
      </trkpt>
      <trkpt lat="45.61106" lon="5.6216">
        <ele>224</ele>
        <time>2012-11-04T08:09:37Z</time>
      </trkpt>
      <trkpt lat="45.61115" lon="5.62158">
        <ele>225</ele>
        <time>2012-11-04T08:09:39Z</time>
      </trkpt>
      <trkpt lat="45.6112" lon="5.62158">
        <ele>225</ele>
        <time>2012-11-04T08:09:40Z</time>
      </trkpt>
      <trkpt lat="45.61129" lon="5.62154">
        <ele>225</ele>
        <time>2012-11-04T08:09:41Z</time>
      </trkpt>
      <trkpt lat="45.61135" lon="5.62154">
        <ele>225</ele>
        <time>2012-11-04T08:09:42Z</time>
      </trkpt>
      <trkpt lat="45.61141" lon="5.62154">
        <ele>225</ele>
        <time>2012-11-04T08:09:43Z</time>
      </trkpt>
      <trkpt lat="45.61146" lon="5.62154">
        <ele>226</ele>
        <time>2012-11-04T08:09:44Z</time>
      </trkpt>
      <trkpt lat="45.61154" lon="5.62152">
        <ele>225</ele>
        <time>2012-11-04T08:09:46Z</time>
      </trkpt>
      <trkpt lat="45.61159" lon="5.62153">
        <ele>225</ele>
        <time>2012-11-04T08:09:47Z</time>
      </trkpt>
      <trkpt lat="45.61165" lon="5.62154">
        <ele>225</ele>
        <time>2012-11-04T08:09:48Z</time>
      </trkpt>
      <trkpt lat="45.61171" lon="5.62154">
        <ele>225</ele>
        <time>2012-11-04T08:09:49Z</time>
      </trkpt>
      <trkpt lat="45.61177" lon="5.62152">
        <ele>225</ele>
        <time>2012-11-04T08:09:50Z</time>
      </trkpt>
      <trkpt lat="45.61182" lon="5.62151">
        <ele>225</ele>
        <time>2012-11-04T08:09:51Z</time>
      </trkpt>
      <trkpt lat="45.61189" lon="5.62148">
        <ele>224</ele>
        <time>2012-11-04T08:09:52Z</time>
      </trkpt>
      <trkpt lat="45.61194" lon="5.62145">
        <ele>224</ele>
        <time>2012-11-04T08:09:53Z</time>
      </trkpt>
      <trkpt lat="45.612" lon="5.62144">
        <ele>223</ele>
        <time>2012-11-04T08:09:54Z</time>
      </trkpt>
      <trkpt lat="45.61207" lon="5.62142">
        <ele>223</ele>
        <time>2012-11-04T08:09:56Z</time>
      </trkpt>
      <trkpt lat="45.61212" lon="5.62142">
        <ele>223</ele>
        <time>2012-11-04T08:09:57Z</time>
      </trkpt>
      <trkpt lat="45.61217" lon="5.62142">
        <ele>223</ele>
        <time>2012-11-04T08:09:58Z</time>
      </trkpt>
      <trkpt lat="45.61223" lon="5.6214">
        <ele>222</ele>
        <time>2012-11-04T08:09:59Z</time>
      </trkpt>
      <trkpt lat="45.61233" lon="5.62139">
        <ele>221</ele>
        <time>2012-11-04T08:10:01Z</time>
      </trkpt>
      <trkpt lat="45.61241" lon="5.62138">
        <ele>221</ele>
        <time>2012-11-04T08:10:02Z</time>
      </trkpt>
      <trkpt lat="45.61251" lon="5.62135">
        <ele>221</ele>
        <time>2012-11-04T08:10:05Z</time>
      </trkpt>
      <trkpt lat="45.61256" lon="5.62135">
        <ele>221</ele>
        <time>2012-11-04T08:10:06Z</time>
      </trkpt>
      <trkpt lat="45.61261" lon="5.62134">
        <ele>221</ele>
        <time>2012-11-04T08:10:07Z</time>
      </trkpt>
      <trkpt lat="45.61266" lon="5.62135">
        <ele>221</ele>
        <time>2012-11-04T08:10:08Z</time>
      </trkpt>
      <trkpt lat="45.61271" lon="5.62133">
        <ele>221</ele>
        <time>2012-11-04T08:10:09Z</time>
      </trkpt>
      <trkpt lat="45.6128" lon="5.62132">
        <ele>220</ele>
        <time>2012-11-04T08:10:10Z</time>
      </trkpt>
      <trkpt lat="45.61285" lon="5.6213">
        <ele>220</ele>
        <time>2012-11-04T08:10:12Z</time>
      </trkpt>
      <trkpt lat="45.61294" lon="5.62128">
        <ele>220</ele>
        <time>2012-11-04T08:10:14Z</time>
      </trkpt>
      <trkpt lat="45.61299" lon="5.62127">
        <ele>219</ele>
        <time>2012-11-04T08:10:15Z</time>
      </trkpt>
      <trkpt lat="45.61304" lon="5.62126">
        <ele>219</ele>
        <time>2012-11-04T08:10:15Z</time>
      </trkpt>
      <trkpt lat="45.61309" lon="5.62125">
        <ele>219</ele>
        <time>2012-11-04T08:10:17Z</time>
      </trkpt>
      <trkpt lat="45.61317" lon="5.62121">
        <ele>218</ele>
        <time>2012-11-04T08:10:18Z</time>
      </trkpt>
      <trkpt lat="45.61326" lon="5.62121">
        <ele>218</ele>
        <time>2012-11-04T08:10:21Z</time>
      </trkpt>
      <trkpt lat="45.61335" lon="5.62119">
        <ele>218</ele>
        <time>2012-11-04T08:10:23Z</time>
      </trkpt>
      <trkpt lat="45.61343" lon="5.6212">
        <ele>218</ele>
        <time>2012-11-04T08:10:24Z</time>
      </trkpt>
      <trkpt lat="45.61347" lon="5.62118">
        <ele>219</ele>
        <time>2012-11-04T08:10:25Z</time>
      </trkpt>
      <trkpt lat="45.61352" lon="5.62117">
        <ele>219</ele>
        <time>2012-11-04T08:10:26Z</time>
      </trkpt>
      <trkpt lat="45.61358" lon="5.62117">
        <ele>219</ele>
        <time>2012-11-04T08:10:27Z</time>
      </trkpt>
      <trkpt lat="45.61363" lon="5.62114">
        <ele>219</ele>
        <time>2012-11-04T08:10:28Z</time>
      </trkpt>
      <trkpt lat="45.61373" lon="5.62112">
        <ele>219</ele>
        <time>2012-11-04T08:10:30Z</time>
      </trkpt>
      <trkpt lat="45.61381" lon="5.6211">
        <ele>219</ele>
        <time>2012-11-04T08:10:31Z</time>
      </trkpt>
      <trkpt lat="45.61385" lon="5.62107">
        <ele>218</ele>
        <time>2012-11-04T08:10:34Z</time>
      </trkpt>
      <trkpt lat="45.6139" lon="5.62104">
        <ele>218</ele>
        <time>2012-11-04T08:10:35Z</time>
      </trkpt>
      <trkpt lat="45.61398" lon="5.621">
        <ele>218</ele>
        <time>2012-11-04T08:10:35Z</time>
      </trkpt>
      <trkpt lat="45.61409" lon="5.62099">
        <ele>217</ele>
        <time>2012-11-04T08:10:37Z</time>
      </trkpt>
      <trkpt lat="45.61414" lon="5.62098">
        <ele>217</ele>
        <time>2012-11-04T08:10:38Z</time>
      </trkpt>
      <trkpt lat="45.61419" lon="5.62097">
        <ele>217</ele>
        <time>2012-11-04T08:10:39Z</time>
      </trkpt>
      <trkpt lat="45.61423" lon="5.62097">
        <ele>216</ele>
        <time>2012-11-04T08:10:40Z</time>
      </trkpt>
      <trkpt lat="45.61429" lon="5.62096">
        <ele>216</ele>
        <time>2012-11-04T08:10:41Z</time>
      </trkpt>
      <trkpt lat="45.61435" lon="5.62095">
        <ele>216</ele>
        <time>2012-11-04T08:10:42Z</time>
      </trkpt>
      <trkpt lat="45.6144" lon="5.62093">
        <ele>216</ele>
        <time>2012-11-04T08:10:43Z</time>
      </trkpt>
      <trkpt lat="45.61446" lon="5.62091">
        <ele>218</ele>
        <time>2012-11-04T08:10:45Z</time>
      </trkpt>
      <trkpt lat="45.61454" lon="5.62089">
        <ele>218</ele>
        <time>2012-11-04T08:10:47Z</time>
      </trkpt>
      <trkpt lat="45.61458" lon="5.62086">
        <ele>218</ele>
        <time>2012-11-04T08:10:48Z</time>
      </trkpt>
      <trkpt lat="45.61466" lon="5.62084">
        <ele>218</ele>
        <time>2012-11-04T08:10:50Z</time>
      </trkpt>
      <trkpt lat="45.61472" lon="5.62082">
        <ele>219</ele>
        <time>2012-11-04T08:10:51Z</time>
      </trkpt>
      <trkpt lat="45.61481" lon="5.62082">
        <ele>219</ele>
        <time>2012-11-04T08:10:54Z</time>
      </trkpt>
      <trkpt lat="45.6149" lon="5.62082">
        <ele>219</ele>
        <time>2012-11-04T08:10:56Z</time>
      </trkpt>
      <trkpt lat="45.61497" lon="5.62079">
        <ele>219</ele>
        <time>2012-11-04T08:10:58Z</time>
      </trkpt>
      <trkpt lat="45.61504" lon="5.62076">
        <ele>220</ele>
        <time>2012-11-04T08:11:00Z</time>
      </trkpt>
      <trkpt lat="45.61514" lon="5.62073">
        <ele>220</ele>
        <time>2012-11-04T08:11:01Z</time>
      </trkpt>
      <trkpt lat="45.61519" lon="5.62069">
        <ele>219</ele>
        <time>2012-11-04T08:11:02Z</time>
      </trkpt>
      <trkpt lat="45.61525" lon="5.62068">
        <ele>219</ele>
        <time>2012-11-04T08:11:03Z</time>
      </trkpt>
      <trkpt lat="45.6153" lon="5.62066">
        <ele>219</ele>
        <time>2012-11-04T08:11:04Z</time>
      </trkpt>
      <trkpt lat="45.61537" lon="5.62066">
        <ele>219</ele>
        <time>2012-11-04T08:11:05Z</time>
      </trkpt>
      <trkpt lat="45.61542" lon="5.62062">
        <ele>218</ele>
        <time>2012-11-04T08:11:06Z</time>
      </trkpt>
      <trkpt lat="45.61548" lon="5.62059">
        <ele>217</ele>
        <time>2012-11-04T08:11:07Z</time>
      </trkpt>
      <trkpt lat="45.61553" lon="5.62057">
        <ele>217</ele>
        <time>2012-11-04T08:11:08Z</time>
      </trkpt>
      <trkpt lat="45.61559" lon="5.62055">
        <ele>217</ele>
        <time>2012-11-04T08:11:09Z</time>
      </trkpt>
      <trkpt lat="45.61565" lon="5.62053">
        <ele>217</ele>
        <time>2012-11-04T08:11:10Z</time>
      </trkpt>
      <trkpt lat="45.61571" lon="5.62048">
        <ele>216</ele>
        <time>2012-11-04T08:11:11Z</time>
      </trkpt>
      <trkpt lat="45.61576" lon="5.62046">
        <ele>216</ele>
        <time>2012-11-04T08:11:13Z</time>
      </trkpt>
      <trkpt lat="45.61581" lon="5.62043">
        <ele>216</ele>
        <time>2012-11-04T08:11:14Z</time>
      </trkpt>
      <trkpt lat="45.61586" lon="5.62041">
        <ele>216</ele>
        <time>2012-11-04T08:11:14Z</time>
      </trkpt>
      <trkpt lat="45.61591" lon="5.62039">
        <ele>216</ele>
        <time>2012-11-04T08:11:16Z</time>
      </trkpt>
      <trkpt lat="45.61596" lon="5.62036">
        <ele>216</ele>
        <time>2012-11-04T08:11:17Z</time>
      </trkpt>
      <trkpt lat="45.616" lon="5.62031">
        <ele>215</ele>
        <time>2012-11-04T08:11:18Z</time>
      </trkpt>
      <trkpt lat="45.61605" lon="5.62028">
        <ele>214</ele>
        <time>2012-11-04T08:11:19Z</time>
      </trkpt>
      <trkpt lat="45.61612" lon="5.62024">
        <ele>214</ele>
        <time>2012-11-04T08:11:21Z</time>
      </trkpt>
      <trkpt lat="45.61622" lon="5.62018">
        <ele>213</ele>
        <time>2012-11-04T08:11:22Z</time>
      </trkpt>
      <trkpt lat="45.61626" lon="5.62014">
        <ele>213</ele>
        <time>2012-11-04T08:11:24Z</time>
      </trkpt>
      <trkpt lat="45.61631" lon="5.62011">
        <ele>213</ele>
        <time>2012-11-04T08:11:24Z</time>
      </trkpt>
      <trkpt lat="45.61636" lon="5.62007">
        <ele>213</ele>
        <time>2012-11-04T08:11:25Z</time>
      </trkpt>
      <trkpt lat="45.61641" lon="5.62004">
        <ele>212</ele>
        <time>2012-11-04T08:11:26Z</time>
      </trkpt>
      <trkpt lat="45.61647" lon="5.62002">
        <ele>212</ele>
        <time>2012-11-04T08:11:28Z</time>
      </trkpt>
      <trkpt lat="45.61652" lon="5.61999">
        <ele>212</ele>
        <time>2012-11-04T08:11:29Z</time>
      </trkpt>
      <trkpt lat="45.61657" lon="5.61994">
        <ele>213</ele>
        <time>2012-11-04T08:11:30Z</time>
      </trkpt>
      <trkpt lat="45.61662" lon="5.61991">
        <ele>212</ele>
        <time>2012-11-04T08:11:31Z</time>
      </trkpt>
      <trkpt lat="45.61667" lon="5.61988">
        <ele>213</ele>
        <time>2012-11-04T08:11:32Z</time>
      </trkpt>
      <trkpt lat="45.61672" lon="5.61985">
        <ele>213</ele>
        <time>2012-11-04T08:11:33Z</time>
      </trkpt>
      <trkpt lat="45.61679" lon="5.61984">
        <ele>213</ele>
        <time>2012-11-04T08:11:35Z</time>
      </trkpt>
      <trkpt lat="45.61683" lon="5.61983">
        <ele>213</ele>
        <time>2012-11-04T08:11:36Z</time>
      </trkpt>
      <trkpt lat="45.61692" lon="5.61978">
        <ele>213</ele>
        <time>2012-11-04T08:11:38Z</time>
      </trkpt>
      <trkpt lat="45.61698" lon="5.61974">
        <ele>214</ele>
        <time>2012-11-04T08:11:39Z</time>
      </trkpt>
      <trkpt lat="45.61705" lon="5.61968">
        <ele>213</ele>
        <time>2012-11-04T08:11:40Z</time>
      </trkpt>
      <trkpt lat="45.6171" lon="5.61965">
        <ele>213</ele>
        <time>2012-11-04T08:11:41Z</time>
      </trkpt>
      <trkpt lat="45.61717" lon="5.61964">
        <ele>213</ele>
        <time>2012-11-04T08:11:42Z</time>
      </trkpt>
      <trkpt lat="45.61722" lon="5.61962">
        <ele>213</ele>
        <time>2012-11-04T08:11:43Z</time>
      </trkpt>
      <trkpt lat="45.61728" lon="5.61961">
        <ele>214</ele>
        <time>2012-11-04T08:11:44Z</time>
      </trkpt>
      <trkpt lat="45.61734" lon="5.61956">
        <ele>214</ele>
        <time>2012-11-04T08:11:46Z</time>
      </trkpt>
      <trkpt lat="45.6174" lon="5.61952">
        <ele>214</ele>
        <time>2012-11-04T08:11:47Z</time>
      </trkpt>
      <trkpt lat="45.61744" lon="5.6195">
        <ele>214</ele>
        <time>2012-11-04T08:11:48Z</time>
      </trkpt>
      <trkpt lat="45.61751" lon="5.61945">
        <ele>215</ele>
        <time>2012-11-04T08:11:50Z</time>
      </trkpt>
      <trkpt lat="45.61756" lon="5.61941">
        <ele>215</ele>
        <time>2012-11-04T08:11:51Z</time>
      </trkpt>
      <trkpt lat="45.61763" lon="5.61937">
        <ele>215</ele>
        <time>2012-11-04T08:11:53Z</time>
      </trkpt>
      <trkpt lat="45.6177" lon="5.61931">
        <ele>215</ele>
        <time>2012-11-04T08:11:55Z</time>
      </trkpt>
      <trkpt lat="45.61779" lon="5.61926">
        <ele>216</ele>
        <time>2012-11-04T08:11:56Z</time>
      </trkpt>
      <trkpt lat="45.61783" lon="5.61922">
        <ele>216</ele>
        <time>2012-11-04T08:11:57Z</time>
      </trkpt>
      <trkpt lat="45.61791" lon="5.61915">
        <ele>215</ele>
        <time>2012-11-04T08:11:59Z</time>
      </trkpt>
      <trkpt lat="45.61797" lon="5.61911">
        <ele>214</ele>
        <time>2012-11-04T08:12:00Z</time>
      </trkpt>
      <trkpt lat="45.61802" lon="5.61906">
        <ele>214</ele>
        <time>2012-11-04T08:12:01Z</time>
      </trkpt>
      <trkpt lat="45.61807" lon="5.61903">
        <ele>214</ele>
        <time>2012-11-04T08:12:02Z</time>
      </trkpt>
      <trkpt lat="45.61812" lon="5.619">
        <ele>213</ele>
        <time>2012-11-04T08:12:03Z</time>
      </trkpt>
      <trkpt lat="45.61817" lon="5.61898">
        <ele>213</ele>
        <time>2012-11-04T08:12:03Z</time>
      </trkpt>
      <trkpt lat="45.61821" lon="5.61894">
        <ele>213</ele>
        <time>2012-11-04T08:12:05Z</time>
      </trkpt>
      <trkpt lat="45.61828" lon="5.61892">
        <ele>213</ele>
        <time>2012-11-04T08:12:07Z</time>
      </trkpt>
      <trkpt lat="45.61833" lon="5.61885">
        <ele>213</ele>
        <time>2012-11-04T08:12:09Z</time>
      </trkpt>
      <trkpt lat="45.61839" lon="5.61879">
        <ele>213</ele>
        <time>2012-11-04T08:12:09Z</time>
      </trkpt>
      <trkpt lat="45.61844" lon="5.61875">
        <ele>213</ele>
        <time>2012-11-04T08:12:11Z</time>
      </trkpt>
      <trkpt lat="45.61849" lon="5.61871">
        <ele>213</ele>
        <time>2012-11-04T08:12:11Z</time>
      </trkpt>
      <trkpt lat="45.61856" lon="5.61868">
        <ele>213</ele>
        <time>2012-11-04T08:12:13Z</time>
      </trkpt>
      <trkpt lat="45.61862" lon="5.61864">
        <ele>213</ele>
        <time>2012-11-04T08:12:14Z</time>
      </trkpt>
      <trkpt lat="45.6187" lon="5.61858">
        <ele>213</ele>
        <time>2012-11-04T08:12:16Z</time>
      </trkpt>
      <trkpt lat="45.61874" lon="5.61853">
        <ele>213</ele>
        <time>2012-11-04T08:12:17Z</time>
      </trkpt>
      <trkpt lat="45.6188" lon="5.6185">
        <ele>213</ele>
        <time>2012-11-04T08:12:18Z</time>
      </trkpt>
      <trkpt lat="45.61884" lon="5.61847">
        <ele>213</ele>
        <time>2012-11-04T08:12:19Z</time>
      </trkpt>
      <trkpt lat="45.61889" lon="5.61843">
        <ele>212</ele>
        <time>2012-11-04T08:12:20Z</time>
      </trkpt>
      <trkpt lat="45.61894" lon="5.6184">
        <ele>212</ele>
        <time>2012-11-04T08:12:21Z</time>
      </trkpt>
      <trkpt lat="45.61902" lon="5.61835">
        <ele>212</ele>
        <time>2012-11-04T08:12:23Z</time>
      </trkpt>
      <trkpt lat="45.61907" lon="5.61831">
        <ele>211</ele>
        <time>2012-11-04T08:12:24Z</time>
      </trkpt>
      <trkpt lat="45.61913" lon="5.61827">
        <ele>211</ele>
        <time>2012-11-04T08:12:25Z</time>
      </trkpt>
      <trkpt lat="45.61918" lon="5.61824">
        <ele>211</ele>
        <time>2012-11-04T08:12:26Z</time>
      </trkpt>
      <trkpt lat="45.61922" lon="5.61821">
        <ele>211</ele>
        <time>2012-11-04T08:12:27Z</time>
      </trkpt>
      <trkpt lat="45.61927" lon="5.61819">
        <ele>212</ele>
        <time>2012-11-04T08:12:28Z</time>
      </trkpt>
      <trkpt lat="45.61931" lon="5.61816">
        <ele>212</ele>
        <time>2012-11-04T08:12:29Z</time>
      </trkpt>
      <trkpt lat="45.61936" lon="5.61813">
        <ele>212</ele>
        <time>2012-11-04T08:12:30Z</time>
      </trkpt>
      <trkpt lat="45.6194" lon="5.6181">
        <ele>212</ele>
        <time>2012-11-04T08:12:31Z</time>
      </trkpt>
      <trkpt lat="45.61944" lon="5.61806">
        <ele>213</ele>
        <time>2012-11-04T08:12:32Z</time>
      </trkpt>
      <trkpt lat="45.61948" lon="5.61802">
        <ele>213</ele>
        <time>2012-11-04T08:12:33Z</time>
      </trkpt>
      <trkpt lat="45.61953" lon="5.618">
        <ele>213</ele>
        <time>2012-11-04T08:12:34Z</time>
      </trkpt>
      <trkpt lat="45.6196" lon="5.61796">
        <ele>214</ele>
        <time>2012-11-04T08:12:35Z</time>
      </trkpt>
      <trkpt lat="45.61968" lon="5.61788">
        <ele>214</ele>
        <time>2012-11-04T08:12:38Z</time>
      </trkpt>
      <trkpt lat="45.61973" lon="5.61786">
        <ele>215</ele>
        <time>2012-11-04T08:12:39Z</time>
      </trkpt>
      <trkpt lat="45.61982" lon="5.6178">
        <ele>215</ele>
        <time>2012-11-04T08:12:41Z</time>
      </trkpt>
      <trkpt lat="45.61986" lon="5.61777">
        <ele>215</ele>
        <time>2012-11-04T08:12:42Z</time>
      </trkpt>
      <trkpt lat="45.6199" lon="5.61774">
        <ele>215</ele>
        <time>2012-11-04T08:12:43Z</time>
      </trkpt>
      <trkpt lat="45.61997" lon="5.6177">
        <ele>215</ele>
        <time>2012-11-04T08:12:43Z</time>
      </trkpt>
      <trkpt lat="45.62001" lon="5.61767">
        <ele>216</ele>
        <time>2012-11-04T08:12:45Z</time>
      </trkpt>
      <trkpt lat="45.62005" lon="5.61764">
        <ele>216</ele>
        <time>2012-11-04T08:12:46Z</time>
      </trkpt>
      <trkpt lat="45.62009" lon="5.61762">
        <ele>216</ele>
        <time>2012-11-04T08:12:47Z</time>
      </trkpt>
      <trkpt lat="45.62013" lon="5.61757">
        <ele>216</ele>
        <time>2012-11-04T08:12:48Z</time>
      </trkpt>
      <trkpt lat="45.62018" lon="5.61754">
        <ele>217</ele>
        <time>2012-11-04T08:12:49Z</time>
      </trkpt>
      <trkpt lat="45.62023" lon="5.61751">
        <ele>217</ele>
        <time>2012-11-04T08:12:50Z</time>
      </trkpt>
      <trkpt lat="45.6203" lon="5.61747">
        <ele>218</ele>
        <time>2012-11-04T08:12:51Z</time>
      </trkpt>
      <trkpt lat="45.62036" lon="5.61743">
        <ele>220</ele>
        <time>2012-11-04T08:12:54Z</time>
      </trkpt>
      <trkpt lat="45.62043" lon="5.61739">
        <ele>222</ele>
        <time>2012-11-04T08:12:56Z</time>
      </trkpt>
      <trkpt lat="45.6205" lon="5.61734">
        <ele>224</ele>
        <time>2012-11-04T08:12:58Z</time>
      </trkpt>
      <trkpt lat="45.62055" lon="5.61731">
        <ele>224</ele>
        <time>2012-11-04T08:12:59Z</time>
      </trkpt>
      <trkpt lat="45.62059" lon="5.61727">
        <ele>224</ele>
        <time>2012-11-04T08:13:00Z</time>
      </trkpt>
      <trkpt lat="45.62067" lon="5.6172">
        <ele>224</ele>
        <time>2012-11-04T08:13:02Z</time>
      </trkpt>
      <trkpt lat="45.62071" lon="5.61716">
        <ele>224</ele>
        <time>2012-11-04T08:13:03Z</time>
      </trkpt>
      <trkpt lat="45.62075" lon="5.61713">
        <ele>223</ele>
        <time>2012-11-04T08:13:04Z</time>
      </trkpt>
      <trkpt lat="45.6208" lon="5.6171">
        <ele>223</ele>
        <time>2012-11-04T08:13:05Z</time>
      </trkpt>
      <trkpt lat="45.62084" lon="5.61707">
        <ele>222</ele>
        <time>2012-11-04T08:13:06Z</time>
      </trkpt>
      <trkpt lat="45.62088" lon="5.61704">
        <ele>222</ele>
        <time>2012-11-04T08:13:07Z</time>
      </trkpt>
      <trkpt lat="45.62099" lon="5.617">
        <ele>222</ele>
        <time>2012-11-04T08:13:08Z</time>
      </trkpt>
      <trkpt lat="45.62105" lon="5.61695">
        <ele>222</ele>
        <time>2012-11-04T08:13:09Z</time>
      </trkpt>
      <trkpt lat="45.6211" lon="5.61692">
        <ele>222</ele>
        <time>2012-11-04T08:13:10Z</time>
      </trkpt>
      <trkpt lat="45.62117" lon="5.61686">
        <ele>222</ele>
        <time>2012-11-04T08:13:12Z</time>
      </trkpt>
      <trkpt lat="45.62123" lon="5.61681">
        <ele>222</ele>
        <time>2012-11-04T08:13:14Z</time>
      </trkpt>
      <trkpt lat="45.62128" lon="5.61679">
        <ele>222</ele>
        <time>2012-11-04T08:13:15Z</time>
      </trkpt>
      <trkpt lat="45.62136" lon="5.61673">
        <ele>222</ele>
        <time>2012-11-04T08:13:17Z</time>
      </trkpt>
      <trkpt lat="45.62141" lon="5.61669">
        <ele>222</ele>
        <time>2012-11-04T08:13:18Z</time>
      </trkpt>
      <trkpt lat="45.62147" lon="5.61663">
        <ele>222</ele>
        <time>2012-11-04T08:13:20Z</time>
      </trkpt>
      <trkpt lat="45.62154" lon="5.61657">
        <ele>222</ele>
        <time>2012-11-04T08:13:22Z</time>
      </trkpt>
      <trkpt lat="45.62162" lon="5.61652">
        <ele>222</ele>
        <time>2012-11-04T08:13:24Z</time>
      </trkpt>
      <trkpt lat="45.62167" lon="5.61649">
        <ele>223</ele>
        <time>2012-11-04T08:13:25Z</time>
      </trkpt>
      <trkpt lat="45.62172" lon="5.61646">
        <ele>223</ele>
        <time>2012-11-04T08:13:25Z</time>
      </trkpt>
      <trkpt lat="45.62178" lon="5.61643">
        <ele>222</ele>
        <time>2012-11-04T08:13:27Z</time>
      </trkpt>
      <trkpt lat="45.62183" lon="5.6164">
        <ele>222</ele>
        <time>2012-11-04T08:13:28Z</time>
      </trkpt>
      <trkpt lat="45.62188" lon="5.61637">
        <ele>221</ele>
        <time>2012-11-04T08:13:29Z</time>
      </trkpt>
      <trkpt lat="45.62193" lon="5.61633">
        <ele>221</ele>
        <time>2012-11-04T08:13:30Z</time>
      </trkpt>
      <trkpt lat="45.6221" lon="5.61623">
        <ele>221</ele>
        <time>2012-11-04T08:13:32Z</time>
      </trkpt>
      <trkpt lat="45.62215" lon="5.61618">
        <ele>221</ele>
        <time>2012-11-04T08:13:33Z</time>
      </trkpt>
      <trkpt lat="45.62222" lon="5.61613">
        <ele>221</ele>
        <time>2012-11-04T08:13:35Z</time>
      </trkpt>
      <trkpt lat="45.62227" lon="5.6161">
        <ele>220</ele>
        <time>2012-11-04T08:13:36Z</time>
      </trkpt>
      <trkpt lat="45.62231" lon="5.61608">
        <ele>220</ele>
        <time>2012-11-04T08:13:37Z</time>
      </trkpt>
      <trkpt lat="45.62238" lon="5.61602">
        <ele>220</ele>
        <time>2012-11-04T08:13:39Z</time>
      </trkpt>
      <trkpt lat="45.62245" lon="5.61595">
        <ele>219</ele>
        <time>2012-11-04T08:13:41Z</time>
      </trkpt>
      <trkpt lat="45.62248" lon="5.61591">
        <ele>219</ele>
        <time>2012-11-04T08:13:42Z</time>
      </trkpt>
      <trkpt lat="45.62255" lon="5.61585">
        <ele>219</ele>
        <time>2012-11-04T08:13:44Z</time>
      </trkpt>
      <trkpt lat="45.62263" lon="5.61579">
        <ele>219</ele>
        <time>2012-11-04T08:13:45Z</time>
      </trkpt>
      <trkpt lat="45.62268" lon="5.61577">
        <ele>220</ele>
        <time>2012-11-04T08:13:47Z</time>
      </trkpt>
      <trkpt lat="45.62273" lon="5.61575">
        <ele>219</ele>
        <time>2012-11-04T08:13:48Z</time>
      </trkpt>
      <trkpt lat="45.62278" lon="5.61572">
        <ele>219</ele>
        <time>2012-11-04T08:13:49Z</time>
      </trkpt>
      <trkpt lat="45.62282" lon="5.6157">
        <ele>219</ele>
        <time>2012-11-04T08:13:50Z</time>
      </trkpt>
      <trkpt lat="45.62287" lon="5.61568">
        <ele>220</ele>
        <time>2012-11-04T08:13:51Z</time>
      </trkpt>
      <trkpt lat="45.62292" lon="5.61566">
        <ele>220</ele>
        <time>2012-11-04T08:13:52Z</time>
      </trkpt>
      <trkpt lat="45.62297" lon="5.61563">
        <ele>220</ele>
        <time>2012-11-04T08:13:53Z</time>
      </trkpt>
      <trkpt lat="45.62302" lon="5.61561">
        <ele>220</ele>
        <time>2012-11-04T08:13:53Z</time>
      </trkpt>
      <trkpt lat="45.6231" lon="5.61556">
        <ele>221</ele>
        <time>2012-11-04T08:13:56Z</time>
      </trkpt>
      <trkpt lat="45.62315" lon="5.61553">
        <ele>221</ele>
        <time>2012-11-04T08:13:57Z</time>
      </trkpt>
      <trkpt lat="45.62319" lon="5.61549">
        <ele>221</ele>
        <time>2012-11-04T08:13:58Z</time>
      </trkpt>
      <trkpt lat="45.62323" lon="5.61546">
        <ele>221</ele>
        <time>2012-11-04T08:13:59Z</time>
      </trkpt>
      <trkpt lat="45.62331" lon="5.61542">
        <ele>221</ele>
        <time>2012-11-04T08:14:01Z</time>
      </trkpt>
      <trkpt lat="45.62336" lon="5.6154">
        <ele>221</ele>
        <time>2012-11-04T08:14:02Z</time>
      </trkpt>
      <trkpt lat="45.62344" lon="5.61537">
        <ele>221</ele>
        <time>2012-11-04T08:14:04Z</time>
      </trkpt>
      <trkpt lat="45.62352" lon="5.61535">
        <ele>221</ele>
        <time>2012-11-04T08:14:06Z</time>
      </trkpt>
      <trkpt lat="45.62358" lon="5.61532">
        <ele>221</ele>
        <time>2012-11-04T08:14:07Z</time>
      </trkpt>
      <trkpt lat="45.62362" lon="5.6153">
        <ele>220</ele>
        <time>2012-11-04T08:14:09Z</time>
      </trkpt>
      <trkpt lat="45.62369" lon="5.61526">
        <ele>220</ele>
        <time>2012-11-04T08:14:11Z</time>
      </trkpt>
      <trkpt lat="45.62374" lon="5.61523">
        <ele>219</ele>
        <time>2012-11-04T08:14:13Z</time>
      </trkpt>
      <trkpt lat="45.62378" lon="5.6152">
        <ele>219</ele>
        <time>2012-11-04T08:14:15Z</time>
      </trkpt>
      <trkpt lat="45.62383" lon="5.61517">
        <ele>218</ele>
        <time>2012-11-04T08:14:18Z</time>
      </trkpt>
      <trkpt lat="45.62388" lon="5.61515">
        <ele>218</ele>
        <time>2012-11-04T08:14:21Z</time>
      </trkpt>
      <trkpt lat="45.62393" lon="5.61513">
        <ele>218</ele>
        <time>2012-11-04T08:14:23Z</time>
      </trkpt>
      <trkpt lat="45.62399" lon="5.61508">
        <ele>217</ele>
        <time>2012-11-04T08:14:24Z</time>
      </trkpt>
      <trkpt lat="45.62404" lon="5.61504">
        <ele>217</ele>
        <time>2012-11-04T08:14:25Z</time>
      </trkpt>
      <trkpt lat="45.62411" lon="5.61498">
        <ele>217</ele>
        <time>2012-11-04T08:14:27Z</time>
      </trkpt>
      <trkpt lat="45.62418" lon="5.61492">
        <ele>217</ele>
        <time>2012-11-04T08:14:29Z</time>
      </trkpt>
      <trkpt lat="45.62425" lon="5.61486">
        <ele>217</ele>
        <time>2012-11-04T08:14:31Z</time>
      </trkpt>
      <trkpt lat="45.62432" lon="5.6148">
        <ele>216</ele>
        <time>2012-11-04T08:14:33Z</time>
      </trkpt>
      <trkpt lat="45.62438" lon="5.61472">
        <ele>216</ele>
        <time>2012-11-04T08:14:35Z</time>
      </trkpt>
      <trkpt lat="45.62442" lon="5.61462">
        <ele>216</ele>
        <time>2012-11-04T08:14:37Z</time>
      </trkpt>
      <trkpt lat="45.62443" lon="5.6145">
        <ele>217</ele>
        <time>2012-11-04T08:14:39Z</time>
      </trkpt>
      <trkpt lat="45.62433" lon="5.61437">
        <ele>216</ele>
        <time>2012-11-04T08:14:40Z</time>
      </trkpt>
      <trkpt lat="45.6243" lon="5.6143">
        <ele>216</ele>
        <time>2012-11-04T08:14:41Z</time>
      </trkpt>
      <trkpt lat="45.62428" lon="5.61422">
        <ele>216</ele>
        <time>2012-11-04T08:14:42Z</time>
      </trkpt>
      <trkpt lat="45.62424" lon="5.6141">
        <ele>215</ele>
        <time>2012-11-04T08:14:43Z</time>
      </trkpt>
      <trkpt lat="45.62422" lon="5.61404">
        <ele>215</ele>
        <time>2012-11-04T08:14:45Z</time>
      </trkpt>
      <trkpt lat="45.62419" lon="5.61398">
        <ele>215</ele>
        <time>2012-11-04T08:14:46Z</time>
      </trkpt>
      <trkpt lat="45.62415" lon="5.61389">
        <ele>216</ele>
        <time>2012-11-04T08:14:48Z</time>
      </trkpt>
      <trkpt lat="45.62408" lon="5.61385">
        <ele>216</ele>
        <time>2012-11-04T08:14:50Z</time>
      </trkpt>
      <trkpt lat="45.62403" lon="5.61386">
        <ele>217</ele>
        <time>2012-11-04T08:14:53Z</time>
      </trkpt>
      <trkpt lat="45.62398" lon="5.61389">
        <ele>218</ele>
        <time>2012-11-04T08:14:56Z</time>
      </trkpt>
      <trkpt lat="45.62393" lon="5.61394">
        <ele>218</ele>
        <time>2012-11-04T08:14:59Z</time>
      </trkpt>
      <trkpt lat="45.62389" lon="5.61399">
        <ele>219</ele>
        <time>2012-11-04T08:15:03Z</time>
      </trkpt>
      <trkpt lat="45.62393" lon="5.61408">
        <ele>220</ele>
        <time>2012-11-04T08:15:06Z</time>
      </trkpt>
      <trkpt lat="45.62399" lon="5.61417">
        <ele>221</ele>
        <time>2012-11-04T08:15:08Z</time>
      </trkpt>
      <trkpt lat="45.62402" lon="5.61422">
        <ele>221</ele>
        <time>2012-11-04T08:15:09Z</time>
      </trkpt>
      <trkpt lat="45.62407" lon="5.61432">
        <ele>222</ele>
        <time>2012-11-04T08:15:11Z</time>
      </trkpt>
      <trkpt lat="45.62409" lon="5.61438">
        <ele>222</ele>
        <time>2012-11-04T08:15:12Z</time>
      </trkpt>
      <trkpt lat="45.62412" lon="5.61443">
        <ele>223</ele>
        <time>2012-11-04T08:15:13Z</time>
      </trkpt>
      <trkpt lat="45.62415" lon="5.61449">
        <ele>223</ele>
        <time>2012-11-04T08:15:14Z</time>
      </trkpt>
      <trkpt lat="45.62419" lon="5.6146">
        <ele>223</ele>
        <time>2012-11-04T08:15:15Z</time>
      </trkpt>
      <trkpt lat="45.62421" lon="5.61466">
        <ele>224</ele>
        <time>2012-11-04T08:15:17Z</time>
      </trkpt>
      <trkpt lat="45.62425" lon="5.61477">
        <ele>224</ele>
        <time>2012-11-04T08:15:19Z</time>
      </trkpt>
      <trkpt lat="45.62428" lon="5.61484">
        <ele>225</ele>
        <time>2012-11-04T08:15:19Z</time>
      </trkpt>
      <trkpt lat="45.62431" lon="5.61493">
        <ele>225</ele>
        <time>2012-11-04T08:15:21Z</time>
      </trkpt>
      <trkpt lat="45.62433" lon="5.615">
        <ele>226</ele>
        <time>2012-11-04T08:15:22Z</time>
      </trkpt>
      <trkpt lat="45.62435" lon="5.61505">
        <ele>226</ele>
        <time>2012-11-04T08:15:23Z</time>
      </trkpt>
      <trkpt lat="45.62439" lon="5.61515">
        <ele>226</ele>
        <time>2012-11-04T08:15:25Z</time>
      </trkpt>
      <trkpt lat="45.62444" lon="5.61526">
        <ele>226</ele>
        <time>2012-11-04T08:15:27Z</time>
      </trkpt>
      <trkpt lat="45.62447" lon="5.61537">
        <ele>226</ele>
        <time>2012-11-04T08:15:29Z</time>
      </trkpt>
      <trkpt lat="45.62449" lon="5.61543">
        <ele>226</ele>
        <time>2012-11-04T08:15:30Z</time>
      </trkpt>
      <trkpt lat="45.62451" lon="5.61549">
        <ele>226</ele>
        <time>2012-11-04T08:15:31Z</time>
      </trkpt>
      <trkpt lat="45.62456" lon="5.61561">
        <ele>226</ele>
        <time>2012-11-04T08:15:33Z</time>
      </trkpt>
      <trkpt lat="45.62458" lon="5.61567">
        <ele>225</ele>
        <time>2012-11-04T08:15:34Z</time>
      </trkpt>
      <trkpt lat="45.62461" lon="5.61578">
        <ele>225</ele>
        <time>2012-11-04T08:15:36Z</time>
      </trkpt>
      <trkpt lat="45.62463" lon="5.61584">
        <ele>225</ele>
        <time>2012-11-04T08:15:37Z</time>
      </trkpt>
      <trkpt lat="45.62468" lon="5.61594">
        <ele>225</ele>
        <time>2012-11-04T08:15:39Z</time>
      </trkpt>
      <trkpt lat="45.6247" lon="5.61602">
        <ele>225</ele>
        <time>2012-11-04T08:15:40Z</time>
      </trkpt>
      <trkpt lat="45.62473" lon="5.61609">
        <ele>225</ele>
        <time>2012-11-04T08:15:41Z</time>
      </trkpt>
      <trkpt lat="45.62475" lon="5.61616">
        <ele>225</ele>
        <time>2012-11-04T08:15:42Z</time>
      </trkpt>
      <trkpt lat="45.62478" lon="5.61624">
        <ele>225</ele>
        <time>2012-11-04T08:15:43Z</time>
      </trkpt>
      <trkpt lat="45.62481" lon="5.6163">
        <ele>225</ele>
        <time>2012-11-04T08:15:44Z</time>
      </trkpt>
      <trkpt lat="45.62483" lon="5.61637">
        <ele>225</ele>
        <time>2012-11-04T08:15:45Z</time>
      </trkpt>
      <trkpt lat="45.62486" lon="5.61645">
        <ele>225</ele>
        <time>2012-11-04T08:15:46Z</time>
      </trkpt>
      <trkpt lat="45.62489" lon="5.61652">
        <ele>226</ele>
        <time>2012-11-04T08:15:47Z</time>
      </trkpt>
      <trkpt lat="45.62492" lon="5.61661">
        <ele>226</ele>
        <time>2012-11-04T08:15:47Z</time>
      </trkpt>
      <trkpt lat="45.62495" lon="5.61668">
        <ele>226</ele>
        <time>2012-11-04T08:15:49Z</time>
      </trkpt>
      <trkpt lat="45.62498" lon="5.61673">
        <ele>226</ele>
        <time>2012-11-04T08:15:50Z</time>
      </trkpt>
      <trkpt lat="45.625" lon="5.61682">
        <ele>226</ele>
        <time>2012-11-04T08:15:51Z</time>
      </trkpt>
      <trkpt lat="45.62503" lon="5.61691">
        <ele>226</ele>
        <time>2012-11-04T08:15:52Z</time>
      </trkpt>
      <trkpt lat="45.62505" lon="5.61699">
        <ele>225</ele>
        <time>2012-11-04T08:15:53Z</time>
      </trkpt>
      <trkpt lat="45.62509" lon="5.61708">
        <ele>225</ele>
        <time>2012-11-04T08:15:54Z</time>
      </trkpt>
      <trkpt lat="45.62511" lon="5.61717">
        <ele>225</ele>
        <time>2012-11-04T08:15:55Z</time>
      </trkpt>
      <trkpt lat="45.62515" lon="5.61727">
        <ele>225</ele>
        <time>2012-11-04T08:15:56Z</time>
      </trkpt>
      <trkpt lat="45.62516" lon="5.61735">
        <ele>224</ele>
        <time>2012-11-04T08:15:57Z</time>
      </trkpt>
      <trkpt lat="45.62519" lon="5.61742">
        <ele>224</ele>
        <time>2012-11-04T08:15:58Z</time>
      </trkpt>
      <trkpt lat="45.62524" lon="5.61754">
        <ele>223</ele>
        <time>2012-11-04T08:15:59Z</time>
      </trkpt>
      <trkpt lat="45.62528" lon="5.61764">
        <ele>222</ele>
        <time>2012-11-04T08:16:00Z</time>
      </trkpt>
      <trkpt lat="45.6253" lon="5.61775">
        <ele>222</ele>
        <time>2012-11-04T08:16:01Z</time>
      </trkpt>
      <trkpt lat="45.62534" lon="5.61784">
        <ele>221</ele>
        <time>2012-11-04T08:16:02Z</time>
      </trkpt>
      <trkpt lat="45.62538" lon="5.61795">
        <ele>220</ele>
        <time>2012-11-04T08:16:03Z</time>
      </trkpt>
      <trkpt lat="45.62542" lon="5.61808">
        <ele>219</ele>
        <time>2012-11-04T08:16:04Z</time>
      </trkpt>
      <trkpt lat="45.62546" lon="5.6182">
        <ele>219</ele>
        <time>2012-11-04T08:16:05Z</time>
      </trkpt>
      <trkpt lat="45.6255" lon="5.6183">
        <ele>218</ele>
        <time>2012-11-04T08:16:06Z</time>
      </trkpt>
      <trkpt lat="45.62554" lon="5.6184">
        <ele>219</ele>
        <time>2012-11-04T08:16:07Z</time>
      </trkpt>
      <trkpt lat="45.62558" lon="5.61849">
        <ele>218</ele>
        <time>2012-11-04T08:16:08Z</time>
      </trkpt>
      <trkpt lat="45.62562" lon="5.61859">
        <ele>218</ele>
        <time>2012-11-04T08:16:09Z</time>
      </trkpt>
      <trkpt lat="45.62565" lon="5.61868">
        <ele>218</ele>
        <time>2012-11-04T08:16:10Z</time>
      </trkpt>
      <trkpt lat="45.62568" lon="5.61878">
        <ele>218</ele>
        <time>2012-11-04T08:16:11Z</time>
      </trkpt>
      <trkpt lat="45.62571" lon="5.61885">
        <ele>218</ele>
        <time>2012-11-04T08:16:12Z</time>
      </trkpt>
      <trkpt lat="45.62575" lon="5.61894">
        <ele>219</ele>
        <time>2012-11-04T08:16:13Z</time>
      </trkpt>
      <trkpt lat="45.62577" lon="5.61902">
        <ele>219</ele>
        <time>2012-11-04T08:16:14Z</time>
      </trkpt>
      <trkpt lat="45.62579" lon="5.6191">
        <ele>219</ele>
        <time>2012-11-04T08:16:15Z</time>
      </trkpt>
      <trkpt lat="45.62581" lon="5.61917">
        <ele>219</ele>
        <time>2012-11-04T08:16:16Z</time>
      </trkpt>
      <trkpt lat="45.62583" lon="5.61925">
        <ele>219</ele>
        <time>2012-11-04T08:16:17Z</time>
      </trkpt>
      <trkpt lat="45.62589" lon="5.61937">
        <ele>219</ele>
        <time>2012-11-04T08:16:19Z</time>
      </trkpt>
      <trkpt lat="45.6259" lon="5.61944">
        <ele>219</ele>
        <time>2012-11-04T08:16:20Z</time>
      </trkpt>
      <trkpt lat="45.62593" lon="5.61955">
        <ele>219</ele>
        <time>2012-11-04T08:16:22Z</time>
      </trkpt>
      <trkpt lat="45.62594" lon="5.61961">
        <ele>219</ele>
        <time>2012-11-04T08:16:23Z</time>
      </trkpt>
      <trkpt lat="45.62596" lon="5.61968">
        <ele>219</ele>
        <time>2012-11-04T08:16:24Z</time>
      </trkpt>
      <trkpt lat="45.62594" lon="5.61975">
        <ele>219</ele>
        <time>2012-11-04T08:16:26Z</time>
      </trkpt>
      <trkpt lat="45.62585" lon="5.61988">
        <ele>218</ele>
        <time>2012-11-04T08:16:28Z</time>
      </trkpt>
      <trkpt lat="45.6258" lon="5.61995">
        <ele>218</ele>
        <time>2012-11-04T08:16:29Z</time>
      </trkpt>
      <trkpt lat="45.62576" lon="5.62">
        <ele>217</ele>
        <time>2012-11-04T08:16:30Z</time>
      </trkpt>
      <trkpt lat="45.62573" lon="5.62005">
        <ele>217</ele>
        <time>2012-11-04T08:16:31Z</time>
      </trkpt>
      <trkpt lat="45.62568" lon="5.62012">
        <ele>216</ele>
        <time>2012-11-04T08:16:32Z</time>
      </trkpt>
      <trkpt lat="45.62565" lon="5.62016">
        <ele>216</ele>
        <time>2012-11-04T08:16:33Z</time>
      </trkpt>
      <trkpt lat="45.6256" lon="5.62023">
        <ele>215</ele>
        <time>2012-11-04T08:16:34Z</time>
      </trkpt>
      <trkpt lat="45.62556" lon="5.62028">
        <ele>215</ele>
        <time>2012-11-04T08:16:35Z</time>
      </trkpt>
      <trkpt lat="45.62553" lon="5.62033">
        <ele>215</ele>
        <time>2012-11-04T08:16:36Z</time>
      </trkpt>
      <trkpt lat="45.62546" lon="5.62042">
        <ele>215</ele>
        <time>2012-11-04T08:16:38Z</time>
      </trkpt>
      <trkpt lat="45.62542" lon="5.62048">
        <ele>215</ele>
        <time>2012-11-04T08:16:39Z</time>
      </trkpt>
      <trkpt lat="45.62536" lon="5.62057">
        <ele>215</ele>
        <time>2012-11-04T08:16:41Z</time>
      </trkpt>
      <trkpt lat="45.62531" lon="5.62063">
        <ele>215</ele>
        <time>2012-11-04T08:16:42Z</time>
      </trkpt>
      <trkpt lat="45.62527" lon="5.62068">
        <ele>215</ele>
        <time>2012-11-04T08:16:43Z</time>
      </trkpt>
      <trkpt lat="45.62522" lon="5.62075">
        <ele>215</ele>
        <time>2012-11-04T08:16:45Z</time>
      </trkpt>
      <trkpt lat="45.62519" lon="5.6208">
        <ele>215</ele>
        <time>2012-11-04T08:16:46Z</time>
      </trkpt>
      <trkpt lat="45.6251" lon="5.62092">
        <ele>215</ele>
        <time>2012-11-04T08:16:47Z</time>
      </trkpt>
      <trkpt lat="45.62505" lon="5.62097">
        <ele>215</ele>
        <time>2012-11-04T08:16:49Z</time>
      </trkpt>
      <trkpt lat="45.62501" lon="5.62101">
        <ele>215</ele>
        <time>2012-11-04T08:16:50Z</time>
      </trkpt>
      <trkpt lat="45.62497" lon="5.62105">
        <ele>215</ele>
        <time>2012-11-04T08:16:51Z</time>
      </trkpt>
      <trkpt lat="45.62488" lon="5.62113">
        <ele>216</ele>
        <time>2012-11-04T08:16:53Z</time>
      </trkpt>
      <trkpt lat="45.62481" lon="5.62119">
        <ele>216</ele>
        <time>2012-11-04T08:16:54Z</time>
      </trkpt>
      <trkpt lat="45.62476" lon="5.62124">
        <ele>216</ele>
        <time>2012-11-04T08:16:55Z</time>
      </trkpt>
      <trkpt lat="45.6247" lon="5.6213">
        <ele>215</ele>
        <time>2012-11-04T08:16:56Z</time>
      </trkpt>
      <trkpt lat="45.62466" lon="5.62134">
        <ele>215</ele>
        <time>2012-11-04T08:16:57Z</time>
      </trkpt>
      <trkpt lat="45.6246" lon="5.62139">
        <ele>215</ele>
        <time>2012-11-04T08:16:58Z</time>
      </trkpt>
      <trkpt lat="45.62455" lon="5.62144">
        <ele>215</ele>
        <time>2012-11-04T08:16:59Z</time>
      </trkpt>
      <trkpt lat="45.62446" lon="5.62152">
        <ele>215</ele>
        <time>2012-11-04T08:17:01Z</time>
      </trkpt>
      <trkpt lat="45.62441" lon="5.62157">
        <ele>215</ele>
        <time>2012-11-04T08:17:02Z</time>
      </trkpt>
      <trkpt lat="45.62435" lon="5.62162">
        <ele>214</ele>
        <time>2012-11-04T08:17:03Z</time>
      </trkpt>
      <trkpt lat="45.62431" lon="5.62166">
        <ele>214</ele>
        <time>2012-11-04T08:17:03Z</time>
      </trkpt>
      <trkpt lat="45.62424" lon="5.62172">
        <ele>213</ele>
        <time>2012-11-04T08:17:04Z</time>
      </trkpt>
      <trkpt lat="45.62419" lon="5.62177">
        <ele>213</ele>
        <time>2012-11-04T08:17:06Z</time>
      </trkpt>
      <trkpt lat="45.62413" lon="5.62181">
        <ele>213</ele>
        <time>2012-11-04T08:17:07Z</time>
      </trkpt>
      <trkpt lat="45.62408" lon="5.62185">
        <ele>213</ele>
        <time>2012-11-04T08:17:08Z</time>
      </trkpt>
      <trkpt lat="45.62402" lon="5.62189">
        <ele>213</ele>
        <time>2012-11-04T08:17:09Z</time>
      </trkpt>
      <trkpt lat="45.62398" lon="5.62193">
        <ele>213</ele>
        <time>2012-11-04T08:17:10Z</time>
      </trkpt>
      <trkpt lat="45.62392" lon="5.62197">
        <ele>213</ele>
        <time>2012-11-04T08:17:10Z</time>
      </trkpt>
      <trkpt lat="45.62387" lon="5.62201">
        <ele>212</ele>
        <time>2012-11-04T08:17:12Z</time>
      </trkpt>
      <trkpt lat="45.62382" lon="5.62204">
        <ele>212</ele>
        <time>2012-11-04T08:17:13Z</time>
      </trkpt>
      <trkpt lat="45.62377" lon="5.62208">
        <ele>212</ele>
        <time>2012-11-04T08:17:14Z</time>
      </trkpt>
      <trkpt lat="45.62371" lon="5.62211">
        <ele>211</ele>
        <time>2012-11-04T08:17:15Z</time>
      </trkpt>
      <trkpt lat="45.62367" lon="5.62214">
        <ele>211</ele>
        <time>2012-11-04T08:17:16Z</time>
      </trkpt>
      <trkpt lat="45.62361" lon="5.62217">
        <ele>211</ele>
        <time>2012-11-04T08:17:17Z</time>
      </trkpt>
      <trkpt lat="45.62356" lon="5.6222">
        <ele>211</ele>
        <time>2012-11-04T08:17:18Z</time>
      </trkpt>
      <trkpt lat="45.6235" lon="5.62224">
        <ele>210</ele>
        <time>2012-11-04T08:17:19Z</time>
      </trkpt>
      <trkpt lat="45.62344" lon="5.62227">
        <ele>210</ele>
        <time>2012-11-04T08:17:20Z</time>
      </trkpt>
      <trkpt lat="45.62339" lon="5.6223">
        <ele>210</ele>
        <time>2012-11-04T08:17:21Z</time>
      </trkpt>
      <trkpt lat="45.62335" lon="5.62232">
        <ele>210</ele>
        <time>2012-11-04T08:17:22Z</time>
      </trkpt>
      <trkpt lat="45.62329" lon="5.62235">
        <ele>210</ele>
        <time>2012-11-04T08:17:23Z</time>
      </trkpt>
      <trkpt lat="45.62324" lon="5.62238">
        <ele>210</ele>
        <time>2012-11-04T08:17:24Z</time>
      </trkpt>
      <trkpt lat="45.62319" lon="5.62241">
        <ele>210</ele>
        <time>2012-11-04T08:17:25Z</time>
      </trkpt>
      <trkpt lat="45.62314" lon="5.62244">
        <ele>210</ele>
        <time>2012-11-04T08:17:26Z</time>
      </trkpt>
      <trkpt lat="45.62308" lon="5.62247">
        <ele>210</ele>
        <time>2012-11-04T08:17:27Z</time>
      </trkpt>
      <trkpt lat="45.62303" lon="5.6225">
        <ele>210</ele>
        <time>2012-11-04T08:17:28Z</time>
      </trkpt>
      <trkpt lat="45.62299" lon="5.62253">
        <ele>210</ele>
        <time>2012-11-04T08:17:29Z</time>
      </trkpt>
      <trkpt lat="45.62294" lon="5.62255">
        <ele>210</ele>
        <time>2012-11-04T08:17:29Z</time>
      </trkpt>
      <trkpt lat="45.62288" lon="5.62259">
        <ele>210</ele>
        <time>2012-11-04T08:17:31Z</time>
      </trkpt>
      <trkpt lat="45.62283" lon="5.62262">
        <ele>211</ele>
        <time>2012-11-04T08:17:32Z</time>
      </trkpt>
      <trkpt lat="45.62278" lon="5.62265">
        <ele>211</ele>
        <time>2012-11-04T08:17:33Z</time>
      </trkpt>
      <trkpt lat="45.62273" lon="5.62267">
        <ele>211</ele>
        <time>2012-11-04T08:17:34Z</time>
      </trkpt>
      <trkpt lat="45.62268" lon="5.6227">
        <ele>211</ele>
        <time>2012-11-04T08:17:35Z</time>
      </trkpt>
      <trkpt lat="45.62263" lon="5.62273">
        <ele>212</ele>
        <time>2012-11-04T08:17:36Z</time>
      </trkpt>
      <trkpt lat="45.62258" lon="5.62275">
        <ele>212</ele>
        <time>2012-11-04T08:17:37Z</time>
      </trkpt>
      <trkpt lat="45.62253" lon="5.62278">
        <ele>212</ele>
        <time>2012-11-04T08:17:38Z</time>
      </trkpt>
      <trkpt lat="45.62248" lon="5.6228">
        <ele>212</ele>
        <time>2012-11-04T08:17:39Z</time>
      </trkpt>
      <trkpt lat="45.62242" lon="5.62283">
        <ele>212</ele>
        <time>2012-11-04T08:17:40Z</time>
      </trkpt>
      <trkpt lat="45.62237" lon="5.62285">
        <ele>212</ele>
        <time>2012-11-04T08:17:41Z</time>
      </trkpt>
      <trkpt lat="45.62233" lon="5.62287">
        <ele>212</ele>
        <time>2012-11-04T08:17:42Z</time>
      </trkpt>
      <trkpt lat="45.62228" lon="5.6229">
        <ele>212</ele>
        <time>2012-11-04T08:17:43Z</time>
      </trkpt>
      <trkpt lat="45.62223" lon="5.62292">
        <ele>213</ele>
        <time>2012-11-04T08:17:44Z</time>
      </trkpt>
      <trkpt lat="45.62217" lon="5.62295">
        <ele>213</ele>
        <time>2012-11-04T08:17:45Z</time>
      </trkpt>
      <trkpt lat="45.62211" lon="5.62297">
        <ele>213</ele>
        <time>2012-11-04T08:17:46Z</time>
      </trkpt>
      <trkpt lat="45.62205" lon="5.623">
        <ele>214</ele>
        <time>2012-11-04T08:17:47Z</time>
      </trkpt>
      <trkpt lat="45.62196" lon="5.62305">
        <ele>214</ele>
        <time>2012-11-04T08:17:49Z</time>
      </trkpt>
      <trkpt lat="45.6219" lon="5.62307">
        <ele>215</ele>
        <time>2012-11-04T08:17:50Z</time>
      </trkpt>
      <trkpt lat="45.62186" lon="5.62309">
        <ele>215</ele>
        <time>2012-11-04T08:17:51Z</time>
      </trkpt>
      <trkpt lat="45.62181" lon="5.62312">
        <ele>215</ele>
        <time>2012-11-04T08:17:52Z</time>
      </trkpt>
      <trkpt lat="45.62176" lon="5.62314">
        <ele>215</ele>
        <time>2012-11-04T08:17:53Z</time>
      </trkpt>
      <trkpt lat="45.62171" lon="5.62316">
        <ele>215</ele>
        <time>2012-11-04T08:17:54Z</time>
      </trkpt>
      <trkpt lat="45.62165" lon="5.62319">
        <ele>215</ele>
        <time>2012-11-04T08:17:55Z</time>
      </trkpt>
      <trkpt lat="45.62156" lon="5.62323">
        <ele>214</ele>
        <time>2012-11-04T08:17:57Z</time>
      </trkpt>
      <trkpt lat="45.62151" lon="5.62326">
        <ele>214</ele>
        <time>2012-11-04T08:17:58Z</time>
      </trkpt>
      <trkpt lat="45.62147" lon="5.62328">
        <ele>214</ele>
        <time>2012-11-04T08:17:59Z</time>
      </trkpt>
      <trkpt lat="45.62142" lon="5.6233">
        <ele>214</ele>
        <time>2012-11-04T08:18:00Z</time>
      </trkpt>
      <trkpt lat="45.62133" lon="5.62334">
        <ele>213</ele>
        <time>2012-11-04T08:18:02Z</time>
      </trkpt>
      <trkpt lat="45.62139" lon="5.62349">
        <ele>213</ele>
        <time>2012-11-04T08:18:04Z</time>
      </trkpt>
      <trkpt lat="45.62143" lon="5.62355">
        <ele>212</ele>
        <time>2012-11-04T08:18:05Z</time>
      </trkpt>
      <trkpt lat="45.62148" lon="5.62362">
        <ele>213</ele>
        <time>2012-11-04T08:18:07Z</time>
      </trkpt>
      <trkpt lat="45.62152" lon="5.62367">
        <ele>212</ele>
        <time>2012-11-04T08:18:08Z</time>
      </trkpt>
      <trkpt lat="45.62156" lon="5.62377">
        <ele>212</ele>
        <time>2012-11-04T08:18:10Z</time>
      </trkpt>
      <trkpt lat="45.62162" lon="5.62387">
        <ele>213</ele>
        <time>2012-11-04T08:18:12Z</time>
      </trkpt>
      <trkpt lat="45.62167" lon="5.62397">
        <ele>213</ele>
        <time>2012-11-04T08:18:14Z</time>
      </trkpt>
      <trkpt lat="45.6217" lon="5.62401">
        <ele>212</ele>
        <time>2012-11-04T08:18:15Z</time>
      </trkpt>
      <trkpt lat="45.62176" lon="5.62411">
        <ele>212</ele>
        <time>2012-11-04T08:18:17Z</time>
      </trkpt>
      <trkpt lat="45.62181" lon="5.62419">
        <ele>212</ele>
        <time>2012-11-04T08:18:18Z</time>
      </trkpt>
      <trkpt lat="45.62184" lon="5.62424">
        <ele>212</ele>
        <time>2012-11-04T08:18:20Z</time>
      </trkpt>
      <trkpt lat="45.62191" lon="5.62434">
        <ele>212</ele>
        <time>2012-11-04T08:18:22Z</time>
      </trkpt>
      <trkpt lat="45.62194" lon="5.62439">
        <ele>212</ele>
        <time>2012-11-04T08:18:23Z</time>
      </trkpt>
      <trkpt lat="45.62199" lon="5.62447">
        <ele>212</ele>
        <time>2012-11-04T08:18:25Z</time>
      </trkpt>
      <trkpt lat="45.62202" lon="5.62454">
        <ele>212</ele>
        <time>2012-11-04T08:18:26Z</time>
      </trkpt>
      <trkpt lat="45.62205" lon="5.6246">
        <ele>212</ele>
        <time>2012-11-04T08:18:27Z</time>
      </trkpt>
      <trkpt lat="45.6221" lon="5.62468">
        <ele>212</ele>
        <time>2012-11-04T08:18:29Z</time>
      </trkpt>
      <trkpt lat="45.62215" lon="5.62475">
        <ele>212</ele>
        <time>2012-11-04T08:18:31Z</time>
      </trkpt>
      <trkpt lat="45.62219" lon="5.6248">
        <ele>212</ele>
        <time>2012-11-04T08:18:33Z</time>
      </trkpt>
      <trkpt lat="45.62223" lon="5.62485">
        <ele>212</ele>
        <time>2012-11-04T08:18:35Z</time>
      </trkpt>
      <trkpt lat="45.62228" lon="5.62491">
        <ele>212</ele>
        <time>2012-11-04T08:18:37Z</time>
      </trkpt>
      <trkpt lat="45.62232" lon="5.62497">
        <ele>212</ele>
        <time>2012-11-04T08:18:39Z</time>
      </trkpt>
      <trkpt lat="45.62236" lon="5.62504">
        <ele>212</ele>
        <time>2012-11-04T08:18:41Z</time>
      </trkpt>
      <trkpt lat="45.62239" lon="5.62511">
        <ele>212</ele>
        <time>2012-11-04T08:18:43Z</time>
      </trkpt>
      <trkpt lat="45.62241" lon="5.62518">
        <ele>213</ele>
        <time>2012-11-04T08:18:45Z</time>
      </trkpt>
      <trkpt lat="45.62242" lon="5.62525">
        <ele>213</ele>
        <time>2012-11-04T08:18:47Z</time>
      </trkpt>
      <trkpt lat="45.62243" lon="5.62531">
        <ele>213</ele>
        <time>2012-11-04T08:18:49Z</time>
      </trkpt>
      <trkpt lat="45.62243" lon="5.6254">
        <ele>214</ele>
        <time>2012-11-04T08:18:52Z</time>
      </trkpt>
      <trkpt lat="45.62243" lon="5.62549">
        <ele>215</ele>
        <time>2012-11-04T08:18:55Z</time>
      </trkpt>
      <trkpt lat="45.62243" lon="5.62558">
        <ele>216</ele>
        <time>2012-11-04T08:18:58Z</time>
      </trkpt>
      <trkpt lat="45.62242" lon="5.62565">
        <ele>218</ele>
        <time>2012-11-04T08:19:01Z</time>
      </trkpt>
      <trkpt lat="45.62243" lon="5.62575">
        <ele>220</ele>
        <time>2012-11-04T08:19:04Z</time>
      </trkpt>
      <trkpt lat="45.62243" lon="5.62582">
        <ele>219</ele>
        <time>2012-11-04T08:19:07Z</time>
      </trkpt>
      <trkpt lat="45.62243" lon="5.62589">
        <ele>220</ele>
        <time>2012-11-04T08:19:10Z</time>
      </trkpt>
      <trkpt lat="45.62244" lon="5.62598">
        <ele>220</ele>
        <time>2012-11-04T08:19:13Z</time>
      </trkpt>
      <trkpt lat="45.62243" lon="5.62605">
        <ele>220</ele>
        <time>2012-11-04T08:19:16Z</time>
      </trkpt>
      <trkpt lat="45.62243" lon="5.62612">
        <ele>221</ele>
        <time>2012-11-04T08:19:19Z</time>
      </trkpt>
      <trkpt lat="45.62242" lon="5.6262">
        <ele>221</ele>
        <time>2012-11-04T08:19:23Z</time>
      </trkpt>
      <trkpt lat="45.62241" lon="5.62628">
        <ele>222</ele>
        <time>2012-11-04T08:19:26Z</time>
      </trkpt>
      <trkpt lat="45.62244" lon="5.62635">
        <ele>222</ele>
        <time>2012-11-04T08:19:29Z</time>
      </trkpt>
      <trkpt lat="45.62247" lon="5.62644">
        <ele>223</ele>
        <time>2012-11-04T08:19:32Z</time>
      </trkpt>
      <trkpt lat="45.6225" lon="5.6265">
        <ele>225</ele>
        <time>2012-11-04T08:19:34Z</time>
      </trkpt>
      <trkpt lat="45.62253" lon="5.62655">
        <ele>226</ele>
        <time>2012-11-04T08:19:36Z</time>
      </trkpt>
      <trkpt lat="45.62256" lon="5.62659">
        <ele>227</ele>
        <time>2012-11-04T08:19:38Z</time>
      </trkpt>
      <trkpt lat="45.6226" lon="5.62664">
        <ele>229</ele>
        <time>2012-11-04T08:19:40Z</time>
      </trkpt>
      <trkpt lat="45.62264" lon="5.62669">
        <ele>231</ele>
        <time>2012-11-04T08:19:42Z</time>
      </trkpt>
      <trkpt lat="45.62306" lon="5.62706">
        <ele>249</ele>
        <time>2012-11-04T08:20:07Z</time>
      </trkpt>
      <trkpt lat="45.62312" lon="5.62709">
        <ele>249</ele>
        <time>2012-11-04T08:20:10Z</time>
      </trkpt>
      <trkpt lat="45.62316" lon="5.62711">
        <ele>250</ele>
        <time>2012-11-04T08:20:12Z</time>
      </trkpt>
      <trkpt lat="45.62322" lon="5.62713">
        <ele>250</ele>
        <time>2012-11-04T08:20:15Z</time>
      </trkpt>
      <trkpt lat="45.62328" lon="5.62714">
        <ele>251</ele>
        <time>2012-11-04T08:20:18Z</time>
      </trkpt>
      <trkpt lat="45.6233" lon="5.62715">
        <ele>251</ele>
        <time>2012-11-04T08:20:24Z</time>
      </trkpt>
      <trkpt lat="45.62335" lon="5.62714">
        <ele>249</ele>
        <time>2012-11-04T08:20:51Z</time>
      </trkpt>
      <trkpt lat="45.62341" lon="5.62713">
        <ele>249</ele>
        <time>2012-11-04T08:20:54Z</time>
      </trkpt>
      <trkpt lat="45.62348" lon="5.62714">
        <ele>249</ele>
        <time>2012-11-04T08:20:57Z</time>
      </trkpt>
      <trkpt lat="45.62354" lon="5.6271">
        <ele>250</ele>
        <time>2012-11-04T08:20:59Z</time>
      </trkpt>
      <trkpt lat="45.62358" lon="5.62708">
        <ele>250</ele>
        <time>2012-11-04T08:21:01Z</time>
      </trkpt>
      <trkpt lat="45.62365" lon="5.62705">
        <ele>249</ele>
        <time>2012-11-04T08:21:03Z</time>
      </trkpt>
      <trkpt lat="45.62374" lon="5.62703">
        <ele>248</ele>
        <time>2012-11-04T08:21:05Z</time>
      </trkpt>
      <trkpt lat="45.62383" lon="5.62702">
        <ele>247</ele>
        <time>2012-11-04T08:21:07Z</time>
      </trkpt>
      <trkpt lat="45.62391" lon="5.62701">
        <ele>246</ele>
        <time>2012-11-04T08:21:09Z</time>
      </trkpt>
      <trkpt lat="45.62398" lon="5.62701">
        <ele>246</ele>
        <time>2012-11-04T08:21:11Z</time>
      </trkpt>
      <trkpt lat="45.62404" lon="5.62699">
        <ele>246</ele>
        <time>2012-11-04T08:21:13Z</time>
      </trkpt>
      <trkpt lat="45.6241" lon="5.627">
        <ele>245</ele>
        <time>2012-11-04T08:21:15Z</time>
      </trkpt>
      <trkpt lat="45.62414" lon="5.62704">
        <ele>245</ele>
        <time>2012-11-04T08:21:17Z</time>
      </trkpt>
      <trkpt lat="45.62418" lon="5.62709">
        <ele>246</ele>
        <time>2012-11-04T08:21:19Z</time>
      </trkpt>
      <trkpt lat="45.62422" lon="5.62719">
        <ele>246</ele>
        <time>2012-11-04T08:21:21Z</time>
      </trkpt>
      <trkpt lat="45.62423" lon="5.62726">
        <ele>246</ele>
        <time>2012-11-04T08:21:22Z</time>
      </trkpt>
      <trkpt lat="45.62425" lon="5.62748">
        <ele>247</ele>
        <time>2012-11-04T08:21:23Z</time>
      </trkpt>
      <trkpt lat="45.62426" lon="5.62756">
        <ele>247</ele>
        <time>2012-11-04T08:21:24Z</time>
      </trkpt>
      <trkpt lat="45.62427" lon="5.62768">
        <ele>247</ele>
        <time>2012-11-04T08:21:25Z</time>
      </trkpt>
      <trkpt lat="45.6243" lon="5.62774">
        <ele>248</ele>
        <time>2012-11-04T08:21:26Z</time>
      </trkpt>
      <trkpt lat="45.62433" lon="5.62782">
        <ele>248</ele>
        <time>2012-11-04T08:21:27Z</time>
      </trkpt>
      <trkpt lat="45.62441" lon="5.62784">
        <ele>247</ele>
        <time>2012-11-04T08:21:28Z</time>
      </trkpt>
      <trkpt lat="45.62444" lon="5.62793">
        <ele>246</ele>
        <time>2012-11-04T08:21:29Z</time>
      </trkpt>
      <trkpt lat="45.62447" lon="5.62801">
        <ele>246</ele>
        <time>2012-11-04T08:21:30Z</time>
      </trkpt>
      <trkpt lat="45.6245" lon="5.62807">
        <ele>245</ele>
        <time>2012-11-04T08:21:31Z</time>
      </trkpt>
      <trkpt lat="45.62452" lon="5.62817">
        <ele>244</ele>
        <time>2012-11-04T08:21:32Z</time>
      </trkpt>
      <trkpt lat="45.62454" lon="5.6283">
        <ele>243</ele>
        <time>2012-11-04T08:21:34Z</time>
      </trkpt>
      <trkpt lat="45.6246" lon="5.62846">
        <ele>242</ele>
        <time>2012-11-04T08:21:36Z</time>
      </trkpt>
      <trkpt lat="45.62462" lon="5.62852">
        <ele>242</ele>
        <time>2012-11-04T08:21:37Z</time>
      </trkpt>
      <trkpt lat="45.62465" lon="5.62859">
        <ele>241</ele>
        <time>2012-11-04T08:21:38Z</time>
      </trkpt>
      <trkpt lat="45.62469" lon="5.62865">
        <ele>241</ele>
        <time>2012-11-04T08:21:39Z</time>
      </trkpt>
      <trkpt lat="45.62471" lon="5.62874">
        <ele>240</ele>
        <time>2012-11-04T08:21:41Z</time>
      </trkpt>
      <trkpt lat="45.62475" lon="5.62878">
        <ele>240</ele>
        <time>2012-11-04T08:21:42Z</time>
      </trkpt>
      <trkpt lat="45.62478" lon="5.62884">
        <ele>240</ele>
        <time>2012-11-04T08:21:43Z</time>
      </trkpt>
      <trkpt lat="45.62486" lon="5.62895">
        <ele>240</ele>
        <time>2012-11-04T08:21:45Z</time>
      </trkpt>
      <trkpt lat="45.6249" lon="5.62899">
        <ele>239</ele>
        <time>2012-11-04T08:21:46Z</time>
      </trkpt>
      <trkpt lat="45.62497" lon="5.62904">
        <ele>238</ele>
        <time>2012-11-04T08:21:48Z</time>
      </trkpt>
      <trkpt lat="45.62501" lon="5.62911">
        <ele>238</ele>
        <time>2012-11-04T08:21:49Z</time>
      </trkpt>
      <trkpt lat="45.62506" lon="5.6292">
        <ele>238</ele>
        <time>2012-11-04T08:21:51Z</time>
      </trkpt>
      <trkpt lat="45.62512" lon="5.62928">
        <ele>238</ele>
        <time>2012-11-04T08:21:53Z</time>
      </trkpt>
      <trkpt lat="45.62515" lon="5.62933">
        <ele>238</ele>
        <time>2012-11-04T08:21:54Z</time>
      </trkpt>
      <trkpt lat="45.62519" lon="5.62941">
        <ele>238</ele>
        <time>2012-11-04T08:21:56Z</time>
      </trkpt>
      <trkpt lat="45.62523" lon="5.62951">
        <ele>238</ele>
        <time>2012-11-04T08:21:58Z</time>
      </trkpt>
      <trkpt lat="45.62526" lon="5.62961">
        <ele>237</ele>
        <time>2012-11-04T08:22:00Z</time>
      </trkpt>
      <trkpt lat="45.6253" lon="5.62969">
        <ele>236</ele>
        <time>2012-11-04T08:22:02Z</time>
      </trkpt>
      <trkpt lat="45.62532" lon="5.62978">
        <ele>235</ele>
        <time>2012-11-04T08:22:03Z</time>
      </trkpt>
      <trkpt lat="45.62531" lon="5.62987">
        <ele>232</ele>
        <time>2012-11-04T08:22:06Z</time>
      </trkpt>
      <trkpt lat="45.62529" lon="5.62997">
        <ele>231</ele>
        <time>2012-11-04T08:22:08Z</time>
      </trkpt>
      <trkpt lat="45.62527" lon="5.6301">
        <ele>230</ele>
        <time>2012-11-04T08:22:09Z</time>
      </trkpt>
      <trkpt lat="45.62525" lon="5.63017">
        <ele>229</ele>
        <time>2012-11-04T08:22:09Z</time>
      </trkpt>
      <trkpt lat="45.62524" lon="5.63024">
        <ele>229</ele>
        <time>2012-11-04T08:22:11Z</time>
      </trkpt>
      <trkpt lat="45.62522" lon="5.6303">
        <ele>228</ele>
        <time>2012-11-04T08:22:12Z</time>
      </trkpt>
      <trkpt lat="45.6252" lon="5.63037">
        <ele>227</ele>
        <time>2012-11-04T08:22:13Z</time>
      </trkpt>
      <trkpt lat="45.62517" lon="5.63048">
        <ele>227</ele>
        <time>2012-11-04T08:22:15Z</time>
      </trkpt>
      <trkpt lat="45.62514" lon="5.63056">
        <ele>226</ele>
        <time>2012-11-04T08:22:16Z</time>
      </trkpt>
      <trkpt lat="45.6251" lon="5.63063">
        <ele>226</ele>
        <time>2012-11-04T08:22:17Z</time>
      </trkpt>
      <trkpt lat="45.62508" lon="5.63069">
        <ele>226</ele>
        <time>2012-11-04T08:22:17Z</time>
      </trkpt>
      <trkpt lat="45.62506" lon="5.63076">
        <ele>226</ele>
        <time>2012-11-04T08:22:19Z</time>
      </trkpt>
      <trkpt lat="45.62503" lon="5.63082">
        <ele>226</ele>
        <time>2012-11-04T08:22:19Z</time>
      </trkpt>
      <trkpt lat="45.62501" lon="5.63089">
        <ele>226</ele>
        <time>2012-11-04T08:22:21Z</time>
      </trkpt>
      <trkpt lat="45.62487" lon="5.63092">
        <ele>226</ele>
        <time>2012-11-04T08:22:22Z</time>
      </trkpt>
      <trkpt lat="45.62486" lon="5.63099">
        <ele>226</ele>
        <time>2012-11-04T08:22:23Z</time>
      </trkpt>
      <trkpt lat="45.62482" lon="5.63113">
        <ele>225</ele>
        <time>2012-11-04T08:22:25Z</time>
      </trkpt>
      <trkpt lat="45.62479" lon="5.63123">
        <ele>225</ele>
        <time>2012-11-04T08:22:27Z</time>
      </trkpt>
      <trkpt lat="45.62475" lon="5.63137">
        <ele>225</ele>
        <time>2012-11-04T08:22:29Z</time>
      </trkpt>
      <trkpt lat="45.62473" lon="5.63142">
        <ele>225</ele>
        <time>2012-11-04T08:22:30Z</time>
      </trkpt>
      <trkpt lat="45.62468" lon="5.63154">
        <ele>224</ele>
        <time>2012-11-04T08:22:32Z</time>
      </trkpt>
      <trkpt lat="45.62465" lon="5.63164">
        <ele>224</ele>
        <time>2012-11-04T08:22:34Z</time>
      </trkpt>
      <trkpt lat="45.62461" lon="5.63175">
        <ele>224</ele>
        <time>2012-11-04T08:22:36Z</time>
      </trkpt>
      <trkpt lat="45.62458" lon="5.63182">
        <ele>224</ele>
        <time>2012-11-04T08:22:37Z</time>
      </trkpt>
      <trkpt lat="45.62454" lon="5.63194">
        <ele>224</ele>
        <time>2012-11-04T08:22:39Z</time>
      </trkpt>
      <trkpt lat="45.62451" lon="5.63202">
        <ele>223</ele>
        <time>2012-11-04T08:22:41Z</time>
      </trkpt>
      <trkpt lat="45.62449" lon="5.63208">
        <ele>223</ele>
        <time>2012-11-04T08:22:42Z</time>
      </trkpt>
      <trkpt lat="45.62446" lon="5.63217">
        <ele>222</ele>
        <time>2012-11-04T08:22:44Z</time>
      </trkpt>
      <trkpt lat="45.62443" lon="5.63226">
        <ele>222</ele>
        <time>2012-11-04T08:22:46Z</time>
      </trkpt>
      <trkpt lat="45.6244" lon="5.63235">
        <ele>222</ele>
        <time>2012-11-04T08:22:48Z</time>
      </trkpt>
      <trkpt lat="45.62438" lon="5.63241">
        <ele>222</ele>
        <time>2012-11-04T08:22:50Z</time>
      </trkpt>
      <trkpt lat="45.62436" lon="5.63248">
        <ele>222</ele>
        <time>2012-11-04T08:22:51Z</time>
      </trkpt>
      <trkpt lat="45.62433" lon="5.63259">
        <ele>222</ele>
        <time>2012-11-04T08:22:53Z</time>
      </trkpt>
      <trkpt lat="45.6243" lon="5.63269">
        <ele>221</ele>
        <time>2012-11-04T08:22:55Z</time>
      </trkpt>
      <trkpt lat="45.62427" lon="5.6328">
        <ele>221</ele>
        <time>2012-11-04T08:22:57Z</time>
      </trkpt>
      <trkpt lat="45.62424" lon="5.6329">
        <ele>221</ele>
        <time>2012-11-04T08:22:59Z</time>
      </trkpt>
      <trkpt lat="45.62422" lon="5.633">
        <ele>221</ele>
        <time>2012-11-04T08:23:01Z</time>
      </trkpt>
      <trkpt lat="45.62419" lon="5.63312">
        <ele>221</ele>
        <time>2012-11-04T08:23:03Z</time>
      </trkpt>
      <trkpt lat="45.62416" lon="5.63324">
        <ele>221</ele>
        <time>2012-11-04T08:23:05Z</time>
      </trkpt>
      <trkpt lat="45.62414" lon="5.6333">
        <ele>221</ele>
        <time>2012-11-04T08:23:06Z</time>
      </trkpt>
      <trkpt lat="45.62412" lon="5.63338">
        <ele>221</ele>
        <time>2012-11-04T08:23:07Z</time>
      </trkpt>
      <trkpt lat="45.6241" lon="5.63346">
        <ele>221</ele>
        <time>2012-11-04T08:23:08Z</time>
      </trkpt>
      <trkpt lat="45.62406" lon="5.63359">
        <ele>221</ele>
        <time>2012-11-04T08:23:10Z</time>
      </trkpt>
      <trkpt lat="45.62403" lon="5.63367">
        <ele>220</ele>
        <time>2012-11-04T08:23:12Z</time>
      </trkpt>
      <trkpt lat="45.624" lon="5.63374">
        <ele>220</ele>
        <time>2012-11-04T08:23:14Z</time>
      </trkpt>
      <trkpt lat="45.62397" lon="5.63382">
        <ele>219</ele>
        <time>2012-11-04T08:23:16Z</time>
      </trkpt>
      <trkpt lat="45.62394" lon="5.63388">
        <ele>219</ele>
        <time>2012-11-04T08:23:17Z</time>
      </trkpt>
      <trkpt lat="45.62388" lon="5.63398">
        <ele>219</ele>
        <time>2012-11-04T08:23:19Z</time>
      </trkpt>
      <trkpt lat="45.62385" lon="5.63402">
        <ele>219</ele>
        <time>2012-11-04T08:23:20Z</time>
      </trkpt>
      <trkpt lat="45.62378" lon="5.63411">
        <ele>219</ele>
        <time>2012-11-04T08:23:22Z</time>
      </trkpt>
      <trkpt lat="45.62375" lon="5.63415">
        <ele>218</ele>
        <time>2012-11-04T08:23:23Z</time>
      </trkpt>
      <trkpt lat="45.62372" lon="5.6342">
        <ele>218</ele>
        <time>2012-11-04T08:23:24Z</time>
      </trkpt>
      <trkpt lat="45.62368" lon="5.63424">
        <ele>218</ele>
        <time>2012-11-04T08:23:25Z</time>
      </trkpt>
      <trkpt lat="45.62363" lon="5.63433">
        <ele>218</ele>
        <time>2012-11-04T08:23:27Z</time>
      </trkpt>
      <trkpt lat="45.62357" lon="5.63441">
        <ele>218</ele>
        <time>2012-11-04T08:23:29Z</time>
      </trkpt>
      <trkpt lat="45.62354" lon="5.63446">
        <ele>219</ele>
        <time>2012-11-04T08:23:30Z</time>
      </trkpt>
      <trkpt lat="45.62351" lon="5.63451">
        <ele>219</ele>
        <time>2012-11-04T08:23:31Z</time>
      </trkpt>
      <trkpt lat="45.62346" lon="5.63459">
        <ele>219</ele>
        <time>2012-11-04T08:23:33Z</time>
      </trkpt>
      <trkpt lat="45.62342" lon="5.63466">
        <ele>219</ele>
        <time>2012-11-04T08:23:35Z</time>
      </trkpt>
      <trkpt lat="45.62338" lon="5.63472">
        <ele>219</ele>
        <time>2012-11-04T08:23:36Z</time>
      </trkpt>
      <trkpt lat="45.62336" lon="5.63475">
        <ele>220</ele>
        <time>2012-11-04T08:23:41Z</time>
      </trkpt>
      <trkpt lat="45.62358" lon="5.63506">
        <ele>220</ele>
        <time>2012-11-04T08:23:46Z</time>
      </trkpt>
      <trkpt lat="45.62365" lon="5.63515">
        <ele>220</ele>
        <time>2012-11-04T08:23:47Z</time>
      </trkpt>
      <trkpt lat="45.62371" lon="5.63524">
        <ele>221</ele>
        <time>2012-11-04T08:23:48Z</time>
      </trkpt>
      <trkpt lat="45.62374" lon="5.6353">
        <ele>221</ele>
        <time>2012-11-04T08:23:49Z</time>
      </trkpt>
      <trkpt lat="45.62378" lon="5.63535">
        <ele>222</ele>
        <time>2012-11-04T08:23:50Z</time>
      </trkpt>
      <trkpt lat="45.62381" lon="5.63547">
        <ele>223</ele>
        <time>2012-11-04T08:23:53Z</time>
      </trkpt>
      <trkpt lat="45.62384" lon="5.63554">
        <ele>223</ele>
        <time>2012-11-04T08:23:53Z</time>
      </trkpt>
      <trkpt lat="45.62389" lon="5.63563">
        <ele>224</ele>
        <time>2012-11-04T08:23:55Z</time>
      </trkpt>
      <trkpt lat="45.62394" lon="5.63573">
        <ele>224</ele>
        <time>2012-11-04T08:23:57Z</time>
      </trkpt>
      <trkpt lat="45.62401" lon="5.63579">
        <ele>225</ele>
        <time>2012-11-04T08:24:00Z</time>
      </trkpt>
      <trkpt lat="45.62408" lon="5.63583">
        <ele>225</ele>
        <time>2012-11-04T08:24:02Z</time>
      </trkpt>
      <trkpt lat="45.62413" lon="5.63585">
        <ele>226</ele>
        <time>2012-11-04T08:24:03Z</time>
      </trkpt>
      <trkpt lat="45.62418" lon="5.63586">
        <ele>226</ele>
        <time>2012-11-04T08:24:04Z</time>
      </trkpt>
      <trkpt lat="45.62423" lon="5.63586">
        <ele>226</ele>
        <time>2012-11-04T08:24:05Z</time>
      </trkpt>
      <trkpt lat="45.62429" lon="5.63587">
        <ele>226</ele>
        <time>2012-11-04T08:24:06Z</time>
      </trkpt>
      <trkpt lat="45.62435" lon="5.63588">
        <ele>225</ele>
        <time>2012-11-04T08:24:07Z</time>
      </trkpt>
      <trkpt lat="45.62442" lon="5.63588">
        <ele>224</ele>
        <time>2012-11-04T08:24:08Z</time>
      </trkpt>
      <trkpt lat="45.62454" lon="5.63591">
        <ele>223</ele>
        <time>2012-11-04T08:24:10Z</time>
      </trkpt>
      <trkpt lat="45.6246" lon="5.63593">
        <ele>223</ele>
        <time>2012-11-04T08:24:11Z</time>
      </trkpt>
      <trkpt lat="45.62471" lon="5.63597">
        <ele>222</ele>
        <time>2012-11-04T08:24:13Z</time>
      </trkpt>
      <trkpt lat="45.62476" lon="5.636">
        <ele>221</ele>
        <time>2012-11-04T08:24:14Z</time>
      </trkpt>
      <trkpt lat="45.62481" lon="5.63602">
        <ele>221</ele>
        <time>2012-11-04T08:24:14Z</time>
      </trkpt>
      <trkpt lat="45.6249" lon="5.63606">
        <ele>219</ele>
        <time>2012-11-04T08:24:17Z</time>
      </trkpt>
      <trkpt lat="45.62495" lon="5.63608">
        <ele>219</ele>
        <time>2012-11-04T08:24:18Z</time>
      </trkpt>
      <trkpt lat="45.62504" lon="5.63616">
        <ele>218</ele>
        <time>2012-11-04T08:24:19Z</time>
      </trkpt>
      <trkpt lat="45.6251" lon="5.63623">
        <ele>217</ele>
        <time>2012-11-04T08:24:21Z</time>
      </trkpt>
      <trkpt lat="45.62515" lon="5.63627">
        <ele>216</ele>
        <time>2012-11-04T08:24:23Z</time>
      </trkpt>
      <trkpt lat="45.62522" lon="5.63633">
        <ele>215</ele>
        <time>2012-11-04T08:24:25Z</time>
      </trkpt>
      <trkpt lat="45.6253" lon="5.63633">
        <ele>213</ele>
        <time>2012-11-04T08:24:27Z</time>
      </trkpt>
      <trkpt lat="45.62538" lon="5.63635">
        <ele>212</ele>
        <time>2012-11-04T08:24:29Z</time>
      </trkpt>
      <trkpt lat="45.62546" lon="5.63637">
        <ele>211</ele>
        <time>2012-11-04T08:24:31Z</time>
      </trkpt>
      <trkpt lat="45.62555" lon="5.63639">
        <ele>211</ele>
        <time>2012-11-04T08:24:33Z</time>
      </trkpt>
      <trkpt lat="45.62563" lon="5.63641">
        <ele>211</ele>
        <time>2012-11-04T08:24:35Z</time>
      </trkpt>
      <trkpt lat="45.62571" lon="5.63645">
        <ele>210</ele>
        <time>2012-11-04T08:24:37Z</time>
      </trkpt>
      <trkpt lat="45.62576" lon="5.6365">
        <ele>210</ele>
        <time>2012-11-04T08:24:37Z</time>
      </trkpt>
      <trkpt lat="45.6258" lon="5.63653">
        <ele>210</ele>
        <time>2012-11-04T08:24:39Z</time>
      </trkpt>
      <trkpt lat="45.62588" lon="5.6366">
        <ele>211</ele>
        <time>2012-11-04T08:24:40Z</time>
      </trkpt>
      <trkpt lat="45.62591" lon="5.63664">
        <ele>211</ele>
        <time>2012-11-04T08:24:42Z</time>
      </trkpt>
      <trkpt lat="45.62594" lon="5.63669">
        <ele>211</ele>
        <time>2012-11-04T08:24:43Z</time>
      </trkpt>
      <trkpt lat="45.62602" lon="5.63678">
        <ele>211</ele>
        <time>2012-11-04T08:24:45Z</time>
      </trkpt>
      <trkpt lat="45.62605" lon="5.63682">
        <ele>212</ele>
        <time>2012-11-04T08:24:46Z</time>
      </trkpt>
      <trkpt lat="45.62609" lon="5.63686">
        <ele>212</ele>
        <time>2012-11-04T08:24:47Z</time>
      </trkpt>
      <trkpt lat="45.62613" lon="5.6369">
        <ele>212</ele>
        <time>2012-11-04T08:24:48Z</time>
      </trkpt>
      <trkpt lat="45.6262" lon="5.63697">
        <ele>212</ele>
        <time>2012-11-04T08:24:50Z</time>
      </trkpt>
      <trkpt lat="45.62627" lon="5.63702">
        <ele>212</ele>
        <time>2012-11-04T08:24:52Z</time>
      </trkpt>
      <trkpt lat="45.62631" lon="5.63704">
        <ele>212</ele>
        <time>2012-11-04T08:24:53Z</time>
      </trkpt>
      <trkpt lat="45.62639" lon="5.63703">
        <ele>212</ele>
        <time>2012-11-04T08:24:55Z</time>
      </trkpt>
      <trkpt lat="45.62647" lon="5.63698">
        <ele>212</ele>
        <time>2012-11-04T08:24:57Z</time>
      </trkpt>
      <trkpt lat="45.62655" lon="5.63695">
        <ele>211</ele>
        <time>2012-11-04T08:24:59Z</time>
      </trkpt>
      <trkpt lat="45.62663" lon="5.63691">
        <ele>211</ele>
        <time>2012-11-04T08:25:01Z</time>
      </trkpt>
      <trkpt lat="45.6267" lon="5.63688">
        <ele>210</ele>
        <time>2012-11-04T08:25:03Z</time>
      </trkpt>
      <trkpt lat="45.62677" lon="5.63687">
        <ele>209</ele>
        <time>2012-11-04T08:25:05Z</time>
      </trkpt>
      <trkpt lat="45.62683" lon="5.6369">
        <ele>209</ele>
        <time>2012-11-04T08:25:07Z</time>
      </trkpt>
      <trkpt lat="45.62688" lon="5.63697">
        <ele>209</ele>
        <time>2012-11-04T08:25:09Z</time>
      </trkpt>
      <trkpt lat="45.6269" lon="5.63705">
        <ele>209</ele>
        <time>2012-11-04T08:25:11Z</time>
      </trkpt>
      <trkpt lat="45.6269" lon="5.63712">
        <ele>210</ele>
        <time>2012-11-04T08:25:13Z</time>
      </trkpt>
      <trkpt lat="45.62689" lon="5.6372">
        <ele>211</ele>
        <time>2012-11-04T08:25:16Z</time>
      </trkpt>
      <trkpt lat="45.62688" lon="5.63731">
        <ele>212</ele>
        <time>2012-11-04T08:25:19Z</time>
      </trkpt>
      <trkpt lat="45.62692" lon="5.63736">
        <ele>213</ele>
        <time>2012-11-04T08:25:21Z</time>
      </trkpt>
      <trkpt lat="45.62697" lon="5.6374">
        <ele>213</ele>
        <time>2012-11-04T08:25:23Z</time>
      </trkpt>
      <trkpt lat="45.62703" lon="5.63742">
        <ele>213</ele>
        <time>2012-11-04T08:25:25Z</time>
      </trkpt>
      <trkpt lat="45.62711" lon="5.63736">
        <ele>215</ele>
        <time>2012-11-04T08:25:31Z</time>
      </trkpt>
      <trkpt lat="45.62716" lon="5.63735">
        <ele>217</ele>
        <time>2012-11-04T08:25:34Z</time>
      </trkpt>
      <trkpt lat="45.62722" lon="5.63736">
        <ele>218</ele>
        <time>2012-11-04T08:25:37Z</time>
      </trkpt>
      <trkpt lat="45.62725" lon="5.63729">
        <ele>221</ele>
        <time>2012-11-04T08:25:41Z</time>
      </trkpt>
      <trkpt lat="45.62725" lon="5.63723">
        <ele>223</ele>
        <time>2012-11-04T08:25:44Z</time>
      </trkpt>
      <trkpt lat="45.62726" lon="5.63714">
        <ele>223</ele>
        <time>2012-11-04T08:25:47Z</time>
      </trkpt>
      <trkpt lat="45.62725" lon="5.63706">
        <ele>224</ele>
        <time>2012-11-04T08:25:50Z</time>
      </trkpt>
      <trkpt lat="45.62724" lon="5.63697">
        <ele>224</ele>
        <time>2012-11-04T08:25:53Z</time>
      </trkpt>
      <trkpt lat="45.62723" lon="5.63688">
        <ele>224</ele>
        <time>2012-11-04T08:25:56Z</time>
      </trkpt>
      <trkpt lat="45.6272" lon="5.63683">
        <ele>225</ele>
        <time>2012-11-04T08:25:58Z</time>
      </trkpt>
      <trkpt lat="45.62718" lon="5.63677">
        <ele>226</ele>
        <time>2012-11-04T08:26:00Z</time>
      </trkpt>
      <trkpt lat="45.62716" lon="5.63669">
        <ele>228</ele>
        <time>2012-11-04T08:26:03Z</time>
      </trkpt>
      <trkpt lat="45.62714" lon="5.63661">
        <ele>229</ele>
        <time>2012-11-04T08:26:06Z</time>
      </trkpt>
      <trkpt lat="45.62714" lon="5.63652">
        <ele>230</ele>
        <time>2012-11-04T08:26:09Z</time>
      </trkpt>
      <trkpt lat="45.62715" lon="5.63645">
        <ele>230</ele>
        <time>2012-11-04T08:26:11Z</time>
      </trkpt>
      <trkpt lat="45.62718" lon="5.63639">
        <ele>230</ele>
        <time>2012-11-04T08:26:14Z</time>
      </trkpt>
      <trkpt lat="45.62722" lon="5.63635">
        <ele>232</ele>
        <time>2012-11-04T08:26:18Z</time>
      </trkpt>
      <trkpt lat="45.62728" lon="5.63637">
        <ele>233</ele>
        <time>2012-11-04T08:26:22Z</time>
      </trkpt>
      <trkpt lat="45.62732" lon="5.63641">
        <ele>235</ele>
        <time>2012-11-04T08:26:26Z</time>
      </trkpt>
      <trkpt lat="45.62737" lon="5.63645">
        <ele>237</ele>
        <time>2012-11-04T08:26:30Z</time>
      </trkpt>
      <trkpt lat="45.62741" lon="5.6365">
        <ele>238</ele>
        <time>2012-11-04T08:26:33Z</time>
      </trkpt>
      <trkpt lat="45.62745" lon="5.63654">
        <ele>238</ele>
        <time>2012-11-04T08:26:36Z</time>
      </trkpt>
      <trkpt lat="45.6275" lon="5.63658">
        <ele>239</ele>
        <time>2012-11-04T08:26:40Z</time>
      </trkpt>
      <trkpt lat="45.62755" lon="5.63659">
        <ele>239</ele>
        <time>2012-11-04T08:26:44Z</time>
      </trkpt>
      <trkpt lat="45.62759" lon="5.63655">
        <ele>240</ele>
        <time>2012-11-04T08:26:49Z</time>
      </trkpt>
      <trkpt lat="45.62757" lon="5.63648">
        <ele>241</ele>
        <time>2012-11-04T08:26:54Z</time>
      </trkpt>
      <trkpt lat="45.62758" lon="5.6364">
        <ele>242</ele>
        <time>2012-11-04T08:26:59Z</time>
      </trkpt>
      <trkpt lat="45.6276" lon="5.63634">
        <ele>243</ele>
        <time>2012-11-04T08:27:02Z</time>
      </trkpt>
      <trkpt lat="45.62762" lon="5.63627">
        <ele>244</ele>
        <time>2012-11-04T08:27:06Z</time>
      </trkpt>
      <trkpt lat="45.62763" lon="5.63618">
        <ele>244</ele>
        <time>2012-11-04T08:27:10Z</time>
      </trkpt>
      <trkpt lat="45.62762" lon="5.63609">
        <ele>242</ele>
        <time>2012-11-04T08:27:13Z</time>
      </trkpt>
      <trkpt lat="45.62763" lon="5.63601">
        <ele>241</ele>
        <time>2012-11-04T08:27:17Z</time>
      </trkpt>
      <trkpt lat="45.62765" lon="5.63595">
        <ele>241</ele>
        <time>2012-11-04T08:27:20Z</time>
      </trkpt>
      <trkpt lat="45.62767" lon="5.63588">
        <ele>242</ele>
        <time>2012-11-04T08:27:24Z</time>
      </trkpt>
      <trkpt lat="45.62767" lon="5.6358">
        <ele>243</ele>
        <time>2012-11-04T08:27:28Z</time>
      </trkpt>
      <trkpt lat="45.62766" lon="5.63574">
        <ele>243</ele>
        <time>2012-11-04T08:27:31Z</time>
      </trkpt>
      <trkpt lat="45.62765" lon="5.63567">
        <ele>244</ele>
        <time>2012-11-04T08:27:35Z</time>
      </trkpt>
      <trkpt lat="45.62765" lon="5.63559">
        <ele>245</ele>
        <time>2012-11-04T08:27:39Z</time>
      </trkpt>
      <trkpt lat="45.62767" lon="5.63551">
        <ele>245</ele>
        <time>2012-11-04T08:27:42Z</time>
      </trkpt>
      <trkpt lat="45.62766" lon="5.63541">
        <ele>245</ele>
        <time>2012-11-04T08:27:45Z</time>
      </trkpt>
      <trkpt lat="45.62765" lon="5.63533">
        <ele>245</ele>
        <time>2012-11-04T08:27:47Z</time>
      </trkpt>
      <trkpt lat="45.62763" lon="5.63526">
        <ele>245</ele>
        <time>2012-11-04T08:27:49Z</time>
      </trkpt>
      <trkpt lat="45.62763" lon="5.63519">
        <ele>243</ele>
        <time>2012-11-04T08:27:52Z</time>
      </trkpt>
      <trkpt lat="45.62762" lon="5.63512">
        <ele>243</ele>
        <time>2012-11-04T08:27:55Z</time>
      </trkpt>
      <trkpt lat="45.62762" lon="5.63504">
        <ele>243</ele>
        <time>2012-11-04T08:27:58Z</time>
      </trkpt>
      <trkpt lat="45.62762" lon="5.63495">
        <ele>242</ele>
        <time>2012-11-04T08:28:01Z</time>
      </trkpt>
      <trkpt lat="45.62763" lon="5.63486">
        <ele>242</ele>
        <time>2012-11-04T08:28:04Z</time>
      </trkpt>
      <trkpt lat="45.62764" lon="5.63476">
        <ele>239</ele>
        <time>2012-11-04T08:28:07Z</time>
      </trkpt>
      <trkpt lat="45.62764" lon="5.63469">
        <ele>238</ele>
        <time>2012-11-04T08:28:09Z</time>
      </trkpt>
      <trkpt lat="45.62763" lon="5.63462">
        <ele>237</ele>
        <time>2012-11-04T08:28:11Z</time>
      </trkpt>
      <trkpt lat="45.62763" lon="5.63453">
        <ele>238</ele>
        <time>2012-11-04T08:28:14Z</time>
      </trkpt>
      <trkpt lat="45.62763" lon="5.63445">
        <ele>238</ele>
        <time>2012-11-04T08:28:17Z</time>
      </trkpt>
      <trkpt lat="45.62762" lon="5.63436">
        <ele>238</ele>
        <time>2012-11-04T08:28:20Z</time>
      </trkpt>
      <trkpt lat="45.62761" lon="5.6343">
        <ele>237</ele>
        <time>2012-11-04T08:28:22Z</time>
      </trkpt>
      <trkpt lat="45.62759" lon="5.63423">
        <ele>237</ele>
        <time>2012-11-04T08:28:24Z</time>
      </trkpt>
      <trkpt lat="45.62757" lon="5.63417">
        <ele>237</ele>
        <time>2012-11-04T08:28:27Z</time>
      </trkpt>
      <trkpt lat="45.62755" lon="5.63409">
        <ele>238</ele>
        <time>2012-11-04T08:28:30Z</time>
      </trkpt>
      <trkpt lat="45.62753" lon="5.634">
        <ele>239</ele>
        <time>2012-11-04T08:28:33Z</time>
      </trkpt>
      <trkpt lat="45.62751" lon="5.63391">
        <ele>241</ele>
        <time>2012-11-04T08:28:36Z</time>
      </trkpt>
      <trkpt lat="45.6275" lon="5.63382">
        <ele>242</ele>
        <time>2012-11-04T08:28:39Z</time>
      </trkpt>
      <trkpt lat="45.62748" lon="5.63375">
        <ele>245</ele>
        <time>2012-11-04T08:28:42Z</time>
      </trkpt>
      <trkpt lat="45.62748" lon="5.63368">
        <ele>246</ele>
        <time>2012-11-04T08:28:45Z</time>
      </trkpt>
      <trkpt lat="45.62747" lon="5.63359">
        <ele>247</ele>
        <time>2012-11-04T08:28:48Z</time>
      </trkpt>
      <trkpt lat="45.62746" lon="5.6335">
        <ele>248</ele>
        <time>2012-11-04T08:28:51Z</time>
      </trkpt>
      <trkpt lat="45.62744" lon="5.63343">
        <ele>248</ele>
        <time>2012-11-04T08:28:54Z</time>
      </trkpt>
      <trkpt lat="45.62743" lon="5.63335">
        <ele>249</ele>
        <time>2012-11-04T08:28:57Z</time>
      </trkpt>
      <trkpt lat="45.62742" lon="5.63328">
        <ele>249</ele>
        <time>2012-11-04T08:28:59Z</time>
      </trkpt>
      <trkpt lat="45.62741" lon="5.63322">
        <ele>249</ele>
        <time>2012-11-04T08:29:01Z</time>
      </trkpt>
      <trkpt lat="45.6274" lon="5.63315">
        <ele>250</ele>
        <time>2012-11-04T08:29:03Z</time>
      </trkpt>
      <trkpt lat="45.62739" lon="5.63306">
        <ele>250</ele>
        <time>2012-11-04T08:29:05Z</time>
      </trkpt>
      <trkpt lat="45.62739" lon="5.63299">
        <ele>251</ele>
        <time>2012-11-04T08:29:07Z</time>
      </trkpt>
      <trkpt lat="45.62739" lon="5.63293">
        <ele>251</ele>
        <time>2012-11-04T08:29:09Z</time>
      </trkpt>
      <trkpt lat="45.62741" lon="5.63284">
        <ele>252</ele>
        <time>2012-11-04T08:29:12Z</time>
      </trkpt>
      <trkpt lat="45.62744" lon="5.63276">
        <ele>253</ele>
        <time>2012-11-04T08:29:15Z</time>
      </trkpt>
      <trkpt lat="45.62746" lon="5.6327">
        <ele>254</ele>
        <time>2012-11-04T08:29:18Z</time>
      </trkpt>
      <trkpt lat="45.62749" lon="5.63262">
        <ele>255</ele>
        <time>2012-11-04T08:29:22Z</time>
      </trkpt>
      <trkpt lat="45.62751" lon="5.63255">
        <ele>256</ele>
        <time>2012-11-04T08:29:25Z</time>
      </trkpt>
      <trkpt lat="45.62753" lon="5.63248">
        <ele>257</ele>
        <time>2012-11-04T08:29:28Z</time>
      </trkpt>
      <trkpt lat="45.62754" lon="5.63241">
        <ele>259</ele>
        <time>2012-11-04T08:29:31Z</time>
      </trkpt>
      <trkpt lat="45.62756" lon="5.63235">
        <ele>259</ele>
        <time>2012-11-04T08:29:34Z</time>
      </trkpt>
      <trkpt lat="45.62757" lon="5.63227">
        <ele>262</ele>
        <time>2012-11-04T08:29:38Z</time>
      </trkpt>
      <trkpt lat="45.6276" lon="5.6322">
        <ele>263</ele>
        <time>2012-11-04T08:29:42Z</time>
      </trkpt>
      <trkpt lat="45.62762" lon="5.63214">
        <ele>264</ele>
        <time>2012-11-04T08:29:46Z</time>
      </trkpt>
      <trkpt lat="45.62764" lon="5.63206">
        <ele>265</ele>
        <time>2012-11-04T08:29:49Z</time>
      </trkpt>
      <trkpt lat="45.62768" lon="5.632">
        <ele>265</ele>
        <time>2012-11-04T08:29:52Z</time>
      </trkpt>
      <trkpt lat="45.62769" lon="5.63194">
        <ele>266</ele>
        <time>2012-11-04T08:29:56Z</time>
      </trkpt>
      <trkpt lat="45.62771" lon="5.63186">
        <ele>268</ele>
        <time>2012-11-04T08:30:01Z</time>
      </trkpt>
      <trkpt lat="45.62773" lon="5.6318">
        <ele>270</ele>
        <time>2012-11-04T08:30:09Z</time>
      </trkpt>
      <trkpt lat="45.62772" lon="5.63174">
        <ele>271</ele>
        <time>2012-11-04T08:30:14Z</time>
      </trkpt>
      <trkpt lat="45.62775" lon="5.63166">
        <ele>272</ele>
        <time>2012-11-04T08:30:19Z</time>
      </trkpt>
      <trkpt lat="45.62777" lon="5.6316">
        <ele>272</ele>
        <time>2012-11-04T08:30:23Z</time>
      </trkpt>
      <trkpt lat="45.62779" lon="5.63154">
        <ele>273</ele>
        <time>2012-11-04T08:30:30Z</time>
      </trkpt>
      <trkpt lat="45.6278" lon="5.6315">
        <ele>273</ele>
        <time>2012-11-04T08:30:42Z</time>
      </trkpt>
      <trkpt lat="45.62782" lon="5.63144">
        <ele>273</ele>
        <time>2012-11-04T08:30:47Z</time>
      </trkpt>
      <trkpt lat="45.62787" lon="5.63139">
        <ele>274</ele>
        <time>2012-11-04T08:30:51Z</time>
      </trkpt>
      <trkpt lat="45.6279" lon="5.63134">
        <ele>274</ele>
        <time>2012-11-04T08:30:55Z</time>
      </trkpt>
      <trkpt lat="45.62793" lon="5.63128">
        <ele>275</ele>
        <time>2012-11-04T08:31:00Z</time>
      </trkpt>
      <trkpt lat="45.62795" lon="5.63121">
        <ele>276</ele>
        <time>2012-11-04T08:31:05Z</time>
      </trkpt>
      <trkpt lat="45.62798" lon="5.63115">
        <ele>277</ele>
        <time>2012-11-04T08:31:09Z</time>
      </trkpt>
      <trkpt lat="45.628" lon="5.6311">
        <ele>277</ele>
        <time>2012-11-04T08:31:14Z</time>
      </trkpt>
      <trkpt lat="45.62801" lon="5.63103">
        <ele>278</ele>
        <time>2012-11-04T08:31:19Z</time>
      </trkpt>
      <trkpt lat="45.62802" lon="5.63096">
        <ele>278</ele>
        <time>2012-11-04T08:31:25Z</time>
      </trkpt>
      <trkpt lat="45.62798" lon="5.63091">
        <ele>279</ele>
        <time>2012-11-04T08:31:30Z</time>
      </trkpt>
      <trkpt lat="45.62801" lon="5.63084">
        <ele>280</ele>
        <time>2012-11-04T08:31:35Z</time>
      </trkpt>
      <trkpt lat="45.62803" lon="5.63079">
        <ele>280</ele>
        <time>2012-11-04T08:31:39Z</time>
      </trkpt>
      <trkpt lat="45.62808" lon="5.63075">
        <ele>280</ele>
        <time>2012-11-04T08:31:44Z</time>
      </trkpt>
      <trkpt lat="45.62811" lon="5.6307">
        <ele>280</ele>
        <time>2012-11-04T08:31:48Z</time>
      </trkpt>
      <trkpt lat="45.62814" lon="5.63064">
        <ele>281</ele>
        <time>2012-11-04T08:31:53Z</time>
      </trkpt>
      <trkpt lat="45.62818" lon="5.63059">
        <ele>282</ele>
        <time>2012-11-04T08:31:57Z</time>
      </trkpt>
      <trkpt lat="45.62818" lon="5.63053">
        <ele>282</ele>
        <time>2012-11-04T08:32:02Z</time>
      </trkpt>
      <trkpt lat="45.62821" lon="5.63046">
        <ele>282</ele>
        <time>2012-11-04T08:32:07Z</time>
      </trkpt>
      <trkpt lat="45.62824" lon="5.63042">
        <ele>283</ele>
        <time>2012-11-04T08:32:12Z</time>
      </trkpt>
      <trkpt lat="45.62828" lon="5.63038">
        <ele>284</ele>
        <time>2012-11-04T08:32:17Z</time>
      </trkpt>
      <trkpt lat="45.6283" lon="5.63037">
        <ele>285</ele>
        <time>2012-11-04T08:32:23Z</time>
      </trkpt>
      <trkpt lat="45.62832" lon="5.63031">
        <ele>286</ele>
        <time>2012-11-04T08:32:28Z</time>
      </trkpt>
      <trkpt lat="45.62834" lon="5.63026">
        <ele>286</ele>
        <time>2012-11-04T08:32:37Z</time>
      </trkpt>
      <trkpt lat="45.62839" lon="5.6302">
        <ele>285</ele>
        <time>2012-11-04T08:32:54Z</time>
      </trkpt>
      <trkpt lat="45.62841" lon="5.63014">
        <ele>284</ele>
        <time>2012-11-04T08:32:58Z</time>
      </trkpt>
      <trkpt lat="45.62844" lon="5.63008">
        <ele>285</ele>
        <time>2012-11-04T08:33:01Z</time>
      </trkpt>
      <trkpt lat="45.62846" lon="5.63002">
        <ele>286</ele>
        <time>2012-11-04T08:33:04Z</time>
      </trkpt>
      <trkpt lat="45.62847" lon="5.62995">
        <ele>288</ele>
        <time>2012-11-04T08:33:08Z</time>
      </trkpt>
      <trkpt lat="45.62847" lon="5.62987">
        <ele>288</ele>
        <time>2012-11-04T08:33:12Z</time>
      </trkpt>
      <trkpt lat="45.62848" lon="5.6298">
        <ele>289</ele>
        <time>2012-11-04T08:33:15Z</time>
      </trkpt>
      <trkpt lat="45.62848" lon="5.62971">
        <ele>290</ele>
        <time>2012-11-04T08:33:18Z</time>
      </trkpt>
      <trkpt lat="45.62849" lon="5.62963">
        <ele>290</ele>
        <time>2012-11-04T08:33:21Z</time>
      </trkpt>
      <trkpt lat="45.6285" lon="5.62955">
        <ele>291</ele>
        <time>2012-11-04T08:33:24Z</time>
      </trkpt>
      <trkpt lat="45.6285" lon="5.62947">
        <ele>292</ele>
        <time>2012-11-04T08:33:28Z</time>
      </trkpt>
      <trkpt lat="45.62851" lon="5.62939">
        <ele>294</ele>
        <time>2012-11-04T08:33:32Z</time>
      </trkpt>
      <trkpt lat="45.62852" lon="5.6293">
        <ele>296</ele>
        <time>2012-11-04T08:33:36Z</time>
      </trkpt>
      <trkpt lat="45.62853" lon="5.62923">
        <ele>297</ele>
        <time>2012-11-04T08:33:39Z</time>
      </trkpt>
      <trkpt lat="45.62853" lon="5.62916">
        <ele>297</ele>
        <time>2012-11-04T08:33:42Z</time>
      </trkpt>
      <trkpt lat="45.62853" lon="5.62908">
        <ele>298</ele>
        <time>2012-11-04T08:33:46Z</time>
      </trkpt>
      <trkpt lat="45.62853" lon="5.62901">
        <ele>299</ele>
        <time>2012-11-04T08:33:49Z</time>
      </trkpt>
      <trkpt lat="45.62853" lon="5.62893">
        <ele>299</ele>
        <time>2012-11-04T08:33:52Z</time>
      </trkpt>
      <trkpt lat="45.62853" lon="5.62886">
        <ele>299</ele>
        <time>2012-11-04T08:33:55Z</time>
      </trkpt>
      <trkpt lat="45.62853" lon="5.62879">
        <ele>298</ele>
        <time>2012-11-04T08:33:58Z</time>
      </trkpt>
      <trkpt lat="45.62854" lon="5.62872">
        <ele>298</ele>
        <time>2012-11-04T08:34:01Z</time>
      </trkpt>
      <trkpt lat="45.62855" lon="5.62866">
        <ele>297</ele>
        <time>2012-11-04T08:34:04Z</time>
      </trkpt>
      <trkpt lat="45.62857" lon="5.62858">
        <ele>298</ele>
        <time>2012-11-04T08:34:08Z</time>
      </trkpt>
      <trkpt lat="45.62858" lon="5.62852">
        <ele>299</ele>
        <time>2012-11-04T08:34:11Z</time>
      </trkpt>
      <trkpt lat="45.6286" lon="5.62846">
        <ele>299</ele>
        <time>2012-11-04T08:34:14Z</time>
      </trkpt>
      <trkpt lat="45.62862" lon="5.6284">
        <ele>300</ele>
        <time>2012-11-04T08:34:17Z</time>
      </trkpt>
      <trkpt lat="45.62865" lon="5.62834">
        <ele>302</ele>
        <time>2012-11-04T08:34:20Z</time>
      </trkpt>
      <trkpt lat="45.62868" lon="5.62829">
        <ele>303</ele>
        <time>2012-11-04T08:34:24Z</time>
      </trkpt>
      <trkpt lat="45.62873" lon="5.62824">
        <ele>304</ele>
        <time>2012-11-04T08:34:28Z</time>
      </trkpt>
      <trkpt lat="45.62875" lon="5.62818">
        <ele>305</ele>
        <time>2012-11-04T08:34:33Z</time>
      </trkpt>
      <trkpt lat="45.62879" lon="5.62813">
        <ele>306</ele>
        <time>2012-11-04T08:34:37Z</time>
      </trkpt>
      <trkpt lat="45.62883" lon="5.62806">
        <ele>307</ele>
        <time>2012-11-04T08:34:41Z</time>
      </trkpt>
      <trkpt lat="45.62885" lon="5.628">
        <ele>308</ele>
        <time>2012-11-04T08:34:45Z</time>
      </trkpt>
      <trkpt lat="45.62888" lon="5.62795">
        <ele>309</ele>
        <time>2012-11-04T08:34:49Z</time>
      </trkpt>
      <trkpt lat="45.6289" lon="5.62789">
        <ele>310</ele>
        <time>2012-11-04T08:34:54Z</time>
      </trkpt>
      <trkpt lat="45.62893" lon="5.62783">
        <ele>311</ele>
        <time>2012-11-04T08:34:59Z</time>
      </trkpt>
      <trkpt lat="45.62895" lon="5.62777">
        <ele>313</ele>
        <time>2012-11-04T08:35:04Z</time>
      </trkpt>
      <trkpt lat="45.62898" lon="5.6277">
        <ele>313</ele>
        <time>2012-11-04T08:35:09Z</time>
      </trkpt>
      <trkpt lat="45.62899" lon="5.62762">
        <ele>314</ele>
        <time>2012-11-04T08:35:14Z</time>
      </trkpt>
      <trkpt lat="45.62901" lon="5.62756">
        <ele>314</ele>
        <time>2012-11-04T08:35:19Z</time>
      </trkpt>
      <trkpt lat="45.62903" lon="5.6275">
        <ele>315</ele>
        <time>2012-11-04T08:35:24Z</time>
      </trkpt>
      <trkpt lat="45.62906" lon="5.62745">
        <ele>315</ele>
        <time>2012-11-04T08:35:29Z</time>
      </trkpt>
      <trkpt lat="45.6291" lon="5.6274">
        <ele>316</ele>
        <time>2012-11-04T08:35:34Z</time>
      </trkpt>
      <trkpt lat="45.62914" lon="5.62739">
        <ele>316</ele>
        <time>2012-11-04T08:35:43Z</time>
      </trkpt>
      <trkpt lat="45.62918" lon="5.62739">
        <ele>316</ele>
        <time>2012-11-04T08:36:38Z</time>
      </trkpt>
      <trkpt lat="45.62922" lon="5.62739">
        <ele>316</ele>
        <time>2012-11-04T08:36:42Z</time>
      </trkpt>
      <trkpt lat="45.62927" lon="5.62737">
        <ele>315</ele>
        <time>2012-11-04T08:36:46Z</time>
      </trkpt>
      <trkpt lat="45.62932" lon="5.62734">
        <ele>315</ele>
        <time>2012-11-04T08:36:51Z</time>
      </trkpt>
      <trkpt lat="45.62937" lon="5.62732">
        <ele>315</ele>
        <time>2012-11-04T08:36:56Z</time>
      </trkpt>
      <trkpt lat="45.62942" lon="5.62734">
        <ele>315</ele>
        <time>2012-11-04T08:37:02Z</time>
      </trkpt>
      <trkpt lat="45.62946" lon="5.62733">
        <ele>316</ele>
        <time>2012-11-04T08:37:09Z</time>
      </trkpt>
      <trkpt lat="45.62951" lon="5.6273">
        <ele>316</ele>
        <time>2012-11-04T08:37:16Z</time>
      </trkpt>
      <trkpt lat="45.62955" lon="5.62727">
        <ele>316</ele>
        <time>2012-11-04T08:37:22Z</time>
      </trkpt>
      <trkpt lat="45.62961" lon="5.62724">
        <ele>314</ele>
        <time>2012-11-04T08:37:27Z</time>
      </trkpt>
      <trkpt lat="45.62965" lon="5.62721">
        <ele>313</ele>
        <time>2012-11-04T08:37:33Z</time>
      </trkpt>
      <trkpt lat="45.6297" lon="5.62725">
        <ele>313</ele>
        <time>2012-11-04T08:37:45Z</time>
      </trkpt>
      <trkpt lat="45.6297" lon="5.62731">
        <ele>318</ele>
        <time>2012-11-04T08:37:54Z</time>
      </trkpt>
      <trkpt lat="45.62969" lon="5.62782">
        <ele>333</ele>
        <time>2012-11-04T08:38:24Z</time>
      </trkpt>
      <trkpt lat="45.62967" lon="5.62789">
        <ele>333</ele>
        <time>2012-11-04T08:38:27Z</time>
      </trkpt>
      <trkpt lat="45.62966" lon="5.62796">
        <ele>334</ele>
        <time>2012-11-04T08:38:30Z</time>
      </trkpt>
      <trkpt lat="45.62965" lon="5.62802">
        <ele>335</ele>
        <time>2012-11-04T08:38:33Z</time>
      </trkpt>
      <trkpt lat="45.62962" lon="5.62809">
        <ele>337</ele>
        <time>2012-11-04T08:38:37Z</time>
      </trkpt>
      <trkpt lat="45.62959" lon="5.62814">
        <ele>338</ele>
        <time>2012-11-04T08:38:41Z</time>
      </trkpt>
      <trkpt lat="45.62957" lon="5.62821">
        <ele>338</ele>
        <time>2012-11-04T08:38:46Z</time>
      </trkpt>
      <trkpt lat="45.62955" lon="5.62827">
        <ele>339</ele>
        <time>2012-11-04T08:38:49Z</time>
      </trkpt>
      <trkpt lat="45.62956" lon="5.62834">
        <ele>340</ele>
        <time>2012-11-04T08:38:52Z</time>
      </trkpt>
      <trkpt lat="45.62957" lon="5.6284">
        <ele>341</ele>
        <time>2012-11-04T08:38:54Z</time>
      </trkpt>
      <trkpt lat="45.62959" lon="5.62846">
        <ele>341</ele>
        <time>2012-11-04T08:38:56Z</time>
      </trkpt>
      <trkpt lat="45.62961" lon="5.62853">
        <ele>342</ele>
        <time>2012-11-04T08:38:59Z</time>
      </trkpt>
      <trkpt lat="45.6296" lon="5.62862">
        <ele>343</ele>
        <time>2012-11-04T08:39:03Z</time>
      </trkpt>
      <trkpt lat="45.62958" lon="5.62872">
        <ele>344</ele>
        <time>2012-11-04T08:39:06Z</time>
      </trkpt>
      <trkpt lat="45.62958" lon="5.62879">
        <ele>345</ele>
        <time>2012-11-04T08:39:08Z</time>
      </trkpt>
      <trkpt lat="45.62958" lon="5.62887">
        <ele>345</ele>
        <time>2012-11-04T08:39:11Z</time>
      </trkpt>
      <trkpt lat="45.62959" lon="5.62895">
        <ele>345</ele>
        <time>2012-11-04T08:39:14Z</time>
      </trkpt>
      <trkpt lat="45.6296" lon="5.62903">
        <ele>346</ele>
        <time>2012-11-04T08:39:17Z</time>
      </trkpt>
      <trkpt lat="45.62963" lon="5.62911">
        <ele>347</ele>
        <time>2012-11-04T08:39:20Z</time>
      </trkpt>
      <trkpt lat="45.62965" lon="5.62917">
        <ele>348</ele>
        <time>2012-11-04T08:39:22Z</time>
      </trkpt>
      <trkpt lat="45.62968" lon="5.62923">
        <ele>349</ele>
        <time>2012-11-04T08:39:24Z</time>
      </trkpt>
      <trkpt lat="45.6297" lon="5.6293">
        <ele>351</ele>
        <time>2012-11-04T08:39:26Z</time>
      </trkpt>
      <trkpt lat="45.62971" lon="5.62936">
        <ele>352</ele>
        <time>2012-11-04T08:39:28Z</time>
      </trkpt>
      <trkpt lat="45.62973" lon="5.62942">
        <ele>353</ele>
        <time>2012-11-04T08:39:30Z</time>
      </trkpt>
      <trkpt lat="45.62976" lon="5.62951">
        <ele>353</ele>
        <time>2012-11-04T08:39:33Z</time>
      </trkpt>
      <trkpt lat="45.62978" lon="5.62958">
        <ele>354</ele>
        <time>2012-11-04T08:39:36Z</time>
      </trkpt>
      <trkpt lat="45.6298" lon="5.62966">
        <ele>355</ele>
        <time>2012-11-04T08:39:40Z</time>
      </trkpt>
      <trkpt lat="45.62981" lon="5.62973">
        <ele>358</ele>
        <time>2012-11-04T08:39:45Z</time>
      </trkpt>
      <trkpt lat="45.62982" lon="5.62982">
        <ele>359</ele>
        <time>2012-11-04T08:39:49Z</time>
      </trkpt>
      <trkpt lat="45.62981" lon="5.62988">
        <ele>361</ele>
        <time>2012-11-04T08:39:52Z</time>
      </trkpt>
      <trkpt lat="45.62981" lon="5.62995">
        <ele>362</ele>
        <time>2012-11-04T08:39:56Z</time>
      </trkpt>
      <trkpt lat="45.62982" lon="5.63002">
        <ele>363</ele>
        <time>2012-11-04T08:39:59Z</time>
      </trkpt>
      <trkpt lat="45.62983" lon="5.63008">
        <ele>363</ele>
        <time>2012-11-04T08:40:02Z</time>
      </trkpt>
      <trkpt lat="45.62985" lon="5.63016">
        <ele>363</ele>
        <time>2012-11-04T08:40:06Z</time>
      </trkpt>
      <trkpt lat="45.62989" lon="5.63023">
        <ele>363</ele>
        <time>2012-11-04T08:40:10Z</time>
      </trkpt>
      <trkpt lat="45.62992" lon="5.63028">
        <ele>363</ele>
        <time>2012-11-04T08:40:13Z</time>
      </trkpt>
      <trkpt lat="45.62996" lon="5.63033">
        <ele>364</ele>
        <time>2012-11-04T08:40:16Z</time>
      </trkpt>
      <trkpt lat="45.63001" lon="5.63039">
        <ele>365</ele>
        <time>2012-11-04T08:40:19Z</time>
      </trkpt>
      <trkpt lat="45.63005" lon="5.63045">
        <ele>365</ele>
        <time>2012-11-04T08:40:22Z</time>
      </trkpt>
      <trkpt lat="45.63005" lon="5.63053">
        <ele>365</ele>
        <time>2012-11-04T08:40:26Z</time>
      </trkpt>
      <trkpt lat="45.63006" lon="5.63059">
        <ele>366</ele>
        <time>2012-11-04T08:40:29Z</time>
      </trkpt>
      <trkpt lat="45.63009" lon="5.63067">
        <ele>366</ele>
        <time>2012-11-04T08:40:32Z</time>
      </trkpt>
      <trkpt lat="45.63009" lon="5.63075">
        <ele>365</ele>
        <time>2012-11-04T08:40:34Z</time>
      </trkpt>
      <trkpt lat="45.63007" lon="5.63083">
        <ele>364</ele>
        <time>2012-11-04T08:40:36Z</time>
      </trkpt>
      <trkpt lat="45.63007" lon="5.63094">
        <ele>363</ele>
        <time>2012-11-04T08:40:38Z</time>
      </trkpt>
      <trkpt lat="45.63008" lon="5.63104">
        <ele>362</ele>
        <time>2012-11-04T08:40:40Z</time>
      </trkpt>
      <trkpt lat="45.63009" lon="5.6311">
        <ele>362</ele>
        <time>2012-11-04T08:40:41Z</time>
      </trkpt>
      <trkpt lat="45.63012" lon="5.63119">
        <ele>360</ele>
        <time>2012-11-04T08:40:43Z</time>
      </trkpt>
      <trkpt lat="45.63014" lon="5.63127">
        <ele>360</ele>
        <time>2012-11-04T08:40:45Z</time>
      </trkpt>
      <trkpt lat="45.63014" lon="5.63134">
        <ele>359</ele>
        <time>2012-11-04T08:40:47Z</time>
      </trkpt>
      <trkpt lat="45.63014" lon="5.63144">
        <ele>359</ele>
        <time>2012-11-04T08:40:49Z</time>
      </trkpt>
      <trkpt lat="45.63012" lon="5.63155">
        <ele>358</ele>
        <time>2012-11-04T08:40:51Z</time>
      </trkpt>
      <trkpt lat="45.63011" lon="5.63165">
        <ele>357</ele>
        <time>2012-11-04T08:40:53Z</time>
      </trkpt>
      <trkpt lat="45.63011" lon="5.63172">
        <ele>357</ele>
        <time>2012-11-04T08:40:55Z</time>
      </trkpt>
      <trkpt lat="45.63013" lon="5.63179">
        <ele>356</ele>
        <time>2012-11-04T08:40:57Z</time>
      </trkpt>
      <trkpt lat="45.63017" lon="5.63184">
        <ele>354</ele>
        <time>2012-11-04T08:40:59Z</time>
      </trkpt>
      <trkpt lat="45.63022" lon="5.63186">
        <ele>353</ele>
        <time>2012-11-04T08:41:01Z</time>
      </trkpt>
      <trkpt lat="45.63027" lon="5.63182">
        <ele>352</ele>
        <time>2012-11-04T08:41:04Z</time>
      </trkpt>
      <trkpt lat="45.63031" lon="5.63178">
        <ele>350</ele>
        <time>2012-11-04T08:41:07Z</time>
      </trkpt>
      <trkpt lat="45.63036" lon="5.63172">
        <ele>349</ele>
        <time>2012-11-04T08:41:11Z</time>
      </trkpt>
      <trkpt lat="45.6304" lon="5.63169">
        <ele>349</ele>
        <time>2012-11-04T08:41:14Z</time>
      </trkpt>
      <trkpt lat="45.63044" lon="5.63165">
        <ele>349</ele>
        <time>2012-11-04T08:41:17Z</time>
      </trkpt>
      <trkpt lat="45.63048" lon="5.63161">
        <ele>348</ele>
        <time>2012-11-04T08:41:20Z</time>
      </trkpt>
      <trkpt lat="45.63053" lon="5.63158">
        <ele>348</ele>
        <time>2012-11-04T08:41:23Z</time>
      </trkpt>
      <trkpt lat="45.63058" lon="5.63153">
        <ele>348</ele>
        <time>2012-11-04T08:41:26Z</time>
      </trkpt>
      <trkpt lat="45.63061" lon="5.6315">
        <ele>348</ele>
        <time>2012-11-04T08:41:29Z</time>
      </trkpt>
      <trkpt lat="45.63067" lon="5.63152">
        <ele>348</ele>
        <time>2012-11-04T08:41:34Z</time>
      </trkpt>
      <trkpt lat="45.6307" lon="5.63156">
        <ele>349</ele>
        <time>2012-11-04T08:41:38Z</time>
      </trkpt>
      <trkpt lat="45.63074" lon="5.6316">
        <ele>349</ele>
        <time>2012-11-04T08:41:41Z</time>
      </trkpt>
      <trkpt lat="45.6308" lon="5.63162">
        <ele>350</ele>
        <time>2012-11-04T08:41:44Z</time>
      </trkpt>
      <trkpt lat="45.63084" lon="5.63165">
        <ele>350</ele>
        <time>2012-11-04T08:41:46Z</time>
      </trkpt>
      <trkpt lat="45.63088" lon="5.63168">
        <ele>350</ele>
        <time>2012-11-04T08:41:48Z</time>
      </trkpt>
      <trkpt lat="45.63093" lon="5.63175">
        <ele>350</ele>
        <time>2012-11-04T08:41:51Z</time>
      </trkpt>
      <trkpt lat="45.63098" lon="5.63181">
        <ele>350</ele>
        <time>2012-11-04T08:41:54Z</time>
      </trkpt>
      <trkpt lat="45.63101" lon="5.63185">
        <ele>350</ele>
        <time>2012-11-04T08:41:56Z</time>
      </trkpt>
      <trkpt lat="45.63105" lon="5.63189">
        <ele>351</ele>
        <time>2012-11-04T08:41:58Z</time>
      </trkpt>
      <trkpt lat="45.63109" lon="5.63193">
        <ele>352</ele>
        <time>2012-11-04T08:42:00Z</time>
      </trkpt>
      <trkpt lat="45.63116" lon="5.63198">
        <ele>352</ele>
        <time>2012-11-04T08:42:09Z</time>
      </trkpt>
      <trkpt lat="45.6312" lon="5.63201">
        <ele>351</ele>
        <time>2012-11-04T08:42:12Z</time>
      </trkpt>
      <trkpt lat="45.63124" lon="5.63203">
        <ele>351</ele>
        <time>2012-11-04T08:42:17Z</time>
      </trkpt>
      <trkpt lat="45.63129" lon="5.63206">
        <ele>352</ele>
        <time>2012-11-04T08:42:22Z</time>
      </trkpt>
      <trkpt lat="45.63133" lon="5.63211">
        <ele>354</ele>
        <time>2012-11-04T08:42:28Z</time>
      </trkpt>
      <trkpt lat="45.63136" lon="5.63216">
        <ele>355</ele>
        <time>2012-11-04T08:42:36Z</time>
      </trkpt>
      <trkpt lat="45.6314" lon="5.63221">
        <ele>356</ele>
        <time>2012-11-04T08:42:43Z</time>
      </trkpt>
      <trkpt lat="45.63142" lon="5.63226">
        <ele>358</ele>
        <time>2012-11-04T08:42:48Z</time>
      </trkpt>
      <trkpt lat="45.63146" lon="5.63228">
        <ele>359</ele>
        <time>2012-11-04T08:42:57Z</time>
      </trkpt>
      <trkpt lat="45.63152" lon="5.63227">
        <ele>360</ele>
        <time>2012-11-04T08:43:23Z</time>
      </trkpt>
      <trkpt lat="45.63158" lon="5.63222">
        <ele>360</ele>
        <time>2012-11-04T08:43:26Z</time>
      </trkpt>
      <trkpt lat="45.63163" lon="5.63216">
        <ele>361</ele>
        <time>2012-11-04T08:43:29Z</time>
      </trkpt>
      <trkpt lat="45.63166" lon="5.63211">
        <ele>362</ele>
        <time>2012-11-04T08:43:32Z</time>
      </trkpt>
      <trkpt lat="45.63169" lon="5.63206">
        <ele>363</ele>
        <time>2012-11-04T08:43:36Z</time>
      </trkpt>
      <trkpt lat="45.63173" lon="5.63201">
        <ele>363</ele>
        <time>2012-11-04T08:43:39Z</time>
      </trkpt>
      <trkpt lat="45.63177" lon="5.63197">
        <ele>365</ele>
        <time>2012-11-04T08:43:43Z</time>
      </trkpt>
      <trkpt lat="45.63181" lon="5.63192">
        <ele>365</ele>
        <time>2012-11-04T08:43:49Z</time>
      </trkpt>
      <trkpt lat="45.63186" lon="5.63189">
        <ele>364</ele>
        <time>2012-11-04T08:43:53Z</time>
      </trkpt>
      <trkpt lat="45.63191" lon="5.63183">
        <ele>364</ele>
        <time>2012-11-04T08:43:55Z</time>
      </trkpt>
      <trkpt lat="45.63194" lon="5.63178">
        <ele>364</ele>
        <time>2012-11-04T08:43:57Z</time>
      </trkpt>
      <trkpt lat="45.63199" lon="5.63172">
        <ele>365</ele>
        <time>2012-11-04T08:44:00Z</time>
      </trkpt>
      <trkpt lat="45.63202" lon="5.63165">
        <ele>365</ele>
        <time>2012-11-04T08:44:03Z</time>
      </trkpt>
      <trkpt lat="45.63206" lon="5.63159">
        <ele>365</ele>
        <time>2012-11-04T08:44:06Z</time>
      </trkpt>
      <trkpt lat="45.63211" lon="5.63155">
        <ele>365</ele>
        <time>2012-11-04T08:44:11Z</time>
      </trkpt>
      <trkpt lat="45.63213" lon="5.6315">
        <ele>365</ele>
        <time>2012-11-04T08:44:15Z</time>
      </trkpt>
      <trkpt lat="45.63215" lon="5.63142">
        <ele>366</ele>
        <time>2012-11-04T08:44:18Z</time>
      </trkpt>
      <trkpt lat="45.63217" lon="5.63134">
        <ele>367</ele>
        <time>2012-11-04T08:44:21Z</time>
      </trkpt>
      <trkpt lat="45.63219" lon="5.63126">
        <ele>367</ele>
        <time>2012-11-04T08:44:24Z</time>
      </trkpt>
      <trkpt lat="45.63219" lon="5.63117">
        <ele>368</ele>
        <time>2012-11-04T08:44:28Z</time>
      </trkpt>
      <trkpt lat="45.63221" lon="5.6311">
        <ele>369</ele>
        <time>2012-11-04T08:44:31Z</time>
      </trkpt>
      <trkpt lat="45.63221" lon="5.63102">
        <ele>369</ele>
        <time>2012-11-04T08:44:34Z</time>
      </trkpt>
      <trkpt lat="45.63222" lon="5.63093">
        <ele>369</ele>
        <time>2012-11-04T08:44:37Z</time>
      </trkpt>
      <trkpt lat="45.63222" lon="5.63086">
        <ele>369</ele>
        <time>2012-11-04T08:44:40Z</time>
      </trkpt>
      <trkpt lat="45.63226" lon="5.63079">
        <ele>368</ele>
        <time>2012-11-04T08:44:44Z</time>
      </trkpt>
      <trkpt lat="45.63229" lon="5.63072">
        <ele>368</ele>
        <time>2012-11-04T08:44:47Z</time>
      </trkpt>
      <trkpt lat="45.63232" lon="5.63066">
        <ele>369</ele>
        <time>2012-11-04T08:44:49Z</time>
      </trkpt>
      <trkpt lat="45.63235" lon="5.63059">
        <ele>369</ele>
        <time>2012-11-04T08:44:52Z</time>
      </trkpt>
      <trkpt lat="45.63238" lon="5.63051">
        <ele>369</ele>
        <time>2012-11-04T08:44:55Z</time>
      </trkpt>
      <trkpt lat="45.63241" lon="5.63043">
        <ele>370</ele>
        <time>2012-11-04T08:44:59Z</time>
      </trkpt>
      <trkpt lat="45.63243" lon="5.63037">
        <ele>371</ele>
        <time>2012-11-04T08:45:03Z</time>
      </trkpt>
      <trkpt lat="45.63242" lon="5.63029">
        <ele>372</ele>
        <time>2012-11-04T08:45:06Z</time>
      </trkpt>
      <trkpt lat="45.63245" lon="5.63024">
        <ele>374</ele>
        <time>2012-11-04T08:45:08Z</time>
      </trkpt>
      <trkpt lat="45.63247" lon="5.63017">
        <ele>375</ele>
        <time>2012-11-04T08:45:11Z</time>
      </trkpt>
      <trkpt lat="45.63249" lon="5.6301">
        <ele>378</ele>
        <time>2012-11-04T08:45:15Z</time>
      </trkpt>
      <trkpt lat="45.6325" lon="5.63004">
        <ele>379</ele>
        <time>2012-11-04T08:45:20Z</time>
      </trkpt>
      <trkpt lat="45.63251" lon="5.62997">
        <ele>379</ele>
        <time>2012-11-04T08:45:24Z</time>
      </trkpt>
      <trkpt lat="45.63253" lon="5.6299">
        <ele>379</ele>
        <time>2012-11-04T08:45:27Z</time>
      </trkpt>
      <trkpt lat="45.63254" lon="5.62984">
        <ele>379</ele>
        <time>2012-11-04T08:45:30Z</time>
      </trkpt>
      <trkpt lat="45.63255" lon="5.62974">
        <ele>379</ele>
        <time>2012-11-04T08:45:34Z</time>
      </trkpt>
      <trkpt lat="45.63256" lon="5.62966">
        <ele>380</ele>
        <time>2012-11-04T08:45:37Z</time>
      </trkpt>
      <trkpt lat="45.63259" lon="5.62958">
        <ele>381</ele>
        <time>2012-11-04T08:45:40Z</time>
      </trkpt>
      <trkpt lat="45.6326" lon="5.62951">
        <ele>382</ele>
        <time>2012-11-04T08:45:43Z</time>
      </trkpt>
      <trkpt lat="45.6326" lon="5.62944">
        <ele>382</ele>
        <time>2012-11-04T08:45:47Z</time>
      </trkpt>
      <trkpt lat="45.63264" lon="5.62939">
        <ele>383</ele>
        <time>2012-11-04T08:45:52Z</time>
      </trkpt>
      <trkpt lat="45.63265" lon="5.62932">
        <ele>385</ele>
        <time>2012-11-04T08:45:55Z</time>
      </trkpt>
      <trkpt lat="45.63267" lon="5.62925">
        <ele>385</ele>
        <time>2012-11-04T08:45:57Z</time>
      </trkpt>
      <trkpt lat="45.63268" lon="5.62918">
        <ele>386</ele>
        <time>2012-11-04T08:45:59Z</time>
      </trkpt>
      <trkpt lat="45.63269" lon="5.62912">
        <ele>387</ele>
        <time>2012-11-04T08:46:02Z</time>
      </trkpt>
      <trkpt lat="45.63271" lon="5.62905">
        <ele>388</ele>
        <time>2012-11-04T08:46:05Z</time>
      </trkpt>
      <trkpt lat="45.63271" lon="5.62898">
        <ele>387</ele>
        <time>2012-11-04T08:46:09Z</time>
      </trkpt>
      <trkpt lat="45.63276" lon="5.62891">
        <ele>386</ele>
        <time>2012-11-04T08:46:12Z</time>
      </trkpt>
      <trkpt lat="45.6328" lon="5.62886">
        <ele>385</ele>
        <time>2012-11-04T08:46:14Z</time>
      </trkpt>
      <trkpt lat="45.63284" lon="5.62879">
        <ele>384</ele>
        <time>2012-11-04T08:46:17Z</time>
      </trkpt>
      <trkpt lat="45.63288" lon="5.62875">
        <ele>384</ele>
        <time>2012-11-04T08:46:21Z</time>
      </trkpt>
      <trkpt lat="45.63293" lon="5.6287">
        <ele>384</ele>
        <time>2012-11-04T08:46:25Z</time>
      </trkpt>
      <trkpt lat="45.63296" lon="5.62864">
        <ele>384</ele>
        <time>2012-11-04T08:46:29Z</time>
      </trkpt>
      <trkpt lat="45.63298" lon="5.62857">
        <ele>384</ele>
        <time>2012-11-04T08:46:32Z</time>
      </trkpt>
      <trkpt lat="45.63301" lon="5.62852">
        <ele>384</ele>
        <time>2012-11-04T08:46:35Z</time>
      </trkpt>
      <trkpt lat="45.63305" lon="5.62848">
        <ele>384</ele>
        <time>2012-11-04T08:46:37Z</time>
      </trkpt>
      <trkpt lat="45.63309" lon="5.62843">
        <ele>384</ele>
        <time>2012-11-04T08:46:39Z</time>
      </trkpt>
      <trkpt lat="45.63313" lon="5.62837">
        <ele>384</ele>
        <time>2012-11-04T08:46:42Z</time>
      </trkpt>
      <trkpt lat="45.63317" lon="5.62832">
        <ele>385</ele>
        <time>2012-11-04T08:46:45Z</time>
      </trkpt>
      <trkpt lat="45.63321" lon="5.62827">
        <ele>386</ele>
        <time>2012-11-04T08:46:48Z</time>
      </trkpt>
      <trkpt lat="45.63325" lon="5.6282">
        <ele>387</ele>
        <time>2012-11-04T08:46:51Z</time>
      </trkpt>
      <trkpt lat="45.63329" lon="5.62814">
        <ele>388</ele>
        <time>2012-11-04T08:46:54Z</time>
      </trkpt>
      <trkpt lat="45.63332" lon="5.62809">
        <ele>388</ele>
        <time>2012-11-04T08:46:57Z</time>
      </trkpt>
      <trkpt lat="45.63336" lon="5.62803">
        <ele>388</ele>
        <time>2012-11-04T08:47:00Z</time>
      </trkpt>
      <trkpt lat="45.6334" lon="5.62797">
        <ele>388</ele>
        <time>2012-11-04T08:47:03Z</time>
      </trkpt>
      <trkpt lat="45.63343" lon="5.62793">
        <ele>389</ele>
        <time>2012-11-04T08:47:06Z</time>
      </trkpt>
      <trkpt lat="45.63348" lon="5.62787">
        <ele>390</ele>
        <time>2012-11-04T08:47:09Z</time>
      </trkpt>
      <trkpt lat="45.63352" lon="5.62784">
        <ele>390</ele>
        <time>2012-11-04T08:47:11Z</time>
      </trkpt>
      <trkpt lat="45.63356" lon="5.62781">
        <ele>390</ele>
        <time>2012-11-04T08:47:13Z</time>
      </trkpt>
      <trkpt lat="45.63361" lon="5.62777">
        <ele>390</ele>
        <time>2012-11-04T08:47:15Z</time>
      </trkpt>
      <trkpt lat="45.63365" lon="5.62772">
        <ele>390</ele>
        <time>2012-11-04T08:47:17Z</time>
      </trkpt>
      <trkpt lat="45.63369" lon="5.62767">
        <ele>389</ele>
        <time>2012-11-04T08:47:19Z</time>
      </trkpt>
      <trkpt lat="45.63372" lon="5.62761">
        <ele>389</ele>
        <time>2012-11-04T08:47:21Z</time>
      </trkpt>
      <trkpt lat="45.63373" lon="5.62754">
        <ele>388</ele>
        <time>2012-11-04T08:47:23Z</time>
      </trkpt>
      <trkpt lat="45.63372" lon="5.62748">
        <ele>388</ele>
        <time>2012-11-04T08:47:25Z</time>
      </trkpt>
      <trkpt lat="45.63369" lon="5.62741">
        <ele>387</ele>
        <time>2012-11-04T08:47:27Z</time>
      </trkpt>
      <trkpt lat="45.63366" lon="5.62734">
        <ele>387</ele>
        <time>2012-11-04T08:47:29Z</time>
      </trkpt>
      <trkpt lat="45.63364" lon="5.62725">
        <ele>387</ele>
        <time>2012-11-04T08:47:31Z</time>
      </trkpt>
      <trkpt lat="45.63366" lon="5.62718">
        <ele>386</ele>
        <time>2012-11-04T08:47:33Z</time>
      </trkpt>
      <trkpt lat="45.63368" lon="5.6271">
        <ele>387</ele>
        <time>2012-11-04T08:47:36Z</time>
      </trkpt>
      <trkpt lat="45.63369" lon="5.62702">
        <ele>387</ele>
        <time>2012-11-04T08:47:41Z</time>
      </trkpt>
      <trkpt lat="45.6337" lon="5.62699">
        <ele>388</ele>
        <time>2012-11-04T08:47:47Z</time>
      </trkpt>
      <trkpt lat="45.63374" lon="5.62695">
        <ele>388</ele>
        <time>2012-11-04T08:47:56Z</time>
      </trkpt>
      <trkpt lat="45.63379" lon="5.62696">
        <ele>389</ele>
        <time>2012-11-04T08:49:05Z</time>
      </trkpt>
      <trkpt lat="45.63381" lon="5.62701">
        <ele>390</ele>
        <time>2012-11-04T08:49:14Z</time>
      </trkpt>
      <trkpt lat="45.63378" lon="5.62708">
        <ele>389</ele>
        <time>2012-11-04T08:49:36Z</time>
      </trkpt>
      <trkpt lat="45.63375" lon="5.62714">
        <ele>390</ele>
        <time>2012-11-04T08:49:42Z</time>
      </trkpt>
      <trkpt lat="45.63375" lon="5.62721">
        <ele>390</ele>
        <time>2012-11-04T08:49:47Z</time>
      </trkpt>
      <trkpt lat="45.63373" lon="5.62727">
        <ele>390</ele>
        <time>2012-11-04T08:49:50Z</time>
      </trkpt>
      <trkpt lat="45.6337" lon="5.62733">
        <ele>390</ele>
        <time>2012-11-04T08:49:53Z</time>
      </trkpt>
      <trkpt lat="45.63367" lon="5.62738">
        <ele>389</ele>
        <time>2012-11-04T08:49:55Z</time>
      </trkpt>
      <trkpt lat="45.63364" lon="5.62743">
        <ele>389</ele>
        <time>2012-11-04T08:49:57Z</time>
      </trkpt>
      <trkpt lat="45.6336" lon="5.62749">
        <ele>390</ele>
        <time>2012-11-04T08:49:59Z</time>
      </trkpt>
      <trkpt lat="45.63357" lon="5.62755">
        <ele>391</ele>
        <time>2012-11-04T08:50:01Z</time>
      </trkpt>
      <trkpt lat="45.63354" lon="5.62762">
        <ele>392</ele>
        <time>2012-11-04T08:50:03Z</time>
      </trkpt>
      <trkpt lat="45.63352" lon="5.62771">
        <ele>393</ele>
        <time>2012-11-04T08:50:05Z</time>
      </trkpt>
      <trkpt lat="45.63349" lon="5.62779">
        <ele>394</ele>
        <time>2012-11-04T08:50:07Z</time>
      </trkpt>
      <trkpt lat="45.63344" lon="5.62787">
        <ele>394</ele>
        <time>2012-11-04T08:50:09Z</time>
      </trkpt>
      <trkpt lat="45.6334" lon="5.62794">
        <ele>394</ele>
        <time>2012-11-04T08:50:11Z</time>
      </trkpt>
      <trkpt lat="45.63335" lon="5.628">
        <ele>394</ele>
        <time>2012-11-04T08:50:13Z</time>
      </trkpt>
      <trkpt lat="45.63329" lon="5.62804">
        <ele>393</ele>
        <time>2012-11-04T08:50:15Z</time>
      </trkpt>
      <trkpt lat="45.63324" lon="5.62807">
        <ele>392</ele>
        <time>2012-11-04T08:50:17Z</time>
      </trkpt>
      <trkpt lat="45.63318" lon="5.62812">
        <ele>392</ele>
        <time>2012-11-04T08:50:19Z</time>
      </trkpt>
      <trkpt lat="45.63314" lon="5.62818">
        <ele>392</ele>
        <time>2012-11-04T08:50:20Z</time>
      </trkpt>
      <trkpt lat="45.63311" lon="5.62823">
        <ele>392</ele>
        <time>2012-11-04T08:50:21Z</time>
      </trkpt>
      <trkpt lat="45.63307" lon="5.62829">
        <ele>391</ele>
        <time>2012-11-04T08:50:22Z</time>
      </trkpt>
      <trkpt lat="45.63304" lon="5.62835">
        <ele>391</ele>
        <time>2012-11-04T08:50:23Z</time>
      </trkpt>
      <trkpt lat="45.633" lon="5.6284">
        <ele>391</ele>
        <time>2012-11-04T08:50:24Z</time>
      </trkpt>
      <trkpt lat="45.63297" lon="5.62846">
        <ele>391</ele>
        <time>2012-11-04T08:50:25Z</time>
      </trkpt>
      <trkpt lat="45.63294" lon="5.6285">
        <ele>391</ele>
        <time>2012-11-04T08:50:26Z</time>
      </trkpt>
      <trkpt lat="45.63289" lon="5.62858">
        <ele>391</ele>
        <time>2012-11-04T08:50:28Z</time>
      </trkpt>
      <trkpt lat="45.63287" lon="5.62864">
        <ele>391</ele>
        <time>2012-11-04T08:50:30Z</time>
      </trkpt>
      <trkpt lat="45.63287" lon="5.62874">
        <ele>391</ele>
        <time>2012-11-04T08:50:32Z</time>
      </trkpt>
      <trkpt lat="45.63287" lon="5.62887">
        <ele>392</ele>
        <time>2012-11-04T08:50:34Z</time>
      </trkpt>
      <trkpt lat="45.63288" lon="5.62894">
        <ele>392</ele>
        <time>2012-11-04T08:50:35Z</time>
      </trkpt>
      <trkpt lat="45.63293" lon="5.62913">
        <ele>392</ele>
        <time>2012-11-04T08:50:36Z</time>
      </trkpt>
      <trkpt lat="45.63295" lon="5.6292">
        <ele>392</ele>
        <time>2012-11-04T08:50:37Z</time>
      </trkpt>
      <trkpt lat="45.63297" lon="5.62926">
        <ele>391</ele>
        <time>2012-11-04T08:50:38Z</time>
      </trkpt>
      <trkpt lat="45.63302" lon="5.62932">
        <ele>391</ele>
        <time>2012-11-04T08:50:39Z</time>
      </trkpt>
      <trkpt lat="45.63305" lon="5.62937">
        <ele>391</ele>
        <time>2012-11-04T08:50:40Z</time>
      </trkpt>
      <trkpt lat="45.63307" lon="5.62946">
        <ele>390</ele>
        <time>2012-11-04T08:50:43Z</time>
      </trkpt>
      <trkpt lat="45.63308" lon="5.62954">
        <ele>390</ele>
        <time>2012-11-04T08:50:45Z</time>
      </trkpt>
      <trkpt lat="45.63311" lon="5.62965">
        <ele>390</ele>
        <time>2012-11-04T08:50:47Z</time>
      </trkpt>
      <trkpt lat="45.63314" lon="5.62975">
        <ele>390</ele>
        <time>2012-11-04T08:50:48Z</time>
      </trkpt>
      <trkpt lat="45.63314" lon="5.62986">
        <ele>390</ele>
        <time>2012-11-04T08:50:50Z</time>
      </trkpt>
      <trkpt lat="45.63316" lon="5.62993">
        <ele>390</ele>
        <time>2012-11-04T08:50:51Z</time>
      </trkpt>
      <trkpt lat="45.63316" lon="5.63">
        <ele>391</ele>
        <time>2012-11-04T08:50:52Z</time>
      </trkpt>
      <trkpt lat="45.63316" lon="5.63008">
        <ele>391</ele>
        <time>2012-11-04T08:50:53Z</time>
      </trkpt>
      <trkpt lat="45.63317" lon="5.63016">
        <ele>391</ele>
        <time>2012-11-04T08:50:54Z</time>
      </trkpt>
      <trkpt lat="45.63317" lon="5.63024">
        <ele>391</ele>
        <time>2012-11-04T08:50:55Z</time>
      </trkpt>
      <trkpt lat="45.63314" lon="5.63047">
        <ele>390</ele>
        <time>2012-11-04T08:50:56Z</time>
      </trkpt>
      <trkpt lat="45.63312" lon="5.63057">
        <ele>390</ele>
        <time>2012-11-04T08:50:57Z</time>
      </trkpt>
      <trkpt lat="45.63309" lon="5.63066">
        <ele>390</ele>
        <time>2012-11-04T08:50:58Z</time>
      </trkpt>
      <trkpt lat="45.63305" lon="5.63076">
        <ele>389</ele>
        <time>2012-11-04T08:50:59Z</time>
      </trkpt>
      <trkpt lat="45.63304" lon="5.63083">
        <ele>389</ele>
        <time>2012-11-04T08:51:00Z</time>
      </trkpt>
      <trkpt lat="45.63301" lon="5.63091">
        <ele>389</ele>
        <time>2012-11-04T08:51:01Z</time>
      </trkpt>
      <trkpt lat="45.63299" lon="5.63098">
        <ele>388</ele>
        <time>2012-11-04T08:51:03Z</time>
      </trkpt>
      <trkpt lat="45.63297" lon="5.63105">
        <ele>388</ele>
        <time>2012-11-04T08:51:05Z</time>
      </trkpt>
      <trkpt lat="45.63303" lon="5.63108">
        <ele>389</ele>
        <time>2012-11-04T08:51:07Z</time>
      </trkpt>
      <trkpt lat="45.63309" lon="5.63111">
        <ele>390</ele>
        <time>2012-11-04T08:51:09Z</time>
      </trkpt>
      <trkpt lat="45.63314" lon="5.63116">
        <ele>391</ele>
        <time>2012-11-04T08:51:11Z</time>
      </trkpt>
      <trkpt lat="45.63319" lon="5.63122">
        <ele>393</ele>
        <time>2012-11-04T08:51:13Z</time>
      </trkpt>
      <trkpt lat="45.63322" lon="5.63129">
        <ele>395</ele>
        <time>2012-11-04T08:51:15Z</time>
      </trkpt>
      <trkpt lat="45.63325" lon="5.63134">
        <ele>396</ele>
        <time>2012-11-04T08:51:17Z</time>
      </trkpt>
      <trkpt lat="45.63329" lon="5.6314">
        <ele>397</ele>
        <time>2012-11-04T08:51:20Z</time>
      </trkpt>
      <trkpt lat="45.63332" lon="5.63147">
        <ele>397</ele>
        <time>2012-11-04T08:51:22Z</time>
      </trkpt>
      <trkpt lat="45.63332" lon="5.63159">
        <ele>396</ele>
        <time>2012-11-04T08:51:24Z</time>
      </trkpt>
      <trkpt lat="45.63331" lon="5.63167">
        <ele>395</ele>
        <time>2012-11-04T08:51:25Z</time>
      </trkpt>
      <trkpt lat="45.63329" lon="5.63175">
        <ele>395</ele>
        <time>2012-11-04T08:51:26Z</time>
      </trkpt>
      <trkpt lat="45.63328" lon="5.63182">
        <ele>394</ele>
        <time>2012-11-04T08:51:27Z</time>
      </trkpt>
      <trkpt lat="45.63326" lon="5.63189">
        <ele>393</ele>
        <time>2012-11-04T08:51:28Z</time>
      </trkpt>
      <trkpt lat="45.63325" lon="5.63196">
        <ele>393</ele>
        <time>2012-11-04T08:51:29Z</time>
      </trkpt>
      <trkpt lat="45.63323" lon="5.63203">
        <ele>392</ele>
        <time>2012-11-04T08:51:30Z</time>
      </trkpt>
      <trkpt lat="45.63322" lon="5.63209">
        <ele>391</ele>
        <time>2012-11-04T08:51:31Z</time>
      </trkpt>
      <trkpt lat="45.63319" lon="5.63215">
        <ele>390</ele>
        <time>2012-11-04T08:51:32Z</time>
      </trkpt>
      <trkpt lat="45.63316" lon="5.6322">
        <ele>390</ele>
        <time>2012-11-04T08:51:33Z</time>
      </trkpt>
      <trkpt lat="45.63312" lon="5.63224">
        <ele>389</ele>
        <time>2012-11-04T08:51:34Z</time>
      </trkpt>
      <trkpt lat="45.63304" lon="5.63226">
        <ele>389</ele>
        <time>2012-11-04T08:51:35Z</time>
      </trkpt>
      <trkpt lat="45.63299" lon="5.63227">
        <ele>388</ele>
        <time>2012-11-04T08:51:36Z</time>
      </trkpt>
      <trkpt lat="45.63294" lon="5.63228">
        <ele>387</ele>
        <time>2012-11-04T08:51:37Z</time>
      </trkpt>
      <trkpt lat="45.63289" lon="5.63229">
        <ele>386</ele>
        <time>2012-11-04T08:51:38Z</time>
      </trkpt>
      <trkpt lat="45.63282" lon="5.63233">
        <ele>385</ele>
        <time>2012-11-04T08:51:39Z</time>
      </trkpt>
      <trkpt lat="45.63276" lon="5.63237">
        <ele>385</ele>
        <time>2012-11-04T08:51:40Z</time>
      </trkpt>
      <trkpt lat="45.63268" lon="5.63232">
        <ele>384</ele>
        <time>2012-11-04T08:51:41Z</time>
      </trkpt>
      <trkpt lat="45.63259" lon="5.63239">
        <ele>383</ele>
        <time>2012-11-04T08:51:42Z</time>
      </trkpt>
      <trkpt lat="45.63251" lon="5.63247">
        <ele>382</ele>
        <time>2012-11-04T08:51:44Z</time>
      </trkpt>
      <trkpt lat="45.63245" lon="5.63257">
        <ele>382</ele>
        <time>2012-11-04T08:51:45Z</time>
      </trkpt>
      <trkpt lat="45.63241" lon="5.63268">
        <ele>381</ele>
        <time>2012-11-04T08:51:46Z</time>
      </trkpt>
      <trkpt lat="45.63238" lon="5.63278">
        <ele>381</ele>
        <time>2012-11-04T08:51:47Z</time>
      </trkpt>
      <trkpt lat="45.63235" lon="5.6329">
        <ele>380</ele>
        <time>2012-11-04T08:51:48Z</time>
      </trkpt>
      <trkpt lat="45.63234" lon="5.63297">
        <ele>380</ele>
        <time>2012-11-04T08:51:49Z</time>
      </trkpt>
      <trkpt lat="45.63233" lon="5.63305">
        <ele>379</ele>
        <time>2012-11-04T08:51:50Z</time>
      </trkpt>
      <trkpt lat="45.63231" lon="5.63313">
        <ele>379</ele>
        <time>2012-11-04T08:51:51Z</time>
      </trkpt>
      <trkpt lat="45.6323" lon="5.63319">
        <ele>379</ele>
        <time>2012-11-04T08:51:52Z</time>
      </trkpt>
      <trkpt lat="45.63228" lon="5.63329">
        <ele>378</ele>
        <time>2012-11-04T08:51:53Z</time>
      </trkpt>
      <trkpt lat="45.63224" lon="5.63342">
        <ele>377</ele>
        <time>2012-11-04T08:51:55Z</time>
      </trkpt>
      <trkpt lat="45.63219" lon="5.63353">
        <ele>376</ele>
        <time>2012-11-04T08:51:57Z</time>
      </trkpt>
      <trkpt lat="45.63215" lon="5.63358">
        <ele>375</ele>
        <time>2012-11-04T08:51:58Z</time>
      </trkpt>
      <trkpt lat="45.6321" lon="5.63365">
        <ele>374</ele>
        <time>2012-11-04T08:51:59Z</time>
      </trkpt>
      <trkpt lat="45.63206" lon="5.63369">
        <ele>373</ele>
        <time>2012-11-04T08:52:00Z</time>
      </trkpt>
      <trkpt lat="45.632" lon="5.63374">
        <ele>372</ele>
        <time>2012-11-04T08:52:01Z</time>
      </trkpt>
      <trkpt lat="45.63194" lon="5.63379">
        <ele>371</ele>
        <time>2012-11-04T08:52:02Z</time>
      </trkpt>
      <trkpt lat="45.63187" lon="5.63384">
        <ele>370</ele>
        <time>2012-11-04T08:52:03Z</time>
      </trkpt>
      <trkpt lat="45.63181" lon="5.63389">
        <ele>369</ele>
        <time>2012-11-04T08:52:04Z</time>
      </trkpt>
      <trkpt lat="45.63174" lon="5.63394">
        <ele>367</ele>
        <time>2012-11-04T08:52:05Z</time>
      </trkpt>
      <trkpt lat="45.63168" lon="5.63399">
        <ele>365</ele>
        <time>2012-11-04T08:52:06Z</time>
      </trkpt>
      <trkpt lat="45.63161" lon="5.63403">
        <ele>364</ele>
        <time>2012-11-04T08:52:07Z</time>
      </trkpt>
      <trkpt lat="45.63153" lon="5.63409">
        <ele>362</ele>
        <time>2012-11-04T08:52:09Z</time>
      </trkpt>
      <trkpt lat="45.63146" lon="5.63414">
        <ele>362</ele>
        <time>2012-11-04T08:52:10Z</time>
      </trkpt>
      <trkpt lat="45.63139" lon="5.63424">
        <ele>361</ele>
        <time>2012-11-04T08:52:11Z</time>
      </trkpt>
      <trkpt lat="45.63155" lon="5.63452">
        <ele>360</ele>
        <time>2012-11-04T08:52:14Z</time>
      </trkpt>
      <trkpt lat="45.63162" lon="5.63461">
        <ele>360</ele>
        <time>2012-11-04T08:52:16Z</time>
      </trkpt>
      <trkpt lat="45.63166" lon="5.63466">
        <ele>359</ele>
        <time>2012-11-04T08:52:17Z</time>
      </trkpt>
      <trkpt lat="45.63171" lon="5.63473">
        <ele>359</ele>
        <time>2012-11-04T08:52:18Z</time>
      </trkpt>
      <trkpt lat="45.63179" lon="5.63482">
        <ele>359</ele>
        <time>2012-11-04T08:52:20Z</time>
      </trkpt>
      <trkpt lat="45.63183" lon="5.63489">
        <ele>359</ele>
        <time>2012-11-04T08:52:21Z</time>
      </trkpt>
      <trkpt lat="45.63182" lon="5.63496">
        <ele>358</ele>
        <time>2012-11-04T08:52:26Z</time>
      </trkpt>
      <trkpt lat="45.63178" lon="5.63503">
        <ele>356</ele>
        <time>2012-11-04T08:52:29Z</time>
      </trkpt>
      <trkpt lat="45.63173" lon="5.63509">
        <ele>356</ele>
        <time>2012-11-04T08:52:30Z</time>
      </trkpt>
      <trkpt lat="45.63167" lon="5.63515">
        <ele>355</ele>
        <time>2012-11-04T08:52:31Z</time>
      </trkpt>
      <trkpt lat="45.63161" lon="5.63521">
        <ele>355</ele>
        <time>2012-11-04T08:52:32Z</time>
      </trkpt>
      <trkpt lat="45.63154" lon="5.63527">
        <ele>354</ele>
        <time>2012-11-04T08:52:33Z</time>
      </trkpt>
      <trkpt lat="45.63146" lon="5.63533">
        <ele>353</ele>
        <time>2012-11-04T08:52:34Z</time>
      </trkpt>
      <trkpt lat="45.63138" lon="5.63539">
        <ele>351</ele>
        <time>2012-11-04T08:52:35Z</time>
      </trkpt>
      <trkpt lat="45.6313" lon="5.63545">
        <ele>350</ele>
        <time>2012-11-04T08:52:36Z</time>
      </trkpt>
      <trkpt lat="45.63123" lon="5.6355">
        <ele>349</ele>
        <time>2012-11-04T08:52:37Z</time>
      </trkpt>
      <trkpt lat="45.63119" lon="5.63553">
        <ele>348</ele>
        <time>2012-11-04T08:52:38Z</time>
      </trkpt>
      <trkpt lat="45.6311" lon="5.6356">
        <ele>346</ele>
        <time>2012-11-04T08:52:39Z</time>
      </trkpt>
      <trkpt lat="45.63103" lon="5.63566">
        <ele>345</ele>
        <time>2012-11-04T08:52:40Z</time>
      </trkpt>
      <trkpt lat="45.63096" lon="5.63572">
        <ele>344</ele>
        <time>2012-11-04T08:52:41Z</time>
      </trkpt>
      <trkpt lat="45.63091" lon="5.63577">
        <ele>343</ele>
        <time>2012-11-04T08:52:42Z</time>
      </trkpt>
      <trkpt lat="45.63083" lon="5.63584">
        <ele>341</ele>
        <time>2012-11-04T08:52:43Z</time>
      </trkpt>
      <trkpt lat="45.63077" lon="5.63588">
        <ele>340</ele>
        <time>2012-11-04T08:52:44Z</time>
      </trkpt>
      <trkpt lat="45.63065" lon="5.63592">
        <ele>337</ele>
        <time>2012-11-04T08:52:46Z</time>
      </trkpt>
      <trkpt lat="45.63058" lon="5.63592">
        <ele>336</ele>
        <time>2012-11-04T08:52:47Z</time>
      </trkpt>
      <trkpt lat="45.63052" lon="5.63591">
        <ele>334</ele>
        <time>2012-11-04T08:52:48Z</time>
      </trkpt>
      <trkpt lat="45.63044" lon="5.63585">
        <ele>332</ele>
        <time>2012-11-04T08:52:50Z</time>
      </trkpt>
      <trkpt lat="45.63038" lon="5.6358">
        <ele>330</ele>
        <time>2012-11-04T08:52:51Z</time>
      </trkpt>
      <trkpt lat="45.63033" lon="5.63575">
        <ele>329</ele>
        <time>2012-11-04T08:52:52Z</time>
      </trkpt>
      <trkpt lat="45.63028" lon="5.63571">
        <ele>328</ele>
        <time>2012-11-04T08:52:54Z</time>
      </trkpt>
      <trkpt lat="45.63021" lon="5.63566">
        <ele>328</ele>
        <time>2012-11-04T08:52:55Z</time>
      </trkpt>
      <trkpt lat="45.63012" lon="5.63567">
        <ele>327</ele>
        <time>2012-11-04T08:52:56Z</time>
      </trkpt>
      <trkpt lat="45.63006" lon="5.63569">
        <ele>326</ele>
        <time>2012-11-04T08:52:57Z</time>
      </trkpt>
      <trkpt lat="45.63008" lon="5.63603">
        <ele>326</ele>
        <time>2012-11-04T08:52:59Z</time>
      </trkpt>
      <trkpt lat="45.6301" lon="5.63615">
        <ele>326</ele>
        <time>2012-11-04T08:53:01Z</time>
      </trkpt>
      <trkpt lat="45.63012" lon="5.63628">
        <ele>326</ele>
        <time>2012-11-04T08:53:03Z</time>
      </trkpt>
      <trkpt lat="45.63014" lon="5.6364">
        <ele>326</ele>
        <time>2012-11-04T08:53:04Z</time>
      </trkpt>
      <trkpt lat="45.63016" lon="5.63651">
        <ele>326</ele>
        <time>2012-11-04T08:53:05Z</time>
      </trkpt>
      <trkpt lat="45.63017" lon="5.63658">
        <ele>326</ele>
        <time>2012-11-04T08:53:06Z</time>
      </trkpt>
      <trkpt lat="45.63016" lon="5.63667">
        <ele>326</ele>
        <time>2012-11-04T08:53:08Z</time>
      </trkpt>
      <trkpt lat="45.63015" lon="5.63675">
        <ele>326</ele>
        <time>2012-11-04T08:53:09Z</time>
      </trkpt>
      <trkpt lat="45.63012" lon="5.63688">
        <ele>326</ele>
        <time>2012-11-04T08:53:10Z</time>
      </trkpt>
      <trkpt lat="45.63009" lon="5.63701">
        <ele>326</ele>
        <time>2012-11-04T08:53:12Z</time>
      </trkpt>
      <trkpt lat="45.63007" lon="5.63709">
        <ele>326</ele>
        <time>2012-11-04T08:53:13Z</time>
      </trkpt>
      <trkpt lat="45.63004" lon="5.63721">
        <ele>326</ele>
        <time>2012-11-04T08:53:14Z</time>
      </trkpt>
      <trkpt lat="45.63" lon="5.63738">
        <ele>327</ele>
        <time>2012-11-04T08:53:16Z</time>
      </trkpt>
      <trkpt lat="45.62995" lon="5.63755">
        <ele>326</ele>
        <time>2012-11-04T08:53:17Z</time>
      </trkpt>
      <trkpt lat="45.62992" lon="5.63767">
        <ele>326</ele>
        <time>2012-11-04T08:53:18Z</time>
      </trkpt>
      <trkpt lat="45.62989" lon="5.63779">
        <ele>326</ele>
        <time>2012-11-04T08:53:19Z</time>
      </trkpt>
      <trkpt lat="45.62984" lon="5.63801">
        <ele>325</ele>
        <time>2012-11-04T08:53:20Z</time>
      </trkpt>
      <trkpt lat="45.62983" lon="5.63821">
        <ele>324</ele>
        <time>2012-11-04T08:53:21Z</time>
      </trkpt>
      <trkpt lat="45.63013" lon="5.63846">
        <ele>322</ele>
        <time>2012-11-04T08:53:23Z</time>
      </trkpt>
      <trkpt lat="45.63013" lon="5.63858">
        <ele>320</ele>
        <time>2012-11-04T08:53:24Z</time>
      </trkpt>
      <trkpt lat="45.63013" lon="5.63869">
        <ele>319</ele>
        <time>2012-11-04T08:53:25Z</time>
      </trkpt>
      <trkpt lat="45.63018" lon="5.63888">
        <ele>317</ele>
        <time>2012-11-04T08:53:26Z</time>
      </trkpt>
      <trkpt lat="45.63019" lon="5.63895">
        <ele>316</ele>
        <time>2012-11-04T08:53:27Z</time>
      </trkpt>
      <trkpt lat="45.63021" lon="5.63905">
        <ele>314</ele>
        <time>2012-11-04T08:53:28Z</time>
      </trkpt>
      <trkpt lat="45.63023" lon="5.63918">
        <ele>313</ele>
        <time>2012-11-04T08:53:29Z</time>
      </trkpt>
      <trkpt lat="45.63025" lon="5.63932">
        <ele>311</ele>
        <time>2012-11-04T08:53:30Z</time>
      </trkpt>
      <trkpt lat="45.63026" lon="5.63945">
        <ele>309</ele>
        <time>2012-11-04T08:53:31Z</time>
      </trkpt>
      <trkpt lat="45.63027" lon="5.63959">
        <ele>307</ele>
        <time>2012-11-04T08:53:32Z</time>
      </trkpt>
      <trkpt lat="45.63028" lon="5.63972">
        <ele>306</ele>
        <time>2012-11-04T08:53:33Z</time>
      </trkpt>
      <trkpt lat="45.6303" lon="5.63996">
        <ele>304</ele>
        <time>2012-11-04T08:53:34Z</time>
      </trkpt>
      <trkpt lat="45.63034" lon="5.64006">
        <ele>303</ele>
        <time>2012-11-04T08:53:35Z</time>
      </trkpt>
      <trkpt lat="45.63042" lon="5.64017">
        <ele>301</ele>
        <time>2012-11-04T08:53:36Z</time>
      </trkpt>
      <trkpt lat="45.63051" lon="5.64026">
        <ele>299</ele>
        <time>2012-11-04T08:53:37Z</time>
      </trkpt>
      <trkpt lat="45.63057" lon="5.64031">
        <ele>298</ele>
        <time>2012-11-04T08:53:38Z</time>
      </trkpt>
      <trkpt lat="45.63062" lon="5.64032">
        <ele>293</ele>
        <time>2012-11-04T08:53:40Z</time>
      </trkpt>
      <trkpt lat="45.63085" lon="5.64034">
        <ele>290</ele>
        <time>2012-11-04T08:53:42Z</time>
      </trkpt>
      <trkpt lat="45.63094" lon="5.64033">
        <ele>287</ele>
        <time>2012-11-04T08:53:43Z</time>
      </trkpt>
      <trkpt lat="45.63104" lon="5.64031">
        <ele>286</ele>
        <time>2012-11-04T08:53:44Z</time>
      </trkpt>
      <trkpt lat="45.63113" lon="5.6403">
        <ele>284</ele>
        <time>2012-11-04T08:53:45Z</time>
      </trkpt>
      <trkpt lat="45.63126" lon="5.64029">
        <ele>284</ele>
        <time>2012-11-04T08:53:46Z</time>
      </trkpt>
      <trkpt lat="45.63142" lon="5.64034">
        <ele>283</ele>
        <time>2012-11-04T08:53:47Z</time>
      </trkpt>
      <trkpt lat="45.63151" lon="5.64039">
        <ele>282</ele>
        <time>2012-11-04T08:53:48Z</time>
      </trkpt>
      <trkpt lat="45.63165" lon="5.64049">
        <ele>282</ele>
        <time>2012-11-04T08:53:49Z</time>
      </trkpt>
      <trkpt lat="45.63174" lon="5.64056">
        <ele>281</ele>
        <time>2012-11-04T08:53:50Z</time>
      </trkpt>
      <trkpt lat="45.63176" lon="5.64058">
        <ele>281</ele>
        <time>2012-11-04T08:53:51Z</time>
      </trkpt>
      <trkpt lat="45.6318" lon="5.64065">
        <ele>280</ele>
        <time>2012-11-04T08:53:53Z</time>
      </trkpt>
      <trkpt lat="45.63183" lon="5.64084">
        <ele>278</ele>
        <time>2012-11-04T08:53:55Z</time>
      </trkpt>
      <trkpt lat="45.63183" lon="5.64095">
        <ele>277</ele>
        <time>2012-11-04T08:53:56Z</time>
      </trkpt>
      <trkpt lat="45.63183" lon="5.64105">
        <ele>277</ele>
        <time>2012-11-04T08:53:57Z</time>
      </trkpt>
      <trkpt lat="45.63182" lon="5.64113">
        <ele>276</ele>
        <time>2012-11-04T08:53:58Z</time>
      </trkpt>
      <trkpt lat="45.6318" lon="5.64127">
        <ele>275</ele>
        <time>2012-11-04T08:54:00Z</time>
      </trkpt>
      <trkpt lat="45.63177" lon="5.64134">
        <ele>274</ele>
        <time>2012-11-04T08:54:01Z</time>
      </trkpt>
      <trkpt lat="45.63172" lon="5.64145">
        <ele>273</ele>
        <time>2012-11-04T08:54:03Z</time>
      </trkpt>
      <trkpt lat="45.63167" lon="5.64157">
        <ele>273</ele>
        <time>2012-11-04T08:54:04Z</time>
      </trkpt>
      <trkpt lat="45.63162" lon="5.64167">
        <ele>273</ele>
        <time>2012-11-04T08:54:05Z</time>
      </trkpt>
      <trkpt lat="45.63157" lon="5.64179">
        <ele>273</ele>
        <time>2012-11-04T08:54:06Z</time>
      </trkpt>
      <trkpt lat="45.63157" lon="5.64201">
        <ele>272</ele>
        <time>2012-11-04T08:54:07Z</time>
      </trkpt>
      <trkpt lat="45.63159" lon="5.64221">
        <ele>272</ele>
        <time>2012-11-04T08:54:08Z</time>
      </trkpt>
      <trkpt lat="45.63161" lon="5.64233">
        <ele>271</ele>
        <time>2012-11-04T08:54:09Z</time>
      </trkpt>
      <trkpt lat="45.63159" lon="5.64249">
        <ele>270</ele>
        <time>2012-11-04T08:54:11Z</time>
      </trkpt>
      <trkpt lat="45.63158" lon="5.64263">
        <ele>270</ele>
        <time>2012-11-04T08:54:12Z</time>
      </trkpt>
      <trkpt lat="45.63156" lon="5.64278">
        <ele>269</ele>
        <time>2012-11-04T08:54:13Z</time>
      </trkpt>
      <trkpt lat="45.63186" lon="5.6429">
        <ele>265</ele>
        <time>2012-11-04T08:54:20Z</time>
      </trkpt>
      <trkpt lat="45.63219" lon="5.64304">
        <ele>261</ele>
        <time>2012-11-04T08:54:23Z</time>
      </trkpt>
      <trkpt lat="45.63224" lon="5.64306">
        <ele>261</ele>
        <time>2012-11-04T08:54:24Z</time>
      </trkpt>
      <trkpt lat="45.6323" lon="5.64308">
        <ele>259</ele>
        <time>2012-11-04T08:54:26Z</time>
      </trkpt>
      <trkpt lat="45.63235" lon="5.64311">
        <ele>259</ele>
        <time>2012-11-04T08:54:28Z</time>
      </trkpt>
      <trkpt lat="45.63243" lon="5.64314">
        <ele>256</ele>
        <time>2012-11-04T08:54:33Z</time>
      </trkpt>
      <trkpt lat="45.63248" lon="5.64317">
        <ele>254</ele>
        <time>2012-11-04T08:54:35Z</time>
      </trkpt>
      <trkpt lat="45.63266" lon="5.64318">
        <ele>250</ele>
        <time>2012-11-04T08:54:40Z</time>
      </trkpt>
      <trkpt lat="45.63271" lon="5.6432">
        <ele>250</ele>
        <time>2012-11-04T08:54:41Z</time>
      </trkpt>
      <trkpt lat="45.63275" lon="5.64323">
        <ele>249</ele>
        <time>2012-11-04T08:54:42Z</time>
      </trkpt>
      <trkpt lat="45.63282" lon="5.64328">
        <ele>248</ele>
        <time>2012-11-04T08:54:44Z</time>
      </trkpt>
      <trkpt lat="45.63289" lon="5.64332">
        <ele>247</ele>
        <time>2012-11-04T08:54:46Z</time>
      </trkpt>
      <trkpt lat="45.63297" lon="5.64336">
        <ele>246</ele>
        <time>2012-11-04T08:54:48Z</time>
      </trkpt>
      <trkpt lat="45.63303" lon="5.6434">
        <ele>245</ele>
        <time>2012-11-04T08:54:50Z</time>
      </trkpt>
      <trkpt lat="45.63309" lon="5.64344">
        <ele>244</ele>
        <time>2012-11-04T08:54:52Z</time>
      </trkpt>
      <trkpt lat="45.63314" lon="5.64347">
        <ele>244</ele>
        <time>2012-11-04T08:54:54Z</time>
      </trkpt>
      <trkpt lat="45.63319" lon="5.6435">
        <ele>243</ele>
        <time>2012-11-04T08:54:56Z</time>
      </trkpt>
      <trkpt lat="45.63324" lon="5.64353">
        <ele>242</ele>
        <time>2012-11-04T08:54:58Z</time>
      </trkpt>
      <trkpt lat="45.63329" lon="5.64356">
        <ele>241</ele>
        <time>2012-11-04T08:55:00Z</time>
      </trkpt>
      <trkpt lat="45.63343" lon="5.64365">
        <ele>241</ele>
        <time>2012-11-04T08:55:04Z</time>
      </trkpt>
      <trkpt lat="45.63349" lon="5.64369">
        <ele>241</ele>
        <time>2012-11-04T08:55:06Z</time>
      </trkpt>
      <trkpt lat="45.63354" lon="5.64371">
        <ele>241</ele>
        <time>2012-11-04T08:55:09Z</time>
      </trkpt>
      <trkpt lat="45.63343" lon="5.64404">
        <ele>241</ele>
        <time>2012-11-04T08:55:12Z</time>
      </trkpt>
      <trkpt lat="45.63339" lon="5.64411">
        <ele>242</ele>
        <time>2012-11-04T08:55:14Z</time>
      </trkpt>
      <trkpt lat="45.63333" lon="5.6442">
        <ele>244</ele>
        <time>2012-11-04T08:55:16Z</time>
      </trkpt>
      <trkpt lat="45.6333" lon="5.64426">
        <ele>245</ele>
        <time>2012-11-04T08:55:17Z</time>
      </trkpt>
      <trkpt lat="45.63321" lon="5.64442">
        <ele>246</ele>
        <time>2012-11-04T08:55:18Z</time>
      </trkpt>
      <trkpt lat="45.63319" lon="5.64449">
        <ele>246</ele>
        <time>2012-11-04T08:55:19Z</time>
      </trkpt>
      <trkpt lat="45.63317" lon="5.64458">
        <ele>246</ele>
        <time>2012-11-04T08:55:20Z</time>
      </trkpt>
      <trkpt lat="45.63316" lon="5.64465">
        <ele>247</ele>
        <time>2012-11-04T08:55:21Z</time>
      </trkpt>
      <trkpt lat="45.63312" lon="5.64473">
        <ele>246</ele>
        <time>2012-11-04T08:55:22Z</time>
      </trkpt>
      <trkpt lat="45.6331" lon="5.64478">
        <ele>247</ele>
        <time>2012-11-04T08:55:23Z</time>
      </trkpt>
      <trkpt lat="45.63307" lon="5.64485">
        <ele>246</ele>
        <time>2012-11-04T08:55:24Z</time>
      </trkpt>
      <trkpt lat="45.63304" lon="5.64491">
        <ele>246</ele>
        <time>2012-11-04T08:55:25Z</time>
      </trkpt>
      <trkpt lat="45.63302" lon="5.64497">
        <ele>246</ele>
        <time>2012-11-04T08:55:26Z</time>
      </trkpt>
      <trkpt lat="45.63301" lon="5.64503">
        <ele>246</ele>
        <time>2012-11-04T08:55:27Z</time>
      </trkpt>
      <trkpt lat="45.633" lon="5.6451">
        <ele>246</ele>
        <time>2012-11-04T08:55:28Z</time>
      </trkpt>
      <trkpt lat="45.63305" lon="5.64521">
        <ele>245</ele>
        <time>2012-11-04T08:55:30Z</time>
      </trkpt>
      <trkpt lat="45.63308" lon="5.64528">
        <ele>244</ele>
        <time>2012-11-04T08:55:31Z</time>
      </trkpt>
      <trkpt lat="45.63311" lon="5.64533">
        <ele>244</ele>
        <time>2012-11-04T08:55:32Z</time>
      </trkpt>
      <trkpt lat="45.63319" lon="5.64542">
        <ele>242</ele>
        <time>2012-11-04T08:55:34Z</time>
      </trkpt>
      <trkpt lat="45.63323" lon="5.64546">
        <ele>242</ele>
        <time>2012-11-04T08:55:35Z</time>
      </trkpt>
      <trkpt lat="45.63326" lon="5.6455">
        <ele>242</ele>
        <time>2012-11-04T08:55:36Z</time>
      </trkpt>
      <trkpt lat="45.6333" lon="5.64555">
        <ele>241</ele>
        <time>2012-11-04T08:55:37Z</time>
      </trkpt>
      <trkpt lat="45.63337" lon="5.64563">
        <ele>240</ele>
        <time>2012-11-04T08:55:39Z</time>
      </trkpt>
      <trkpt lat="45.63343" lon="5.64569">
        <ele>240</ele>
        <time>2012-11-04T08:55:41Z</time>
      </trkpt>
      <trkpt lat="45.63347" lon="5.64574">
        <ele>240</ele>
        <time>2012-11-04T08:55:42Z</time>
      </trkpt>
      <trkpt lat="45.63355" lon="5.6458">
        <ele>240</ele>
        <time>2012-11-04T08:55:44Z</time>
      </trkpt>
      <trkpt lat="45.63359" lon="5.64583">
        <ele>240</ele>
        <time>2012-11-04T08:55:45Z</time>
      </trkpt>
      <trkpt lat="45.63363" lon="5.64588">
        <ele>240</ele>
        <time>2012-11-04T08:55:46Z</time>
      </trkpt>
      <trkpt lat="45.63368" lon="5.64593">
        <ele>239</ele>
        <time>2012-11-04T08:55:47Z</time>
      </trkpt>
      <trkpt lat="45.63372" lon="5.64596">
        <ele>239</ele>
        <time>2012-11-04T08:55:48Z</time>
      </trkpt>
      <trkpt lat="45.63376" lon="5.64603">
        <ele>238</ele>
        <time>2012-11-04T08:55:49Z</time>
      </trkpt>
      <trkpt lat="45.63376" lon="5.64616">
        <ele>238</ele>
        <time>2012-11-04T08:55:50Z</time>
      </trkpt>
      <trkpt lat="45.63377" lon="5.64627">
        <ele>237</ele>
        <time>2012-11-04T08:55:51Z</time>
      </trkpt>
      <trkpt lat="45.63381" lon="5.64637">
        <ele>236</ele>
        <time>2012-11-04T08:55:52Z</time>
      </trkpt>
      <trkpt lat="45.63383" lon="5.64646">
        <ele>235</ele>
        <time>2012-11-04T08:55:53Z</time>
      </trkpt>
      <trkpt lat="45.63383" lon="5.64661">
        <ele>234</ele>
        <time>2012-11-04T08:55:55Z</time>
      </trkpt>
      <trkpt lat="45.63382" lon="5.64668">
        <ele>233</ele>
        <time>2012-11-04T08:55:56Z</time>
      </trkpt>
      <trkpt lat="45.63381" lon="5.64675">
        <ele>232</ele>
        <time>2012-11-04T08:55:57Z</time>
      </trkpt>
      <trkpt lat="45.63376" lon="5.64677">
        <ele>232</ele>
        <time>2012-11-04T08:55:58Z</time>
      </trkpt>
      <trkpt lat="45.63372" lon="5.64683">
        <ele>232</ele>
        <time>2012-11-04T08:56:02Z</time>
      </trkpt>
      <trkpt lat="45.63377" lon="5.64689">
        <ele>232</ele>
        <time>2012-11-04T08:56:05Z</time>
      </trkpt>
      <trkpt lat="45.63382" lon="5.64691">
        <ele>233</ele>
        <time>2012-11-04T08:56:08Z</time>
      </trkpt>
      <trkpt lat="45.63384" lon="5.64699">
        <ele>231</ele>
        <time>2012-11-04T08:56:16Z</time>
      </trkpt>
      <trkpt lat="45.63389" lon="5.64701">
        <ele>229</ele>
        <time>2012-11-04T08:56:21Z</time>
      </trkpt>
      <trkpt lat="45.63391" lon="5.64701">
        <ele>229</ele>
        <time>2012-11-04T08:56:27Z</time>
      </trkpt>
      <trkpt lat="45.63392" lon="5.64708">
        <ele>229</ele>
        <time>2012-11-04T08:56:56Z</time>
      </trkpt>
      <trkpt lat="45.63393" lon="5.64714">
        <ele>227</ele>
        <time>2012-11-04T08:57:05Z</time>
      </trkpt>
      <trkpt lat="45.63397" lon="5.64718">
        <ele>228</ele>
        <time>2012-11-04T08:58:24Z</time>
      </trkpt>
      <trkpt lat="45.63395" lon="5.6472">
        <ele>228</ele>
        <time>2012-11-04T08:58:55Z</time>
      </trkpt>
      <trkpt lat="45.63397" lon="5.6472">
        <ele>227</ele>
        <time>2012-11-04T09:02:19Z</time>
      </trkpt>
      <trkpt lat="45.63396" lon="5.64719">
        <ele>221</ele>
        <time>2012-11-04T09:03:33Z</time>
      </trkpt>
      <trkpt lat="45.63393" lon="5.64724">
        <ele>221</ele>
        <time>2012-11-04T09:07:33Z</time>
      </trkpt>
      <trkpt lat="45.63393" lon="5.64725">
        <ele>218</ele>
        <time>2012-11-04T09:08:06Z</time>
      </trkpt>
      <trkpt lat="45.63391" lon="5.64724">
        <ele>218</ele>
        <time>2012-11-04T09:08:15Z</time>
      </trkpt>
      <trkpt lat="45.63395" lon="5.64719">
        <ele>218</ele>
        <time>2012-11-04T09:08:17Z</time>
      </trkpt>
      <trkpt lat="45.63399" lon="5.64713">
        <ele>219</ele>
        <time>2012-11-04T09:08:19Z</time>
      </trkpt>
      <trkpt lat="45.63401" lon="5.64706">
        <ele>219</ele>
        <time>2012-11-04T09:08:21Z</time>
      </trkpt>
      <trkpt lat="45.63402" lon="5.64699">
        <ele>220</ele>
        <time>2012-11-04T09:08:23Z</time>
      </trkpt>
      <trkpt lat="45.63402" lon="5.64692">
        <ele>220</ele>
        <time>2012-11-04T09:08:25Z</time>
      </trkpt>
      <trkpt lat="45.63402" lon="5.64685">
        <ele>220</ele>
        <time>2012-11-04T09:08:27Z</time>
      </trkpt>
      <trkpt lat="45.63402" lon="5.64679">
        <ele>221</ele>
        <time>2012-11-04T09:08:29Z</time>
      </trkpt>
      <trkpt lat="45.634" lon="5.64671">
        <ele>221</ele>
        <time>2012-11-04T09:08:31Z</time>
      </trkpt>
      <trkpt lat="45.63398" lon="5.64664">
        <ele>221</ele>
        <time>2012-11-04T09:08:33Z</time>
      </trkpt>
      <trkpt lat="45.63396" lon="5.64658">
        <ele>221</ele>
        <time>2012-11-04T09:08:35Z</time>
      </trkpt>
      <trkpt lat="45.63395" lon="5.64651">
        <ele>221</ele>
        <time>2012-11-04T09:08:37Z</time>
      </trkpt>
      <trkpt lat="45.63393" lon="5.64645">
        <ele>221</ele>
        <time>2012-11-04T09:08:39Z</time>
      </trkpt>
      <trkpt lat="45.63392" lon="5.64639">
        <ele>221</ele>
        <time>2012-11-04T09:08:41Z</time>
      </trkpt>
      <trkpt lat="45.63391" lon="5.64632">
        <ele>221</ele>
        <time>2012-11-04T09:08:43Z</time>
      </trkpt>
      <trkpt lat="45.6339" lon="5.64626">
        <ele>222</ele>
        <time>2012-11-04T09:08:45Z</time>
      </trkpt>
      <trkpt lat="45.63388" lon="5.64619">
        <ele>222</ele>
        <time>2012-11-04T09:08:47Z</time>
      </trkpt>
      <trkpt lat="45.63388" lon="5.64612">
        <ele>222</ele>
        <time>2012-11-04T09:08:49Z</time>
      </trkpt>
      <trkpt lat="45.63388" lon="5.64604">
        <ele>223</ele>
        <time>2012-11-04T09:08:51Z</time>
      </trkpt>
      <trkpt lat="45.63391" lon="5.64598">
        <ele>223</ele>
        <time>2012-11-04T09:08:53Z</time>
      </trkpt>
      <trkpt lat="45.63394" lon="5.6459">
        <ele>223</ele>
        <time>2012-11-04T09:08:56Z</time>
      </trkpt>
      <trkpt lat="45.63392" lon="5.6458">
        <ele>223</ele>
        <time>2012-11-04T09:08:59Z</time>
      </trkpt>
      <trkpt lat="45.63391" lon="5.64574">
        <ele>223</ele>
        <time>2012-11-04T09:09:01Z</time>
      </trkpt>
      <trkpt lat="45.63391" lon="5.64565">
        <ele>222</ele>
        <time>2012-11-04T09:09:04Z</time>
      </trkpt>
      <trkpt lat="45.63392" lon="5.64557">
        <ele>223</ele>
        <time>2012-11-04T09:09:11Z</time>
      </trkpt>
      <trkpt lat="45.63392" lon="5.6455">
        <ele>223</ele>
        <time>2012-11-04T09:09:13Z</time>
      </trkpt>
      <trkpt lat="45.63393" lon="5.64542">
        <ele>223</ele>
        <time>2012-11-04T09:09:15Z</time>
      </trkpt>
      <trkpt lat="45.63395" lon="5.64532">
        <ele>224</ele>
        <time>2012-11-04T09:09:17Z</time>
      </trkpt>
      <trkpt lat="45.63397" lon="5.6452">
        <ele>225</ele>
        <time>2012-11-04T09:09:19Z</time>
      </trkpt>
      <trkpt lat="45.63399" lon="5.64514">
        <ele>225</ele>
        <time>2012-11-04T09:09:20Z</time>
      </trkpt>
      <trkpt lat="45.63404" lon="5.64504">
        <ele>225</ele>
        <time>2012-11-04T09:09:21Z</time>
      </trkpt>
      <trkpt lat="45.63406" lon="5.64497">
        <ele>225</ele>
        <time>2012-11-04T09:09:22Z</time>
      </trkpt>
      <trkpt lat="45.63407" lon="5.64491">
        <ele>225</ele>
        <time>2012-11-04T09:09:23Z</time>
      </trkpt>
      <trkpt lat="45.63409" lon="5.64485">
        <ele>225</ele>
        <time>2012-11-04T09:09:24Z</time>
      </trkpt>
      <trkpt lat="45.63414" lon="5.64473">
        <ele>225</ele>
        <time>2012-11-04T09:09:26Z</time>
      </trkpt>
      <trkpt lat="45.63417" lon="5.64461">
        <ele>226</ele>
        <time>2012-11-04T09:09:28Z</time>
      </trkpt>
      <trkpt lat="45.6342" lon="5.64455">
        <ele>226</ele>
        <time>2012-11-04T09:09:29Z</time>
      </trkpt>
      <trkpt lat="45.63424" lon="5.64451">
        <ele>226</ele>
        <time>2012-11-04T09:09:30Z</time>
      </trkpt>
      <trkpt lat="45.63427" lon="5.6444">
        <ele>226</ele>
        <time>2012-11-04T09:09:32Z</time>
      </trkpt>
      <trkpt lat="45.63429" lon="5.64429">
        <ele>226</ele>
        <time>2012-11-04T09:09:34Z</time>
      </trkpt>
      <trkpt lat="45.63431" lon="5.64419">
        <ele>226</ele>
        <time>2012-11-04T09:09:36Z</time>
      </trkpt>
      <trkpt lat="45.63435" lon="5.64408">
        <ele>226</ele>
        <time>2012-11-04T09:09:38Z</time>
      </trkpt>
      <trkpt lat="45.63438" lon="5.64395">
        <ele>226</ele>
        <time>2012-11-04T09:09:40Z</time>
      </trkpt>
      <trkpt lat="45.63441" lon="5.64384">
        <ele>225</ele>
        <time>2012-11-04T09:09:42Z</time>
      </trkpt>
      <trkpt lat="45.63442" lon="5.64377">
        <ele>225</ele>
        <time>2012-11-04T09:09:43Z</time>
      </trkpt>
      <trkpt lat="45.63443" lon="5.64371">
        <ele>225</ele>
        <time>2012-11-04T09:09:44Z</time>
      </trkpt>
      <trkpt lat="45.63445" lon="5.64363">
        <ele>225</ele>
        <time>2012-11-04T09:09:45Z</time>
      </trkpt>
      <trkpt lat="45.63445" lon="5.64356">
        <ele>225</ele>
        <time>2012-11-04T09:09:46Z</time>
      </trkpt>
      <trkpt lat="45.63446" lon="5.64349">
        <ele>224</ele>
        <time>2012-11-04T09:09:47Z</time>
      </trkpt>
      <trkpt lat="45.63448" lon="5.64341">
        <ele>224</ele>
        <time>2012-11-04T09:09:48Z</time>
      </trkpt>
      <trkpt lat="45.63448" lon="5.64335">
        <ele>224</ele>
        <time>2012-11-04T09:09:49Z</time>
      </trkpt>
      <trkpt lat="45.63448" lon="5.64326">
        <ele>224</ele>
        <time>2012-11-04T09:09:50Z</time>
      </trkpt>
      <trkpt lat="45.63449" lon="5.6432">
        <ele>224</ele>
        <time>2012-11-04T09:09:51Z</time>
      </trkpt>
      <trkpt lat="45.63451" lon="5.64313">
        <ele>224</ele>
        <time>2012-11-04T09:09:52Z</time>
      </trkpt>
      <trkpt lat="45.63454" lon="5.643">
        <ele>223</ele>
        <time>2012-11-04T09:09:54Z</time>
      </trkpt>
      <trkpt lat="45.63455" lon="5.64293">
        <ele>223</ele>
        <time>2012-11-04T09:09:55Z</time>
      </trkpt>
      <trkpt lat="45.63455" lon="5.64286">
        <ele>223</ele>
        <time>2012-11-04T09:09:56Z</time>
      </trkpt>
      <trkpt lat="45.63457" lon="5.64274">
        <ele>224</ele>
        <time>2012-11-04T09:09:58Z</time>
      </trkpt>
      <trkpt lat="45.63457" lon="5.64266">
        <ele>224</ele>
        <time>2012-11-04T09:09:59Z</time>
      </trkpt>
      <trkpt lat="45.63457" lon="5.64253">
        <ele>224</ele>
        <time>2012-11-04T09:10:01Z</time>
      </trkpt>
      <trkpt lat="45.63459" lon="5.64247">
        <ele>224</ele>
        <time>2012-11-04T09:10:02Z</time>
      </trkpt>
      <trkpt lat="45.63459" lon="5.64239">
        <ele>224</ele>
        <time>2012-11-04T09:10:03Z</time>
      </trkpt>
      <trkpt lat="45.6346" lon="5.64232">
        <ele>224</ele>
        <time>2012-11-04T09:10:04Z</time>
      </trkpt>
      <trkpt lat="45.63462" lon="5.64224">
        <ele>224</ele>
        <time>2012-11-04T09:10:05Z</time>
      </trkpt>
      <trkpt lat="45.63463" lon="5.64218">
        <ele>224</ele>
        <time>2012-11-04T09:10:06Z</time>
      </trkpt>
      <trkpt lat="45.63465" lon="5.64211">
        <ele>225</ele>
        <time>2012-11-04T09:10:07Z</time>
      </trkpt>
      <trkpt lat="45.63468" lon="5.64205">
        <ele>225</ele>
        <time>2012-11-04T09:10:08Z</time>
      </trkpt>
      <trkpt lat="45.63471" lon="5.64199">
        <ele>225</ele>
        <time>2012-11-04T09:10:09Z</time>
      </trkpt>
      <trkpt lat="45.63474" lon="5.64192">
        <ele>226</ele>
        <time>2012-11-04T09:10:10Z</time>
      </trkpt>
      <trkpt lat="45.63478" lon="5.64187">
        <ele>225</ele>
        <time>2012-11-04T09:10:11Z</time>
      </trkpt>
      <trkpt lat="45.63482" lon="5.64182">
        <ele>225</ele>
        <time>2012-11-04T09:10:12Z</time>
      </trkpt>
      <trkpt lat="45.63486" lon="5.64178">
        <ele>225</ele>
        <time>2012-11-04T09:10:13Z</time>
      </trkpt>
      <trkpt lat="45.6349" lon="5.64173">
        <ele>225</ele>
        <time>2012-11-04T09:10:14Z</time>
      </trkpt>
      <trkpt lat="45.63494" lon="5.64169">
        <ele>225</ele>
        <time>2012-11-04T09:10:15Z</time>
      </trkpt>
      <trkpt lat="45.63498" lon="5.64165">
        <ele>224</ele>
        <time>2012-11-04T09:10:16Z</time>
      </trkpt>
      <trkpt lat="45.63503" lon="5.64161">
        <ele>224</ele>
        <time>2012-11-04T09:10:17Z</time>
      </trkpt>
      <trkpt lat="45.63513" lon="5.64156">
        <ele>224</ele>
        <time>2012-11-04T09:10:19Z</time>
      </trkpt>
      <trkpt lat="45.63518" lon="5.64152">
        <ele>223</ele>
        <time>2012-11-04T09:10:20Z</time>
      </trkpt>
      <trkpt lat="45.63523" lon="5.64147">
        <ele>223</ele>
        <time>2012-11-04T09:10:21Z</time>
      </trkpt>
      <trkpt lat="45.63527" lon="5.64142">
        <ele>223</ele>
        <time>2012-11-04T09:10:22Z</time>
      </trkpt>
      <trkpt lat="45.63532" lon="5.64138">
        <ele>222</ele>
        <time>2012-11-04T09:10:23Z</time>
      </trkpt>
      <trkpt lat="45.63537" lon="5.64135">
        <ele>222</ele>
        <time>2012-11-04T09:10:24Z</time>
      </trkpt>
      <trkpt lat="45.63541" lon="5.64131">
        <ele>222</ele>
        <time>2012-11-04T09:10:25Z</time>
      </trkpt>
      <trkpt lat="45.63546" lon="5.64127">
        <ele>222</ele>
        <time>2012-11-04T09:10:26Z</time>
      </trkpt>
      <trkpt lat="45.6355" lon="5.64123">
        <ele>222</ele>
        <time>2012-11-04T09:10:27Z</time>
      </trkpt>
      <trkpt lat="45.63554" lon="5.64121">
        <ele>222</ele>
        <time>2012-11-04T09:10:28Z</time>
      </trkpt>
      <trkpt lat="45.63559" lon="5.64119">
        <ele>222</ele>
        <time>2012-11-04T09:10:29Z</time>
      </trkpt>
      <trkpt lat="45.63564" lon="5.64117">
        <ele>222</ele>
        <time>2012-11-04T09:10:30Z</time>
      </trkpt>
      <trkpt lat="45.6357" lon="5.64114">
        <ele>222</ele>
        <time>2012-11-04T09:10:31Z</time>
      </trkpt>
      <trkpt lat="45.63575" lon="5.64111">
        <ele>223</ele>
        <time>2012-11-04T09:10:32Z</time>
      </trkpt>
      <trkpt lat="45.6358" lon="5.64109">
        <ele>223</ele>
        <time>2012-11-04T09:10:33Z</time>
      </trkpt>
      <trkpt lat="45.63585" lon="5.64108">
        <ele>223</ele>
        <time>2012-11-04T09:10:34Z</time>
      </trkpt>
      <trkpt lat="45.63591" lon="5.64107">
        <ele>223</ele>
        <time>2012-11-04T09:10:35Z</time>
      </trkpt>
      <trkpt lat="45.63595" lon="5.64106">
        <ele>223</ele>
        <time>2012-11-04T09:10:36Z</time>
      </trkpt>
      <trkpt lat="45.636" lon="5.64104">
        <ele>223</ele>
        <time>2012-11-04T09:10:37Z</time>
      </trkpt>
      <trkpt lat="45.63609" lon="5.64104">
        <ele>223</ele>
        <time>2012-11-04T09:10:39Z</time>
      </trkpt>
      <trkpt lat="45.63614" lon="5.64105">
        <ele>223</ele>
        <time>2012-11-04T09:10:40Z</time>
      </trkpt>
      <trkpt lat="45.63618" lon="5.64105">
        <ele>222</ele>
        <time>2012-11-04T09:10:41Z</time>
      </trkpt>
      <trkpt lat="45.63623" lon="5.64106">
        <ele>222</ele>
        <time>2012-11-04T09:10:42Z</time>
      </trkpt>
      <trkpt lat="45.63632" lon="5.64106">
        <ele>222</ele>
        <time>2012-11-04T09:10:44Z</time>
      </trkpt>
      <trkpt lat="45.63636" lon="5.64106">
        <ele>222</ele>
        <time>2012-11-04T09:10:45Z</time>
      </trkpt>
      <trkpt lat="45.63643" lon="5.64109">
        <ele>222</ele>
        <time>2012-11-04T09:10:46Z</time>
      </trkpt>
      <trkpt lat="45.63648" lon="5.64109">
        <ele>222</ele>
        <time>2012-11-04T09:10:47Z</time>
      </trkpt>
      <trkpt lat="45.63653" lon="5.6411">
        <ele>222</ele>
        <time>2012-11-04T09:10:48Z</time>
      </trkpt>
      <trkpt lat="45.63658" lon="5.64111">
        <ele>222</ele>
        <time>2012-11-04T09:10:49Z</time>
      </trkpt>
      <trkpt lat="45.63663" lon="5.64111">
        <ele>222</ele>
        <time>2012-11-04T09:10:50Z</time>
      </trkpt>
      <trkpt lat="45.63667" lon="5.64112">
        <ele>222</ele>
        <time>2012-11-04T09:10:51Z</time>
      </trkpt>
      <trkpt lat="45.63672" lon="5.64115">
        <ele>222</ele>
        <time>2012-11-04T09:10:52Z</time>
      </trkpt>
      <trkpt lat="45.63679" lon="5.64118">
        <ele>222</ele>
        <time>2012-11-04T09:10:54Z</time>
      </trkpt>
      <trkpt lat="45.63685" lon="5.64123">
        <ele>222</ele>
        <time>2012-11-04T09:10:56Z</time>
      </trkpt>
      <trkpt lat="45.63691" lon="5.64127">
        <ele>222</ele>
        <time>2012-11-04T09:10:59Z</time>
      </trkpt>
      <trkpt lat="45.63699" lon="5.64133">
        <ele>222</ele>
        <time>2012-11-04T09:11:01Z</time>
      </trkpt>
      <trkpt lat="45.63704" lon="5.64135">
        <ele>223</ele>
        <time>2012-11-04T09:11:02Z</time>
      </trkpt>
      <trkpt lat="45.63717" lon="5.64144">
        <ele>224</ele>
        <time>2012-11-04T09:11:04Z</time>
      </trkpt>
      <trkpt lat="45.63725" lon="5.64148">
        <ele>224</ele>
        <time>2012-11-04T09:11:06Z</time>
      </trkpt>
      <trkpt lat="45.63733" lon="5.64153">
        <ele>225</ele>
        <time>2012-11-04T09:11:08Z</time>
      </trkpt>
      <trkpt lat="45.6374" lon="5.64157">
        <ele>225</ele>
        <time>2012-11-04T09:11:10Z</time>
      </trkpt>
      <trkpt lat="45.63746" lon="5.64163">
        <ele>226</ele>
        <time>2012-11-04T09:11:11Z</time>
      </trkpt>
      <trkpt lat="45.6375" lon="5.64167">
        <ele>226</ele>
        <time>2012-11-04T09:11:12Z</time>
      </trkpt>
      <trkpt lat="45.63754" lon="5.64173">
        <ele>226</ele>
        <time>2012-11-04T09:11:13Z</time>
      </trkpt>
      <trkpt lat="45.63759" lon="5.64181">
        <ele>226</ele>
        <time>2012-11-04T09:11:14Z</time>
      </trkpt>
      <trkpt lat="45.63762" lon="5.64187">
        <ele>226</ele>
        <time>2012-11-04T09:11:15Z</time>
      </trkpt>
      <trkpt lat="45.63766" lon="5.64192">
        <ele>225</ele>
        <time>2012-11-04T09:11:16Z</time>
      </trkpt>
      <trkpt lat="45.63771" lon="5.64199">
        <ele>225</ele>
        <time>2012-11-04T09:11:17Z</time>
      </trkpt>
      <trkpt lat="45.63776" lon="5.64205">
        <ele>225</ele>
        <time>2012-11-04T09:11:18Z</time>
      </trkpt>
      <trkpt lat="45.63781" lon="5.64211">
        <ele>225</ele>
        <time>2012-11-04T09:11:19Z</time>
      </trkpt>
      <trkpt lat="45.63785" lon="5.64216">
        <ele>225</ele>
        <time>2012-11-04T09:11:20Z</time>
      </trkpt>
      <trkpt lat="45.6379" lon="5.64222">
        <ele>225</ele>
        <time>2012-11-04T09:11:21Z</time>
      </trkpt>
      <trkpt lat="45.63794" lon="5.64228">
        <ele>225</ele>
        <time>2012-11-04T09:11:22Z</time>
      </trkpt>
      <trkpt lat="45.63799" lon="5.64234">
        <ele>225</ele>
        <time>2012-11-04T09:11:23Z</time>
      </trkpt>
      <trkpt lat="45.63805" lon="5.64239">
        <ele>224</ele>
        <time>2012-11-04T09:11:24Z</time>
      </trkpt>
      <trkpt lat="45.63814" lon="5.64249">
        <ele>224</ele>
        <time>2012-11-04T09:11:26Z</time>
      </trkpt>
      <trkpt lat="45.63819" lon="5.64257">
        <ele>224</ele>
        <time>2012-11-04T09:11:27Z</time>
      </trkpt>
      <trkpt lat="45.63823" lon="5.64264">
        <ele>224</ele>
        <time>2012-11-04T09:11:28Z</time>
      </trkpt>
      <trkpt lat="45.63826" lon="5.64269">
        <ele>224</ele>
        <time>2012-11-04T09:11:29Z</time>
      </trkpt>
      <trkpt lat="45.6383" lon="5.64273">
        <ele>224</ele>
        <time>2012-11-04T09:11:30Z</time>
      </trkpt>
      <trkpt lat="45.63835" lon="5.64279">
        <ele>224</ele>
        <time>2012-11-04T09:11:31Z</time>
      </trkpt>
      <trkpt lat="45.63839" lon="5.64285">
        <ele>224</ele>
        <time>2012-11-04T09:11:32Z</time>
      </trkpt>
      <trkpt lat="45.63843" lon="5.64291">
        <ele>224</ele>
        <time>2012-11-04T09:11:33Z</time>
      </trkpt>
      <trkpt lat="45.63847" lon="5.64295">
        <ele>224</ele>
        <time>2012-11-04T09:11:34Z</time>
      </trkpt>
      <trkpt lat="45.63851" lon="5.64299">
        <ele>224</ele>
        <time>2012-11-04T09:11:35Z</time>
      </trkpt>
      <trkpt lat="45.63855" lon="5.64303">
        <ele>224</ele>
        <time>2012-11-04T09:11:36Z</time>
      </trkpt>
      <trkpt lat="45.63859" lon="5.64307">
        <ele>224</ele>
        <time>2012-11-04T09:11:37Z</time>
      </trkpt>
      <trkpt lat="45.63864" lon="5.64311">
        <ele>224</ele>
        <time>2012-11-04T09:11:38Z</time>
      </trkpt>
      <trkpt lat="45.63868" lon="5.64319">
        <ele>223</ele>
        <time>2012-11-04T09:11:39Z</time>
      </trkpt>
      <trkpt lat="45.63874" lon="5.64322">
        <ele>224</ele>
        <time>2012-11-04T09:11:40Z</time>
      </trkpt>
      <trkpt lat="45.63878" lon="5.64303">
        <ele>224</ele>
        <time>2012-11-04T09:11:42Z</time>
      </trkpt>
      <trkpt lat="45.63881" lon="5.64297">
        <ele>224</ele>
        <time>2012-11-04T09:11:43Z</time>
      </trkpt>
      <trkpt lat="45.63885" lon="5.64291">
        <ele>224</ele>
        <time>2012-11-04T09:11:44Z</time>
      </trkpt>
      <trkpt lat="45.63887" lon="5.64285">
        <ele>224</ele>
        <time>2012-11-04T09:11:45Z</time>
      </trkpt>
      <trkpt lat="45.63889" lon="5.64278">
        <ele>224</ele>
        <time>2012-11-04T09:11:46Z</time>
      </trkpt>
      <trkpt lat="45.63892" lon="5.64271">
        <ele>224</ele>
        <time>2012-11-04T09:11:47Z</time>
      </trkpt>
      <trkpt lat="45.63895" lon="5.64264">
        <ele>224</ele>
        <time>2012-11-04T09:11:48Z</time>
      </trkpt>
      <trkpt lat="45.63899" lon="5.64257">
        <ele>224</ele>
        <time>2012-11-04T09:11:49Z</time>
      </trkpt>
      <trkpt lat="45.63901" lon="5.6425">
        <ele>224</ele>
        <time>2012-11-04T09:11:50Z</time>
      </trkpt>
      <trkpt lat="45.63904" lon="5.64244">
        <ele>224</ele>
        <time>2012-11-04T09:11:51Z</time>
      </trkpt>
      <trkpt lat="45.63909" lon="5.64229">
        <ele>224</ele>
        <time>2012-11-04T09:11:53Z</time>
      </trkpt>
      <trkpt lat="45.6391" lon="5.64222">
        <ele>224</ele>
        <time>2012-11-04T09:11:54Z</time>
      </trkpt>
      <trkpt lat="45.6391" lon="5.64215">
        <ele>224</ele>
        <time>2012-11-04T09:11:55Z</time>
      </trkpt>
      <trkpt lat="45.63908" lon="5.64203">
        <ele>224</ele>
        <time>2012-11-04T09:11:57Z</time>
      </trkpt>
      <trkpt lat="45.6391" lon="5.64197">
        <ele>224</ele>
        <time>2012-11-04T09:12:00Z</time>
      </trkpt>
      <trkpt lat="45.6391" lon="5.64189">
        <ele>224</ele>
        <time>2012-11-04T09:12:02Z</time>
      </trkpt>
      <trkpt lat="45.63906" lon="5.64181">
        <ele>224</ele>
        <time>2012-11-04T09:12:04Z</time>
      </trkpt>
      <trkpt lat="45.63903" lon="5.64175">
        <ele>224</ele>
        <time>2012-11-04T09:12:06Z</time>
      </trkpt>
      <trkpt lat="45.63901" lon="5.64169">
        <ele>225</ele>
        <time>2012-11-04T09:12:08Z</time>
      </trkpt>
      <trkpt lat="45.639" lon="5.64159">
        <ele>224</ele>
        <time>2012-11-04T09:12:10Z</time>
      </trkpt>
      <trkpt lat="45.639" lon="5.64149">
        <ele>223</ele>
        <time>2012-11-04T09:12:12Z</time>
      </trkpt>
      <trkpt lat="45.63902" lon="5.64139">
        <ele>223</ele>
        <time>2012-11-04T09:12:14Z</time>
      </trkpt>
      <trkpt lat="45.63903" lon="5.6413">
        <ele>222</ele>
        <time>2012-11-04T09:12:16Z</time>
      </trkpt>
      <trkpt lat="45.63906" lon="5.64119">
        <ele>222</ele>
        <time>2012-11-04T09:12:18Z</time>
      </trkpt>
      <trkpt lat="45.63908" lon="5.64108">
        <ele>221</ele>
        <time>2012-11-04T09:12:20Z</time>
      </trkpt>
      <trkpt lat="45.6391" lon="5.64097">
        <ele>221</ele>
        <time>2012-11-04T09:12:22Z</time>
      </trkpt>
      <trkpt lat="45.63912" lon="5.64087">
        <ele>221</ele>
        <time>2012-11-04T09:12:24Z</time>
      </trkpt>
      <trkpt lat="45.63915" lon="5.64075">
        <ele>221</ele>
        <time>2012-11-04T09:12:26Z</time>
      </trkpt>
      <trkpt lat="45.63917" lon="5.64063">
        <ele>221</ele>
        <time>2012-11-04T09:12:28Z</time>
      </trkpt>
      <trkpt lat="45.63919" lon="5.64051">
        <ele>220</ele>
        <time>2012-11-04T09:12:30Z</time>
      </trkpt>
      <trkpt lat="45.6392" lon="5.64038">
        <ele>220</ele>
        <time>2012-11-04T09:12:32Z</time>
      </trkpt>
      <trkpt lat="45.63922" lon="5.64027">
        <ele>221</ele>
        <time>2012-11-04T09:12:34Z</time>
      </trkpt>
      <trkpt lat="45.63924" lon="5.64014">
        <ele>220</ele>
        <time>2012-11-04T09:12:36Z</time>
      </trkpt>
      <trkpt lat="45.63924" lon="5.64007">
        <ele>220</ele>
        <time>2012-11-04T09:12:37Z</time>
      </trkpt>
      <trkpt lat="45.63925" lon="5.63995">
        <ele>221</ele>
        <time>2012-11-04T09:12:39Z</time>
      </trkpt>
      <trkpt lat="45.63926" lon="5.63983">
        <ele>221</ele>
        <time>2012-11-04T09:12:41Z</time>
      </trkpt>
      <trkpt lat="45.63927" lon="5.6397">
        <ele>222</ele>
        <time>2012-11-04T09:12:43Z</time>
      </trkpt>
      <trkpt lat="45.63929" lon="5.63957">
        <ele>222</ele>
        <time>2012-11-04T09:12:45Z</time>
      </trkpt>
      <trkpt lat="45.6393" lon="5.63951">
        <ele>222</ele>
        <time>2012-11-04T09:12:46Z</time>
      </trkpt>
      <trkpt lat="45.6393" lon="5.63939">
        <ele>223</ele>
        <time>2012-11-04T09:12:48Z</time>
      </trkpt>
      <trkpt lat="45.6393" lon="5.63933">
        <ele>223</ele>
        <time>2012-11-04T09:12:49Z</time>
      </trkpt>
      <trkpt lat="45.63931" lon="5.63921">
        <ele>223</ele>
        <time>2012-11-04T09:12:51Z</time>
      </trkpt>
      <trkpt lat="45.63932" lon="5.63908">
        <ele>224</ele>
        <time>2012-11-04T09:12:53Z</time>
      </trkpt>
      <trkpt lat="45.63933" lon="5.63901">
        <ele>224</ele>
        <time>2012-11-04T09:12:54Z</time>
      </trkpt>
      <trkpt lat="45.63933" lon="5.63894">
        <ele>224</ele>
        <time>2012-11-04T09:12:55Z</time>
      </trkpt>
      <trkpt lat="45.63934" lon="5.63882">
        <ele>224</ele>
        <time>2012-11-04T09:12:57Z</time>
      </trkpt>
      <trkpt lat="45.63935" lon="5.63874">
        <ele>224</ele>
        <time>2012-11-04T09:12:58Z</time>
      </trkpt>
      <trkpt lat="45.63936" lon="5.63861">
        <ele>224</ele>
        <time>2012-11-04T09:13:00Z</time>
      </trkpt>
      <trkpt lat="45.63936" lon="5.63855">
        <ele>224</ele>
        <time>2012-11-04T09:13:01Z</time>
      </trkpt>
      <trkpt lat="45.63936" lon="5.63848">
        <ele>224</ele>
        <time>2012-11-04T09:13:02Z</time>
      </trkpt>
      <trkpt lat="45.63935" lon="5.63836">
        <ele>224</ele>
        <time>2012-11-04T09:13:04Z</time>
      </trkpt>
      <trkpt lat="45.63931" lon="5.63827">
        <ele>224</ele>
        <time>2012-11-04T09:13:06Z</time>
      </trkpt>
      <trkpt lat="45.63924" lon="5.63819">
        <ele>224</ele>
        <time>2012-11-04T09:13:08Z</time>
      </trkpt>
      <trkpt lat="45.63921" lon="5.63814">
        <ele>224</ele>
        <time>2012-11-04T09:13:09Z</time>
      </trkpt>
      <trkpt lat="45.63917" lon="5.63811">
        <ele>224</ele>
        <time>2012-11-04T09:13:10Z</time>
      </trkpt>
      <trkpt lat="45.63911" lon="5.63804">
        <ele>224</ele>
        <time>2012-11-04T09:13:12Z</time>
      </trkpt>
      <trkpt lat="45.63903" lon="5.63797">
        <ele>224</ele>
        <time>2012-11-04T09:13:14Z</time>
      </trkpt>
      <trkpt lat="45.63899" lon="5.63792">
        <ele>224</ele>
        <time>2012-11-04T09:13:15Z</time>
      </trkpt>
      <trkpt lat="45.63895" lon="5.63786">
        <ele>224</ele>
        <time>2012-11-04T09:13:16Z</time>
      </trkpt>
      <trkpt lat="45.63893" lon="5.63779">
        <ele>224</ele>
        <time>2012-11-04T09:13:17Z</time>
      </trkpt>
      <trkpt lat="45.6389" lon="5.63773">
        <ele>225</ele>
        <time>2012-11-04T09:13:18Z</time>
      </trkpt>
      <trkpt lat="45.63888" lon="5.63767">
        <ele>225</ele>
        <time>2012-11-04T09:13:19Z</time>
      </trkpt>
      <trkpt lat="45.63883" lon="5.63758">
        <ele>225</ele>
        <time>2012-11-04T09:13:21Z</time>
      </trkpt>
      <trkpt lat="45.63878" lon="5.63748">
        <ele>225</ele>
        <time>2012-11-04T09:13:23Z</time>
      </trkpt>
      <trkpt lat="45.63875" lon="5.63742">
        <ele>225</ele>
        <time>2012-11-04T09:13:24Z</time>
      </trkpt>
      <trkpt lat="45.6387" lon="5.63734">
        <ele>225</ele>
        <time>2012-11-04T09:13:26Z</time>
      </trkpt>
      <trkpt lat="45.63865" lon="5.63726">
        <ele>225</ele>
        <time>2012-11-04T09:13:28Z</time>
      </trkpt>
      <trkpt lat="45.6386" lon="5.63718">
        <ele>225</ele>
        <time>2012-11-04T09:13:30Z</time>
      </trkpt>
      <trkpt lat="45.63853" lon="5.6371">
        <ele>225</ele>
        <time>2012-11-04T09:13:32Z</time>
      </trkpt>
      <trkpt lat="45.63847" lon="5.63702">
        <ele>225</ele>
        <time>2012-11-04T09:13:34Z</time>
      </trkpt>
      <trkpt lat="45.63842" lon="5.63689">
        <ele>225</ele>
        <time>2012-11-04T09:13:36Z</time>
      </trkpt>
      <trkpt lat="45.63838" lon="5.63683">
        <ele>225</ele>
        <time>2012-11-04T09:13:37Z</time>
      </trkpt>
      <trkpt lat="45.63836" lon="5.63678">
        <ele>225</ele>
        <time>2012-11-04T09:13:38Z</time>
      </trkpt>
      <trkpt lat="45.63833" lon="5.63672">
        <ele>225</ele>
        <time>2012-11-04T09:13:39Z</time>
      </trkpt>
      <trkpt lat="45.6383" lon="5.6366">
        <ele>225</ele>
        <time>2012-11-04T09:13:41Z</time>
      </trkpt>
      <trkpt lat="45.63826" lon="5.63649">
        <ele>225</ele>
        <time>2012-11-04T09:13:43Z</time>
      </trkpt>
      <trkpt lat="45.63825" lon="5.63642">
        <ele>225</ele>
        <time>2012-11-04T09:13:44Z</time>
      </trkpt>
      <trkpt lat="45.63824" lon="5.6363">
        <ele>225</ele>
        <time>2012-11-04T09:13:46Z</time>
      </trkpt>
      <trkpt lat="45.63822" lon="5.63617">
        <ele>225</ele>
        <time>2012-11-04T09:13:48Z</time>
      </trkpt>
      <trkpt lat="45.63821" lon="5.63609">
        <ele>225</ele>
        <time>2012-11-04T09:13:49Z</time>
      </trkpt>
      <trkpt lat="45.6382" lon="5.63602">
        <ele>225</ele>
        <time>2012-11-04T09:13:50Z</time>
      </trkpt>
      <trkpt lat="45.63819" lon="5.63591">
        <ele>225</ele>
        <time>2012-11-04T09:13:52Z</time>
      </trkpt>
      <trkpt lat="45.63817" lon="5.63581">
        <ele>225</ele>
        <time>2012-11-04T09:13:54Z</time>
      </trkpt>
      <trkpt lat="45.63816" lon="5.63566">
        <ele>224</ele>
        <time>2012-11-04T09:13:56Z</time>
      </trkpt>
      <trkpt lat="45.63814" lon="5.63554">
        <ele>223</ele>
        <time>2012-11-04T09:13:58Z</time>
      </trkpt>
      <trkpt lat="45.63814" lon="5.63543">
        <ele>223</ele>
        <time>2012-11-04T09:14:00Z</time>
      </trkpt>
      <trkpt lat="45.63812" lon="5.63533">
        <ele>223</ele>
        <time>2012-11-04T09:14:02Z</time>
      </trkpt>
      <trkpt lat="45.63811" lon="5.63525">
        <ele>223</ele>
        <time>2012-11-04T09:14:03Z</time>
      </trkpt>
      <trkpt lat="45.6381" lon="5.63515">
        <ele>223</ele>
        <time>2012-11-04T09:14:05Z</time>
      </trkpt>
      <trkpt lat="45.6381" lon="5.63505">
        <ele>224</ele>
        <time>2012-11-04T09:14:07Z</time>
      </trkpt>
      <trkpt lat="45.63807" lon="5.63497">
        <ele>224</ele>
        <time>2012-11-04T09:14:08Z</time>
      </trkpt>
      <trkpt lat="45.63807" lon="5.6349">
        <ele>224</ele>
        <time>2012-11-04T09:14:09Z</time>
      </trkpt>
      <trkpt lat="45.63805" lon="5.63483">
        <ele>224</ele>
        <time>2012-11-04T09:14:10Z</time>
      </trkpt>
      <trkpt lat="45.63802" lon="5.63478">
        <ele>224</ele>
        <time>2012-11-04T09:14:11Z</time>
      </trkpt>
      <trkpt lat="45.63798" lon="5.63467">
        <ele>223</ele>
        <time>2012-11-04T09:14:13Z</time>
      </trkpt>
      <trkpt lat="45.63796" lon="5.63456">
        <ele>223</ele>
        <time>2012-11-04T09:14:15Z</time>
      </trkpt>
      <trkpt lat="45.63793" lon="5.63446">
        <ele>223</ele>
        <time>2012-11-04T09:14:17Z</time>
      </trkpt>
      <trkpt lat="45.6379" lon="5.63436">
        <ele>223</ele>
        <time>2012-11-04T09:14:19Z</time>
      </trkpt>
      <trkpt lat="45.63788" lon="5.63425">
        <ele>223</ele>
        <time>2012-11-04T09:14:21Z</time>
      </trkpt>
      <trkpt lat="45.63785" lon="5.63414">
        <ele>222</ele>
        <time>2012-11-04T09:14:23Z</time>
      </trkpt>
      <trkpt lat="45.63783" lon="5.63403">
        <ele>222</ele>
        <time>2012-11-04T09:14:25Z</time>
      </trkpt>
      <trkpt lat="45.6378" lon="5.63392">
        <ele>222</ele>
        <time>2012-11-04T09:14:27Z</time>
      </trkpt>
      <trkpt lat="45.63777" lon="5.6338">
        <ele>222</ele>
        <time>2012-11-04T09:14:29Z</time>
      </trkpt>
      <trkpt lat="45.63777" lon="5.63369">
        <ele>223</ele>
        <time>2012-11-04T09:14:31Z</time>
      </trkpt>
      <trkpt lat="45.6378" lon="5.63359">
        <ele>223</ele>
        <time>2012-11-04T09:14:33Z</time>
      </trkpt>
      <trkpt lat="45.63785" lon="5.63355">
        <ele>223</ele>
        <time>2012-11-04T09:14:34Z</time>
      </trkpt>
      <trkpt lat="45.63792" lon="5.63348">
        <ele>223</ele>
        <time>2012-11-04T09:14:36Z</time>
      </trkpt>
      <trkpt lat="45.638" lon="5.63336">
        <ele>223</ele>
        <time>2012-11-04T09:14:38Z</time>
      </trkpt>
      <trkpt lat="45.63803" lon="5.63329">
        <ele>223</ele>
        <time>2012-11-04T09:14:39Z</time>
      </trkpt>
      <trkpt lat="45.63804" lon="5.63322">
        <ele>224</ele>
        <time>2012-11-04T09:14:40Z</time>
      </trkpt>
      <trkpt lat="45.63806" lon="5.63316">
        <ele>224</ele>
        <time>2012-11-04T09:14:41Z</time>
      </trkpt>
      <trkpt lat="45.63808" lon="5.63309">
        <ele>224</ele>
        <time>2012-11-04T09:14:42Z</time>
      </trkpt>
      <trkpt lat="45.63808" lon="5.63302">
        <ele>224</ele>
        <time>2012-11-04T09:14:43Z</time>
      </trkpt>
      <trkpt lat="45.63808" lon="5.63295">
        <ele>223</ele>
        <time>2012-11-04T09:14:44Z</time>
      </trkpt>
      <trkpt lat="45.63808" lon="5.63285">
        <ele>223</ele>
        <time>2012-11-04T09:14:46Z</time>
      </trkpt>
      <trkpt lat="45.63809" lon="5.63279">
        <ele>223</ele>
        <time>2012-11-04T09:14:47Z</time>
      </trkpt>
      <trkpt lat="45.6381" lon="5.63268">
        <ele>223</ele>
        <time>2012-11-04T09:14:49Z</time>
      </trkpt>
      <trkpt lat="45.6381" lon="5.63258">
        <ele>224</ele>
        <time>2012-11-04T09:14:51Z</time>
      </trkpt>
      <trkpt lat="45.63811" lon="5.63251">
        <ele>224</ele>
        <time>2012-11-04T09:14:52Z</time>
      </trkpt>
      <trkpt lat="45.63813" lon="5.63239">
        <ele>224</ele>
        <time>2012-11-04T09:14:54Z</time>
      </trkpt>
      <trkpt lat="45.63815" lon="5.63229">
        <ele>226</ele>
        <time>2012-11-04T09:14:56Z</time>
      </trkpt>
      <trkpt lat="45.63818" lon="5.6322">
        <ele>229</ele>
        <time>2012-11-04T09:14:58Z</time>
      </trkpt>
      <trkpt lat="45.63822" lon="5.63211">
        <ele>232</ele>
        <time>2012-11-04T09:15:00Z</time>
      </trkpt>
      <trkpt lat="45.63828" lon="5.63201">
        <ele>236</ele>
        <time>2012-11-04T09:15:02Z</time>
      </trkpt>
      <trkpt lat="45.63831" lon="5.63196">
        <ele>237</ele>
        <time>2012-11-04T09:15:03Z</time>
      </trkpt>
      <trkpt lat="45.63834" lon="5.63191">
        <ele>239</ele>
        <time>2012-11-04T09:15:04Z</time>
      </trkpt>
      <trkpt lat="45.63837" lon="5.63186">
        <ele>240</ele>
        <time>2012-11-04T09:15:05Z</time>
      </trkpt>
      <trkpt lat="45.6384" lon="5.63181">
        <ele>241</ele>
        <time>2012-11-04T09:15:06Z</time>
      </trkpt>
      <trkpt lat="45.63846" lon="5.63171">
        <ele>242</ele>
        <time>2012-11-04T09:15:08Z</time>
      </trkpt>
      <trkpt lat="45.63851" lon="5.63164">
        <ele>243</ele>
        <time>2012-11-04T09:15:09Z</time>
      </trkpt>
      <trkpt lat="45.63856" lon="5.63155">
        <ele>243</ele>
        <time>2012-11-04T09:15:11Z</time>
      </trkpt>
      <trkpt lat="45.63861" lon="5.63148">
        <ele>243</ele>
        <time>2012-11-04T09:15:13Z</time>
      </trkpt>
      <trkpt lat="45.63866" lon="5.63139">
        <ele>243</ele>
        <time>2012-11-04T09:15:15Z</time>
      </trkpt>
      <trkpt lat="45.63868" lon="5.63127">
        <ele>243</ele>
        <time>2012-11-04T09:15:17Z</time>
      </trkpt>
      <trkpt lat="45.63872" lon="5.63117">
        <ele>244</ele>
        <time>2012-11-04T09:15:19Z</time>
      </trkpt>
      <trkpt lat="45.63875" lon="5.63105">
        <ele>245</ele>
        <time>2012-11-04T09:15:21Z</time>
      </trkpt>
      <trkpt lat="45.63878" lon="5.63093">
        <ele>245</ele>
        <time>2012-11-04T09:15:23Z</time>
      </trkpt>
      <trkpt lat="45.6388" lon="5.63087">
        <ele>245</ele>
        <time>2012-11-04T09:15:24Z</time>
      </trkpt>
      <trkpt lat="45.63882" lon="5.63081">
        <ele>245</ele>
        <time>2012-11-04T09:15:25Z</time>
      </trkpt>
      <trkpt lat="45.63886" lon="5.63071">
        <ele>245</ele>
        <time>2012-11-04T09:15:27Z</time>
      </trkpt>
      <trkpt lat="45.6389" lon="5.63063">
        <ele>244</ele>
        <time>2012-11-04T09:15:29Z</time>
      </trkpt>
      <trkpt lat="45.63894" lon="5.63056">
        <ele>244</ele>
        <time>2012-11-04T09:15:31Z</time>
      </trkpt>
      <trkpt lat="45.63898" lon="5.6305">
        <ele>242</ele>
        <time>2012-11-04T09:15:33Z</time>
      </trkpt>
      <trkpt lat="45.63903" lon="5.63044">
        <ele>241</ele>
        <time>2012-11-04T09:15:35Z</time>
      </trkpt>
      <trkpt lat="45.63905" lon="5.63036">
        <ele>239</ele>
        <time>2012-11-04T09:15:37Z</time>
      </trkpt>
      <trkpt lat="45.63907" lon="5.63027">
        <ele>238</ele>
        <time>2012-11-04T09:15:39Z</time>
      </trkpt>
      <trkpt lat="45.63908" lon="5.63021">
        <ele>238</ele>
        <time>2012-11-04T09:15:41Z</time>
      </trkpt>
      <trkpt lat="45.63909" lon="5.63014">
        <ele>239</ele>
        <time>2012-11-04T09:15:43Z</time>
      </trkpt>
      <trkpt lat="45.63908" lon="5.63005">
        <ele>239</ele>
        <time>2012-11-04T09:15:46Z</time>
      </trkpt>
      <trkpt lat="45.63907" lon="5.62997">
        <ele>239</ele>
        <time>2012-11-04T09:15:49Z</time>
      </trkpt>
      <trkpt lat="45.63907" lon="5.62989">
        <ele>239</ele>
        <time>2012-11-04T09:15:52Z</time>
      </trkpt>
      <trkpt lat="45.63907" lon="5.62981">
        <ele>241</ele>
        <time>2012-11-04T09:15:55Z</time>
      </trkpt>
      <trkpt lat="45.63909" lon="5.62974">
        <ele>243</ele>
        <time>2012-11-04T09:15:58Z</time>
      </trkpt>
      <trkpt lat="45.6391" lon="5.62964">
        <ele>246</ele>
        <time>2012-11-04T09:16:01Z</time>
      </trkpt>
      <trkpt lat="45.6391" lon="5.62957">
        <ele>247</ele>
        <time>2012-11-04T09:16:03Z</time>
      </trkpt>
      <trkpt lat="45.6391" lon="5.6295">
        <ele>249</ele>
        <time>2012-11-04T09:16:05Z</time>
      </trkpt>
      <trkpt lat="45.63911" lon="5.62941">
        <ele>251</ele>
        <time>2012-11-04T09:16:08Z</time>
      </trkpt>
      <trkpt lat="45.63912" lon="5.62932">
        <ele>253</ele>
        <time>2012-11-04T09:16:11Z</time>
      </trkpt>
      <trkpt lat="45.63915" lon="5.62926">
        <ele>255</ele>
        <time>2012-11-04T09:16:14Z</time>
      </trkpt>
      <trkpt lat="45.63917" lon="5.62918">
        <ele>257</ele>
        <time>2012-11-04T09:16:17Z</time>
      </trkpt>
      <trkpt lat="45.63919" lon="5.62911">
        <ele>258</ele>
        <time>2012-11-04T09:16:20Z</time>
      </trkpt>
      <trkpt lat="45.63922" lon="5.62904">
        <ele>262</ele>
        <time>2012-11-04T09:16:24Z</time>
      </trkpt>
      <trkpt lat="45.63924" lon="5.62897">
        <ele>264</ele>
        <time>2012-11-04T09:16:28Z</time>
      </trkpt>
      <trkpt lat="45.63927" lon="5.6289">
        <ele>266</ele>
        <time>2012-11-04T09:16:32Z</time>
      </trkpt>
      <trkpt lat="45.63927" lon="5.62882">
        <ele>266</ele>
        <time>2012-11-04T09:16:35Z</time>
      </trkpt>
      <trkpt lat="45.63927" lon="5.62876">
        <ele>266</ele>
        <time>2012-11-04T09:16:38Z</time>
      </trkpt>
      <trkpt lat="45.63926" lon="5.62868">
        <ele>265</ele>
        <time>2012-11-04T09:16:42Z</time>
      </trkpt>
      <trkpt lat="45.63926" lon="5.6286">
        <ele>264</ele>
        <time>2012-11-04T09:16:46Z</time>
      </trkpt>
      <trkpt lat="45.63925" lon="5.62849">
        <ele>260</ele>
        <time>2012-11-04T09:17:03Z</time>
      </trkpt>
      <trkpt lat="45.63927" lon="5.62843">
        <ele>261</ele>
        <time>2012-11-04T09:17:08Z</time>
      </trkpt>
      <trkpt lat="45.63927" lon="5.62837">
        <ele>261</ele>
        <time>2012-11-04T09:17:13Z</time>
      </trkpt>
      <trkpt lat="45.63927" lon="5.6283">
        <ele>262</ele>
        <time>2012-11-04T09:17:18Z</time>
      </trkpt>
      <trkpt lat="45.63924" lon="5.62824">
        <ele>262</ele>
        <time>2012-11-04T09:17:22Z</time>
      </trkpt>
      <trkpt lat="45.63921" lon="5.62817">
        <ele>262</ele>
        <time>2012-11-04T09:17:26Z</time>
      </trkpt>
      <trkpt lat="45.63917" lon="5.62813">
        <ele>260</ele>
        <time>2012-11-04T09:17:29Z</time>
      </trkpt>
      <trkpt lat="45.63913" lon="5.6281">
        <ele>258</ele>
        <time>2012-11-04T09:17:33Z</time>
      </trkpt>
      <trkpt lat="45.63908" lon="5.62806">
        <ele>257</ele>
        <time>2012-11-04T09:17:37Z</time>
      </trkpt>
      <trkpt lat="45.63903" lon="5.62803">
        <ele>257</ele>
        <time>2012-11-04T09:17:41Z</time>
      </trkpt>
      <trkpt lat="45.63899" lon="5.628">
        <ele>258</ele>
        <time>2012-11-04T09:17:45Z</time>
      </trkpt>
      <trkpt lat="45.63894" lon="5.62795">
        <ele>258</ele>
        <time>2012-11-04T09:17:48Z</time>
      </trkpt>
      <trkpt lat="45.6389" lon="5.6279">
        <ele>259</ele>
        <time>2012-11-04T09:17:50Z</time>
      </trkpt>
      <trkpt lat="45.63886" lon="5.62783">
        <ele>259</ele>
        <time>2012-11-04T09:17:52Z</time>
      </trkpt>
      <trkpt lat="45.63883" lon="5.62778">
        <ele>260</ele>
        <time>2012-11-04T09:17:54Z</time>
      </trkpt>
      <trkpt lat="45.63882" lon="5.62771">
        <ele>260</ele>
        <time>2012-11-04T09:17:56Z</time>
      </trkpt>
      <trkpt lat="45.6388" lon="5.62764">
        <ele>260</ele>
        <time>2012-11-04T09:17:58Z</time>
      </trkpt>
      <trkpt lat="45.63877" lon="5.62756">
        <ele>260</ele>
        <time>2012-11-04T09:18:00Z</time>
      </trkpt>
      <trkpt lat="45.63875" lon="5.62748">
        <ele>260</ele>
        <time>2012-11-04T09:18:02Z</time>
      </trkpt>
      <trkpt lat="45.63874" lon="5.62742">
        <ele>261</ele>
        <time>2012-11-04T09:18:04Z</time>
      </trkpt>
      <trkpt lat="45.63873" lon="5.62734">
        <ele>261</ele>
        <time>2012-11-04T09:18:07Z</time>
      </trkpt>
      <trkpt lat="45.63873" lon="5.62725">
        <ele>263</ele>
        <time>2012-11-04T09:18:10Z</time>
      </trkpt>
      <trkpt lat="45.63874" lon="5.62719">
        <ele>265</ele>
        <time>2012-11-04T09:18:12Z</time>
      </trkpt>
      <trkpt lat="45.63875" lon="5.62711">
        <ele>267</ele>
        <time>2012-11-04T09:18:14Z</time>
      </trkpt>
      <trkpt lat="45.63877" lon="5.62703">
        <ele>268</ele>
        <time>2012-11-04T09:18:16Z</time>
      </trkpt>
      <trkpt lat="45.63878" lon="5.62694">
        <ele>269</ele>
        <time>2012-11-04T09:18:18Z</time>
      </trkpt>
      <trkpt lat="45.63878" lon="5.62682">
        <ele>271</ele>
        <time>2012-11-04T09:18:20Z</time>
      </trkpt>
      <trkpt lat="45.63876" lon="5.6267">
        <ele>272</ele>
        <time>2012-11-04T09:18:22Z</time>
      </trkpt>
      <trkpt lat="45.63873" lon="5.62658">
        <ele>272</ele>
        <time>2012-11-04T09:18:24Z</time>
      </trkpt>
      <trkpt lat="45.63868" lon="5.62651">
        <ele>272</ele>
        <time>2012-11-04T09:18:26Z</time>
      </trkpt>
      <trkpt lat="45.63866" lon="5.62644">
        <ele>273</ele>
        <time>2012-11-04T09:18:28Z</time>
      </trkpt>
      <trkpt lat="45.63862" lon="5.62637">
        <ele>273</ele>
        <time>2012-11-04T09:18:30Z</time>
      </trkpt>
      <trkpt lat="45.63856" lon="5.6263">
        <ele>272</ele>
        <time>2012-11-04T09:18:32Z</time>
      </trkpt>
      <trkpt lat="45.6385" lon="5.62619">
        <ele>270</ele>
        <time>2012-11-04T09:18:34Z</time>
      </trkpt>
      <trkpt lat="45.63848" lon="5.62613">
        <ele>269</ele>
        <time>2012-11-04T09:18:35Z</time>
      </trkpt>
      <trkpt lat="45.63845" lon="5.62606">
        <ele>269</ele>
        <time>2012-11-04T09:18:36Z</time>
      </trkpt>
      <trkpt lat="45.63843" lon="5.62599">
        <ele>269</ele>
        <time>2012-11-04T09:18:37Z</time>
      </trkpt>
      <trkpt lat="45.63841" lon="5.62594">
        <ele>269</ele>
        <time>2012-11-04T09:18:38Z</time>
      </trkpt>
      <trkpt lat="45.63837" lon="5.62585">
        <ele>268</ele>
        <time>2012-11-04T09:18:40Z</time>
      </trkpt>
      <trkpt lat="45.63835" lon="5.62578">
        <ele>268</ele>
        <time>2012-11-04T09:18:44Z</time>
      </trkpt>
      <trkpt lat="45.63835" lon="5.62571">
        <ele>268</ele>
        <time>2012-11-04T09:18:47Z</time>
      </trkpt>
      <trkpt lat="45.6383" lon="5.62567">
        <ele>267</ele>
        <time>2012-11-04T09:18:50Z</time>
      </trkpt>
      <trkpt lat="45.63824" lon="5.62565">
        <ele>266</ele>
        <time>2012-11-04T09:18:53Z</time>
      </trkpt>
      <trkpt lat="45.63819" lon="5.62563">
        <ele>266</ele>
        <time>2012-11-04T09:18:57Z</time>
      </trkpt>
      <trkpt lat="45.63813" lon="5.62562">
        <ele>265</ele>
        <time>2012-11-04T09:19:01Z</time>
      </trkpt>
      <trkpt lat="45.63808" lon="5.62562">
        <ele>266</ele>
        <time>2012-11-04T09:19:05Z</time>
      </trkpt>
      <trkpt lat="45.63803" lon="5.62562">
        <ele>266</ele>
        <time>2012-11-04T09:19:11Z</time>
      </trkpt>
      <trkpt lat="45.63798" lon="5.62558">
        <ele>265</ele>
        <time>2012-11-04T09:19:19Z</time>
      </trkpt>
      <trkpt lat="45.63795" lon="5.62553">
        <ele>264</ele>
        <time>2012-11-04T09:19:25Z</time>
      </trkpt>
      <trkpt lat="45.6379" lon="5.62549">
        <ele>264</ele>
        <time>2012-11-04T09:19:31Z</time>
      </trkpt>
      <trkpt lat="45.63785" lon="5.62545">
        <ele>263</ele>
        <time>2012-11-04T09:19:36Z</time>
      </trkpt>
      <trkpt lat="45.63781" lon="5.62543">
        <ele>265</ele>
        <time>2012-11-04T09:19:46Z</time>
      </trkpt>
      <trkpt lat="45.63776" lon="5.62539">
        <ele>267</ele>
        <time>2012-11-04T09:19:52Z</time>
      </trkpt>
      <trkpt lat="45.63771" lon="5.62534">
        <ele>269</ele>
        <time>2012-11-04T09:20:06Z</time>
      </trkpt>
      <trkpt lat="45.63767" lon="5.62531">
        <ele>269</ele>
        <time>2012-11-04T09:20:10Z</time>
      </trkpt>
      <trkpt lat="45.63762" lon="5.62529">
        <ele>268</ele>
        <time>2012-11-04T09:20:14Z</time>
      </trkpt>
      <trkpt lat="45.63758" lon="5.62525">
        <ele>268</ele>
        <time>2012-11-04T09:20:19Z</time>
      </trkpt>
      <trkpt lat="45.63753" lon="5.62524">
        <ele>268</ele>
        <time>2012-11-04T09:20:25Z</time>
      </trkpt>
      <trkpt lat="45.63751" lon="5.62524">
        <ele>269</ele>
        <time>2012-11-04T09:20:30Z</time>
      </trkpt>
      <trkpt lat="45.63748" lon="5.62523">
        <ele>270</ele>
        <time>2012-11-04T09:20:42Z</time>
      </trkpt>
      <trkpt lat="45.63744" lon="5.62524">
        <ele>270</ele>
        <time>2012-11-04T09:20:45Z</time>
      </trkpt>
      <trkpt lat="45.63737" lon="5.62522">
        <ele>269</ele>
        <time>2012-11-04T09:20:49Z</time>
      </trkpt>
      <trkpt lat="45.63732" lon="5.62517">
        <ele>270</ele>
        <time>2012-11-04T09:20:51Z</time>
      </trkpt>
      <trkpt lat="45.63726" lon="5.62514">
        <ele>271</ele>
        <time>2012-11-04T09:20:53Z</time>
      </trkpt>
      <trkpt lat="45.63721" lon="5.62512">
        <ele>271</ele>
        <time>2012-11-04T09:20:55Z</time>
      </trkpt>
      <trkpt lat="45.63716" lon="5.62511">
        <ele>271</ele>
        <time>2012-11-04T09:20:57Z</time>
      </trkpt>
      <trkpt lat="45.6371" lon="5.62512">
        <ele>272</ele>
        <time>2012-11-04T09:20:59Z</time>
      </trkpt>
      <trkpt lat="45.63704" lon="5.62512">
        <ele>271</ele>
        <time>2012-11-04T09:21:01Z</time>
      </trkpt>
      <trkpt lat="45.63699" lon="5.62514">
        <ele>271</ele>
        <time>2012-11-04T09:21:03Z</time>
      </trkpt>
      <trkpt lat="45.63694" lon="5.62517">
        <ele>269</ele>
        <time>2012-11-04T09:21:06Z</time>
      </trkpt>
      <trkpt lat="45.63689" lon="5.62519">
        <ele>269</ele>
        <time>2012-11-04T09:21:09Z</time>
      </trkpt>
      <trkpt lat="45.63683" lon="5.62521">
        <ele>268</ele>
        <time>2012-11-04T09:21:12Z</time>
      </trkpt>
      <trkpt lat="45.63679" lon="5.62525">
        <ele>269</ele>
        <time>2012-11-04T09:21:15Z</time>
      </trkpt>
      <trkpt lat="45.63674" lon="5.62528">
        <ele>268</ele>
        <time>2012-11-04T09:21:18Z</time>
      </trkpt>
      <trkpt lat="45.63669" lon="5.62527">
        <ele>268</ele>
        <time>2012-11-04T09:21:20Z</time>
      </trkpt>
      <trkpt lat="45.63665" lon="5.62521">
        <ele>268</ele>
        <time>2012-11-04T09:21:22Z</time>
      </trkpt>
      <trkpt lat="45.63662" lon="5.62513">
        <ele>268</ele>
        <time>2012-11-04T09:21:24Z</time>
      </trkpt>
      <trkpt lat="45.63664" lon="5.62506">
        <ele>268</ele>
        <time>2012-11-04T09:21:25Z</time>
      </trkpt>
      <trkpt lat="45.63669" lon="5.62496">
        <ele>267</ele>
        <time>2012-11-04T09:21:27Z</time>
      </trkpt>
      <trkpt lat="45.63692" lon="5.6248">
        <ele>266</ele>
        <time>2012-11-04T09:21:29Z</time>
      </trkpt>
      <trkpt lat="45.63696" lon="5.62474">
        <ele>265</ele>
        <time>2012-11-04T09:21:30Z</time>
      </trkpt>
      <trkpt lat="45.63699" lon="5.62469">
        <ele>264</ele>
        <time>2012-11-04T09:21:31Z</time>
      </trkpt>
      <trkpt lat="45.63703" lon="5.62465">
        <ele>263</ele>
        <time>2012-11-04T09:21:32Z</time>
      </trkpt>
      <trkpt lat="45.63705" lon="5.62458">
        <ele>262</ele>
        <time>2012-11-04T09:21:34Z</time>
      </trkpt>
      <trkpt lat="45.63702" lon="5.62451">
        <ele>260</ele>
        <time>2012-11-04T09:21:36Z</time>
      </trkpt>
      <trkpt lat="45.63698" lon="5.62446">
        <ele>259</ele>
        <time>2012-11-04T09:21:38Z</time>
      </trkpt>
      <trkpt lat="45.63691" lon="5.62441">
        <ele>258</ele>
        <time>2012-11-04T09:21:40Z</time>
      </trkpt>
      <trkpt lat="45.63684" lon="5.62437">
        <ele>258</ele>
        <time>2012-11-04T09:21:42Z</time>
      </trkpt>
      <trkpt lat="45.63677" lon="5.62435">
        <ele>256</ele>
        <time>2012-11-04T09:21:44Z</time>
      </trkpt>
      <trkpt lat="45.63671" lon="5.6243">
        <ele>255</ele>
        <time>2012-11-04T09:21:46Z</time>
      </trkpt>
      <trkpt lat="45.63666" lon="5.62425">
        <ele>254</ele>
        <time>2012-11-04T09:21:48Z</time>
      </trkpt>
      <trkpt lat="45.63661" lon="5.62429">
        <ele>254</ele>
        <time>2012-11-04T09:21:52Z</time>
      </trkpt>
      <trkpt lat="45.63655" lon="5.62436">
        <ele>253</ele>
        <time>2012-11-04T09:21:53Z</time>
      </trkpt>
      <trkpt lat="45.6365" lon="5.62439">
        <ele>252</ele>
        <time>2012-11-04T09:21:54Z</time>
      </trkpt>
      <trkpt lat="45.63645" lon="5.62441">
        <ele>251</ele>
        <time>2012-11-04T09:21:55Z</time>
      </trkpt>
      <trkpt lat="45.63639" lon="5.62443">
        <ele>250</ele>
        <time>2012-11-04T09:21:56Z</time>
      </trkpt>
      <trkpt lat="45.63633" lon="5.62445">
        <ele>249</ele>
        <time>2012-11-04T09:21:57Z</time>
      </trkpt>
      <trkpt lat="45.63626" lon="5.62444">
        <ele>249</ele>
        <time>2012-11-04T09:21:58Z</time>
      </trkpt>
      <trkpt lat="45.63621" lon="5.62444">
        <ele>248</ele>
        <time>2012-11-04T09:21:59Z</time>
      </trkpt>
      <trkpt lat="45.63615" lon="5.62443">
        <ele>248</ele>
        <time>2012-11-04T09:22:00Z</time>
      </trkpt>
      <trkpt lat="45.6361" lon="5.62442">
        <ele>247</ele>
        <time>2012-11-04T09:22:01Z</time>
      </trkpt>
      <trkpt lat="45.63604" lon="5.62441">
        <ele>247</ele>
        <time>2012-11-04T09:22:02Z</time>
      </trkpt>
      <trkpt lat="45.636" lon="5.62443">
        <ele>246</ele>
        <time>2012-11-04T09:22:03Z</time>
      </trkpt>
      <trkpt lat="45.63595" lon="5.62445">
        <ele>246</ele>
        <time>2012-11-04T09:22:04Z</time>
      </trkpt>
      <trkpt lat="45.63589" lon="5.62447">
        <ele>246</ele>
        <time>2012-11-04T09:22:05Z</time>
      </trkpt>
      <trkpt lat="45.63582" lon="5.62445">
        <ele>246</ele>
        <time>2012-11-04T09:22:06Z</time>
      </trkpt>
      <trkpt lat="45.63575" lon="5.62444">
        <ele>246</ele>
        <time>2012-11-04T09:22:07Z</time>
      </trkpt>
      <trkpt lat="45.6357" lon="5.62445">
        <ele>245</ele>
        <time>2012-11-04T09:22:08Z</time>
      </trkpt>
      <trkpt lat="45.63562" lon="5.62448">
        <ele>245</ele>
        <time>2012-11-04T09:22:10Z</time>
      </trkpt>
      <trkpt lat="45.63555" lon="5.62449">
        <ele>245</ele>
        <time>2012-11-04T09:22:12Z</time>
      </trkpt>
      <trkpt lat="45.6355" lon="5.62451">
        <ele>245</ele>
        <time>2012-11-04T09:22:14Z</time>
      </trkpt>
      <trkpt lat="45.63544" lon="5.6245">
        <ele>245</ele>
        <time>2012-11-04T09:22:17Z</time>
      </trkpt>
      <trkpt lat="45.63539" lon="5.62449">
        <ele>245</ele>
        <time>2012-11-04T09:22:20Z</time>
      </trkpt>
      <trkpt lat="45.63534" lon="5.62449">
        <ele>244</ele>
        <time>2012-11-04T09:22:23Z</time>
      </trkpt>
      <trkpt lat="45.6353" lon="5.62454">
        <ele>244</ele>
        <time>2012-11-04T09:22:27Z</time>
      </trkpt>
      <trkpt lat="45.63526" lon="5.62458">
        <ele>243</ele>
        <time>2012-11-04T09:22:31Z</time>
      </trkpt>
      <trkpt lat="45.63524" lon="5.62452">
        <ele>243</ele>
        <time>2012-11-04T09:22:36Z</time>
      </trkpt>
      <trkpt lat="45.63521" lon="5.62446">
        <ele>244</ele>
        <time>2012-11-04T09:22:43Z</time>
      </trkpt>
      <trkpt lat="45.6352" lon="5.62438">
        <ele>245</ele>
        <time>2012-11-04T09:22:48Z</time>
      </trkpt>
      <trkpt lat="45.63518" lon="5.6243">
        <ele>245</ele>
        <time>2012-11-04T09:22:54Z</time>
      </trkpt>
      <trkpt lat="45.63516" lon="5.62423">
        <ele>246</ele>
        <time>2012-11-04T09:22:56Z</time>
      </trkpt>
      <trkpt lat="45.63512" lon="5.62416">
        <ele>249</ele>
        <time>2012-11-04T09:22:58Z</time>
      </trkpt>
      <trkpt lat="45.63506" lon="5.62409">
        <ele>252</ele>
        <time>2012-11-04T09:23:00Z</time>
      </trkpt>
      <trkpt lat="45.635" lon="5.62405">
        <ele>254</ele>
        <time>2012-11-04T09:23:02Z</time>
      </trkpt>
      <trkpt lat="45.63494" lon="5.62402">
        <ele>255</ele>
        <time>2012-11-04T09:23:04Z</time>
      </trkpt>
      <trkpt lat="45.63487" lon="5.624">
        <ele>256</ele>
        <time>2012-11-04T09:23:06Z</time>
      </trkpt>
      <trkpt lat="45.6348" lon="5.62396">
        <ele>257</ele>
        <time>2012-11-04T09:23:08Z</time>
      </trkpt>
      <trkpt lat="45.63474" lon="5.62393">
        <ele>257</ele>
        <time>2012-11-04T09:23:10Z</time>
      </trkpt>
      <trkpt lat="45.63467" lon="5.62389">
        <ele>258</ele>
        <time>2012-11-04T09:23:12Z</time>
      </trkpt>
      <trkpt lat="45.6346" lon="5.62385">
        <ele>258</ele>
        <time>2012-11-04T09:23:14Z</time>
      </trkpt>
      <trkpt lat="45.63454" lon="5.62382">
        <ele>257</ele>
        <time>2012-11-04T09:23:16Z</time>
      </trkpt>
      <trkpt lat="45.63448" lon="5.62377">
        <ele>258</ele>
        <time>2012-11-04T09:23:18Z</time>
      </trkpt>
      <trkpt lat="45.63443" lon="5.62373">
        <ele>258</ele>
        <time>2012-11-04T09:23:20Z</time>
      </trkpt>
      <trkpt lat="45.63437" lon="5.62371">
        <ele>259</ele>
        <time>2012-11-04T09:23:22Z</time>
      </trkpt>
      <trkpt lat="45.63433" lon="5.62368">
        <ele>260</ele>
        <time>2012-11-04T09:23:24Z</time>
      </trkpt>
      <trkpt lat="45.6343" lon="5.62362">
        <ele>260</ele>
        <time>2012-11-04T09:23:27Z</time>
      </trkpt>
      <trkpt lat="45.63432" lon="5.62353">
        <ele>260</ele>
        <time>2012-11-04T09:23:30Z</time>
      </trkpt>
      <trkpt lat="45.63437" lon="5.62344">
        <ele>262</ele>
        <time>2012-11-04T09:23:32Z</time>
      </trkpt>
      <trkpt lat="45.6344" lon="5.62334">
        <ele>263</ele>
        <time>2012-11-04T09:23:34Z</time>
      </trkpt>
      <trkpt lat="45.63442" lon="5.62324">
        <ele>264</ele>
        <time>2012-11-04T09:23:36Z</time>
      </trkpt>
      <trkpt lat="45.63444" lon="5.62316">
        <ele>264</ele>
        <time>2012-11-04T09:23:38Z</time>
      </trkpt>
      <trkpt lat="45.63446" lon="5.62309">
        <ele>264</ele>
        <time>2012-11-04T09:23:40Z</time>
      </trkpt>
      <trkpt lat="45.63449" lon="5.62301">
        <ele>264</ele>
        <time>2012-11-04T09:23:42Z</time>
      </trkpt>
      <trkpt lat="45.6345" lon="5.62291">
        <ele>263</ele>
        <time>2012-11-04T09:23:44Z</time>
      </trkpt>
      <trkpt lat="45.6345" lon="5.6228">
        <ele>262</ele>
        <time>2012-11-04T09:23:46Z</time>
      </trkpt>
      <trkpt lat="45.63449" lon="5.6227">
        <ele>260</ele>
        <time>2012-11-04T09:23:48Z</time>
      </trkpt>
      <trkpt lat="45.63449" lon="5.6226">
        <ele>257</ele>
        <time>2012-11-04T09:23:50Z</time>
      </trkpt>
      <trkpt lat="45.63448" lon="5.62249">
        <ele>254</ele>
        <time>2012-11-04T09:23:52Z</time>
      </trkpt>
      <trkpt lat="45.63446" lon="5.62238">
        <ele>250</ele>
        <time>2012-11-04T09:23:54Z</time>
      </trkpt>
      <trkpt lat="45.63444" lon="5.62227">
        <ele>247</ele>
        <time>2012-11-04T09:23:56Z</time>
      </trkpt>
      <trkpt lat="45.63444" lon="5.62216">
        <ele>245</ele>
        <time>2012-11-04T09:23:58Z</time>
      </trkpt>
      <trkpt lat="45.63445" lon="5.62203">
        <ele>243</ele>
        <time>2012-11-04T09:24:00Z</time>
      </trkpt>
      <trkpt lat="45.63447" lon="5.62192">
        <ele>241</ele>
        <time>2012-11-04T09:24:02Z</time>
      </trkpt>
      <trkpt lat="45.63449" lon="5.62178">
        <ele>240</ele>
        <time>2012-11-04T09:24:04Z</time>
      </trkpt>
      <trkpt lat="45.63451" lon="5.62162">
        <ele>238</ele>
        <time>2012-11-04T09:24:07Z</time>
      </trkpt>
      <trkpt lat="45.63452" lon="5.62151">
        <ele>237</ele>
        <time>2012-11-04T09:24:09Z</time>
      </trkpt>
      <trkpt lat="45.63454" lon="5.62142">
        <ele>236</ele>
        <time>2012-11-04T09:24:11Z</time>
      </trkpt>
      <trkpt lat="45.63455" lon="5.62135">
        <ele>236</ele>
        <time>2012-11-04T09:24:13Z</time>
      </trkpt>
      <trkpt lat="45.63456" lon="5.62126">
        <ele>234</ele>
        <time>2012-11-04T09:24:16Z</time>
      </trkpt>
      <trkpt lat="45.63454" lon="5.62118">
        <ele>232</ele>
        <time>2012-11-04T09:24:20Z</time>
      </trkpt>
      <trkpt lat="45.63448" lon="5.62114">
        <ele>232</ele>
        <time>2012-11-04T09:24:22Z</time>
      </trkpt>
      <trkpt lat="45.63442" lon="5.62108">
        <ele>232</ele>
        <time>2012-11-04T09:24:24Z</time>
      </trkpt>
      <trkpt lat="45.63435" lon="5.62105">
        <ele>232</ele>
        <time>2012-11-04T09:24:26Z</time>
      </trkpt>
      <trkpt lat="45.63429" lon="5.62105">
        <ele>231</ele>
        <time>2012-11-04T09:24:28Z</time>
      </trkpt>
      <trkpt lat="45.63423" lon="5.62105">
        <ele>231</ele>
        <time>2012-11-04T09:24:30Z</time>
      </trkpt>
      <trkpt lat="45.63419" lon="5.62104">
        <ele>231</ele>
        <time>2012-11-04T09:24:32Z</time>
      </trkpt>
      <trkpt lat="45.63412" lon="5.62104">
        <ele>231</ele>
        <time>2012-11-04T09:24:35Z</time>
      </trkpt>
      <trkpt lat="45.63407" lon="5.621">
        <ele>232</ele>
        <time>2012-11-04T09:24:38Z</time>
      </trkpt>
      <trkpt lat="45.63405" lon="5.62091">
        <ele>232</ele>
        <time>2012-11-04T09:24:41Z</time>
      </trkpt>
      <trkpt lat="45.63404" lon="5.62085">
        <ele>232</ele>
        <time>2012-11-04T09:24:43Z</time>
      </trkpt>
      <trkpt lat="45.63405" lon="5.62076">
        <ele>233</ele>
        <time>2012-11-04T09:24:45Z</time>
      </trkpt>
      <trkpt lat="45.63405" lon="5.62068">
        <ele>233</ele>
        <time>2012-11-04T09:24:47Z</time>
      </trkpt>
      <trkpt lat="45.63406" lon="5.6206">
        <ele>234</ele>
        <time>2012-11-04T09:24:50Z</time>
      </trkpt>
      <trkpt lat="45.63406" lon="5.62051">
        <ele>235</ele>
        <time>2012-11-04T09:24:53Z</time>
      </trkpt>
      <trkpt lat="45.63404" lon="5.62044">
        <ele>234</ele>
        <time>2012-11-04T09:24:55Z</time>
      </trkpt>
      <trkpt lat="45.63402" lon="5.62037">
        <ele>234</ele>
        <time>2012-11-04T09:24:56Z</time>
      </trkpt>
      <trkpt lat="45.63399" lon="5.62026">
        <ele>234</ele>
        <time>2012-11-04T09:24:58Z</time>
      </trkpt>
      <trkpt lat="45.63386" lon="5.62021">
        <ele>233</ele>
        <time>2012-11-04T09:25:00Z</time>
      </trkpt>
      <trkpt lat="45.63381" lon="5.62018">
        <ele>232</ele>
        <time>2012-11-04T09:25:01Z</time>
      </trkpt>
      <trkpt lat="45.63376" lon="5.62019">
        <ele>232</ele>
        <time>2012-11-04T09:25:02Z</time>
      </trkpt>
      <trkpt lat="45.63373" lon="5.62033">
        <ele>231</ele>
        <time>2012-11-04T09:25:03Z</time>
      </trkpt>
      <trkpt lat="45.63369" lon="5.62038">
        <ele>231</ele>
        <time>2012-11-04T09:25:04Z</time>
      </trkpt>
      <trkpt lat="45.6336" lon="5.62044">
        <ele>230</ele>
        <time>2012-11-04T09:25:06Z</time>
      </trkpt>
      <trkpt lat="45.63356" lon="5.62048">
        <ele>229</ele>
        <time>2012-11-04T09:25:07Z</time>
      </trkpt>
      <trkpt lat="45.63349" lon="5.62039">
        <ele>229</ele>
        <time>2012-11-04T09:25:08Z</time>
      </trkpt>
      <trkpt lat="45.63343" lon="5.62036">
        <ele>230</ele>
        <time>2012-11-04T09:25:09Z</time>
      </trkpt>
      <trkpt lat="45.63337" lon="5.62033">
        <ele>230</ele>
        <time>2012-11-04T09:25:10Z</time>
      </trkpt>
      <trkpt lat="45.63325" lon="5.62001">
        <ele>230</ele>
        <time>2012-11-04T09:25:15Z</time>
      </trkpt>
      <trkpt lat="45.63321" lon="5.61997">
        <ele>229</ele>
        <time>2012-11-04T09:25:16Z</time>
      </trkpt>
      <trkpt lat="45.63299" lon="5.61981">
        <ele>228</ele>
        <time>2012-11-04T09:25:18Z</time>
      </trkpt>
      <trkpt lat="45.6329" lon="5.61986">
        <ele>228</ele>
        <time>2012-11-04T09:25:19Z</time>
      </trkpt>
      <trkpt lat="45.63285" lon="5.6199">
        <ele>228</ele>
        <time>2012-11-04T09:25:20Z</time>
      </trkpt>
      <trkpt lat="45.63279" lon="5.61996">
        <ele>228</ele>
        <time>2012-11-04T09:25:22Z</time>
      </trkpt>
      <trkpt lat="45.63272" lon="5.62003">
        <ele>227</ele>
        <time>2012-11-04T09:25:24Z</time>
      </trkpt>
      <trkpt lat="45.63263" lon="5.62012">
        <ele>227</ele>
        <time>2012-11-04T09:25:25Z</time>
      </trkpt>
      <trkpt lat="45.63259" lon="5.62016">
        <ele>226</ele>
        <time>2012-11-04T09:25:26Z</time>
      </trkpt>
      <trkpt lat="45.63254" lon="5.62021">
        <ele>226</ele>
        <time>2012-11-04T09:25:27Z</time>
      </trkpt>
      <trkpt lat="45.6325" lon="5.62024">
        <ele>226</ele>
        <time>2012-11-04T09:25:28Z</time>
      </trkpt>
      <trkpt lat="45.63241" lon="5.62032">
        <ele>225</ele>
        <time>2012-11-04T09:25:30Z</time>
      </trkpt>
      <trkpt lat="45.63233" lon="5.62038">
        <ele>225</ele>
        <time>2012-11-04T09:25:32Z</time>
      </trkpt>
      <trkpt lat="45.63226" lon="5.62043">
        <ele>224</ele>
        <time>2012-11-04T09:25:35Z</time>
      </trkpt>
      <trkpt lat="45.63219" lon="5.62045">
        <ele>224</ele>
        <time>2012-11-04T09:25:37Z</time>
      </trkpt>
      <trkpt lat="45.63214" lon="5.62047">
        <ele>224</ele>
        <time>2012-11-04T09:25:38Z</time>
      </trkpt>
      <trkpt lat="45.63204" lon="5.62048">
        <ele>224</ele>
        <time>2012-11-04T09:25:40Z</time>
      </trkpt>
      <trkpt lat="45.63196" lon="5.62049">
        <ele>224</ele>
        <time>2012-11-04T09:25:42Z</time>
      </trkpt>
      <trkpt lat="45.63188" lon="5.62049">
        <ele>224</ele>
        <time>2012-11-04T09:25:43Z</time>
      </trkpt>
      <trkpt lat="45.63179" lon="5.62049">
        <ele>223</ele>
        <time>2012-11-04T09:25:45Z</time>
      </trkpt>
      <trkpt lat="45.63175" lon="5.62049">
        <ele>223</ele>
        <time>2012-11-04T09:25:46Z</time>
      </trkpt>
      <trkpt lat="45.63167" lon="5.62049">
        <ele>224</ele>
        <time>2012-11-04T09:25:47Z</time>
      </trkpt>
      <trkpt lat="45.63159" lon="5.62049">
        <ele>224</ele>
        <time>2012-11-04T09:25:48Z</time>
      </trkpt>
      <trkpt lat="45.63148" lon="5.62046">
        <ele>223</ele>
        <time>2012-11-04T09:25:52Z</time>
      </trkpt>
      <trkpt lat="45.63142" lon="5.62043">
        <ele>222</ele>
        <time>2012-11-04T09:25:54Z</time>
      </trkpt>
      <trkpt lat="45.63138" lon="5.62039">
        <ele>222</ele>
        <time>2012-11-04T09:25:58Z</time>
      </trkpt>
      <trkpt lat="45.63132" lon="5.62033">
        <ele>222</ele>
        <time>2012-11-04T09:26:01Z</time>
      </trkpt>
      <trkpt lat="45.63127" lon="5.62026">
        <ele>222</ele>
        <time>2012-11-04T09:26:03Z</time>
      </trkpt>
      <trkpt lat="45.63121" lon="5.6202">
        <ele>223</ele>
        <time>2012-11-04T09:26:05Z</time>
      </trkpt>
      <trkpt lat="45.63116" lon="5.62013">
        <ele>222</ele>
        <time>2012-11-04T09:26:07Z</time>
      </trkpt>
      <trkpt lat="45.63076" lon="5.62024">
        <ele>221</ele>
        <time>2012-11-04T09:26:11Z</time>
      </trkpt>
      <trkpt lat="45.63072" lon="5.62034">
        <ele>220</ele>
        <time>2012-11-04T09:26:12Z</time>
      </trkpt>
      <trkpt lat="45.63069" lon="5.62041">
        <ele>220</ele>
        <time>2012-11-04T09:26:15Z</time>
      </trkpt>
      <trkpt lat="45.63062" lon="5.62054">
        <ele>219</ele>
        <time>2012-11-04T09:26:17Z</time>
      </trkpt>
      <trkpt lat="45.63056" lon="5.62064">
        <ele>218</ele>
        <time>2012-11-04T09:26:19Z</time>
      </trkpt>
      <trkpt lat="45.63051" lon="5.62072">
        <ele>218</ele>
        <time>2012-11-04T09:26:21Z</time>
      </trkpt>
      <trkpt lat="45.63045" lon="5.6208">
        <ele>219</ele>
        <time>2012-11-04T09:26:24Z</time>
      </trkpt>
      <trkpt lat="45.6304" lon="5.62086">
        <ele>220</ele>
        <time>2012-11-04T09:26:26Z</time>
      </trkpt>
      <trkpt lat="45.6303" lon="5.62098">
        <ele>221</ele>
        <time>2012-11-04T09:26:27Z</time>
      </trkpt>
      <trkpt lat="45.6302" lon="5.621">
        <ele>224</ele>
        <time>2012-11-04T09:26:31Z</time>
      </trkpt>
      <trkpt lat="45.63013" lon="5.62101">
        <ele>225</ele>
        <time>2012-11-04T09:26:33Z</time>
      </trkpt>
      <trkpt lat="45.63006" lon="5.62102">
        <ele>226</ele>
        <time>2012-11-04T09:26:34Z</time>
      </trkpt>
      <trkpt lat="45.62998" lon="5.62103">
        <ele>227</ele>
        <time>2012-11-04T09:26:36Z</time>
      </trkpt>
      <trkpt lat="45.62991" lon="5.62102">
        <ele>227</ele>
        <time>2012-11-04T09:26:38Z</time>
      </trkpt>
      <trkpt lat="45.62983" lon="5.62102">
        <ele>228</ele>
        <time>2012-11-04T09:26:40Z</time>
      </trkpt>
      <trkpt lat="45.62977" lon="5.62102">
        <ele>229</ele>
        <time>2012-11-04T09:26:41Z</time>
      </trkpt>
      <trkpt lat="45.62967" lon="5.62101">
        <ele>228</ele>
        <time>2012-11-04T09:26:43Z</time>
      </trkpt>
      <trkpt lat="45.62962" lon="5.62101">
        <ele>228</ele>
        <time>2012-11-04T09:26:45Z</time>
      </trkpt>
      <trkpt lat="45.62956" lon="5.621">
        <ele>229</ele>
        <time>2012-11-04T09:26:47Z</time>
      </trkpt>
      <trkpt lat="45.6295" lon="5.62099">
        <ele>229</ele>
        <time>2012-11-04T09:26:48Z</time>
      </trkpt>
      <trkpt lat="45.62943" lon="5.62098">
        <ele>229</ele>
        <time>2012-11-04T09:26:50Z</time>
      </trkpt>
      <trkpt lat="45.62936" lon="5.62096">
        <ele>229</ele>
        <time>2012-11-04T09:26:51Z</time>
      </trkpt>
      <trkpt lat="45.62926" lon="5.62092">
        <ele>228</ele>
        <time>2012-11-04T09:26:53Z</time>
      </trkpt>
      <trkpt lat="45.6292" lon="5.62089">
        <ele>228</ele>
        <time>2012-11-04T09:26:55Z</time>
      </trkpt>
      <trkpt lat="45.62916" lon="5.62086">
        <ele>228</ele>
        <time>2012-11-04T09:26:56Z</time>
      </trkpt>
      <trkpt lat="45.62909" lon="5.62083">
        <ele>228</ele>
        <time>2012-11-04T09:26:58Z</time>
      </trkpt>
      <trkpt lat="45.62905" lon="5.6208">
        <ele>228</ele>
        <time>2012-11-04T09:26:59Z</time>
      </trkpt>
      <trkpt lat="45.62897" lon="5.62075">
        <ele>227</ele>
        <time>2012-11-04T09:27:01Z</time>
      </trkpt>
      <trkpt lat="45.62889" lon="5.6207">
        <ele>227</ele>
        <time>2012-11-04T09:27:03Z</time>
      </trkpt>
      <trkpt lat="45.62882" lon="5.62066">
        <ele>226</ele>
        <time>2012-11-04T09:27:05Z</time>
      </trkpt>
      <trkpt lat="45.62874" lon="5.6206">
        <ele>226</ele>
        <time>2012-11-04T09:27:07Z</time>
      </trkpt>
      <trkpt lat="45.62866" lon="5.62055">
        <ele>225</ele>
        <time>2012-11-04T09:27:09Z</time>
      </trkpt>
      <trkpt lat="45.62858" lon="5.62049">
        <ele>225</ele>
        <time>2012-11-04T09:27:11Z</time>
      </trkpt>
      <trkpt lat="45.62851" lon="5.62044">
        <ele>224</ele>
        <time>2012-11-04T09:27:13Z</time>
      </trkpt>
      <trkpt lat="45.62844" lon="5.62038">
        <ele>224</ele>
        <time>2012-11-04T09:27:15Z</time>
      </trkpt>
      <trkpt lat="45.62838" lon="5.62034">
        <ele>224</ele>
        <time>2012-11-04T09:27:17Z</time>
      </trkpt>
      <trkpt lat="45.62831" lon="5.62028">
        <ele>224</ele>
        <time>2012-11-04T09:27:19Z</time>
      </trkpt>
      <trkpt lat="45.62824" lon="5.62024">
        <ele>224</ele>
        <time>2012-11-04T09:27:21Z</time>
      </trkpt>
      <trkpt lat="45.62817" lon="5.62019">
        <ele>225</ele>
        <time>2012-11-04T09:27:23Z</time>
      </trkpt>
      <trkpt lat="45.6281" lon="5.62013">
        <ele>225</ele>
        <time>2012-11-04T09:27:25Z</time>
      </trkpt>
      <trkpt lat="45.62801" lon="5.62007">
        <ele>225</ele>
        <time>2012-11-04T09:27:27Z</time>
      </trkpt>
      <trkpt lat="45.62795" lon="5.62002">
        <ele>225</ele>
        <time>2012-11-04T09:27:28Z</time>
      </trkpt>
      <trkpt lat="45.62783" lon="5.61997">
        <ele>225</ele>
        <time>2012-11-04T09:27:29Z</time>
      </trkpt>
      <trkpt lat="45.62775" lon="5.62003">
        <ele>225</ele>
        <time>2012-11-04T09:27:30Z</time>
      </trkpt>
      <trkpt lat="45.62767" lon="5.6202">
        <ele>225</ele>
        <time>2012-11-04T09:27:31Z</time>
      </trkpt>
      <trkpt lat="45.62772" lon="5.62058">
        <ele>226</ele>
        <time>2012-11-04T09:27:33Z</time>
      </trkpt>
      <trkpt lat="45.62774" lon="5.62067">
        <ele>226</ele>
        <time>2012-11-04T09:27:35Z</time>
      </trkpt>
      <trkpt lat="45.62776" lon="5.62076">
        <ele>228</ele>
        <time>2012-11-04T09:27:39Z</time>
      </trkpt>
      <trkpt lat="45.62777" lon="5.62086">
        <ele>229</ele>
        <time>2012-11-04T09:27:42Z</time>
      </trkpt>
      <trkpt lat="45.62778" lon="5.62098">
        <ele>230</ele>
        <time>2012-11-04T09:27:44Z</time>
      </trkpt>
      <trkpt lat="45.62777" lon="5.62108">
        <ele>231</ele>
        <time>2012-11-04T09:27:46Z</time>
      </trkpt>
      <trkpt lat="45.62773" lon="5.6212">
        <ele>232</ele>
        <time>2012-11-04T09:27:49Z</time>
      </trkpt>
      <trkpt lat="45.6277" lon="5.62126">
        <ele>233</ele>
        <time>2012-11-04T09:27:51Z</time>
      </trkpt>
      <trkpt lat="45.62766" lon="5.62132">
        <ele>233</ele>
        <time>2012-11-04T09:27:52Z</time>
      </trkpt>
      <trkpt lat="45.62762" lon="5.62138">
        <ele>233</ele>
        <time>2012-11-04T09:27:53Z</time>
      </trkpt>
      <trkpt lat="45.62757" lon="5.62147">
        <ele>233</ele>
        <time>2012-11-04T09:27:55Z</time>
      </trkpt>
      <trkpt lat="45.62753" lon="5.62152">
        <ele>233</ele>
        <time>2012-11-04T09:27:56Z</time>
      </trkpt>
      <trkpt lat="45.62747" lon="5.62161">
        <ele>233</ele>
        <time>2012-11-04T09:27:58Z</time>
      </trkpt>
      <trkpt lat="45.62742" lon="5.6217">
        <ele>233</ele>
        <time>2012-11-04T09:28:00Z</time>
      </trkpt>
      <trkpt lat="45.62736" lon="5.62179">
        <ele>233</ele>
        <time>2012-11-04T09:28:02Z</time>
      </trkpt>
      <trkpt lat="45.62729" lon="5.62189">
        <ele>232</ele>
        <time>2012-11-04T09:28:04Z</time>
      </trkpt>
      <trkpt lat="45.62724" lon="5.62197">
        <ele>231</ele>
        <time>2012-11-04T09:28:06Z</time>
      </trkpt>
      <trkpt lat="45.62719" lon="5.62205">
        <ele>231</ele>
        <time>2012-11-04T09:28:08Z</time>
      </trkpt>
      <trkpt lat="45.62714" lon="5.62213">
        <ele>231</ele>
        <time>2012-11-04T09:28:10Z</time>
      </trkpt>
      <trkpt lat="45.6271" lon="5.6222">
        <ele>230</ele>
        <time>2012-11-04T09:28:12Z</time>
      </trkpt>
      <trkpt lat="45.62706" lon="5.62226">
        <ele>230</ele>
        <time>2012-11-04T09:28:14Z</time>
      </trkpt>
      <trkpt lat="45.62685" lon="5.62249">
        <ele>229</ele>
        <time>2012-11-04T09:28:21Z</time>
      </trkpt>
      <trkpt lat="45.62681" lon="5.62243">
        <ele>228</ele>
        <time>2012-11-04T09:28:24Z</time>
      </trkpt>
      <trkpt lat="45.62675" lon="5.62218">
        <ele>228</ele>
        <time>2012-11-04T09:28:27Z</time>
      </trkpt>
      <trkpt lat="45.62676" lon="5.62209">
        <ele>228</ele>
        <time>2012-11-04T09:28:29Z</time>
      </trkpt>
      <trkpt lat="45.62675" lon="5.62202">
        <ele>229</ele>
        <time>2012-11-04T09:28:31Z</time>
      </trkpt>
      <trkpt lat="45.62672" lon="5.62195">
        <ele>229</ele>
        <time>2012-11-04T09:28:33Z</time>
      </trkpt>
      <trkpt lat="45.6267" lon="5.62187">
        <ele>230</ele>
        <time>2012-11-04T09:28:35Z</time>
      </trkpt>
      <trkpt lat="45.62668" lon="5.6218">
        <ele>230</ele>
        <time>2012-11-04T09:28:36Z</time>
      </trkpt>
      <trkpt lat="45.62665" lon="5.6217">
        <ele>230</ele>
        <time>2012-11-04T09:28:38Z</time>
      </trkpt>
      <trkpt lat="45.62662" lon="5.62161">
        <ele>231</ele>
        <time>2012-11-04T09:28:40Z</time>
      </trkpt>
      <trkpt lat="45.62659" lon="5.62151">
        <ele>231</ele>
        <time>2012-11-04T09:28:42Z</time>
      </trkpt>
      <trkpt lat="45.62656" lon="5.62141">
        <ele>232</ele>
        <time>2012-11-04T09:28:44Z</time>
      </trkpt>
      <trkpt lat="45.62652" lon="5.6213">
        <ele>232</ele>
        <time>2012-11-04T09:28:46Z</time>
      </trkpt>
      <trkpt lat="45.62649" lon="5.62119">
        <ele>232</ele>
        <time>2012-11-04T09:28:48Z</time>
      </trkpt>
      <trkpt lat="45.62646" lon="5.62108">
        <ele>232</ele>
        <time>2012-11-04T09:28:50Z</time>
      </trkpt>
      <trkpt lat="45.62644" lon="5.62102">
        <ele>232</ele>
        <time>2012-11-04T09:28:51Z</time>
      </trkpt>
      <trkpt lat="45.62642" lon="5.62096">
        <ele>232</ele>
        <time>2012-11-04T09:28:52Z</time>
      </trkpt>
      <trkpt lat="45.62638" lon="5.62084">
        <ele>232</ele>
        <time>2012-11-04T09:28:54Z</time>
      </trkpt>
      <trkpt lat="45.62634" lon="5.62075">
        <ele>232</ele>
        <time>2012-11-04T09:28:56Z</time>
      </trkpt>
      <trkpt lat="45.6263" lon="5.62067">
        <ele>232</ele>
        <time>2012-11-04T09:28:58Z</time>
      </trkpt>
      <trkpt lat="45.62626" lon="5.62057">
        <ele>233</ele>
        <time>2012-11-04T09:29:00Z</time>
      </trkpt>
      <trkpt lat="45.62624" lon="5.62051">
        <ele>233</ele>
        <time>2012-11-04T09:29:01Z</time>
      </trkpt>
      <trkpt lat="45.6262" lon="5.62039">
        <ele>234</ele>
        <time>2012-11-04T09:29:03Z</time>
      </trkpt>
      <trkpt lat="45.62616" lon="5.62029">
        <ele>234</ele>
        <time>2012-11-04T09:29:05Z</time>
      </trkpt>
      <trkpt lat="45.62611" lon="5.62019">
        <ele>235</ele>
        <time>2012-11-04T09:29:07Z</time>
      </trkpt>
      <trkpt lat="45.62609" lon="5.62013">
        <ele>235</ele>
        <time>2012-11-04T09:29:08Z</time>
      </trkpt>
      <trkpt lat="45.62605" lon="5.62002">
        <ele>235</ele>
        <time>2012-11-04T09:29:10Z</time>
      </trkpt>
      <trkpt lat="45.62603" lon="5.61996">
        <ele>235</ele>
        <time>2012-11-04T09:29:11Z</time>
      </trkpt>
      <trkpt lat="45.62601" lon="5.6199">
        <ele>235</ele>
        <time>2012-11-04T09:29:12Z</time>
      </trkpt>
      <trkpt lat="45.62599" lon="5.61978">
        <ele>235</ele>
        <time>2012-11-04T09:29:13Z</time>
      </trkpt>
      <trkpt lat="45.62591" lon="5.61956">
        <ele>234</ele>
        <time>2012-11-04T09:29:17Z</time>
      </trkpt>
      <trkpt lat="45.6259" lon="5.61949">
        <ele>234</ele>
        <time>2012-11-04T09:29:18Z</time>
      </trkpt>
      <trkpt lat="45.62588" lon="5.6194">
        <ele>233</ele>
        <time>2012-11-04T09:29:19Z</time>
      </trkpt>
      <trkpt lat="45.62586" lon="5.61934">
        <ele>233</ele>
        <time>2012-11-04T09:29:20Z</time>
      </trkpt>
      <trkpt lat="45.62584" lon="5.61928">
        <ele>232</ele>
        <time>2012-11-04T09:29:21Z</time>
      </trkpt>
      <trkpt lat="45.6258" lon="5.61916">
        <ele>231</ele>
        <time>2012-11-04T09:29:23Z</time>
      </trkpt>
      <trkpt lat="45.62578" lon="5.6191">
        <ele>231</ele>
        <time>2012-11-04T09:29:24Z</time>
      </trkpt>
      <trkpt lat="45.62576" lon="5.61903">
        <ele>231</ele>
        <time>2012-11-04T09:29:25Z</time>
      </trkpt>
      <trkpt lat="45.62571" lon="5.61891">
        <ele>231</ele>
        <time>2012-11-04T09:29:27Z</time>
      </trkpt>
      <trkpt lat="45.62569" lon="5.61885">
        <ele>231</ele>
        <time>2012-11-04T09:29:28Z</time>
      </trkpt>
      <trkpt lat="45.62567" lon="5.61878">
        <ele>231</ele>
        <time>2012-11-04T09:29:29Z</time>
      </trkpt>
      <trkpt lat="45.62565" lon="5.61872">
        <ele>231</ele>
        <time>2012-11-04T09:29:30Z</time>
      </trkpt>
      <trkpt lat="45.62563" lon="5.61866">
        <ele>230</ele>
        <time>2012-11-04T09:29:31Z</time>
      </trkpt>
      <trkpt lat="45.62561" lon="5.6186">
        <ele>230</ele>
        <time>2012-11-04T09:29:32Z</time>
      </trkpt>
      <trkpt lat="45.62559" lon="5.61854">
        <ele>230</ele>
        <time>2012-11-04T09:29:33Z</time>
      </trkpt>
      <trkpt lat="45.62556" lon="5.61845">
        <ele>230</ele>
        <time>2012-11-04T09:29:35Z</time>
      </trkpt>
      <trkpt lat="45.62553" lon="5.61833">
        <ele>230</ele>
        <time>2012-11-04T09:29:37Z</time>
      </trkpt>
      <trkpt lat="45.6255" lon="5.61822">
        <ele>230</ele>
        <time>2012-11-04T09:29:39Z</time>
      </trkpt>
      <trkpt lat="45.62546" lon="5.61811">
        <ele>229</ele>
        <time>2012-11-04T09:29:41Z</time>
      </trkpt>
      <trkpt lat="45.62542" lon="5.61801">
        <ele>229</ele>
        <time>2012-11-04T09:29:43Z</time>
      </trkpt>
      <trkpt lat="45.62538" lon="5.6179">
        <ele>230</ele>
        <time>2012-11-04T09:29:45Z</time>
      </trkpt>
      <trkpt lat="45.62535" lon="5.61785">
        <ele>229</ele>
        <time>2012-11-04T09:29:47Z</time>
      </trkpt>
      <trkpt lat="45.62527" lon="5.61765">
        <ele>229</ele>
        <time>2012-11-04T09:29:50Z</time>
      </trkpt>
      <trkpt lat="45.62524" lon="5.61755">
        <ele>229</ele>
        <time>2012-11-04T09:29:52Z</time>
      </trkpt>
      <trkpt lat="45.6252" lon="5.61745">
        <ele>229</ele>
        <time>2012-11-04T09:29:54Z</time>
      </trkpt>
      <trkpt lat="45.62517" lon="5.61735">
        <ele>229</ele>
        <time>2012-11-04T09:29:56Z</time>
      </trkpt>
      <trkpt lat="45.62514" lon="5.61726">
        <ele>229</ele>
        <time>2012-11-04T09:29:58Z</time>
      </trkpt>
      <trkpt lat="45.62511" lon="5.61717">
        <ele>228</ele>
        <time>2012-11-04T09:30:00Z</time>
      </trkpt>
      <trkpt lat="45.62508" lon="5.61708">
        <ele>228</ele>
        <time>2012-11-04T09:30:02Z</time>
      </trkpt>
      <trkpt lat="45.62505" lon="5.61699">
        <ele>228</ele>
        <time>2012-11-04T09:30:04Z</time>
      </trkpt>
      <trkpt lat="45.62502" lon="5.61688">
        <ele>228</ele>
        <time>2012-11-04T09:30:06Z</time>
      </trkpt>
      <trkpt lat="45.62498" lon="5.61679">
        <ele>228</ele>
        <time>2012-11-04T09:30:08Z</time>
      </trkpt>
      <trkpt lat="45.62494" lon="5.6167">
        <ele>228</ele>
        <time>2012-11-04T09:30:10Z</time>
      </trkpt>
      <trkpt lat="45.62491" lon="5.61661">
        <ele>228</ele>
        <time>2012-11-04T09:30:12Z</time>
      </trkpt>
      <trkpt lat="45.62487" lon="5.61652">
        <ele>229</ele>
        <time>2012-11-04T09:30:14Z</time>
      </trkpt>
      <trkpt lat="45.62484" lon="5.61643">
        <ele>229</ele>
        <time>2012-11-04T09:30:16Z</time>
      </trkpt>
      <trkpt lat="45.62481" lon="5.61633">
        <ele>230</ele>
        <time>2012-11-04T09:30:18Z</time>
      </trkpt>
      <trkpt lat="45.62477" lon="5.61624">
        <ele>230</ele>
        <time>2012-11-04T09:30:20Z</time>
      </trkpt>
      <trkpt lat="45.62474" lon="5.61615">
        <ele>230</ele>
        <time>2012-11-04T09:30:22Z</time>
      </trkpt>
      <trkpt lat="45.6247" lon="5.61605">
        <ele>230</ele>
        <time>2012-11-04T09:30:24Z</time>
      </trkpt>
      <trkpt lat="45.62467" lon="5.61596">
        <ele>230</ele>
        <time>2012-11-04T09:30:26Z</time>
      </trkpt>
      <trkpt lat="45.62463" lon="5.61586">
        <ele>230</ele>
        <time>2012-11-04T09:30:28Z</time>
      </trkpt>
      <trkpt lat="45.6246" lon="5.61575">
        <ele>230</ele>
        <time>2012-11-04T09:30:30Z</time>
      </trkpt>
      <trkpt lat="45.62456" lon="5.61566">
        <ele>230</ele>
        <time>2012-11-04T09:30:32Z</time>
      </trkpt>
      <trkpt lat="45.62453" lon="5.61557">
        <ele>230</ele>
        <time>2012-11-04T09:30:34Z</time>
      </trkpt>
      <trkpt lat="45.6245" lon="5.61544">
        <ele>229</ele>
        <time>2012-11-04T09:30:37Z</time>
      </trkpt>
      <trkpt lat="45.62444" lon="5.61529">
        <ele>229</ele>
        <time>2012-11-04T09:30:41Z</time>
      </trkpt>
      <trkpt lat="45.62437" lon="5.61513">
        <ele>229</ele>
        <time>2012-11-04T09:30:44Z</time>
      </trkpt>
      <trkpt lat="45.62435" lon="5.61507">
        <ele>229</ele>
        <time>2012-11-04T09:30:45Z</time>
      </trkpt>
      <trkpt lat="45.62432" lon="5.61495">
        <ele>228</ele>
        <time>2012-11-04T09:30:46Z</time>
      </trkpt>
      <trkpt lat="45.62428" lon="5.61483">
        <ele>228</ele>
        <time>2012-11-04T09:30:48Z</time>
      </trkpt>
      <trkpt lat="45.62423" lon="5.61471">
        <ele>227</ele>
        <time>2012-11-04T09:30:50Z</time>
      </trkpt>
      <trkpt lat="45.62419" lon="5.61459">
        <ele>226</ele>
        <time>2012-11-04T09:30:52Z</time>
      </trkpt>
      <trkpt lat="45.62414" lon="5.61445">
        <ele>225</ele>
        <time>2012-11-04T09:30:54Z</time>
      </trkpt>
      <trkpt lat="45.62408" lon="5.61434">
        <ele>224</ele>
        <time>2012-11-04T09:30:56Z</time>
      </trkpt>
      <trkpt lat="45.62405" lon="5.61428">
        <ele>224</ele>
        <time>2012-11-04T09:30:57Z</time>
      </trkpt>
      <trkpt lat="45.62398" lon="5.61417">
        <ele>224</ele>
        <time>2012-11-04T09:30:59Z</time>
      </trkpt>
      <trkpt lat="45.62396" lon="5.61406">
        <ele>223</ele>
        <time>2012-11-04T09:31:00Z</time>
      </trkpt>
      <trkpt lat="45.62393" lon="5.61396">
        <ele>224</ele>
        <time>2012-11-04T09:31:01Z</time>
      </trkpt>
      <trkpt lat="45.62389" lon="5.61385">
        <ele>224</ele>
        <time>2012-11-04T09:31:02Z</time>
      </trkpt>
      <trkpt lat="45.62386" lon="5.61378">
        <ele>224</ele>
        <time>2012-11-04T09:31:03Z</time>
      </trkpt>
      <trkpt lat="45.6238" lon="5.61373">
        <ele>224</ele>
        <time>2012-11-04T09:31:04Z</time>
      </trkpt>
      <trkpt lat="45.62375" lon="5.61367">
        <ele>225</ele>
        <time>2012-11-04T09:31:05Z</time>
      </trkpt>
      <trkpt lat="45.62368" lon="5.61362">
        <ele>225</ele>
        <time>2012-11-04T09:31:06Z</time>
      </trkpt>
      <trkpt lat="45.62357" lon="5.61356">
        <ele>226</ele>
        <time>2012-11-04T09:31:08Z</time>
      </trkpt>
      <trkpt lat="45.62351" lon="5.61353">
        <ele>226</ele>
        <time>2012-11-04T09:31:09Z</time>
      </trkpt>
      <trkpt lat="45.62344" lon="5.61348">
        <ele>226</ele>
        <time>2012-11-04T09:31:10Z</time>
      </trkpt>
      <trkpt lat="45.62336" lon="5.61343">
        <ele>226</ele>
        <time>2012-11-04T09:31:11Z</time>
      </trkpt>
      <trkpt lat="45.62329" lon="5.6134">
        <ele>226</ele>
        <time>2012-11-04T09:31:12Z</time>
      </trkpt>
      <trkpt lat="45.62321" lon="5.61336">
        <ele>226</ele>
        <time>2012-11-04T09:31:13Z</time>
      </trkpt>
      <trkpt lat="45.62303" lon="5.61328">
        <ele>225</ele>
        <time>2012-11-04T09:31:16Z</time>
      </trkpt>
      <trkpt lat="45.62297" lon="5.61326">
        <ele>225</ele>
        <time>2012-11-04T09:31:17Z</time>
      </trkpt>
      <trkpt lat="45.62292" lon="5.61322">
        <ele>225</ele>
        <time>2012-11-04T09:31:18Z</time>
      </trkpt>
      <trkpt lat="45.62285" lon="5.6132">
        <ele>224</ele>
        <time>2012-11-04T09:31:19Z</time>
      </trkpt>
      <trkpt lat="45.6228" lon="5.61316">
        <ele>224</ele>
        <time>2012-11-04T09:31:20Z</time>
      </trkpt>
      <trkpt lat="45.62273" lon="5.61313">
        <ele>224</ele>
        <time>2012-11-04T09:31:21Z</time>
      </trkpt>
      <trkpt lat="45.62264" lon="5.61309">
        <ele>224</ele>
        <time>2012-11-04T09:31:22Z</time>
      </trkpt>
      <trkpt lat="45.62258" lon="5.61307">
        <ele>223</ele>
        <time>2012-11-04T09:31:23Z</time>
      </trkpt>
      <trkpt lat="45.62251" lon="5.61302">
        <ele>223</ele>
        <time>2012-11-04T09:31:24Z</time>
      </trkpt>
      <trkpt lat="45.62245" lon="5.61298">
        <ele>223</ele>
        <time>2012-11-04T09:31:25Z</time>
      </trkpt>
      <trkpt lat="45.62239" lon="5.61295">
        <ele>222</ele>
        <time>2012-11-04T09:31:26Z</time>
      </trkpt>
      <trkpt lat="45.62232" lon="5.61292">
        <ele>222</ele>
        <time>2012-11-04T09:31:27Z</time>
      </trkpt>
      <trkpt lat="45.62227" lon="5.6129">
        <ele>223</ele>
        <time>2012-11-04T09:31:28Z</time>
      </trkpt>
      <trkpt lat="45.62221" lon="5.61286">
        <ele>223</ele>
        <time>2012-11-04T09:31:29Z</time>
      </trkpt>
      <trkpt lat="45.62215" lon="5.61284">
        <ele>223</ele>
        <time>2012-11-04T09:31:30Z</time>
      </trkpt>
      <trkpt lat="45.62208" lon="5.61281">
        <ele>223</ele>
        <time>2012-11-04T09:31:31Z</time>
      </trkpt>
      <trkpt lat="45.62204" lon="5.61278">
        <ele>223</ele>
        <time>2012-11-04T09:31:32Z</time>
      </trkpt>
      <trkpt lat="45.62198" lon="5.61276">
        <ele>223</ele>
        <time>2012-11-04T09:31:33Z</time>
      </trkpt>
      <trkpt lat="45.62193" lon="5.61272">
        <ele>223</ele>
        <time>2012-11-04T09:31:34Z</time>
      </trkpt>
      <trkpt lat="45.62185" lon="5.61264">
        <ele>224</ele>
        <time>2012-11-04T09:31:36Z</time>
      </trkpt>
      <trkpt lat="45.6218" lon="5.61262">
        <ele>224</ele>
        <time>2012-11-04T09:31:37Z</time>
      </trkpt>
      <trkpt lat="45.62173" lon="5.61258">
        <ele>225</ele>
        <time>2012-11-04T09:31:38Z</time>
      </trkpt>
      <trkpt lat="45.62167" lon="5.61255">
        <ele>225</ele>
        <time>2012-11-04T09:31:39Z</time>
      </trkpt>
      <trkpt lat="45.62161" lon="5.61252">
        <ele>226</ele>
        <time>2012-11-04T09:31:40Z</time>
      </trkpt>
      <trkpt lat="45.62154" lon="5.61249">
        <ele>227</ele>
        <time>2012-11-04T09:31:41Z</time>
      </trkpt>
      <trkpt lat="45.62147" lon="5.61247">
        <ele>227</ele>
        <time>2012-11-04T09:31:42Z</time>
      </trkpt>
      <trkpt lat="45.62142" lon="5.61243">
        <ele>228</ele>
        <time>2012-11-04T09:31:43Z</time>
      </trkpt>
      <trkpt lat="45.62137" lon="5.61241">
        <ele>228</ele>
        <time>2012-11-04T09:31:44Z</time>
      </trkpt>
      <trkpt lat="45.62132" lon="5.61236">
        <ele>228</ele>
        <time>2012-11-04T09:31:45Z</time>
      </trkpt>
      <trkpt lat="45.62126" lon="5.61235">
        <ele>228</ele>
        <time>2012-11-04T09:31:46Z</time>
      </trkpt>
      <trkpt lat="45.62119" lon="5.61234">
        <ele>228</ele>
        <time>2012-11-04T09:31:47Z</time>
      </trkpt>
      <trkpt lat="45.62114" lon="5.61232">
        <ele>228</ele>
        <time>2012-11-04T09:31:48Z</time>
      </trkpt>
      <trkpt lat="45.62107" lon="5.61228">
        <ele>228</ele>
        <time>2012-11-04T09:31:49Z</time>
      </trkpt>
      <trkpt lat="45.62102" lon="5.61224">
        <ele>228</ele>
        <time>2012-11-04T09:31:50Z</time>
      </trkpt>
      <trkpt lat="45.62098" lon="5.6122">
        <ele>228</ele>
        <time>2012-11-04T09:31:51Z</time>
      </trkpt>
      <trkpt lat="45.62093" lon="5.61218">
        <ele>228</ele>
        <time>2012-11-04T09:31:52Z</time>
      </trkpt>
      <trkpt lat="45.62087" lon="5.61215">
        <ele>228</ele>
        <time>2012-11-04T09:31:53Z</time>
      </trkpt>
      <trkpt lat="45.62081" lon="5.61209">
        <ele>228</ele>
        <time>2012-11-04T09:31:54Z</time>
      </trkpt>
      <trkpt lat="45.62073" lon="5.61206">
        <ele>228</ele>
        <time>2012-11-04T09:31:55Z</time>
      </trkpt>
      <trkpt lat="45.62066" lon="5.61204">
        <ele>228</ele>
        <time>2012-11-04T09:31:56Z</time>
      </trkpt>
      <trkpt lat="45.62059" lon="5.61203">
        <ele>228</ele>
        <time>2012-11-04T09:31:57Z</time>
      </trkpt>
      <trkpt lat="45.62053" lon="5.61197">
        <ele>228</ele>
        <time>2012-11-04T09:31:58Z</time>
      </trkpt>
      <trkpt lat="45.62048" lon="5.61193">
        <ele>228</ele>
        <time>2012-11-04T09:31:59Z</time>
      </trkpt>
      <trkpt lat="45.62041" lon="5.61189">
        <ele>228</ele>
        <time>2012-11-04T09:32:00Z</time>
      </trkpt>
      <trkpt lat="45.62035" lon="5.61185">
        <ele>228</ele>
        <time>2012-11-04T09:32:01Z</time>
      </trkpt>
      <trkpt lat="45.62028" lon="5.6118">
        <ele>228</ele>
        <time>2012-11-04T09:32:02Z</time>
      </trkpt>
      <trkpt lat="45.62023" lon="5.61176">
        <ele>228</ele>
        <time>2012-11-04T09:32:03Z</time>
      </trkpt>
      <trkpt lat="45.62011" lon="5.61166">
        <ele>227</ele>
        <time>2012-11-04T09:32:05Z</time>
      </trkpt>
      <trkpt lat="45.62006" lon="5.61161">
        <ele>227</ele>
        <time>2012-11-04T09:32:06Z</time>
      </trkpt>
      <trkpt lat="45.62001" lon="5.61157">
        <ele>227</ele>
        <time>2012-11-04T09:32:07Z</time>
      </trkpt>
      <trkpt lat="45.61995" lon="5.61155">
        <ele>227</ele>
        <time>2012-11-04T09:32:08Z</time>
      </trkpt>
      <trkpt lat="45.61983" lon="5.61147">
        <ele>227</ele>
        <time>2012-11-04T09:32:10Z</time>
      </trkpt>
      <trkpt lat="45.61978" lon="5.61145">
        <ele>226</ele>
        <time>2012-11-04T09:32:11Z</time>
      </trkpt>
      <trkpt lat="45.61972" lon="5.61141">
        <ele>226</ele>
        <time>2012-11-04T09:32:12Z</time>
      </trkpt>
      <trkpt lat="45.61964" lon="5.61134">
        <ele>226</ele>
        <time>2012-11-04T09:32:13Z</time>
      </trkpt>
      <trkpt lat="45.61959" lon="5.6113">
        <ele>225</ele>
        <time>2012-11-04T09:32:14Z</time>
      </trkpt>
      <trkpt lat="45.61953" lon="5.61126">
        <ele>225</ele>
        <time>2012-11-04T09:32:16Z</time>
      </trkpt>
      <trkpt lat="45.61937" lon="5.61117">
        <ele>226</ele>
        <time>2012-11-04T09:32:18Z</time>
      </trkpt>
      <trkpt lat="45.61932" lon="5.61114">
        <ele>226</ele>
        <time>2012-11-04T09:32:19Z</time>
      </trkpt>
      <trkpt lat="45.61926" lon="5.61111">
        <ele>226</ele>
        <time>2012-11-04T09:32:20Z</time>
      </trkpt>
      <trkpt lat="45.61922" lon="5.61109">
        <ele>226</ele>
        <time>2012-11-04T09:32:21Z</time>
      </trkpt>
      <trkpt lat="45.61917" lon="5.61106">
        <ele>226</ele>
        <time>2012-11-04T09:32:22Z</time>
      </trkpt>
      <trkpt lat="45.61913" lon="5.61101">
        <ele>226</ele>
        <time>2012-11-04T09:32:23Z</time>
      </trkpt>
      <trkpt lat="45.61909" lon="5.61096">
        <ele>227</ele>
        <time>2012-11-04T09:32:24Z</time>
      </trkpt>
      <trkpt lat="45.61902" lon="5.61093">
        <ele>227</ele>
        <time>2012-11-04T09:32:25Z</time>
      </trkpt>
      <trkpt lat="45.61897" lon="5.61088">
        <ele>227</ele>
        <time>2012-11-04T09:32:26Z</time>
      </trkpt>
      <trkpt lat="45.61892" lon="5.61084">
        <ele>228</ele>
        <time>2012-11-04T09:32:27Z</time>
      </trkpt>
      <trkpt lat="45.61889" lon="5.6108">
        <ele>228</ele>
        <time>2012-11-04T09:32:28Z</time>
      </trkpt>
      <trkpt lat="45.61878" lon="5.61077">
        <ele>228</ele>
        <time>2012-11-04T09:32:29Z</time>
      </trkpt>
      <trkpt lat="45.61857" lon="5.61074">
        <ele>227</ele>
        <time>2012-11-04T09:32:31Z</time>
      </trkpt>
      <trkpt lat="45.61822" lon="5.61067">
        <ele>226</ele>
        <time>2012-11-04T09:32:34Z</time>
      </trkpt>
      <trkpt lat="45.61819" lon="5.61061">
        <ele>225</ele>
        <time>2012-11-04T09:32:38Z</time>
      </trkpt>
      <trkpt lat="45.61809" lon="5.61043">
        <ele>226</ele>
        <time>2012-11-04T09:32:40Z</time>
      </trkpt>
      <trkpt lat="45.61805" lon="5.6104">
        <ele>226</ele>
        <time>2012-11-04T09:32:43Z</time>
      </trkpt>
      <trkpt lat="45.618" lon="5.61038">
        <ele>226</ele>
        <time>2012-11-04T09:32:45Z</time>
      </trkpt>
      <trkpt lat="45.61793" lon="5.61036">
        <ele>226</ele>
        <time>2012-11-04T09:32:47Z</time>
      </trkpt>
      <trkpt lat="45.61785" lon="5.61032">
        <ele>226</ele>
        <time>2012-11-04T09:32:48Z</time>
      </trkpt>
      <trkpt lat="45.61781" lon="5.61029">
        <ele>226</ele>
        <time>2012-11-04T09:32:49Z</time>
      </trkpt>
      <trkpt lat="45.61773" lon="5.61021">
        <ele>226</ele>
        <time>2012-11-04T09:32:51Z</time>
      </trkpt>
      <trkpt lat="45.61769" lon="5.61016">
        <ele>226</ele>
        <time>2012-11-04T09:32:52Z</time>
      </trkpt>
      <trkpt lat="45.61765" lon="5.61012">
        <ele>226</ele>
        <time>2012-11-04T09:32:53Z</time>
      </trkpt>
      <trkpt lat="45.61757" lon="5.61004">
        <ele>226</ele>
        <time>2012-11-04T09:32:55Z</time>
      </trkpt>
      <trkpt lat="45.61753" lon="5.61001">
        <ele>226</ele>
        <time>2012-11-04T09:32:56Z</time>
      </trkpt>
      <trkpt lat="45.61748" lon="5.60996">
        <ele>227</ele>
        <time>2012-11-04T09:32:58Z</time>
      </trkpt>
      <trkpt lat="45.61742" lon="5.6099">
        <ele>227</ele>
        <time>2012-11-04T09:32:59Z</time>
      </trkpt>
      <trkpt lat="45.61739" lon="5.60986">
        <ele>227</ele>
        <time>2012-11-04T09:33:00Z</time>
      </trkpt>
      <trkpt lat="45.61734" lon="5.60981">
        <ele>227</ele>
        <time>2012-11-04T09:33:01Z</time>
      </trkpt>
      <trkpt lat="45.61725" lon="5.60972">
        <ele>227</ele>
        <time>2012-11-04T09:33:03Z</time>
      </trkpt>
      <trkpt lat="45.61721" lon="5.60968">
        <ele>228</ele>
        <time>2012-11-04T09:33:05Z</time>
      </trkpt>
      <trkpt lat="45.61714" lon="5.6096">
        <ele>229</ele>
        <time>2012-11-04T09:33:07Z</time>
      </trkpt>
      <trkpt lat="45.61708" lon="5.60954">
        <ele>231</ele>
        <time>2012-11-04T09:33:09Z</time>
      </trkpt>
      <trkpt lat="45.61701" lon="5.60947">
        <ele>232</ele>
        <time>2012-11-04T09:33:11Z</time>
      </trkpt>
      <trkpt lat="45.61694" lon="5.60939">
        <ele>232</ele>
        <time>2012-11-04T09:33:13Z</time>
      </trkpt>
      <trkpt lat="45.61689" lon="5.60933">
        <ele>233</ele>
        <time>2012-11-04T09:33:14Z</time>
      </trkpt>
      <trkpt lat="45.61685" lon="5.60929">
        <ele>233</ele>
        <time>2012-11-04T09:33:15Z</time>
      </trkpt>
      <trkpt lat="45.61681" lon="5.60925">
        <ele>233</ele>
        <time>2012-11-04T09:33:16Z</time>
      </trkpt>
      <trkpt lat="45.61675" lon="5.60918">
        <ele>234</ele>
        <time>2012-11-04T09:33:17Z</time>
      </trkpt>
      <trkpt lat="45.61669" lon="5.6091">
        <ele>234</ele>
        <time>2012-11-04T09:33:19Z</time>
      </trkpt>
      <trkpt lat="45.61662" lon="5.609">
        <ele>233</ele>
        <time>2012-11-04T09:33:21Z</time>
      </trkpt>
      <trkpt lat="45.61657" lon="5.60894">
        <ele>232</ele>
        <time>2012-11-04T09:33:22Z</time>
      </trkpt>
      <trkpt lat="45.61651" lon="5.60881">
        <ele>232</ele>
        <time>2012-11-04T09:33:23Z</time>
      </trkpt>
      <trkpt lat="45.61647" lon="5.60864">
        <ele>230</ele>
        <time>2012-11-04T09:33:25Z</time>
      </trkpt>
      <trkpt lat="45.61645" lon="5.60857">
        <ele>230</ele>
        <time>2012-11-04T09:33:26Z</time>
      </trkpt>
      <trkpt lat="45.61644" lon="5.6085">
        <ele>229</ele>
        <time>2012-11-04T09:33:27Z</time>
      </trkpt>
      <trkpt lat="45.61641" lon="5.60838">
        <ele>229</ele>
        <time>2012-11-04T09:33:29Z</time>
      </trkpt>
      <trkpt lat="45.6164" lon="5.60831">
        <ele>228</ele>
        <time>2012-11-04T09:33:30Z</time>
      </trkpt>
      <trkpt lat="45.61638" lon="5.60821">
        <ele>228</ele>
        <time>2012-11-04T09:33:32Z</time>
      </trkpt>
      <trkpt lat="45.61636" lon="5.60813">
        <ele>228</ele>
        <time>2012-11-04T09:33:34Z</time>
      </trkpt>
      <trkpt lat="45.61634" lon="5.60805">
        <ele>228</ele>
        <time>2012-11-04T09:33:36Z</time>
      </trkpt>
      <trkpt lat="45.61632" lon="5.60797">
        <ele>228</ele>
        <time>2012-11-04T09:33:37Z</time>
      </trkpt>
      <trkpt lat="45.61629" lon="5.60787">
        <ele>229</ele>
        <time>2012-11-04T09:33:38Z</time>
      </trkpt>
      <trkpt lat="45.61625" lon="5.60776">
        <ele>229</ele>
        <time>2012-11-04T09:33:41Z</time>
      </trkpt>
      <trkpt lat="45.61621" lon="5.60768">
        <ele>230</ele>
        <time>2012-11-04T09:33:43Z</time>
      </trkpt>
      <trkpt lat="45.61618" lon="5.60763">
        <ele>230</ele>
        <time>2012-11-04T09:33:44Z</time>
      </trkpt>
      <trkpt lat="45.61612" lon="5.60751">
        <ele>230</ele>
        <time>2012-11-04T09:33:46Z</time>
      </trkpt>
      <trkpt lat="45.61607" lon="5.6074">
        <ele>230</ele>
        <time>2012-11-04T09:33:48Z</time>
      </trkpt>
      <trkpt lat="45.61603" lon="5.60733">
        <ele>230</ele>
        <time>2012-11-04T09:33:49Z</time>
      </trkpt>
      <trkpt lat="45.61599" lon="5.60726">
        <ele>230</ele>
        <time>2012-11-04T09:33:50Z</time>
      </trkpt>
      <trkpt lat="45.61595" lon="5.60718">
        <ele>230</ele>
        <time>2012-11-04T09:33:51Z</time>
      </trkpt>
      <trkpt lat="45.61592" lon="5.60712">
        <ele>230</ele>
        <time>2012-11-04T09:33:52Z</time>
      </trkpt>
      <trkpt lat="45.61588" lon="5.60706">
        <ele>229</ele>
        <time>2012-11-04T09:33:53Z</time>
      </trkpt>
      <trkpt lat="45.61586" lon="5.60701">
        <ele>229</ele>
        <time>2012-11-04T09:33:54Z</time>
      </trkpt>
      <trkpt lat="45.61583" lon="5.60695">
        <ele>228</ele>
        <time>2012-11-04T09:33:55Z</time>
      </trkpt>
      <trkpt lat="45.61575" lon="5.60679">
        <ele>228</ele>
        <time>2012-11-04T09:33:57Z</time>
      </trkpt>
      <trkpt lat="45.61572" lon="5.60664">
        <ele>228</ele>
        <time>2012-11-04T09:33:59Z</time>
      </trkpt>
      <trkpt lat="45.6157" lon="5.60657">
        <ele>228</ele>
        <time>2012-11-04T09:34:00Z</time>
      </trkpt>
      <trkpt lat="45.61568" lon="5.60648">
        <ele>228</ele>
        <time>2012-11-04T09:34:02Z</time>
      </trkpt>
      <trkpt lat="45.61565" lon="5.60643">
        <ele>229</ele>
        <time>2012-11-04T09:34:04Z</time>
      </trkpt>
      <trkpt lat="45.61561" lon="5.60634">
        <ele>230</ele>
        <time>2012-11-04T09:34:06Z</time>
      </trkpt>
      <trkpt lat="45.61558" lon="5.60627">
        <ele>230</ele>
        <time>2012-11-04T09:34:07Z</time>
      </trkpt>
      <trkpt lat="45.61555" lon="5.60622">
        <ele>231</ele>
        <time>2012-11-04T09:34:08Z</time>
      </trkpt>
      <trkpt lat="45.61552" lon="5.60617">
        <ele>231</ele>
        <time>2012-11-04T09:34:09Z</time>
      </trkpt>
      <trkpt lat="45.61549" lon="5.60611">
        <ele>232</ele>
        <time>2012-11-04T09:34:10Z</time>
      </trkpt>
      <trkpt lat="45.61544" lon="5.60604">
        <ele>232</ele>
        <time>2012-11-04T09:34:12Z</time>
      </trkpt>
      <trkpt lat="45.61538" lon="5.60596">
        <ele>232</ele>
        <time>2012-11-04T09:34:14Z</time>
      </trkpt>
      <trkpt lat="45.61533" lon="5.60589">
        <ele>232</ele>
        <time>2012-11-04T09:34:15Z</time>
      </trkpt>
      <trkpt lat="45.6153" lon="5.60585">
        <ele>232</ele>
        <time>2012-11-04T09:34:16Z</time>
      </trkpt>
      <trkpt lat="45.61524" lon="5.60578">
        <ele>232</ele>
        <time>2012-11-04T09:34:18Z</time>
      </trkpt>
      <trkpt lat="45.61519" lon="5.60572">
        <ele>232</ele>
        <time>2012-11-04T09:34:19Z</time>
      </trkpt>
      <trkpt lat="45.61514" lon="5.60567">
        <ele>232</ele>
        <time>2012-11-04T09:34:20Z</time>
      </trkpt>
      <trkpt lat="45.6151" lon="5.60562">
        <ele>231</ele>
        <time>2012-11-04T09:34:21Z</time>
      </trkpt>
      <trkpt lat="45.61506" lon="5.60556">
        <ele>231</ele>
        <time>2012-11-04T09:34:22Z</time>
      </trkpt>
      <trkpt lat="45.615" lon="5.60549">
        <ele>230</ele>
        <time>2012-11-04T09:34:24Z</time>
      </trkpt>
      <trkpt lat="45.61496" lon="5.60544">
        <ele>230</ele>
        <time>2012-11-04T09:34:25Z</time>
      </trkpt>
      <trkpt lat="45.61491" lon="5.60537">
        <ele>229</ele>
        <time>2012-11-04T09:34:27Z</time>
      </trkpt>
      <trkpt lat="45.61487" lon="5.60531">
        <ele>229</ele>
        <time>2012-11-04T09:34:28Z</time>
      </trkpt>
      <trkpt lat="45.61481" lon="5.6052">
        <ele>229</ele>
        <time>2012-11-04T09:34:30Z</time>
      </trkpt>
      <trkpt lat="45.61475" lon="5.60508">
        <ele>229</ele>
        <time>2012-11-04T09:34:32Z</time>
      </trkpt>
      <trkpt lat="45.61472" lon="5.60502">
        <ele>228</ele>
        <time>2012-11-04T09:34:33Z</time>
      </trkpt>
      <trkpt lat="45.61469" lon="5.60497">
        <ele>228</ele>
        <time>2012-11-04T09:34:34Z</time>
      </trkpt>
      <trkpt lat="45.61466" lon="5.60491">
        <ele>227</ele>
        <time>2012-11-04T09:34:35Z</time>
      </trkpt>
      <trkpt lat="45.61463" lon="5.60485">
        <ele>227</ele>
        <time>2012-11-04T09:34:36Z</time>
      </trkpt>
      <trkpt lat="45.61461" lon="5.6048">
        <ele>227</ele>
        <time>2012-11-04T09:34:37Z</time>
      </trkpt>
      <trkpt lat="45.61457" lon="5.60473">
        <ele>226</ele>
        <time>2012-11-04T09:34:38Z</time>
      </trkpt>
      <trkpt lat="45.61455" lon="5.60468">
        <ele>226</ele>
        <time>2012-11-04T09:34:39Z</time>
      </trkpt>
      <trkpt lat="45.61451" lon="5.60461">
        <ele>225</ele>
        <time>2012-11-04T09:34:40Z</time>
      </trkpt>
      <trkpt lat="45.61446" lon="5.6045">
        <ele>225</ele>
        <time>2012-11-04T09:34:42Z</time>
      </trkpt>
      <trkpt lat="45.61443" lon="5.60443">
        <ele>225</ele>
        <time>2012-11-04T09:34:43Z</time>
      </trkpt>
      <trkpt lat="45.6144" lon="5.60437">
        <ele>224</ele>
        <time>2012-11-04T09:34:44Z</time>
      </trkpt>
      <trkpt lat="45.61437" lon="5.60431">
        <ele>224</ele>
        <time>2012-11-04T09:34:45Z</time>
      </trkpt>
      <trkpt lat="45.61434" lon="5.60425">
        <ele>223</ele>
        <time>2012-11-04T09:34:46Z</time>
      </trkpt>
      <trkpt lat="45.61432" lon="5.6042">
        <ele>223</ele>
        <time>2012-11-04T09:34:47Z</time>
      </trkpt>
      <trkpt lat="45.61428" lon="5.60412">
        <ele>222</ele>
        <time>2012-11-04T09:34:49Z</time>
      </trkpt>
      <trkpt lat="45.61425" lon="5.60406">
        <ele>222</ele>
        <time>2012-11-04T09:34:50Z</time>
      </trkpt>
      <trkpt lat="45.61421" lon="5.60398">
        <ele>222</ele>
        <time>2012-11-04T09:34:52Z</time>
      </trkpt>
      <trkpt lat="45.61417" lon="5.60391">
        <ele>222</ele>
        <time>2012-11-04T09:34:54Z</time>
      </trkpt>
      <trkpt lat="45.61413" lon="5.60382">
        <ele>223</ele>
        <time>2012-11-04T09:34:56Z</time>
      </trkpt>
      <trkpt lat="45.61408" lon="5.60372">
        <ele>224</ele>
        <time>2012-11-04T09:34:58Z</time>
      </trkpt>
      <trkpt lat="45.61405" lon="5.60367">
        <ele>224</ele>
        <time>2012-11-04T09:34:59Z</time>
      </trkpt>
      <trkpt lat="45.61401" lon="5.60358">
        <ele>225</ele>
        <time>2012-11-04T09:35:01Z</time>
      </trkpt>
      <trkpt lat="45.61398" lon="5.60353">
        <ele>225</ele>
        <time>2012-11-04T09:35:02Z</time>
      </trkpt>
      <trkpt lat="45.61391" lon="5.60341">
        <ele>225</ele>
        <time>2012-11-04T09:35:03Z</time>
      </trkpt>
      <trkpt lat="45.61388" lon="5.60335">
        <ele>225</ele>
        <time>2012-11-04T09:35:04Z</time>
      </trkpt>
      <trkpt lat="45.61383" lon="5.60325">
        <ele>226</ele>
        <time>2012-11-04T09:35:06Z</time>
      </trkpt>
      <trkpt lat="45.61379" lon="5.60318">
        <ele>225</ele>
        <time>2012-11-04T09:35:07Z</time>
      </trkpt>
      <trkpt lat="45.61377" lon="5.60312">
        <ele>225</ele>
        <time>2012-11-04T09:35:08Z</time>
      </trkpt>
      <trkpt lat="45.6137" lon="5.603">
        <ele>224</ele>
        <time>2012-11-04T09:35:10Z</time>
      </trkpt>
      <trkpt lat="45.61367" lon="5.60295">
        <ele>224</ele>
        <time>2012-11-04T09:35:11Z</time>
      </trkpt>
      <trkpt lat="45.61362" lon="5.60285">
        <ele>224</ele>
        <time>2012-11-04T09:35:13Z</time>
      </trkpt>
      <trkpt lat="45.61359" lon="5.60279">
        <ele>225</ele>
        <time>2012-11-04T09:35:14Z</time>
      </trkpt>
      <trkpt lat="45.61355" lon="5.60268">
        <ele>225</ele>
        <time>2012-11-04T09:35:16Z</time>
      </trkpt>
      <trkpt lat="45.61352" lon="5.60261">
        <ele>226</ele>
        <time>2012-11-04T09:35:17Z</time>
      </trkpt>
      <trkpt lat="45.6135" lon="5.60255">
        <ele>226</ele>
        <time>2012-11-04T09:35:18Z</time>
      </trkpt>
      <trkpt lat="45.61348" lon="5.60249">
        <ele>226</ele>
        <time>2012-11-04T09:35:19Z</time>
      </trkpt>
      <trkpt lat="45.61346" lon="5.60243">
        <ele>226</ele>
        <time>2012-11-04T09:35:20Z</time>
      </trkpt>
      <trkpt lat="45.61342" lon="5.60231">
        <ele>226</ele>
        <time>2012-11-04T09:35:22Z</time>
      </trkpt>
      <trkpt lat="45.6134" lon="5.60225">
        <ele>226</ele>
        <time>2012-11-04T09:35:23Z</time>
      </trkpt>
      <trkpt lat="45.61337" lon="5.60217">
        <ele>227</ele>
        <time>2012-11-04T09:35:25Z</time>
      </trkpt>
      <trkpt lat="45.61335" lon="5.6021">
        <ele>228</ele>
        <time>2012-11-04T09:35:27Z</time>
      </trkpt>
      <trkpt lat="45.61332" lon="5.60203">
        <ele>230</ele>
        <time>2012-11-04T09:35:29Z</time>
      </trkpt>
      <trkpt lat="45.6133" lon="5.60196">
        <ele>231</ele>
        <time>2012-11-04T09:35:31Z</time>
      </trkpt>
      <trkpt lat="45.61328" lon="5.60188">
        <ele>231</ele>
        <time>2012-11-04T09:35:33Z</time>
      </trkpt>
      <trkpt lat="45.61326" lon="5.6018">
        <ele>232</ele>
        <time>2012-11-04T09:35:35Z</time>
      </trkpt>
      <trkpt lat="45.61324" lon="5.60171">
        <ele>233</ele>
        <time>2012-11-04T09:35:37Z</time>
      </trkpt>
      <trkpt lat="45.61322" lon="5.60164">
        <ele>233</ele>
        <time>2012-11-04T09:35:38Z</time>
      </trkpt>
      <trkpt lat="45.6132" lon="5.60157">
        <ele>232</ele>
        <time>2012-11-04T09:35:39Z</time>
      </trkpt>
      <trkpt lat="45.61319" lon="5.60151">
        <ele>232</ele>
        <time>2012-11-04T09:35:40Z</time>
      </trkpt>
      <trkpt lat="45.61317" lon="5.60144">
        <ele>232</ele>
        <time>2012-11-04T09:35:41Z</time>
      </trkpt>
      <trkpt lat="45.61315" lon="5.60136">
        <ele>231</ele>
        <time>2012-11-04T09:35:42Z</time>
      </trkpt>
      <trkpt lat="45.61314" lon="5.60129">
        <ele>231</ele>
        <time>2012-11-04T09:35:43Z</time>
      </trkpt>
      <trkpt lat="45.61312" lon="5.60123">
        <ele>231</ele>
        <time>2012-11-04T09:35:44Z</time>
      </trkpt>
      <trkpt lat="45.6131" lon="5.60111">
        <ele>230</ele>
        <time>2012-11-04T09:35:46Z</time>
      </trkpt>
      <trkpt lat="45.61307" lon="5.60098">
        <ele>230</ele>
        <time>2012-11-04T09:35:48Z</time>
      </trkpt>
      <trkpt lat="45.61306" lon="5.60092">
        <ele>230</ele>
        <time>2012-11-04T09:35:49Z</time>
      </trkpt>
      <trkpt lat="45.61303" lon="5.6008">
        <ele>229</ele>
        <time>2012-11-04T09:35:51Z</time>
      </trkpt>
      <trkpt lat="45.613" lon="5.60067">
        <ele>229</ele>
        <time>2012-11-04T09:35:53Z</time>
      </trkpt>
      <trkpt lat="45.61297" lon="5.60054">
        <ele>228</ele>
        <time>2012-11-04T09:35:55Z</time>
      </trkpt>
      <trkpt lat="45.61296" lon="5.60048">
        <ele>228</ele>
        <time>2012-11-04T09:35:56Z</time>
      </trkpt>
      <trkpt lat="45.61293" lon="5.60037">
        <ele>228</ele>
        <time>2012-11-04T09:35:58Z</time>
      </trkpt>
      <trkpt lat="45.6129" lon="5.60027">
        <ele>227</ele>
        <time>2012-11-04T09:36:00Z</time>
      </trkpt>
      <trkpt lat="45.61288" lon="5.6002">
        <ele>228</ele>
        <time>2012-11-04T09:36:02Z</time>
      </trkpt>
      <trkpt lat="45.61284" lon="5.60012">
        <ele>230</ele>
        <time>2012-11-04T09:36:05Z</time>
      </trkpt>
      <trkpt lat="45.61279" lon="5.60003">
        <ele>230</ele>
        <time>2012-11-04T09:36:06Z</time>
      </trkpt>
      <trkpt lat="45.61276" lon="5.59997">
        <ele>230</ele>
        <time>2012-11-04T09:36:07Z</time>
      </trkpt>
      <trkpt lat="45.61271" lon="5.59988">
        <ele>230</ele>
        <time>2012-11-04T09:36:09Z</time>
      </trkpt>
      <trkpt lat="45.61265" lon="5.59978">
        <ele>231</ele>
        <time>2012-11-04T09:36:11Z</time>
      </trkpt>
      <trkpt lat="45.61259" lon="5.59971">
        <ele>231</ele>
        <time>2012-11-04T09:36:13Z</time>
      </trkpt>
      <trkpt lat="45.61254" lon="5.59963">
        <ele>232</ele>
        <time>2012-11-04T09:36:15Z</time>
      </trkpt>
      <trkpt lat="45.61248" lon="5.59955">
        <ele>232</ele>
        <time>2012-11-04T09:36:17Z</time>
      </trkpt>
      <trkpt lat="45.61242" lon="5.59947">
        <ele>232</ele>
        <time>2012-11-04T09:36:19Z</time>
      </trkpt>
      <trkpt lat="45.61236" lon="5.59938">
        <ele>232</ele>
        <time>2012-11-04T09:36:21Z</time>
      </trkpt>
      <trkpt lat="45.61232" lon="5.59933">
        <ele>233</ele>
        <time>2012-11-04T09:36:22Z</time>
      </trkpt>
      <trkpt lat="45.61229" lon="5.59929">
        <ele>233</ele>
        <time>2012-11-04T09:36:23Z</time>
      </trkpt>
      <trkpt lat="45.61222" lon="5.5992">
        <ele>233</ele>
        <time>2012-11-04T09:36:25Z</time>
      </trkpt>
      <trkpt lat="45.61219" lon="5.59915">
        <ele>232</ele>
        <time>2012-11-04T09:36:26Z</time>
      </trkpt>
      <trkpt lat="45.61215" lon="5.5991">
        <ele>232</ele>
        <time>2012-11-04T09:36:27Z</time>
      </trkpt>
      <trkpt lat="45.61211" lon="5.59904">
        <ele>232</ele>
        <time>2012-11-04T09:36:28Z</time>
      </trkpt>
      <trkpt lat="45.61204" lon="5.59895">
        <ele>231</ele>
        <time>2012-11-04T09:36:30Z</time>
      </trkpt>
      <trkpt lat="45.61196" lon="5.59884">
        <ele>231</ele>
        <time>2012-11-04T09:36:33Z</time>
      </trkpt>
      <trkpt lat="45.61191" lon="5.59877">
        <ele>230</ele>
        <time>2012-11-04T09:36:35Z</time>
      </trkpt>
      <trkpt lat="45.61185" lon="5.59869">
        <ele>230</ele>
        <time>2012-11-04T09:36:37Z</time>
      </trkpt>
      <trkpt lat="45.61179" lon="5.59861">
        <ele>229</ele>
        <time>2012-11-04T09:36:39Z</time>
      </trkpt>
      <trkpt lat="45.61175" lon="5.59853">
        <ele>229</ele>
        <time>2012-11-04T09:36:41Z</time>
      </trkpt>
      <trkpt lat="45.61173" lon="5.59847">
        <ele>229</ele>
        <time>2012-11-04T09:36:43Z</time>
      </trkpt>
      <trkpt lat="45.61162" lon="5.59821">
        <ele>233</ele>
        <time>2012-11-04T09:36:50Z</time>
      </trkpt>
      <trkpt lat="45.61155" lon="5.59821">
        <ele>235</ele>
        <time>2012-11-04T09:36:52Z</time>
      </trkpt>
      <trkpt lat="45.61147" lon="5.5982">
        <ele>238</ele>
        <time>2012-11-04T09:36:54Z</time>
      </trkpt>
      <trkpt lat="45.6114" lon="5.5982">
        <ele>240</ele>
        <time>2012-11-04T09:36:56Z</time>
      </trkpt>
      <trkpt lat="45.61132" lon="5.59819">
        <ele>241</ele>
        <time>2012-11-04T09:36:58Z</time>
      </trkpt>
      <trkpt lat="45.61125" lon="5.59818">
        <ele>242</ele>
        <time>2012-11-04T09:37:00Z</time>
      </trkpt>
      <trkpt lat="45.61117" lon="5.59818">
        <ele>244</ele>
        <time>2012-11-04T09:37:02Z</time>
      </trkpt>
      <trkpt lat="45.61111" lon="5.59816">
        <ele>245</ele>
        <time>2012-11-04T09:37:04Z</time>
      </trkpt>
      <trkpt lat="45.61106" lon="5.59816">
        <ele>245</ele>
        <time>2012-11-04T09:37:06Z</time>
      </trkpt>
      <trkpt lat="45.611" lon="5.59814">
        <ele>245</ele>
        <time>2012-11-04T09:37:08Z</time>
      </trkpt>
      <trkpt lat="45.61093" lon="5.59812">
        <ele>244</ele>
        <time>2012-11-04T09:37:10Z</time>
      </trkpt>
      <trkpt lat="45.61088" lon="5.59808">
        <ele>244</ele>
        <time>2012-11-04T09:37:12Z</time>
      </trkpt>
      <trkpt lat="45.61083" lon="5.59803">
        <ele>243</ele>
        <time>2012-11-04T09:37:14Z</time>
      </trkpt>
      <trkpt lat="45.61077" lon="5.59799">
        <ele>243</ele>
        <time>2012-11-04T09:37:16Z</time>
      </trkpt>
      <trkpt lat="45.61069" lon="5.59796">
        <ele>242</ele>
        <time>2012-11-04T09:37:18Z</time>
      </trkpt>
      <trkpt lat="45.61052" lon="5.59796">
        <ele>241</ele>
        <time>2012-11-04T09:37:19Z</time>
      </trkpt>
      <trkpt lat="45.61045" lon="5.59795">
        <ele>241</ele>
        <time>2012-11-04T09:37:20Z</time>
      </trkpt>
      <trkpt lat="45.61039" lon="5.59795">
        <ele>240</ele>
        <time>2012-11-04T09:37:21Z</time>
      </trkpt>
      <trkpt lat="45.61034" lon="5.59795">
        <ele>239</ele>
        <time>2012-11-04T09:37:22Z</time>
      </trkpt>
      <trkpt lat="45.61028" lon="5.59795">
        <ele>239</ele>
        <time>2012-11-04T09:37:23Z</time>
      </trkpt>
      <trkpt lat="45.61022" lon="5.59795">
        <ele>239</ele>
        <time>2012-11-04T09:37:24Z</time>
      </trkpt>
      <trkpt lat="45.61017" lon="5.59794">
        <ele>238</ele>
        <time>2012-11-04T09:37:25Z</time>
      </trkpt>
      <trkpt lat="45.61012" lon="5.59793">
        <ele>238</ele>
        <time>2012-11-04T09:37:26Z</time>
      </trkpt>
      <trkpt lat="45.61007" lon="5.59793">
        <ele>237</ele>
        <time>2012-11-04T09:37:27Z</time>
      </trkpt>
      <trkpt lat="45.61001" lon="5.59793">
        <ele>237</ele>
        <time>2012-11-04T09:37:28Z</time>
      </trkpt>
      <trkpt lat="45.60996" lon="5.59793">
        <ele>237</ele>
        <time>2012-11-04T09:37:29Z</time>
      </trkpt>
      <trkpt lat="45.60992" lon="5.59793">
        <ele>236</ele>
        <time>2012-11-04T09:37:30Z</time>
      </trkpt>
      <trkpt lat="45.60986" lon="5.59792">
        <ele>236</ele>
        <time>2012-11-04T09:37:31Z</time>
      </trkpt>
      <trkpt lat="45.60982" lon="5.59791">
        <ele>235</ele>
        <time>2012-11-04T09:37:32Z</time>
      </trkpt>
      <trkpt lat="45.60976" lon="5.59791">
        <ele>235</ele>
        <time>2012-11-04T09:37:33Z</time>
      </trkpt>
      <trkpt lat="45.60972" lon="5.5979">
        <ele>235</ele>
        <time>2012-11-04T09:37:34Z</time>
      </trkpt>
      <trkpt lat="45.60966" lon="5.5979">
        <ele>234</ele>
        <time>2012-11-04T09:37:35Z</time>
      </trkpt>
      <trkpt lat="45.60961" lon="5.59789">
        <ele>234</ele>
        <time>2012-11-04T09:37:36Z</time>
      </trkpt>
      <trkpt lat="45.60952" lon="5.59789">
        <ele>233</ele>
        <time>2012-11-04T09:37:38Z</time>
      </trkpt>
      <trkpt lat="45.60944" lon="5.5979">
        <ele>233</ele>
        <time>2012-11-04T09:37:40Z</time>
      </trkpt>
      <trkpt lat="45.60935" lon="5.59789">
        <ele>233</ele>
        <time>2012-11-04T09:37:42Z</time>
      </trkpt>
      <trkpt lat="45.6093" lon="5.5979">
        <ele>233</ele>
        <time>2012-11-04T09:37:43Z</time>
      </trkpt>
      <trkpt lat="45.60921" lon="5.59791">
        <ele>233</ele>
        <time>2012-11-04T09:37:45Z</time>
      </trkpt>
      <trkpt lat="45.60915" lon="5.59789">
        <ele>233</ele>
        <time>2012-11-04T09:37:47Z</time>
      </trkpt>
      <trkpt lat="45.6091" lon="5.59789">
        <ele>233</ele>
        <time>2012-11-04T09:37:48Z</time>
      </trkpt>
      <trkpt lat="45.60902" lon="5.59788">
        <ele>232</ele>
        <time>2012-11-04T09:37:50Z</time>
      </trkpt>
      <trkpt lat="45.60894" lon="5.59789">
        <ele>232</ele>
        <time>2012-11-04T09:37:52Z</time>
      </trkpt>
      <trkpt lat="45.60886" lon="5.59789">
        <ele>231</ele>
        <time>2012-11-04T09:37:54Z</time>
      </trkpt>
      <trkpt lat="45.60878" lon="5.59787">
        <ele>231</ele>
        <time>2012-11-04T09:37:55Z</time>
      </trkpt>
      <trkpt lat="45.60873" lon="5.59786">
        <ele>231</ele>
        <time>2012-11-04T09:37:56Z</time>
      </trkpt>
      <trkpt lat="45.60868" lon="5.59784">
        <ele>231</ele>
        <time>2012-11-04T09:37:57Z</time>
      </trkpt>
      <trkpt lat="45.60863" lon="5.59783">
        <ele>230</ele>
        <time>2012-11-04T09:37:58Z</time>
      </trkpt>
      <trkpt lat="45.60856" lon="5.59784">
        <ele>229</ele>
        <time>2012-11-04T09:38:00Z</time>
      </trkpt>
      <trkpt lat="45.60849" lon="5.59782">
        <ele>228</ele>
        <time>2012-11-04T09:38:02Z</time>
      </trkpt>
      <trkpt lat="45.60838" lon="5.59779">
        <ele>228</ele>
        <time>2012-11-04T09:38:04Z</time>
      </trkpt>
      <trkpt lat="45.60828" lon="5.59778">
        <ele>227</ele>
        <time>2012-11-04T09:38:06Z</time>
      </trkpt>
      <trkpt lat="45.60823" lon="5.59778">
        <ele>227</ele>
        <time>2012-11-04T09:38:07Z</time>
      </trkpt>
      <trkpt lat="45.60818" lon="5.59777">
        <ele>227</ele>
        <time>2012-11-04T09:38:08Z</time>
      </trkpt>
      <trkpt lat="45.60809" lon="5.59774">
        <ele>227</ele>
        <time>2012-11-04T09:38:10Z</time>
      </trkpt>
      <trkpt lat="45.60802" lon="5.59773">
        <ele>227</ele>
        <time>2012-11-04T09:38:12Z</time>
      </trkpt>
      <trkpt lat="45.60797" lon="5.59772">
        <ele>227</ele>
        <time>2012-11-04T09:38:13Z</time>
      </trkpt>
      <trkpt lat="45.6079" lon="5.59772">
        <ele>227</ele>
        <time>2012-11-04T09:38:15Z</time>
      </trkpt>
      <trkpt lat="45.60783" lon="5.59768">
        <ele>227</ele>
        <time>2012-11-04T09:38:17Z</time>
      </trkpt>
      <trkpt lat="45.60778" lon="5.59767">
        <ele>227</ele>
        <time>2012-11-04T09:38:18Z</time>
      </trkpt>
      <trkpt lat="45.60773" lon="5.59768">
        <ele>227</ele>
        <time>2012-11-04T09:38:19Z</time>
      </trkpt>
      <trkpt lat="45.60758" lon="5.59768">
        <ele>227</ele>
        <time>2012-11-04T09:38:21Z</time>
      </trkpt>
      <trkpt lat="45.60749" lon="5.59769">
        <ele>227</ele>
        <time>2012-11-04T09:38:22Z</time>
      </trkpt>
      <trkpt lat="45.60738" lon="5.59767">
        <ele>227</ele>
        <time>2012-11-04T09:38:24Z</time>
      </trkpt>
      <trkpt lat="45.60733" lon="5.59767">
        <ele>227</ele>
        <time>2012-11-04T09:38:25Z</time>
      </trkpt>
      <trkpt lat="45.60728" lon="5.59765">
        <ele>227</ele>
        <time>2012-11-04T09:38:26Z</time>
      </trkpt>
      <trkpt lat="45.60723" lon="5.59765">
        <ele>227</ele>
        <time>2012-11-04T09:38:27Z</time>
      </trkpt>
      <trkpt lat="45.60718" lon="5.59765">
        <ele>226</ele>
        <time>2012-11-04T09:38:28Z</time>
      </trkpt>
      <trkpt lat="45.6071" lon="5.59764">
        <ele>226</ele>
        <time>2012-11-04T09:38:30Z</time>
      </trkpt>
      <trkpt lat="45.60706" lon="5.59763">
        <ele>226</ele>
        <time>2012-11-04T09:38:31Z</time>
      </trkpt>
      <trkpt lat="45.607" lon="5.59761">
        <ele>226</ele>
        <time>2012-11-04T09:38:33Z</time>
      </trkpt>
      <trkpt lat="45.60694" lon="5.59761">
        <ele>226</ele>
        <time>2012-11-04T09:38:34Z</time>
      </trkpt>
      <trkpt lat="45.60687" lon="5.59759">
        <ele>227</ele>
        <time>2012-11-04T09:38:35Z</time>
      </trkpt>
      <trkpt lat="45.60682" lon="5.59758">
        <ele>227</ele>
        <time>2012-11-04T09:38:36Z</time>
      </trkpt>
      <trkpt lat="45.60677" lon="5.59761">
        <ele>227</ele>
        <time>2012-11-04T09:38:37Z</time>
      </trkpt>
      <trkpt lat="45.60672" lon="5.59762">
        <ele>226</ele>
        <time>2012-11-04T09:38:38Z</time>
      </trkpt>
      <trkpt lat="45.60667" lon="5.59761">
        <ele>226</ele>
        <time>2012-11-04T09:38:39Z</time>
      </trkpt>
      <trkpt lat="45.60659" lon="5.5976">
        <ele>226</ele>
        <time>2012-11-04T09:38:41Z</time>
      </trkpt>
      <trkpt lat="45.60651" lon="5.59759">
        <ele>225</ele>
        <time>2012-11-04T09:38:43Z</time>
      </trkpt>
      <trkpt lat="45.60644" lon="5.59758">
        <ele>225</ele>
        <time>2012-11-04T09:38:45Z</time>
      </trkpt>
      <trkpt lat="45.60636" lon="5.59759">
        <ele>224</ele>
        <time>2012-11-04T09:38:47Z</time>
      </trkpt>
      <trkpt lat="45.6063" lon="5.59757">
        <ele>224</ele>
        <time>2012-11-04T09:38:48Z</time>
      </trkpt>
      <trkpt lat="45.60622" lon="5.59756">
        <ele>224</ele>
        <time>2012-11-04T09:38:50Z</time>
      </trkpt>
      <trkpt lat="45.60617" lon="5.59755">
        <ele>223</ele>
        <time>2012-11-04T09:38:51Z</time>
      </trkpt>
      <trkpt lat="45.60613" lon="5.59754">
        <ele>223</ele>
        <time>2012-11-04T09:38:52Z</time>
      </trkpt>
      <trkpt lat="45.60608" lon="5.59753">
        <ele>223</ele>
        <time>2012-11-04T09:38:53Z</time>
      </trkpt>
      <trkpt lat="45.60603" lon="5.59752">
        <ele>223</ele>
        <time>2012-11-04T09:38:54Z</time>
      </trkpt>
      <trkpt lat="45.60595" lon="5.59751">
        <ele>224</ele>
        <time>2012-11-04T09:38:56Z</time>
      </trkpt>
      <trkpt lat="45.60587" lon="5.5975">
        <ele>224</ele>
        <time>2012-11-04T09:38:58Z</time>
      </trkpt>
      <trkpt lat="45.60578" lon="5.59749">
        <ele>224</ele>
        <time>2012-11-04T09:39:00Z</time>
      </trkpt>
      <trkpt lat="45.60574" lon="5.59748">
        <ele>224</ele>
        <time>2012-11-04T09:39:01Z</time>
      </trkpt>
      <trkpt lat="45.60565" lon="5.59748">
        <ele>225</ele>
        <time>2012-11-04T09:39:03Z</time>
      </trkpt>
      <trkpt lat="45.60555" lon="5.59746">
        <ele>226</ele>
        <time>2012-11-04T09:39:05Z</time>
      </trkpt>
      <trkpt lat="45.6055" lon="5.59746">
        <ele>226</ele>
        <time>2012-11-04T09:39:06Z</time>
      </trkpt>
      <trkpt lat="45.60546" lon="5.59746">
        <ele>226</ele>
        <time>2012-11-04T09:39:07Z</time>
      </trkpt>
      <trkpt lat="45.6054" lon="5.59746">
        <ele>226</ele>
        <time>2012-11-04T09:39:08Z</time>
      </trkpt>
      <trkpt lat="45.60536" lon="5.59746">
        <ele>226</ele>
        <time>2012-11-04T09:39:09Z</time>
      </trkpt>
      <trkpt lat="45.60531" lon="5.59745">
        <ele>226</ele>
        <time>2012-11-04T09:39:10Z</time>
      </trkpt>
      <trkpt lat="45.60523" lon="5.59744">
        <ele>226</ele>
        <time>2012-11-04T09:39:12Z</time>
      </trkpt>
      <trkpt lat="45.60518" lon="5.59744">
        <ele>226</ele>
        <time>2012-11-04T09:39:13Z</time>
      </trkpt>
      <trkpt lat="45.6051" lon="5.59742">
        <ele>226</ele>
        <time>2012-11-04T09:39:15Z</time>
      </trkpt>
      <trkpt lat="45.60501" lon="5.59741">
        <ele>226</ele>
        <time>2012-11-04T09:39:17Z</time>
      </trkpt>
      <trkpt lat="45.60491" lon="5.59741">
        <ele>226</ele>
        <time>2012-11-04T09:39:19Z</time>
      </trkpt>
      <trkpt lat="45.60486" lon="5.5974">
        <ele>226</ele>
        <time>2012-11-04T09:39:20Z</time>
      </trkpt>
      <trkpt lat="45.60478" lon="5.59738">
        <ele>226</ele>
        <time>2012-11-04T09:39:22Z</time>
      </trkpt>
      <trkpt lat="45.60472" lon="5.59738">
        <ele>226</ele>
        <time>2012-11-04T09:39:23Z</time>
      </trkpt>
      <trkpt lat="45.60467" lon="5.59738">
        <ele>226</ele>
        <time>2012-11-04T09:39:24Z</time>
      </trkpt>
      <trkpt lat="45.60461" lon="5.59738">
        <ele>226</ele>
        <time>2012-11-04T09:39:25Z</time>
      </trkpt>
      <trkpt lat="45.60453" lon="5.59736">
        <ele>225</ele>
        <time>2012-11-04T09:39:27Z</time>
      </trkpt>
      <trkpt lat="45.60445" lon="5.59734">
        <ele>225</ele>
        <time>2012-11-04T09:39:29Z</time>
      </trkpt>
      <trkpt lat="45.6044" lon="5.59739">
        <ele>224</ele>
        <time>2012-11-04T09:39:31Z</time>
      </trkpt>
      <trkpt lat="45.60439" lon="5.59747">
        <ele>224</ele>
        <time>2012-11-04T09:39:33Z</time>
      </trkpt>
      <trkpt lat="45.60438" lon="5.59755">
        <ele>223</ele>
        <time>2012-11-04T09:39:35Z</time>
      </trkpt>
      <trkpt lat="45.60431" lon="5.59756">
        <ele>223</ele>
        <time>2012-11-04T09:39:37Z</time>
      </trkpt>
      <trkpt lat="45.60424" lon="5.59755">
        <ele>222</ele>
        <time>2012-11-04T09:39:39Z</time>
      </trkpt>
      <trkpt lat="45.60415" lon="5.59752">
        <ele>222</ele>
        <time>2012-11-04T09:39:41Z</time>
      </trkpt>
      <trkpt lat="45.60406" lon="5.59751">
        <ele>222</ele>
        <time>2012-11-04T09:39:43Z</time>
      </trkpt>
      <trkpt lat="45.60398" lon="5.59751">
        <ele>222</ele>
        <time>2012-11-04T09:39:45Z</time>
      </trkpt>
      <trkpt lat="45.60389" lon="5.59749">
        <ele>222</ele>
        <time>2012-11-04T09:39:47Z</time>
      </trkpt>
      <trkpt lat="45.60381" lon="5.59749">
        <ele>222</ele>
        <time>2012-11-04T09:39:49Z</time>
      </trkpt>
      <trkpt lat="45.60371" lon="5.59749">
        <ele>222</ele>
        <time>2012-11-04T09:39:51Z</time>
      </trkpt>
      <trkpt lat="45.60366" lon="5.59749">
        <ele>222</ele>
        <time>2012-11-04T09:39:52Z</time>
      </trkpt>
      <trkpt lat="45.60358" lon="5.59748">
        <ele>223</ele>
        <time>2012-11-04T09:39:54Z</time>
      </trkpt>
      <trkpt lat="45.6035" lon="5.59748">
        <ele>224</ele>
        <time>2012-11-04T09:39:56Z</time>
      </trkpt>
      <trkpt lat="45.60343" lon="5.59746">
        <ele>225</ele>
        <time>2012-11-04T09:39:58Z</time>
      </trkpt>
      <trkpt lat="45.60338" lon="5.59744">
        <ele>225</ele>
        <time>2012-11-04T09:39:59Z</time>
      </trkpt>
      <trkpt lat="45.60334" lon="5.59743">
        <ele>225</ele>
        <time>2012-11-04T09:40:00Z</time>
      </trkpt>
      <trkpt lat="45.60328" lon="5.59743">
        <ele>225</ele>
        <time>2012-11-04T09:40:01Z</time>
      </trkpt>
      <trkpt lat="45.6032" lon="5.59742">
        <ele>225</ele>
        <time>2012-11-04T09:40:03Z</time>
      </trkpt>
      <trkpt lat="45.60313" lon="5.59741">
        <ele>225</ele>
        <time>2012-11-04T09:40:05Z</time>
      </trkpt>
      <trkpt lat="45.60306" lon="5.59742">
        <ele>225</ele>
        <time>2012-11-04T09:40:07Z</time>
      </trkpt>
      <trkpt lat="45.60297" lon="5.59739">
        <ele>225</ele>
        <time>2012-11-04T09:40:09Z</time>
      </trkpt>
      <trkpt lat="45.60289" lon="5.5974">
        <ele>226</ele>
        <time>2012-11-04T09:40:11Z</time>
      </trkpt>
      <trkpt lat="45.60281" lon="5.59738">
        <ele>226</ele>
        <time>2012-11-04T09:40:13Z</time>
      </trkpt>
      <trkpt lat="45.60273" lon="5.59738">
        <ele>226</ele>
        <time>2012-11-04T09:40:15Z</time>
      </trkpt>
      <trkpt lat="45.60265" lon="5.59736">
        <ele>225</ele>
        <time>2012-11-04T09:40:17Z</time>
      </trkpt>
      <trkpt lat="45.60257" lon="5.59735">
        <ele>225</ele>
        <time>2012-11-04T09:40:19Z</time>
      </trkpt>
      <trkpt lat="45.60249" lon="5.59734">
        <ele>225</ele>
        <time>2012-11-04T09:40:21Z</time>
      </trkpt>
      <trkpt lat="45.60241" lon="5.59734">
        <ele>225</ele>
        <time>2012-11-04T09:40:23Z</time>
      </trkpt>
      <trkpt lat="45.60233" lon="5.59734">
        <ele>225</ele>
        <time>2012-11-04T09:40:25Z</time>
      </trkpt>
      <trkpt lat="45.60228" lon="5.59734">
        <ele>225</ele>
        <time>2012-11-04T09:40:26Z</time>
      </trkpt>
      <trkpt lat="45.60219" lon="5.59732">
        <ele>225</ele>
        <time>2012-11-04T09:40:28Z</time>
      </trkpt>
      <trkpt lat="45.6021" lon="5.59729">
        <ele>224</ele>
        <time>2012-11-04T09:40:30Z</time>
      </trkpt>
      <trkpt lat="45.60205" lon="5.59729">
        <ele>224</ele>
        <time>2012-11-04T09:40:31Z</time>
      </trkpt>
      <trkpt lat="45.602" lon="5.59729">
        <ele>223</ele>
        <time>2012-11-04T09:40:32Z</time>
      </trkpt>
      <trkpt lat="45.60196" lon="5.59729">
        <ele>223</ele>
        <time>2012-11-04T09:40:33Z</time>
      </trkpt>
      <trkpt lat="45.60187" lon="5.59729">
        <ele>223</ele>
        <time>2012-11-04T09:40:35Z</time>
      </trkpt>
      <trkpt lat="45.6018" lon="5.59729">
        <ele>223</ele>
        <time>2012-11-04T09:40:37Z</time>
      </trkpt>
      <trkpt lat="45.60172" lon="5.59728">
        <ele>223</ele>
        <time>2012-11-04T09:40:39Z</time>
      </trkpt>
      <trkpt lat="45.60164" lon="5.59727">
        <ele>223</ele>
        <time>2012-11-04T09:40:41Z</time>
      </trkpt>
      <trkpt lat="45.60156" lon="5.59725">
        <ele>223</ele>
        <time>2012-11-04T09:40:43Z</time>
      </trkpt>
      <trkpt lat="45.60148" lon="5.59723">
        <ele>223</ele>
        <time>2012-11-04T09:40:45Z</time>
      </trkpt>
      <trkpt lat="45.60139" lon="5.59723">
        <ele>223</ele>
        <time>2012-11-04T09:40:47Z</time>
      </trkpt>
      <trkpt lat="45.60131" lon="5.59723">
        <ele>223</ele>
        <time>2012-11-04T09:40:49Z</time>
      </trkpt>
      <trkpt lat="45.60124" lon="5.59723">
        <ele>224</ele>
        <time>2012-11-04T09:40:51Z</time>
      </trkpt>
      <trkpt lat="45.60116" lon="5.59723">
        <ele>225</ele>
        <time>2012-11-04T09:40:53Z</time>
      </trkpt>
      <trkpt lat="45.60109" lon="5.59722">
        <ele>225</ele>
        <time>2012-11-04T09:40:55Z</time>
      </trkpt>
      <trkpt lat="45.60102" lon="5.59721">
        <ele>226</ele>
        <time>2012-11-04T09:40:57Z</time>
      </trkpt>
      <trkpt lat="45.60094" lon="5.5972">
        <ele>226</ele>
        <time>2012-11-04T09:40:59Z</time>
      </trkpt>
      <trkpt lat="45.60086" lon="5.59719">
        <ele>226</ele>
        <time>2012-11-04T09:41:01Z</time>
      </trkpt>
      <trkpt lat="45.60078" lon="5.59718">
        <ele>226</ele>
        <time>2012-11-04T09:41:03Z</time>
      </trkpt>
      <trkpt lat="45.60071" lon="5.59718">
        <ele>227</ele>
        <time>2012-11-04T09:41:05Z</time>
      </trkpt>
      <trkpt lat="45.60064" lon="5.59718">
        <ele>227</ele>
        <time>2012-11-04T09:41:07Z</time>
      </trkpt>
      <trkpt lat="45.60056" lon="5.59717">
        <ele>228</ele>
        <time>2012-11-04T09:41:09Z</time>
      </trkpt>
      <trkpt lat="45.60047" lon="5.59717">
        <ele>227</ele>
        <time>2012-11-04T09:41:11Z</time>
      </trkpt>
      <trkpt lat="45.60039" lon="5.59716">
        <ele>227</ele>
        <time>2012-11-04T09:41:13Z</time>
      </trkpt>
      <trkpt lat="45.6003" lon="5.59715">
        <ele>227</ele>
        <time>2012-11-04T09:41:15Z</time>
      </trkpt>
      <trkpt lat="45.60022" lon="5.59714">
        <ele>227</ele>
        <time>2012-11-04T09:41:17Z</time>
      </trkpt>
      <trkpt lat="45.60014" lon="5.59712">
        <ele>227</ele>
        <time>2012-11-04T09:41:19Z</time>
      </trkpt>
      <trkpt lat="45.60005" lon="5.59713">
        <ele>227</ele>
        <time>2012-11-04T09:41:20Z</time>
      </trkpt>
      <trkpt lat="45.6" lon="5.59712">
        <ele>227</ele>
        <time>2012-11-04T09:41:21Z</time>
      </trkpt>
      <trkpt lat="45.59994" lon="5.59711">
        <ele>227</ele>
        <time>2012-11-04T09:41:23Z</time>
      </trkpt>
      <trkpt lat="45.59986" lon="5.59708">
        <ele>227</ele>
        <time>2012-11-04T09:41:25Z</time>
      </trkpt>
      <trkpt lat="45.59981" lon="5.59707">
        <ele>226</ele>
        <time>2012-11-04T09:41:26Z</time>
      </trkpt>
      <trkpt lat="45.59973" lon="5.59707">
        <ele>226</ele>
        <time>2012-11-04T09:41:28Z</time>
      </trkpt>
      <trkpt lat="45.59965" lon="5.59707">
        <ele>226</ele>
        <time>2012-11-04T09:41:30Z</time>
      </trkpt>
      <trkpt lat="45.5996" lon="5.59706">
        <ele>226</ele>
        <time>2012-11-04T09:41:31Z</time>
      </trkpt>
      <trkpt lat="45.59952" lon="5.59705">
        <ele>225</ele>
        <time>2012-11-04T09:41:33Z</time>
      </trkpt>
      <trkpt lat="45.59945" lon="5.59704">
        <ele>225</ele>
        <time>2012-11-04T09:41:35Z</time>
      </trkpt>
      <trkpt lat="45.59938" lon="5.59703">
        <ele>225</ele>
        <time>2012-11-04T09:41:37Z</time>
      </trkpt>
      <trkpt lat="45.5993" lon="5.59703">
        <ele>225</ele>
        <time>2012-11-04T09:41:39Z</time>
      </trkpt>
      <trkpt lat="45.59925" lon="5.59703">
        <ele>225</ele>
        <time>2012-11-04T09:41:40Z</time>
      </trkpt>
      <trkpt lat="45.5992" lon="5.59702">
        <ele>226</ele>
        <time>2012-11-04T09:41:42Z</time>
      </trkpt>
      <trkpt lat="45.59912" lon="5.59701">
        <ele>226</ele>
        <time>2012-11-04T09:41:44Z</time>
      </trkpt>
      <trkpt lat="45.59907" lon="5.597">
        <ele>226</ele>
        <time>2012-11-04T09:41:45Z</time>
      </trkpt>
      <trkpt lat="45.599" lon="5.59698">
        <ele>227</ele>
        <time>2012-11-04T09:41:47Z</time>
      </trkpt>
      <trkpt lat="45.59892" lon="5.59699">
        <ele>228</ele>
        <time>2012-11-04T09:41:49Z</time>
      </trkpt>
      <trkpt lat="45.59884" lon="5.59698">
        <ele>228</ele>
        <time>2012-11-04T09:41:51Z</time>
      </trkpt>
      <trkpt lat="45.59875" lon="5.59698">
        <ele>229</ele>
        <time>2012-11-04T09:41:53Z</time>
      </trkpt>
      <trkpt lat="45.59871" lon="5.59697">
        <ele>229</ele>
        <time>2012-11-04T09:41:54Z</time>
      </trkpt>
      <trkpt lat="45.59866" lon="5.59697">
        <ele>229</ele>
        <time>2012-11-04T09:41:55Z</time>
      </trkpt>
      <trkpt lat="45.59858" lon="5.59696">
        <ele>230</ele>
        <time>2012-11-04T09:41:57Z</time>
      </trkpt>
      <trkpt lat="45.5985" lon="5.59696">
        <ele>231</ele>
        <time>2012-11-04T09:41:59Z</time>
      </trkpt>
      <trkpt lat="45.59844" lon="5.59697">
        <ele>232</ele>
        <time>2012-11-04T09:42:01Z</time>
      </trkpt>
      <trkpt lat="45.59837" lon="5.59698">
        <ele>234</ele>
        <time>2012-11-04T09:42:03Z</time>
      </trkpt>
      <trkpt lat="45.5983" lon="5.59698">
        <ele>234</ele>
        <time>2012-11-04T09:42:05Z</time>
      </trkpt>
      <trkpt lat="45.59822" lon="5.59698">
        <ele>235</ele>
        <time>2012-11-04T09:42:07Z</time>
      </trkpt>
      <trkpt lat="45.59814" lon="5.59698">
        <ele>235</ele>
        <time>2012-11-04T09:42:09Z</time>
      </trkpt>
      <trkpt lat="45.59806" lon="5.59699">
        <ele>236</ele>
        <time>2012-11-04T09:42:11Z</time>
      </trkpt>
      <trkpt lat="45.59798" lon="5.597">
        <ele>237</ele>
        <time>2012-11-04T09:42:13Z</time>
      </trkpt>
      <trkpt lat="45.59792" lon="5.59701">
        <ele>237</ele>
        <time>2012-11-04T09:42:15Z</time>
      </trkpt>
      <trkpt lat="45.59785" lon="5.59702">
        <ele>238</ele>
        <time>2012-11-04T09:42:17Z</time>
      </trkpt>
      <trkpt lat="45.59777" lon="5.59702">
        <ele>238</ele>
        <time>2012-11-04T09:42:19Z</time>
      </trkpt>
      <trkpt lat="45.59769" lon="5.59702">
        <ele>239</ele>
        <time>2012-11-04T09:42:21Z</time>
      </trkpt>
      <trkpt lat="45.59762" lon="5.59703">
        <ele>239</ele>
        <time>2012-11-04T09:42:23Z</time>
      </trkpt>
      <trkpt lat="45.59754" lon="5.59703">
        <ele>239</ele>
        <time>2012-11-04T09:42:25Z</time>
      </trkpt>
      <trkpt lat="45.59748" lon="5.59702">
        <ele>241</ele>
        <time>2012-11-04T09:42:27Z</time>
      </trkpt>
      <trkpt lat="45.59743" lon="5.597">
        <ele>242</ele>
        <time>2012-11-04T09:42:29Z</time>
      </trkpt>
      <trkpt lat="45.59737" lon="5.59699">
        <ele>242</ele>
        <time>2012-11-04T09:42:31Z</time>
      </trkpt>
      <trkpt lat="45.59731" lon="5.59698">
        <ele>242</ele>
        <time>2012-11-04T09:42:32Z</time>
      </trkpt>
      <trkpt lat="45.59723" lon="5.59698">
        <ele>242</ele>
        <time>2012-11-04T09:42:34Z</time>
      </trkpt>
      <trkpt lat="45.59715" lon="5.59699">
        <ele>242</ele>
        <time>2012-11-04T09:42:36Z</time>
      </trkpt>
      <trkpt lat="45.59708" lon="5.59702">
        <ele>241</ele>
        <time>2012-11-04T09:42:38Z</time>
      </trkpt>
      <trkpt lat="45.59701" lon="5.59706">
        <ele>241</ele>
        <time>2012-11-04T09:42:40Z</time>
      </trkpt>
      <trkpt lat="45.59695" lon="5.59709">
        <ele>241</ele>
        <time>2012-11-04T09:42:42Z</time>
      </trkpt>
      <trkpt lat="45.5969" lon="5.59711">
        <ele>240</ele>
        <time>2012-11-04T09:42:44Z</time>
      </trkpt>
      <trkpt lat="45.59685" lon="5.59712">
        <ele>240</ele>
        <time>2012-11-04T09:42:46Z</time>
      </trkpt>
      <trkpt lat="45.59679" lon="5.59713">
        <ele>239</ele>
        <time>2012-11-04T09:42:48Z</time>
      </trkpt>
      <trkpt lat="45.59672" lon="5.59715">
        <ele>239</ele>
        <time>2012-11-04T09:42:50Z</time>
      </trkpt>
      <trkpt lat="45.59665" lon="5.59716">
        <ele>239</ele>
        <time>2012-11-04T09:42:52Z</time>
      </trkpt>
      <trkpt lat="45.59656" lon="5.59715">
        <ele>238</ele>
        <time>2012-11-04T09:42:54Z</time>
      </trkpt>
      <trkpt lat="45.5965" lon="5.59716">
        <ele>238</ele>
        <time>2012-11-04T09:42:56Z</time>
      </trkpt>
      <trkpt lat="45.59643" lon="5.59717">
        <ele>238</ele>
        <time>2012-11-04T09:42:58Z</time>
      </trkpt>
      <trkpt lat="45.59633" lon="5.59719">
        <ele>238</ele>
        <time>2012-11-04T09:43:00Z</time>
      </trkpt>
      <trkpt lat="45.59628" lon="5.5972">
        <ele>238</ele>
        <time>2012-11-04T09:43:01Z</time>
      </trkpt>
      <trkpt lat="45.59624" lon="5.59722">
        <ele>238</ele>
        <time>2012-11-04T09:43:02Z</time>
      </trkpt>
      <trkpt lat="45.59617" lon="5.59725">
        <ele>237</ele>
        <time>2012-11-04T09:43:04Z</time>
      </trkpt>
      <trkpt lat="45.5961" lon="5.59729">
        <ele>237</ele>
        <time>2012-11-04T09:43:06Z</time>
      </trkpt>
      <trkpt lat="45.59603" lon="5.59732">
        <ele>237</ele>
        <time>2012-11-04T09:43:08Z</time>
      </trkpt>
      <trkpt lat="45.59597" lon="5.59734">
        <ele>237</ele>
        <time>2012-11-04T09:43:09Z</time>
      </trkpt>
      <trkpt lat="45.59591" lon="5.59736">
        <ele>237</ele>
        <time>2012-11-04T09:43:10Z</time>
      </trkpt>
      <trkpt lat="45.59582" lon="5.59739">
        <ele>236</ele>
        <time>2012-11-04T09:43:12Z</time>
      </trkpt>
      <trkpt lat="45.59577" lon="5.59741">
        <ele>236</ele>
        <time>2012-11-04T09:43:13Z</time>
      </trkpt>
      <trkpt lat="45.59573" lon="5.59743">
        <ele>236</ele>
        <time>2012-11-04T09:43:14Z</time>
      </trkpt>
      <trkpt lat="45.59566" lon="5.59747">
        <ele>236</ele>
        <time>2012-11-04T09:43:16Z</time>
      </trkpt>
      <trkpt lat="45.59557" lon="5.59751">
        <ele>236</ele>
        <time>2012-11-04T09:43:18Z</time>
      </trkpt>
      <trkpt lat="45.59553" lon="5.59753">
        <ele>236</ele>
        <time>2012-11-04T09:43:19Z</time>
      </trkpt>
      <trkpt lat="45.59549" lon="5.59755">
        <ele>236</ele>
        <time>2012-11-04T09:43:20Z</time>
      </trkpt>
      <trkpt lat="45.59544" lon="5.59757">
        <ele>236</ele>
        <time>2012-11-04T09:43:21Z</time>
      </trkpt>
      <trkpt lat="45.59537" lon="5.5976">
        <ele>236</ele>
        <time>2012-11-04T09:43:23Z</time>
      </trkpt>
      <trkpt lat="45.5953" lon="5.59763">
        <ele>236</ele>
        <time>2012-11-04T09:43:25Z</time>
      </trkpt>
      <trkpt lat="45.59524" lon="5.59766">
        <ele>236</ele>
        <time>2012-11-04T09:43:27Z</time>
      </trkpt>
      <trkpt lat="45.59516" lon="5.59769">
        <ele>236</ele>
        <time>2012-11-04T09:43:29Z</time>
      </trkpt>
      <trkpt lat="45.5951" lon="5.59773">
        <ele>235</ele>
        <time>2012-11-04T09:43:31Z</time>
      </trkpt>
      <trkpt lat="45.59503" lon="5.59776">
        <ele>234</ele>
        <time>2012-11-04T09:43:33Z</time>
      </trkpt>
      <trkpt lat="45.59496" lon="5.5978">
        <ele>234</ele>
        <time>2012-11-04T09:43:35Z</time>
      </trkpt>
      <trkpt lat="45.59488" lon="5.59783">
        <ele>233</ele>
        <time>2012-11-04T09:43:37Z</time>
      </trkpt>
      <trkpt lat="45.5948" lon="5.59787">
        <ele>233</ele>
        <time>2012-11-04T09:43:39Z</time>
      </trkpt>
      <trkpt lat="45.59476" lon="5.59789">
        <ele>233</ele>
        <time>2012-11-04T09:43:40Z</time>
      </trkpt>
      <trkpt lat="45.59467" lon="5.59792">
        <ele>233</ele>
        <time>2012-11-04T09:43:42Z</time>
      </trkpt>
      <trkpt lat="45.59459" lon="5.59796">
        <ele>233</ele>
        <time>2012-11-04T09:43:44Z</time>
      </trkpt>
      <trkpt lat="45.59451" lon="5.59799">
        <ele>233</ele>
        <time>2012-11-04T09:43:46Z</time>
      </trkpt>
      <trkpt lat="45.59446" lon="5.59802">
        <ele>232</ele>
        <time>2012-11-04T09:43:48Z</time>
      </trkpt>
      <trkpt lat="45.59439" lon="5.59805">
        <ele>232</ele>
        <time>2012-11-04T09:43:50Z</time>
      </trkpt>
      <trkpt lat="45.59434" lon="5.59809">
        <ele>232</ele>
        <time>2012-11-04T09:43:52Z</time>
      </trkpt>
      <trkpt lat="45.59427" lon="5.59811">
        <ele>231</ele>
        <time>2012-11-04T09:43:54Z</time>
      </trkpt>
      <trkpt lat="45.5942" lon="5.59814">
        <ele>231</ele>
        <time>2012-11-04T09:43:56Z</time>
      </trkpt>
      <trkpt lat="45.59415" lon="5.59817">
        <ele>231</ele>
        <time>2012-11-04T09:43:58Z</time>
      </trkpt>
      <trkpt lat="45.59408" lon="5.5982">
        <ele>230</ele>
        <time>2012-11-04T09:44:00Z</time>
      </trkpt>
      <trkpt lat="45.59401" lon="5.59824">
        <ele>229</ele>
        <time>2012-11-04T09:44:03Z</time>
      </trkpt>
      <trkpt lat="45.59396" lon="5.5983">
        <ele>229</ele>
        <time>2012-11-04T09:44:06Z</time>
      </trkpt>
      <trkpt lat="45.59389" lon="5.5984">
        <ele>229</ele>
        <time>2012-11-04T09:44:10Z</time>
      </trkpt>
      <trkpt lat="45.59381" lon="5.59846">
        <ele>228</ele>
        <time>2012-11-04T09:44:13Z</time>
      </trkpt>
      <trkpt lat="45.59375" lon="5.5985">
        <ele>228</ele>
        <time>2012-11-04T09:44:15Z</time>
      </trkpt>
      <trkpt lat="45.59368" lon="5.59854">
        <ele>227</ele>
        <time>2012-11-04T09:44:17Z</time>
      </trkpt>
      <trkpt lat="45.59359" lon="5.59859">
        <ele>226</ele>
        <time>2012-11-04T09:44:19Z</time>
      </trkpt>
      <trkpt lat="45.59352" lon="5.59863">
        <ele>225</ele>
        <time>2012-11-04T09:44:21Z</time>
      </trkpt>
      <trkpt lat="45.59348" lon="5.59866">
        <ele>224</ele>
        <time>2012-11-04T09:44:22Z</time>
      </trkpt>
      <trkpt lat="45.59343" lon="5.59868">
        <ele>224</ele>
        <time>2012-11-04T09:44:23Z</time>
      </trkpt>
      <trkpt lat="45.59339" lon="5.59871">
        <ele>224</ele>
        <time>2012-11-04T09:44:24Z</time>
      </trkpt>
      <trkpt lat="45.59331" lon="5.59875">
        <ele>223</ele>
        <time>2012-11-04T09:44:26Z</time>
      </trkpt>
      <trkpt lat="45.59324" lon="5.59878">
        <ele>223</ele>
        <time>2012-11-04T09:44:28Z</time>
      </trkpt>
      <trkpt lat="45.59317" lon="5.59881">
        <ele>223</ele>
        <time>2012-11-04T09:44:30Z</time>
      </trkpt>
      <trkpt lat="45.5931" lon="5.59884">
        <ele>223</ele>
        <time>2012-11-04T09:44:32Z</time>
      </trkpt>
      <trkpt lat="45.59305" lon="5.59888">
        <ele>223</ele>
        <time>2012-11-04T09:44:34Z</time>
      </trkpt>
      <trkpt lat="45.593" lon="5.59892">
        <ele>223</ele>
        <time>2012-11-04T09:44:36Z</time>
      </trkpt>
      <trkpt lat="45.59295" lon="5.59895">
        <ele>224</ele>
        <time>2012-11-04T09:44:38Z</time>
      </trkpt>
      <trkpt lat="45.5929" lon="5.59899">
        <ele>224</ele>
        <time>2012-11-04T09:44:40Z</time>
      </trkpt>
      <trkpt lat="45.59284" lon="5.59902">
        <ele>225</ele>
        <time>2012-11-04T09:44:42Z</time>
      </trkpt>
      <trkpt lat="45.59277" lon="5.59906">
        <ele>225</ele>
        <time>2012-11-04T09:44:44Z</time>
      </trkpt>
      <trkpt lat="45.59272" lon="5.59909">
        <ele>225</ele>
        <time>2012-11-04T09:44:46Z</time>
      </trkpt>
      <trkpt lat="45.59267" lon="5.59913">
        <ele>225</ele>
        <time>2012-11-04T09:44:48Z</time>
      </trkpt>
      <trkpt lat="45.59262" lon="5.59917">
        <ele>224</ele>
        <time>2012-11-04T09:44:50Z</time>
      </trkpt>
      <trkpt lat="45.59258" lon="5.59922">
        <ele>225</ele>
        <time>2012-11-04T09:44:52Z</time>
      </trkpt>
      <trkpt lat="45.59253" lon="5.59926">
        <ele>225</ele>
        <time>2012-11-04T09:44:54Z</time>
      </trkpt>
      <trkpt lat="45.59247" lon="5.59929">
        <ele>226</ele>
        <time>2012-11-04T09:44:56Z</time>
      </trkpt>
      <trkpt lat="45.5924" lon="5.59933">
        <ele>226</ele>
        <time>2012-11-04T09:44:58Z</time>
      </trkpt>
      <trkpt lat="45.59233" lon="5.59936">
        <ele>227</ele>
        <time>2012-11-04T09:45:00Z</time>
      </trkpt>
      <trkpt lat="45.59226" lon="5.5994">
        <ele>227</ele>
        <time>2012-11-04T09:45:02Z</time>
      </trkpt>
      <trkpt lat="45.5922" lon="5.59943">
        <ele>227</ele>
        <time>2012-11-04T09:45:04Z</time>
      </trkpt>
      <trkpt lat="45.59215" lon="5.59948">
        <ele>227</ele>
        <time>2012-11-04T09:45:06Z</time>
      </trkpt>
      <trkpt lat="45.59211" lon="5.59952">
        <ele>227</ele>
        <time>2012-11-04T09:45:08Z</time>
      </trkpt>
      <trkpt lat="45.59205" lon="5.59956">
        <ele>228</ele>
        <time>2012-11-04T09:45:11Z</time>
      </trkpt>
      <trkpt lat="45.59201" lon="5.5996">
        <ele>229</ele>
        <time>2012-11-04T09:45:13Z</time>
      </trkpt>
      <trkpt lat="45.59196" lon="5.59963">
        <ele>231</ele>
        <time>2012-11-04T09:45:15Z</time>
      </trkpt>
      <trkpt lat="45.59191" lon="5.59967">
        <ele>233</ele>
        <time>2012-11-04T09:45:17Z</time>
      </trkpt>
      <trkpt lat="45.59186" lon="5.59973">
        <ele>235</ele>
        <time>2012-11-04T09:45:19Z</time>
      </trkpt>
      <trkpt lat="45.59182" lon="5.59977">
        <ele>236</ele>
        <time>2012-11-04T09:45:21Z</time>
      </trkpt>
      <trkpt lat="45.59177" lon="5.5998">
        <ele>237</ele>
        <time>2012-11-04T09:45:23Z</time>
      </trkpt>
      <trkpt lat="45.59171" lon="5.59983">
        <ele>237</ele>
        <time>2012-11-04T09:45:25Z</time>
      </trkpt>
      <trkpt lat="45.59167" lon="5.59985">
        <ele>238</ele>
        <time>2012-11-04T09:45:27Z</time>
      </trkpt>
      <trkpt lat="45.59154" lon="5.59989">
        <ele>239</ele>
        <time>2012-11-04T09:45:30Z</time>
      </trkpt>
      <trkpt lat="45.59146" lon="5.59991">
        <ele>239</ele>
        <time>2012-11-04T09:45:32Z</time>
      </trkpt>
      <trkpt lat="45.59139" lon="5.59995">
        <ele>240</ele>
        <time>2012-11-04T09:45:34Z</time>
      </trkpt>
      <trkpt lat="45.59132" lon="5.59999">
        <ele>240</ele>
        <time>2012-11-04T09:45:36Z</time>
      </trkpt>
      <trkpt lat="45.59122" lon="5.60007">
        <ele>241</ele>
        <time>2012-11-04T09:45:39Z</time>
      </trkpt>
      <trkpt lat="45.59112" lon="5.60017">
        <ele>241</ele>
        <time>2012-11-04T09:45:42Z</time>
      </trkpt>
      <trkpt lat="45.59108" lon="5.60021">
        <ele>241</ele>
        <time>2012-11-04T09:45:43Z</time>
      </trkpt>
      <trkpt lat="45.59097" lon="5.60028">
        <ele>241</ele>
        <time>2012-11-04T09:45:46Z</time>
      </trkpt>
      <trkpt lat="45.59092" lon="5.60031">
        <ele>241</ele>
        <time>2012-11-04T09:45:47Z</time>
      </trkpt>
      <trkpt lat="45.59087" lon="5.60035">
        <ele>240</ele>
        <time>2012-11-04T09:45:49Z</time>
      </trkpt>
      <trkpt lat="45.59083" lon="5.6004">
        <ele>240</ele>
        <time>2012-11-04T09:45:51Z</time>
      </trkpt>
      <trkpt lat="45.59078" lon="5.60043">
        <ele>239</ele>
        <time>2012-11-04T09:45:53Z</time>
      </trkpt>
      <trkpt lat="45.59072" lon="5.60046">
        <ele>239</ele>
        <time>2012-11-04T09:45:55Z</time>
      </trkpt>
      <trkpt lat="45.59064" lon="5.60049">
        <ele>239</ele>
        <time>2012-11-04T09:45:57Z</time>
      </trkpt>
      <trkpt lat="45.59055" lon="5.60054">
        <ele>239</ele>
        <time>2012-11-04T09:45:59Z</time>
      </trkpt>
      <trkpt lat="45.59048" lon="5.60058">
        <ele>240</ele>
        <time>2012-11-04T09:46:01Z</time>
      </trkpt>
      <trkpt lat="45.59041" lon="5.60063">
        <ele>240</ele>
        <time>2012-11-04T09:46:03Z</time>
      </trkpt>
      <trkpt lat="45.59036" lon="5.60066">
        <ele>239</ele>
        <time>2012-11-04T09:46:04Z</time>
      </trkpt>
      <trkpt lat="45.59029" lon="5.6007">
        <ele>239</ele>
        <time>2012-11-04T09:46:06Z</time>
      </trkpt>
      <trkpt lat="45.59021" lon="5.60076">
        <ele>239</ele>
        <time>2012-11-04T09:46:08Z</time>
      </trkpt>
      <trkpt lat="45.59015" lon="5.60081">
        <ele>238</ele>
        <time>2012-11-04T09:46:10Z</time>
      </trkpt>
      <trkpt lat="45.59009" lon="5.60086">
        <ele>238</ele>
        <time>2012-11-04T09:46:12Z</time>
      </trkpt>
      <trkpt lat="45.59006" lon="5.60091">
        <ele>237</ele>
        <time>2012-11-04T09:46:14Z</time>
      </trkpt>
      <trkpt lat="45.59001" lon="5.60096">
        <ele>237</ele>
        <time>2012-11-04T09:46:16Z</time>
      </trkpt>
      <trkpt lat="45.58997" lon="5.601">
        <ele>238</ele>
        <time>2012-11-04T09:46:18Z</time>
      </trkpt>
      <trkpt lat="45.58992" lon="5.60103">
        <ele>238</ele>
        <time>2012-11-04T09:46:20Z</time>
      </trkpt>
      <trkpt lat="45.58988" lon="5.60104">
        <ele>239</ele>
        <time>2012-11-04T09:46:22Z</time>
      </trkpt>
      <trkpt lat="45.58982" lon="5.60107">
        <ele>240</ele>
        <time>2012-11-04T09:46:24Z</time>
      </trkpt>
      <trkpt lat="45.58977" lon="5.60111">
        <ele>241</ele>
        <time>2012-11-04T09:46:26Z</time>
      </trkpt>
      <trkpt lat="45.58968" lon="5.60114">
        <ele>243</ele>
        <time>2012-11-04T09:46:28Z</time>
      </trkpt>
      <trkpt lat="45.58963" lon="5.60115">
        <ele>244</ele>
        <time>2012-11-04T09:46:29Z</time>
      </trkpt>
      <trkpt lat="45.58959" lon="5.60117">
        <ele>245</ele>
        <time>2012-11-04T09:46:30Z</time>
      </trkpt>
      <trkpt lat="45.5895" lon="5.60119">
        <ele>247</ele>
        <time>2012-11-04T09:46:32Z</time>
      </trkpt>
      <trkpt lat="45.58944" lon="5.60121">
        <ele>248</ele>
        <time>2012-11-04T09:46:34Z</time>
      </trkpt>
      <trkpt lat="45.58937" lon="5.60127">
        <ele>248</ele>
        <time>2012-11-04T09:46:36Z</time>
      </trkpt>
      <trkpt lat="45.58933" lon="5.6013">
        <ele>247</ele>
        <time>2012-11-04T09:46:37Z</time>
      </trkpt>
      <trkpt lat="45.58927" lon="5.60137">
        <ele>247</ele>
        <time>2012-11-04T09:46:39Z</time>
      </trkpt>
      <trkpt lat="45.58923" lon="5.60142">
        <ele>247</ele>
        <time>2012-11-04T09:46:41Z</time>
      </trkpt>
      <trkpt lat="45.5892" lon="5.6015">
        <ele>246</ele>
        <time>2012-11-04T09:46:43Z</time>
      </trkpt>
      <trkpt lat="45.58917" lon="5.60159">
        <ele>245</ele>
        <time>2012-11-04T09:46:45Z</time>
      </trkpt>
      <trkpt lat="45.58914" lon="5.60164">
        <ele>244</ele>
        <time>2012-11-04T09:46:47Z</time>
      </trkpt>
      <trkpt lat="45.5891" lon="5.6017">
        <ele>243</ele>
        <time>2012-11-04T09:46:49Z</time>
      </trkpt>
      <trkpt lat="45.58907" lon="5.60177">
        <ele>242</ele>
        <time>2012-11-04T09:46:51Z</time>
      </trkpt>
      <trkpt lat="45.58904" lon="5.60186">
        <ele>240</ele>
        <time>2012-11-04T09:46:53Z</time>
      </trkpt>
      <trkpt lat="45.589" lon="5.60194">
        <ele>239</ele>
        <time>2012-11-04T09:46:54Z</time>
      </trkpt>
      <trkpt lat="45.58898" lon="5.60199">
        <ele>238</ele>
        <time>2012-11-04T09:46:55Z</time>
      </trkpt>
      <trkpt lat="45.58896" lon="5.6021">
        <ele>237</ele>
        <time>2012-11-04T09:46:57Z</time>
      </trkpt>
      <trkpt lat="45.58895" lon="5.60221">
        <ele>236</ele>
        <time>2012-11-04T09:46:59Z</time>
      </trkpt>
      <trkpt lat="45.58896" lon="5.6023">
        <ele>236</ele>
        <time>2012-11-04T09:47:01Z</time>
      </trkpt>
      <trkpt lat="45.58897" lon="5.60238">
        <ele>236</ele>
        <time>2012-11-04T09:47:03Z</time>
      </trkpt>
      <trkpt lat="45.58898" lon="5.60246">
        <ele>236</ele>
        <time>2012-11-04T09:47:05Z</time>
      </trkpt>
      <trkpt lat="45.58899" lon="5.60254">
        <ele>236</ele>
        <time>2012-11-04T09:47:07Z</time>
      </trkpt>
      <trkpt lat="45.58901" lon="5.60263">
        <ele>237</ele>
        <time>2012-11-04T09:47:09Z</time>
      </trkpt>
      <trkpt lat="45.58903" lon="5.60271">
        <ele>237</ele>
        <time>2012-11-04T09:47:11Z</time>
      </trkpt>
      <trkpt lat="45.58905" lon="5.60281">
        <ele>237</ele>
        <time>2012-11-04T09:47:13Z</time>
      </trkpt>
      <trkpt lat="45.58906" lon="5.60292">
        <ele>237</ele>
        <time>2012-11-04T09:47:15Z</time>
      </trkpt>
      <trkpt lat="45.5891" lon="5.60301">
        <ele>238</ele>
        <time>2012-11-04T09:47:17Z</time>
      </trkpt>
      <trkpt lat="45.58912" lon="5.60307">
        <ele>238</ele>
        <time>2012-11-04T09:47:18Z</time>
      </trkpt>
      <trkpt lat="45.58913" lon="5.60316">
        <ele>238</ele>
        <time>2012-11-04T09:47:20Z</time>
      </trkpt>
      <trkpt lat="45.58911" lon="5.60328">
        <ele>237</ele>
        <time>2012-11-04T09:47:22Z</time>
      </trkpt>
      <trkpt lat="45.58909" lon="5.60336">
        <ele>236</ele>
        <time>2012-11-04T09:47:24Z</time>
      </trkpt>
      <trkpt lat="45.58909" lon="5.60346">
        <ele>235</ele>
        <time>2012-11-04T09:47:26Z</time>
      </trkpt>
      <trkpt lat="45.58911" lon="5.60353">
        <ele>235</ele>
        <time>2012-11-04T09:47:28Z</time>
      </trkpt>
      <trkpt lat="45.58905" lon="5.60353">
        <ele>233</ele>
        <time>2012-11-04T09:47:33Z</time>
      </trkpt>
      <trkpt lat="45.58898" lon="5.60356">
        <ele>233</ele>
        <time>2012-11-04T09:47:35Z</time>
      </trkpt>
      <trkpt lat="45.58892" lon="5.6036">
        <ele>232</ele>
        <time>2012-11-04T09:47:37Z</time>
      </trkpt>
      <trkpt lat="45.58883" lon="5.60372">
        <ele>231</ele>
        <time>2012-11-04T09:47:39Z</time>
      </trkpt>
      <trkpt lat="45.58879" lon="5.60376">
        <ele>231</ele>
        <time>2012-11-04T09:47:40Z</time>
      </trkpt>
      <trkpt lat="45.58872" lon="5.60387">
        <ele>231</ele>
        <time>2012-11-04T09:47:42Z</time>
      </trkpt>
      <trkpt lat="45.58866" lon="5.60393">
        <ele>230</ele>
        <time>2012-11-04T09:47:44Z</time>
      </trkpt>
      <trkpt lat="45.5886" lon="5.60398">
        <ele>229</ele>
        <time>2012-11-04T09:47:46Z</time>
      </trkpt>
      <trkpt lat="45.58854" lon="5.60402">
        <ele>229</ele>
        <time>2012-11-04T09:47:48Z</time>
      </trkpt>
      <trkpt lat="45.58851" lon="5.60408">
        <ele>228</ele>
        <time>2012-11-04T09:47:50Z</time>
      </trkpt>
      <trkpt lat="45.58847" lon="5.60413">
        <ele>228</ele>
        <time>2012-11-04T09:47:52Z</time>
      </trkpt>
      <trkpt lat="45.58844" lon="5.60419">
        <ele>228</ele>
        <time>2012-11-04T09:47:54Z</time>
      </trkpt>
      <trkpt lat="45.58844" lon="5.60426">
        <ele>228</ele>
        <time>2012-11-04T09:47:56Z</time>
      </trkpt>
      <trkpt lat="45.58847" lon="5.60435">
        <ele>227</ele>
        <time>2012-11-04T09:47:58Z</time>
      </trkpt>
      <trkpt lat="45.58851" lon="5.60445">
        <ele>227</ele>
        <time>2012-11-04T09:48:00Z</time>
      </trkpt>
      <trkpt lat="45.58856" lon="5.60453">
        <ele>226</ele>
        <time>2012-11-04T09:48:02Z</time>
      </trkpt>
      <trkpt lat="45.58862" lon="5.60462">
        <ele>225</ele>
        <time>2012-11-04T09:48:04Z</time>
      </trkpt>
      <trkpt lat="45.58867" lon="5.60471">
        <ele>225</ele>
        <time>2012-11-04T09:48:06Z</time>
      </trkpt>
      <trkpt lat="45.58871" lon="5.60477">
        <ele>224</ele>
        <time>2012-11-04T09:48:08Z</time>
      </trkpt>
      <trkpt lat="45.58874" lon="5.60483">
        <ele>224</ele>
        <time>2012-11-04T09:48:10Z</time>
      </trkpt>
      <trkpt lat="45.58877" lon="5.60488">
        <ele>223</ele>
        <time>2012-11-04T09:48:12Z</time>
      </trkpt>
      <trkpt lat="45.5888" lon="5.60494">
        <ele>223</ele>
        <time>2012-11-04T09:48:14Z</time>
      </trkpt>
      <trkpt lat="45.58883" lon="5.605">
        <ele>223</ele>
        <time>2012-11-04T09:48:16Z</time>
      </trkpt>
      <trkpt lat="45.58886" lon="5.60507">
        <ele>223</ele>
        <time>2012-11-04T09:48:19Z</time>
      </trkpt>
      <trkpt lat="45.58889" lon="5.60514">
        <ele>222</ele>
        <time>2012-11-04T09:48:22Z</time>
      </trkpt>
      <trkpt lat="45.58885" lon="5.6052">
        <ele>223</ele>
        <time>2012-11-04T09:48:24Z</time>
      </trkpt>
      <trkpt lat="45.5888" lon="5.60525">
        <ele>223</ele>
        <time>2012-11-04T09:48:26Z</time>
      </trkpt>
      <trkpt lat="45.58875" lon="5.6053">
        <ele>223</ele>
        <time>2012-11-04T09:48:28Z</time>
      </trkpt>
      <trkpt lat="45.58871" lon="5.60537">
        <ele>224</ele>
        <time>2012-11-04T09:48:30Z</time>
      </trkpt>
      <trkpt lat="45.5887" lon="5.60546">
        <ele>224</ele>
        <time>2012-11-04T09:48:32Z</time>
      </trkpt>
      <trkpt lat="45.58869" lon="5.60555">
        <ele>225</ele>
        <time>2012-11-04T09:48:34Z</time>
      </trkpt>
      <trkpt lat="45.58867" lon="5.60563">
        <ele>225</ele>
        <time>2012-11-04T09:48:36Z</time>
      </trkpt>
      <trkpt lat="45.58866" lon="5.60573">
        <ele>226</ele>
        <time>2012-11-04T09:48:38Z</time>
      </trkpt>
      <trkpt lat="45.58865" lon="5.60581">
        <ele>227</ele>
        <time>2012-11-04T09:48:40Z</time>
      </trkpt>
      <trkpt lat="45.58864" lon="5.60588">
        <ele>229</ele>
        <time>2012-11-04T09:48:42Z</time>
      </trkpt>
      <trkpt lat="45.58863" lon="5.60596">
        <ele>230</ele>
        <time>2012-11-04T09:48:44Z</time>
      </trkpt>
      <trkpt lat="45.58859" lon="5.60603">
        <ele>230</ele>
        <time>2012-11-04T09:48:46Z</time>
      </trkpt>
      <trkpt lat="45.58856" lon="5.60611">
        <ele>230</ele>
        <time>2012-11-04T09:48:48Z</time>
      </trkpt>
      <trkpt lat="45.58854" lon="5.60619">
        <ele>230</ele>
        <time>2012-11-04T09:48:50Z</time>
      </trkpt>
      <trkpt lat="45.58852" lon="5.60628">
        <ele>231</ele>
        <time>2012-11-04T09:48:52Z</time>
      </trkpt>
      <trkpt lat="45.58851" lon="5.60636">
        <ele>231</ele>
        <time>2012-11-04T09:48:54Z</time>
      </trkpt>
      <trkpt lat="45.58849" lon="5.60644">
        <ele>232</ele>
        <time>2012-11-04T09:48:56Z</time>
      </trkpt>
      <trkpt lat="45.58847" lon="5.6065">
        <ele>232</ele>
        <time>2012-11-04T09:48:58Z</time>
      </trkpt>
      <trkpt lat="45.58845" lon="5.60657">
        <ele>233</ele>
        <time>2012-11-04T09:49:00Z</time>
      </trkpt>
      <trkpt lat="45.58839" lon="5.60662">
        <ele>233</ele>
        <time>2012-11-04T09:49:02Z</time>
      </trkpt>
      <trkpt lat="45.58832" lon="5.60662">
        <ele>234</ele>
        <time>2012-11-04T09:49:04Z</time>
      </trkpt>
      <trkpt lat="45.58825" lon="5.60662">
        <ele>234</ele>
        <time>2012-11-04T09:49:06Z</time>
      </trkpt>
      <trkpt lat="45.58819" lon="5.60663">
        <ele>234</ele>
        <time>2012-11-04T09:49:08Z</time>
      </trkpt>
      <trkpt lat="45.58814" lon="5.60664">
        <ele>234</ele>
        <time>2012-11-04T09:49:10Z</time>
      </trkpt>
      <trkpt lat="45.58808" lon="5.60665">
        <ele>234</ele>
        <time>2012-11-04T09:49:12Z</time>
      </trkpt>
      <trkpt lat="45.58802" lon="5.60667">
        <ele>234</ele>
        <time>2012-11-04T09:49:14Z</time>
      </trkpt>
      <trkpt lat="45.58798" lon="5.6067">
        <ele>234</ele>
        <time>2012-11-04T09:49:16Z</time>
      </trkpt>
      <trkpt lat="45.58796" lon="5.60676">
        <ele>234</ele>
        <time>2012-11-04T09:49:18Z</time>
      </trkpt>
      <trkpt lat="45.58795" lon="5.60683">
        <ele>234</ele>
        <time>2012-11-04T09:49:20Z</time>
      </trkpt>
      <trkpt lat="45.58795" lon="5.60689">
        <ele>234</ele>
        <time>2012-11-04T09:49:22Z</time>
      </trkpt>
      <trkpt lat="45.58794" lon="5.60696">
        <ele>235</ele>
        <time>2012-11-04T09:49:24Z</time>
      </trkpt>
      <trkpt lat="45.58792" lon="5.60704">
        <ele>236</ele>
        <time>2012-11-04T09:49:27Z</time>
      </trkpt>
      <trkpt lat="45.58787" lon="5.60708">
        <ele>237</ele>
        <time>2012-11-04T09:49:30Z</time>
      </trkpt>
      <trkpt lat="45.58781" lon="5.6071">
        <ele>237</ele>
        <time>2012-11-04T09:49:33Z</time>
      </trkpt>
      <trkpt lat="45.58783" lon="5.60714">
        <ele>236</ele>
        <time>2012-11-04T09:49:55Z</time>
      </trkpt>
      <trkpt lat="45.58777" lon="5.60717">
        <ele>237</ele>
        <time>2012-11-04T09:50:01Z</time>
      </trkpt>
      <trkpt lat="45.58771" lon="5.60718">
        <ele>238</ele>
        <time>2012-11-04T09:50:02Z</time>
      </trkpt>
      <trkpt lat="45.58766" lon="5.60719">
        <ele>239</ele>
        <time>2012-11-04T09:50:04Z</time>
      </trkpt>
      <trkpt lat="45.58761" lon="5.6072">
        <ele>240</ele>
        <time>2012-11-04T09:50:06Z</time>
      </trkpt>
      <trkpt lat="45.58757" lon="5.60722">
        <ele>240</ele>
        <time>2012-11-04T09:50:08Z</time>
      </trkpt>
      <trkpt lat="45.58752" lon="5.60728">
        <ele>240</ele>
        <time>2012-11-04T09:50:10Z</time>
      </trkpt>
      <trkpt lat="45.58749" lon="5.60735">
        <ele>240</ele>
        <time>2012-11-04T09:50:12Z</time>
      </trkpt>
      <trkpt lat="45.58747" lon="5.60742">
        <ele>240</ele>
        <time>2012-11-04T09:50:14Z</time>
      </trkpt>
      <trkpt lat="45.58748" lon="5.60749">
        <ele>241</ele>
        <time>2012-11-04T09:50:15Z</time>
      </trkpt>
      <trkpt lat="45.58749" lon="5.60757">
        <ele>241</ele>
        <time>2012-11-04T09:50:17Z</time>
      </trkpt>
      <trkpt lat="45.58748" lon="5.60766">
        <ele>241</ele>
        <time>2012-11-04T09:50:20Z</time>
      </trkpt>
      <trkpt lat="45.58747" lon="5.60775">
        <ele>240</ele>
        <time>2012-11-04T09:50:22Z</time>
      </trkpt>
      <trkpt lat="45.58747" lon="5.60782">
        <ele>240</ele>
        <time>2012-11-04T09:50:24Z</time>
      </trkpt>
      <trkpt lat="45.58747" lon="5.60792">
        <ele>239</ele>
        <time>2012-11-04T09:50:26Z</time>
      </trkpt>
      <trkpt lat="45.58746" lon="5.608">
        <ele>239</ele>
        <time>2012-11-04T09:50:28Z</time>
      </trkpt>
      <trkpt lat="45.58745" lon="5.60807">
        <ele>239</ele>
        <time>2012-11-04T09:50:30Z</time>
      </trkpt>
      <trkpt lat="45.58745" lon="5.60815">
        <ele>239</ele>
        <time>2012-11-04T09:50:32Z</time>
      </trkpt>
      <trkpt lat="45.58744" lon="5.60824">
        <ele>239</ele>
        <time>2012-11-04T09:50:34Z</time>
      </trkpt>
      <trkpt lat="45.58744" lon="5.60832">
        <ele>239</ele>
        <time>2012-11-04T09:50:36Z</time>
      </trkpt>
      <trkpt lat="45.58743" lon="5.60842">
        <ele>239</ele>
        <time>2012-11-04T09:50:38Z</time>
      </trkpt>
      <trkpt lat="45.58742" lon="5.60853">
        <ele>239</ele>
        <time>2012-11-04T09:50:40Z</time>
      </trkpt>
      <trkpt lat="45.58742" lon="5.60864">
        <ele>239</ele>
        <time>2012-11-04T09:50:42Z</time>
      </trkpt>
      <trkpt lat="45.58743" lon="5.60875">
        <ele>239</ele>
        <time>2012-11-04T09:50:44Z</time>
      </trkpt>
      <trkpt lat="45.58743" lon="5.60886">
        <ele>238</ele>
        <time>2012-11-04T09:50:46Z</time>
      </trkpt>
      <trkpt lat="45.58744" lon="5.60896">
        <ele>240</ele>
        <time>2012-11-04T09:50:48Z</time>
      </trkpt>
      <trkpt lat="45.58743" lon="5.60902">
        <ele>239</ele>
        <time>2012-11-04T09:50:49Z</time>
      </trkpt>
      <trkpt lat="45.58743" lon="5.60913">
        <ele>238</ele>
        <time>2012-11-04T09:50:51Z</time>
      </trkpt>
      <trkpt lat="45.58743" lon="5.60924">
        <ele>237</ele>
        <time>2012-11-04T09:50:53Z</time>
      </trkpt>
      <trkpt lat="45.58744" lon="5.60936">
        <ele>236</ele>
        <time>2012-11-04T09:50:55Z</time>
      </trkpt>
      <trkpt lat="45.58745" lon="5.60947">
        <ele>235</ele>
        <time>2012-11-04T09:50:57Z</time>
      </trkpt>
      <trkpt lat="45.58746" lon="5.60957">
        <ele>235</ele>
        <time>2012-11-04T09:50:59Z</time>
      </trkpt>
      <trkpt lat="45.58745" lon="5.60965">
        <ele>236</ele>
        <time>2012-11-04T09:51:01Z</time>
      </trkpt>
      <trkpt lat="45.58744" lon="5.60973">
        <ele>236</ele>
        <time>2012-11-04T09:51:03Z</time>
      </trkpt>
      <trkpt lat="45.58744" lon="5.60982">
        <ele>237</ele>
        <time>2012-11-04T09:51:05Z</time>
      </trkpt>
      <trkpt lat="45.58745" lon="5.60993">
        <ele>237</ele>
        <time>2012-11-04T09:51:07Z</time>
      </trkpt>
      <trkpt lat="45.58747" lon="5.61006">
        <ele>237</ele>
        <time>2012-11-04T09:51:09Z</time>
      </trkpt>
      <trkpt lat="45.5875" lon="5.61017">
        <ele>238</ele>
        <time>2012-11-04T09:51:11Z</time>
      </trkpt>
      <trkpt lat="45.58751" lon="5.61025">
        <ele>238</ele>
        <time>2012-11-04T09:51:13Z</time>
      </trkpt>
      <trkpt lat="45.58745" lon="5.61029">
        <ele>238</ele>
        <time>2012-11-04T09:51:16Z</time>
      </trkpt>
      <trkpt lat="45.58737" lon="5.61032">
        <ele>237</ele>
        <time>2012-11-04T09:51:18Z</time>
      </trkpt>
      <trkpt lat="45.5873" lon="5.61035">
        <ele>236</ele>
        <time>2012-11-04T09:51:19Z</time>
      </trkpt>
      <trkpt lat="45.58722" lon="5.61039">
        <ele>236</ele>
        <time>2012-11-04T09:51:21Z</time>
      </trkpt>
      <trkpt lat="45.58715" lon="5.61043">
        <ele>236</ele>
        <time>2012-11-04T09:51:23Z</time>
      </trkpt>
      <trkpt lat="45.5871" lon="5.61046">
        <ele>236</ele>
        <time>2012-11-04T09:51:24Z</time>
      </trkpt>
      <trkpt lat="45.58703" lon="5.6105">
        <ele>236</ele>
        <time>2012-11-04T09:51:26Z</time>
      </trkpt>
      <trkpt lat="45.58696" lon="5.61057">
        <ele>236</ele>
        <time>2012-11-04T09:51:28Z</time>
      </trkpt>
      <trkpt lat="45.58691" lon="5.61065">
        <ele>236</ele>
        <time>2012-11-04T09:51:30Z</time>
      </trkpt>
      <trkpt lat="45.58685" lon="5.61073">
        <ele>236</ele>
        <time>2012-11-04T09:51:32Z</time>
      </trkpt>
      <trkpt lat="45.58681" lon="5.61083">
        <ele>236</ele>
        <time>2012-11-04T09:51:34Z</time>
      </trkpt>
      <trkpt lat="45.58676" lon="5.61092">
        <ele>236</ele>
        <time>2012-11-04T09:51:36Z</time>
      </trkpt>
      <trkpt lat="45.5867" lon="5.61101">
        <ele>236</ele>
        <time>2012-11-04T09:51:38Z</time>
      </trkpt>
      <trkpt lat="45.58661" lon="5.61113">
        <ele>236</ele>
        <time>2012-11-04T09:51:41Z</time>
      </trkpt>
      <trkpt lat="45.58658" lon="5.61119">
        <ele>236</ele>
        <time>2012-11-04T09:51:42Z</time>
      </trkpt>
      <trkpt lat="45.58652" lon="5.61128">
        <ele>236</ele>
        <time>2012-11-04T09:51:44Z</time>
      </trkpt>
      <trkpt lat="45.58647" lon="5.61137">
        <ele>236</ele>
        <time>2012-11-04T09:51:46Z</time>
      </trkpt>
      <trkpt lat="45.58642" lon="5.61145">
        <ele>236</ele>
        <time>2012-11-04T09:51:48Z</time>
      </trkpt>
      <trkpt lat="45.58637" lon="5.61152">
        <ele>236</ele>
        <time>2012-11-04T09:51:50Z</time>
      </trkpt>
      <trkpt lat="45.58631" lon="5.61158">
        <ele>236</ele>
        <time>2012-11-04T09:51:52Z</time>
      </trkpt>
      <trkpt lat="45.58625" lon="5.61163">
        <ele>237</ele>
        <time>2012-11-04T09:51:54Z</time>
      </trkpt>
      <trkpt lat="45.5862" lon="5.61167">
        <ele>237</ele>
        <time>2012-11-04T09:51:56Z</time>
      </trkpt>
      <trkpt lat="45.58614" lon="5.61171">
        <ele>237</ele>
        <time>2012-11-04T09:51:58Z</time>
      </trkpt>
      <trkpt lat="45.58609" lon="5.61173">
        <ele>239</ele>
        <time>2012-11-04T09:52:00Z</time>
      </trkpt>
      <trkpt lat="45.58603" lon="5.61172">
        <ele>239</ele>
        <time>2012-11-04T09:52:03Z</time>
      </trkpt>
      <trkpt lat="45.58597" lon="5.61174">
        <ele>241</ele>
        <time>2012-11-04T09:52:05Z</time>
      </trkpt>
      <trkpt lat="45.58592" lon="5.61177">
        <ele>242</ele>
        <time>2012-11-04T09:52:07Z</time>
      </trkpt>
      <trkpt lat="45.58586" lon="5.61181">
        <ele>244</ele>
        <time>2012-11-04T09:52:10Z</time>
      </trkpt>
      <trkpt lat="45.58582" lon="5.61186">
        <ele>244</ele>
        <time>2012-11-04T09:52:12Z</time>
      </trkpt>
      <trkpt lat="45.58576" lon="5.61191">
        <ele>245</ele>
        <time>2012-11-04T09:52:14Z</time>
      </trkpt>
      <trkpt lat="45.58569" lon="5.61195">
        <ele>245</ele>
        <time>2012-11-04T09:52:16Z</time>
      </trkpt>
      <trkpt lat="45.58564" lon="5.61199">
        <ele>246</ele>
        <time>2012-11-04T09:52:18Z</time>
      </trkpt>
      <trkpt lat="45.58558" lon="5.61202">
        <ele>247</ele>
        <time>2012-11-04T09:52:20Z</time>
      </trkpt>
      <trkpt lat="45.58552" lon="5.61204">
        <ele>247</ele>
        <time>2012-11-04T09:52:22Z</time>
      </trkpt>
      <trkpt lat="45.58545" lon="5.61209">
        <ele>248</ele>
        <time>2012-11-04T09:52:24Z</time>
      </trkpt>
      <trkpt lat="45.58538" lon="5.61213">
        <ele>249</ele>
        <time>2012-11-04T09:52:26Z</time>
      </trkpt>
      <trkpt lat="45.58531" lon="5.61216">
        <ele>249</ele>
        <time>2012-11-04T09:52:28Z</time>
      </trkpt>
      <trkpt lat="45.58523" lon="5.61219">
        <ele>249</ele>
        <time>2012-11-04T09:52:30Z</time>
      </trkpt>
      <trkpt lat="45.58516" lon="5.61222">
        <ele>249</ele>
        <time>2012-11-04T09:52:32Z</time>
      </trkpt>
      <trkpt lat="45.58508" lon="5.61225">
        <ele>248</ele>
        <time>2012-11-04T09:52:34Z</time>
      </trkpt>
      <trkpt lat="45.585" lon="5.61228">
        <ele>247</ele>
        <time>2012-11-04T09:52:36Z</time>
      </trkpt>
      <trkpt lat="45.58493" lon="5.6123">
        <ele>247</ele>
        <time>2012-11-04T09:52:38Z</time>
      </trkpt>
      <trkpt lat="45.58487" lon="5.61233">
        <ele>247</ele>
        <time>2012-11-04T09:52:40Z</time>
      </trkpt>
      <trkpt lat="45.5848" lon="5.61235">
        <ele>247</ele>
        <time>2012-11-04T09:52:42Z</time>
      </trkpt>
      <trkpt lat="45.58474" lon="5.61237">
        <ele>247</ele>
        <time>2012-11-04T09:52:44Z</time>
      </trkpt>
      <trkpt lat="45.58467" lon="5.61239">
        <ele>246</ele>
        <time>2012-11-04T09:52:46Z</time>
      </trkpt>
      <trkpt lat="45.58462" lon="5.6124">
        <ele>247</ele>
        <time>2012-11-04T09:52:48Z</time>
      </trkpt>
      <trkpt lat="45.58456" lon="5.61242">
        <ele>247</ele>
        <time>2012-11-04T09:52:50Z</time>
      </trkpt>
      <trkpt lat="45.58449" lon="5.61244">
        <ele>248</ele>
        <time>2012-11-04T09:52:52Z</time>
      </trkpt>
      <trkpt lat="45.58443" lon="5.61245">
        <ele>249</ele>
        <time>2012-11-04T09:52:54Z</time>
      </trkpt>
      <trkpt lat="45.58437" lon="5.61246">
        <ele>249</ele>
        <time>2012-11-04T09:52:56Z</time>
      </trkpt>
      <trkpt lat="45.58431" lon="5.61247">
        <ele>250</ele>
        <time>2012-11-04T09:52:58Z</time>
      </trkpt>
      <trkpt lat="45.58425" lon="5.61249">
        <ele>251</ele>
        <time>2012-11-04T09:53:00Z</time>
      </trkpt>
      <trkpt lat="45.58419" lon="5.61251">
        <ele>251</ele>
        <time>2012-11-04T09:53:02Z</time>
      </trkpt>
      <trkpt lat="45.58412" lon="5.61253">
        <ele>252</ele>
        <time>2012-11-04T09:53:04Z</time>
      </trkpt>
      <trkpt lat="45.58406" lon="5.61255">
        <ele>252</ele>
        <time>2012-11-04T09:53:06Z</time>
      </trkpt>
      <trkpt lat="45.584" lon="5.61257">
        <ele>252</ele>
        <time>2012-11-04T09:53:08Z</time>
      </trkpt>
      <trkpt lat="45.58394" lon="5.61259">
        <ele>252</ele>
        <time>2012-11-04T09:53:10Z</time>
      </trkpt>
      <trkpt lat="45.58388" lon="5.61261">
        <ele>252</ele>
        <time>2012-11-04T09:53:12Z</time>
      </trkpt>
      <trkpt lat="45.58382" lon="5.61263">
        <ele>253</ele>
        <time>2012-11-04T09:53:14Z</time>
      </trkpt>
      <trkpt lat="45.58376" lon="5.61266">
        <ele>253</ele>
        <time>2012-11-04T09:53:16Z</time>
      </trkpt>
      <trkpt lat="45.58369" lon="5.61268">
        <ele>254</ele>
        <time>2012-11-04T09:53:18Z</time>
      </trkpt>
      <trkpt lat="45.58363" lon="5.6127">
        <ele>254</ele>
        <time>2012-11-04T09:53:20Z</time>
      </trkpt>
      <trkpt lat="45.58358" lon="5.61272">
        <ele>255</ele>
        <time>2012-11-04T09:53:22Z</time>
      </trkpt>
      <trkpt lat="45.58352" lon="5.61276">
        <ele>255</ele>
        <time>2012-11-04T09:53:24Z</time>
      </trkpt>
      <trkpt lat="45.58346" lon="5.61279">
        <ele>255</ele>
        <time>2012-11-04T09:53:26Z</time>
      </trkpt>
      <trkpt lat="45.5834" lon="5.61283">
        <ele>256</ele>
        <time>2012-11-04T09:53:28Z</time>
      </trkpt>
      <trkpt lat="45.58336" lon="5.61287">
        <ele>256</ele>
        <time>2012-11-04T09:53:30Z</time>
      </trkpt>
      <trkpt lat="45.58332" lon="5.61293">
        <ele>256</ele>
        <time>2012-11-04T09:53:32Z</time>
      </trkpt>
      <trkpt lat="45.58327" lon="5.61297">
        <ele>256</ele>
        <time>2012-11-04T09:53:34Z</time>
      </trkpt>
      <trkpt lat="45.58323" lon="5.613">
        <ele>257</ele>
        <time>2012-11-04T09:53:36Z</time>
      </trkpt>
      <trkpt lat="45.58316" lon="5.61304">
        <ele>256</ele>
        <time>2012-11-04T09:53:38Z</time>
      </trkpt>
      <trkpt lat="45.58309" lon="5.61308">
        <ele>256</ele>
        <time>2012-11-04T09:53:40Z</time>
      </trkpt>
      <trkpt lat="45.58305" lon="5.61311">
        <ele>255</ele>
        <time>2012-11-04T09:53:41Z</time>
      </trkpt>
      <trkpt lat="45.583" lon="5.61313">
        <ele>255</ele>
        <time>2012-11-04T09:53:42Z</time>
      </trkpt>
      <trkpt lat="45.58293" lon="5.61317">
        <ele>256</ele>
        <time>2012-11-04T09:53:44Z</time>
      </trkpt>
      <trkpt lat="45.58285" lon="5.6132">
        <ele>257</ele>
        <time>2012-11-04T09:53:46Z</time>
      </trkpt>
      <trkpt lat="45.58279" lon="5.61323">
        <ele>258</ele>
        <time>2012-11-04T09:53:48Z</time>
      </trkpt>
      <trkpt lat="45.58273" lon="5.61326">
        <ele>259</ele>
        <time>2012-11-04T09:53:50Z</time>
      </trkpt>
      <trkpt lat="45.58268" lon="5.61329">
        <ele>259</ele>
        <time>2012-11-04T09:53:52Z</time>
      </trkpt>
      <trkpt lat="45.58264" lon="5.61331">
        <ele>259</ele>
        <time>2012-11-04T09:53:54Z</time>
      </trkpt>
      <trkpt lat="45.5826" lon="5.61335">
        <ele>259</ele>
        <time>2012-11-04T09:53:56Z</time>
      </trkpt>
      <trkpt lat="45.58254" lon="5.61341">
        <ele>259</ele>
        <time>2012-11-04T09:53:58Z</time>
      </trkpt>
      <trkpt lat="45.58248" lon="5.61345">
        <ele>258</ele>
        <time>2012-11-04T09:54:00Z</time>
      </trkpt>
      <trkpt lat="45.58238" lon="5.61349">
        <ele>257</ele>
        <time>2012-11-04T09:54:03Z</time>
      </trkpt>
      <trkpt lat="45.58233" lon="5.6135">
        <ele>256</ele>
        <time>2012-11-04T09:54:04Z</time>
      </trkpt>
      <trkpt lat="45.58228" lon="5.6135">
        <ele>254</ele>
        <time>2012-11-04T09:54:05Z</time>
      </trkpt>
      <trkpt lat="45.58222" lon="5.6135">
        <ele>253</ele>
        <time>2012-11-04T09:54:06Z</time>
      </trkpt>
      <trkpt lat="45.58211" lon="5.61348">
        <ele>252</ele>
        <time>2012-11-04T09:54:08Z</time>
      </trkpt>
      <trkpt lat="45.58206" lon="5.61348">
        <ele>251</ele>
        <time>2012-11-04T09:54:09Z</time>
      </trkpt>
      <trkpt lat="45.58202" lon="5.61347">
        <ele>251</ele>
        <time>2012-11-04T09:54:10Z</time>
      </trkpt>
      <trkpt lat="45.58194" lon="5.61346">
        <ele>250</ele>
        <time>2012-11-04T09:54:12Z</time>
      </trkpt>
      <trkpt lat="45.58187" lon="5.61346">
        <ele>250</ele>
        <time>2012-11-04T09:54:14Z</time>
      </trkpt>
      <trkpt lat="45.5818" lon="5.61345">
        <ele>249</ele>
        <time>2012-11-04T09:54:16Z</time>
      </trkpt>
      <trkpt lat="45.58174" lon="5.61344">
        <ele>249</ele>
        <time>2012-11-04T09:54:18Z</time>
      </trkpt>
      <trkpt lat="45.58167" lon="5.61343">
        <ele>249</ele>
        <time>2012-11-04T09:54:20Z</time>
      </trkpt>
      <trkpt lat="45.58159" lon="5.61342">
        <ele>250</ele>
        <time>2012-11-04T09:54:22Z</time>
      </trkpt>
      <trkpt lat="45.58153" lon="5.61342">
        <ele>250</ele>
        <time>2012-11-04T09:54:24Z</time>
      </trkpt>
      <trkpt lat="45.58148" lon="5.61341">
        <ele>250</ele>
        <time>2012-11-04T09:54:26Z</time>
      </trkpt>
      <trkpt lat="45.58142" lon="5.6134">
        <ele>251</ele>
        <time>2012-11-04T09:54:28Z</time>
      </trkpt>
      <trkpt lat="45.58137" lon="5.61339">
        <ele>251</ele>
        <time>2012-11-04T09:54:30Z</time>
      </trkpt>
      <trkpt lat="45.58132" lon="5.61337">
        <ele>251</ele>
        <time>2012-11-04T09:54:32Z</time>
      </trkpt>
      <trkpt lat="45.58127" lon="5.61336">
        <ele>252</ele>
        <time>2012-11-04T09:54:34Z</time>
      </trkpt>
      <trkpt lat="45.58123" lon="5.61335">
        <ele>252</ele>
        <time>2012-11-04T09:54:36Z</time>
      </trkpt>
      <trkpt lat="45.58118" lon="5.61334">
        <ele>253</ele>
        <time>2012-11-04T09:54:38Z</time>
      </trkpt>
      <trkpt lat="45.58112" lon="5.61333">
        <ele>253</ele>
        <time>2012-11-04T09:54:40Z</time>
      </trkpt>
      <trkpt lat="45.58107" lon="5.61332">
        <ele>253</ele>
        <time>2012-11-04T09:54:42Z</time>
      </trkpt>
      <trkpt lat="45.581" lon="5.61331">
        <ele>254</ele>
        <time>2012-11-04T09:54:43Z</time>
      </trkpt>
      <trkpt lat="45.58095" lon="5.61331">
        <ele>254</ele>
        <time>2012-11-04T09:54:45Z</time>
      </trkpt>
      <trkpt lat="45.58089" lon="5.61332">
        <ele>255</ele>
        <time>2012-11-04T09:54:48Z</time>
      </trkpt>
      <trkpt lat="45.58084" lon="5.61331">
        <ele>256</ele>
        <time>2012-11-04T09:54:50Z</time>
      </trkpt>
      <trkpt lat="45.58078" lon="5.61331">
        <ele>258</ele>
        <time>2012-11-04T09:54:53Z</time>
      </trkpt>
      <trkpt lat="45.58074" lon="5.61333">
        <ele>258</ele>
        <time>2012-11-04T09:54:56Z</time>
      </trkpt>
      <trkpt lat="45.58069" lon="5.61335">
        <ele>259</ele>
        <time>2012-11-04T09:55:00Z</time>
      </trkpt>
      <trkpt lat="45.58063" lon="5.61338">
        <ele>260</ele>
        <time>2012-11-04T09:55:03Z</time>
      </trkpt>
      <trkpt lat="45.58058" lon="5.61342">
        <ele>261</ele>
        <time>2012-11-04T09:55:05Z</time>
      </trkpt>
      <trkpt lat="45.58053" lon="5.61346">
        <ele>262</ele>
        <time>2012-11-04T09:55:07Z</time>
      </trkpt>
      <trkpt lat="45.58049" lon="5.61351">
        <ele>262</ele>
        <time>2012-11-04T09:55:09Z</time>
      </trkpt>
      <trkpt lat="45.58045" lon="5.61357">
        <ele>262</ele>
        <time>2012-11-04T09:55:11Z</time>
      </trkpt>
      <trkpt lat="45.58041" lon="5.61363">
        <ele>263</ele>
        <time>2012-11-04T09:55:13Z</time>
      </trkpt>
      <trkpt lat="45.58037" lon="5.61369">
        <ele>264</ele>
        <time>2012-11-04T09:55:15Z</time>
      </trkpt>
      <trkpt lat="45.58033" lon="5.61375">
        <ele>265</ele>
        <time>2012-11-04T09:55:17Z</time>
      </trkpt>
      <trkpt lat="45.58029" lon="5.6138">
        <ele>265</ele>
        <time>2012-11-04T09:55:19Z</time>
      </trkpt>
      <trkpt lat="45.58024" lon="5.61385">
        <ele>265</ele>
        <time>2012-11-04T09:55:21Z</time>
      </trkpt>
      <trkpt lat="45.58016" lon="5.61396">
        <ele>265</ele>
        <time>2012-11-04T09:55:25Z</time>
      </trkpt>
      <trkpt lat="45.58011" lon="5.61404">
        <ele>265</ele>
        <time>2012-11-04T09:55:28Z</time>
      </trkpt>
      <trkpt lat="45.58008" lon="5.6141">
        <ele>265</ele>
        <time>2012-11-04T09:55:30Z</time>
      </trkpt>
      <trkpt lat="45.58006" lon="5.61418">
        <ele>265</ele>
        <time>2012-11-04T09:55:32Z</time>
      </trkpt>
      <trkpt lat="45.58003" lon="5.61425">
        <ele>264</ele>
        <time>2012-11-04T09:55:34Z</time>
      </trkpt>
      <trkpt lat="45.58001" lon="5.61432">
        <ele>264</ele>
        <time>2012-11-04T09:55:36Z</time>
      </trkpt>
      <trkpt lat="45.57997" lon="5.6144">
        <ele>264</ele>
        <time>2012-11-04T09:55:39Z</time>
      </trkpt>
      <trkpt lat="45.57995" lon="5.61446">
        <ele>264</ele>
        <time>2012-11-04T09:55:41Z</time>
      </trkpt>
      <trkpt lat="45.57992" lon="5.61452">
        <ele>264</ele>
        <time>2012-11-04T09:55:43Z</time>
      </trkpt>
      <trkpt lat="45.57991" lon="5.6146">
        <ele>263</ele>
        <time>2012-11-04T09:55:45Z</time>
      </trkpt>
      <trkpt lat="45.57989" lon="5.61467">
        <ele>263</ele>
        <time>2012-11-04T09:55:47Z</time>
      </trkpt>
      <trkpt lat="45.57987" lon="5.61474">
        <ele>263</ele>
        <time>2012-11-04T09:55:49Z</time>
      </trkpt>
      <trkpt lat="45.57984" lon="5.61481">
        <ele>262</ele>
        <time>2012-11-04T09:55:51Z</time>
      </trkpt>
      <trkpt lat="45.57982" lon="5.61487">
        <ele>262</ele>
        <time>2012-11-04T09:55:53Z</time>
      </trkpt>
      <trkpt lat="45.57979" lon="5.61494">
        <ele>262</ele>
        <time>2012-11-04T09:55:55Z</time>
      </trkpt>
      <trkpt lat="45.57976" lon="5.61502">
        <ele>261</ele>
        <time>2012-11-04T09:55:57Z</time>
      </trkpt>
      <trkpt lat="45.57974" lon="5.6151">
        <ele>261</ele>
        <time>2012-11-04T09:55:59Z</time>
      </trkpt>
      <trkpt lat="45.57971" lon="5.61518">
        <ele>260</ele>
        <time>2012-11-04T09:56:01Z</time>
      </trkpt>
      <trkpt lat="45.57968" lon="5.61525">
        <ele>259</ele>
        <time>2012-11-04T09:56:03Z</time>
      </trkpt>
      <trkpt lat="45.57965" lon="5.61532">
        <ele>259</ele>
        <time>2012-11-04T09:56:05Z</time>
      </trkpt>
      <trkpt lat="45.57962" lon="5.61539">
        <ele>259</ele>
        <time>2012-11-04T09:56:07Z</time>
      </trkpt>
      <trkpt lat="45.57959" lon="5.61547">
        <ele>258</ele>
        <time>2012-11-04T09:56:09Z</time>
      </trkpt>
      <trkpt lat="45.57955" lon="5.61554">
        <ele>259</ele>
        <time>2012-11-04T09:56:11Z</time>
      </trkpt>
      <trkpt lat="45.57953" lon="5.6156">
        <ele>259</ele>
        <time>2012-11-04T09:56:13Z</time>
      </trkpt>
      <trkpt lat="45.57949" lon="5.61567">
        <ele>259</ele>
        <time>2012-11-04T09:56:15Z</time>
      </trkpt>
      <trkpt lat="45.57945" lon="5.61573">
        <ele>259</ele>
        <time>2012-11-04T09:56:17Z</time>
      </trkpt>
      <trkpt lat="45.57941" lon="5.6158">
        <ele>259</ele>
        <time>2012-11-04T09:56:19Z</time>
      </trkpt>
      <trkpt lat="45.57937" lon="5.61588">
        <ele>260</ele>
        <time>2012-11-04T09:56:21Z</time>
      </trkpt>
      <trkpt lat="45.57933" lon="5.61595">
        <ele>260</ele>
        <time>2012-11-04T09:56:23Z</time>
      </trkpt>
      <trkpt lat="45.57928" lon="5.61602">
        <ele>259</ele>
        <time>2012-11-04T09:56:25Z</time>
      </trkpt>
      <trkpt lat="45.57923" lon="5.6161">
        <ele>259</ele>
        <time>2012-11-04T09:56:27Z</time>
      </trkpt>
      <trkpt lat="45.57918" lon="5.61617">
        <ele>259</ele>
        <time>2012-11-04T09:56:29Z</time>
      </trkpt>
      <trkpt lat="45.57913" lon="5.61624">
        <ele>259</ele>
        <time>2012-11-04T09:56:31Z</time>
      </trkpt>
      <trkpt lat="45.57908" lon="5.61631">
        <ele>259</ele>
        <time>2012-11-04T09:56:33Z</time>
      </trkpt>
      <trkpt lat="45.57904" lon="5.61637">
        <ele>259</ele>
        <time>2012-11-04T09:56:35Z</time>
      </trkpt>
      <trkpt lat="45.57899" lon="5.61644">
        <ele>260</ele>
        <time>2012-11-04T09:56:37Z</time>
      </trkpt>
      <trkpt lat="45.57894" lon="5.6165">
        <ele>259</ele>
        <time>2012-11-04T09:56:39Z</time>
      </trkpt>
      <trkpt lat="45.57889" lon="5.61656">
        <ele>258</ele>
        <time>2012-11-04T09:56:41Z</time>
      </trkpt>
      <trkpt lat="45.57885" lon="5.61662">
        <ele>257</ele>
        <time>2012-11-04T09:56:43Z</time>
      </trkpt>
      <trkpt lat="45.5788" lon="5.61668">
        <ele>256</ele>
        <time>2012-11-04T09:56:45Z</time>
      </trkpt>
      <trkpt lat="45.57876" lon="5.61673">
        <ele>256</ele>
        <time>2012-11-04T09:56:47Z</time>
      </trkpt>
      <trkpt lat="45.57871" lon="5.61679">
        <ele>255</ele>
        <time>2012-11-04T09:56:49Z</time>
      </trkpt>
      <trkpt lat="45.57866" lon="5.61685">
        <ele>255</ele>
        <time>2012-11-04T09:56:51Z</time>
      </trkpt>
      <trkpt lat="45.57861" lon="5.61691">
        <ele>255</ele>
        <time>2012-11-04T09:56:53Z</time>
      </trkpt>
      <trkpt lat="45.57858" lon="5.61698">
        <ele>255</ele>
        <time>2012-11-04T09:56:55Z</time>
      </trkpt>
      <trkpt lat="45.57858" lon="5.61706">
        <ele>254</ele>
        <time>2012-11-04T09:56:57Z</time>
      </trkpt>
      <trkpt lat="45.5786" lon="5.61715">
        <ele>254</ele>
        <time>2012-11-04T09:56:59Z</time>
      </trkpt>
      <trkpt lat="45.57861" lon="5.61721">
        <ele>254</ele>
        <time>2012-11-04T09:57:01Z</time>
      </trkpt>
      <trkpt lat="45.57863" lon="5.61729">
        <ele>254</ele>
        <time>2012-11-04T09:57:04Z</time>
      </trkpt>
      <trkpt lat="45.57865" lon="5.61736">
        <ele>255</ele>
        <time>2012-11-04T09:57:07Z</time>
      </trkpt>
      <trkpt lat="45.57866" lon="5.61744">
        <ele>255</ele>
        <time>2012-11-04T09:57:09Z</time>
      </trkpt>
      <trkpt lat="45.57867" lon="5.61752">
        <ele>255</ele>
        <time>2012-11-04T09:57:11Z</time>
      </trkpt>
      <trkpt lat="45.57869" lon="5.6176">
        <ele>255</ele>
        <time>2012-11-04T09:57:13Z</time>
      </trkpt>
      <trkpt lat="45.5787" lon="5.61769">
        <ele>255</ele>
        <time>2012-11-04T09:57:15Z</time>
      </trkpt>
      <trkpt lat="45.57871" lon="5.61777">
        <ele>255</ele>
        <time>2012-11-04T09:57:17Z</time>
      </trkpt>
      <trkpt lat="45.57872" lon="5.61786">
        <ele>255</ele>
        <time>2012-11-04T09:57:19Z</time>
      </trkpt>
      <trkpt lat="45.57874" lon="5.61795">
        <ele>254</ele>
        <time>2012-11-04T09:57:21Z</time>
      </trkpt>
      <trkpt lat="45.57876" lon="5.61807">
        <ele>254</ele>
        <time>2012-11-04T09:57:23Z</time>
      </trkpt>
      <trkpt lat="45.57878" lon="5.61819">
        <ele>254</ele>
        <time>2012-11-04T09:57:25Z</time>
      </trkpt>
      <trkpt lat="45.5788" lon="5.61831">
        <ele>254</ele>
        <time>2012-11-04T09:57:27Z</time>
      </trkpt>
      <trkpt lat="45.57881" lon="5.61838">
        <ele>254</ele>
        <time>2012-11-04T09:57:28Z</time>
      </trkpt>
      <trkpt lat="45.57882" lon="5.61849">
        <ele>254</ele>
        <time>2012-11-04T09:57:30Z</time>
      </trkpt>
      <trkpt lat="45.57884" lon="5.6186">
        <ele>254</ele>
        <time>2012-11-04T09:57:32Z</time>
      </trkpt>
      <trkpt lat="45.57885" lon="5.6187">
        <ele>254</ele>
        <time>2012-11-04T09:57:34Z</time>
      </trkpt>
      <trkpt lat="45.57886" lon="5.61878">
        <ele>253</ele>
        <time>2012-11-04T09:57:36Z</time>
      </trkpt>
      <trkpt lat="45.57888" lon="5.61887">
        <ele>253</ele>
        <time>2012-11-04T09:57:38Z</time>
      </trkpt>
      <trkpt lat="45.57891" lon="5.61895">
        <ele>253</ele>
        <time>2012-11-04T09:57:40Z</time>
      </trkpt>
      <trkpt lat="45.57894" lon="5.61904">
        <ele>254</ele>
        <time>2012-11-04T09:57:42Z</time>
      </trkpt>
      <trkpt lat="45.57899" lon="5.61912">
        <ele>253</ele>
        <time>2012-11-04T09:57:44Z</time>
      </trkpt>
      <trkpt lat="45.57906" lon="5.61919">
        <ele>253</ele>
        <time>2012-11-04T09:57:46Z</time>
      </trkpt>
      <trkpt lat="45.57913" lon="5.61924">
        <ele>253</ele>
        <time>2012-11-04T09:57:48Z</time>
      </trkpt>
      <trkpt lat="45.57921" lon="5.61928">
        <ele>253</ele>
        <time>2012-11-04T09:57:50Z</time>
      </trkpt>
      <trkpt lat="45.57929" lon="5.61931">
        <ele>254</ele>
        <time>2012-11-04T09:57:52Z</time>
      </trkpt>
      <trkpt lat="45.57936" lon="5.61935">
        <ele>254</ele>
        <time>2012-11-04T09:57:54Z</time>
      </trkpt>
      <trkpt lat="45.57942" lon="5.61938">
        <ele>254</ele>
        <time>2012-11-04T09:57:56Z</time>
      </trkpt>
      <trkpt lat="45.57947" lon="5.61942">
        <ele>254</ele>
        <time>2012-11-04T09:57:58Z</time>
      </trkpt>
      <trkpt lat="45.5795" lon="5.6195">
        <ele>254</ele>
        <time>2012-11-04T09:58:00Z</time>
      </trkpt>
      <trkpt lat="45.57949" lon="5.61959">
        <ele>254</ele>
        <time>2012-11-04T09:58:02Z</time>
      </trkpt>
      <trkpt lat="45.57945" lon="5.61969">
        <ele>255</ele>
        <time>2012-11-04T09:58:04Z</time>
      </trkpt>
      <trkpt lat="45.57942" lon="5.61978">
        <ele>255</ele>
        <time>2012-11-04T09:58:06Z</time>
      </trkpt>
      <trkpt lat="45.57939" lon="5.6199">
        <ele>255</ele>
        <time>2012-11-04T09:58:08Z</time>
      </trkpt>
      <trkpt lat="45.57938" lon="5.61996">
        <ele>255</ele>
        <time>2012-11-04T09:58:09Z</time>
      </trkpt>
      <trkpt lat="45.57935" lon="5.62006">
        <ele>255</ele>
        <time>2012-11-04T09:58:10Z</time>
      </trkpt>
      <trkpt lat="45.57933" lon="5.62012">
        <ele>255</ele>
        <time>2012-11-04T09:58:11Z</time>
      </trkpt>
      <trkpt lat="45.5793" lon="5.62022">
        <ele>254</ele>
        <time>2012-11-04T09:58:12Z</time>
      </trkpt>
      <trkpt lat="45.57927" lon="5.62031">
        <ele>254</ele>
        <time>2012-11-04T09:58:13Z</time>
      </trkpt>
      <trkpt lat="45.57925" lon="5.62041">
        <ele>253</ele>
        <time>2012-11-04T09:58:14Z</time>
      </trkpt>
      <trkpt lat="45.57923" lon="5.6205">
        <ele>253</ele>
        <time>2012-11-04T09:58:15Z</time>
      </trkpt>
      <trkpt lat="45.57921" lon="5.62058">
        <ele>252</ele>
        <time>2012-11-04T09:58:16Z</time>
      </trkpt>
      <trkpt lat="45.57918" lon="5.62065">
        <ele>252</ele>
        <time>2012-11-04T09:58:17Z</time>
      </trkpt>
      <trkpt lat="45.57908" lon="5.6207">
        <ele>251</ele>
        <time>2012-11-04T09:58:18Z</time>
      </trkpt>
      <trkpt lat="45.57906" lon="5.62092">
        <ele>250</ele>
        <time>2012-11-04T09:58:20Z</time>
      </trkpt>
      <trkpt lat="45.57907" lon="5.62111">
        <ele>250</ele>
        <time>2012-11-04T09:58:22Z</time>
      </trkpt>
      <trkpt lat="45.57907" lon="5.62122">
        <ele>250</ele>
        <time>2012-11-04T09:58:23Z</time>
      </trkpt>
      <trkpt lat="45.57907" lon="5.62132">
        <ele>250</ele>
        <time>2012-11-04T09:58:24Z</time>
      </trkpt>
      <trkpt lat="45.57908" lon="5.62144">
        <ele>250</ele>
        <time>2012-11-04T09:58:25Z</time>
      </trkpt>
      <trkpt lat="45.57908" lon="5.62156">
        <ele>249</ele>
        <time>2012-11-04T09:58:26Z</time>
      </trkpt>
      <trkpt lat="45.57908" lon="5.62165">
        <ele>249</ele>
        <time>2012-11-04T09:58:27Z</time>
      </trkpt>
      <trkpt lat="45.57909" lon="5.62177">
        <ele>249</ele>
        <time>2012-11-04T09:58:28Z</time>
      </trkpt>
      <trkpt lat="45.57909" lon="5.62188">
        <ele>249</ele>
        <time>2012-11-04T09:58:29Z</time>
      </trkpt>
      <trkpt lat="45.5791" lon="5.62198">
        <ele>248</ele>
        <time>2012-11-04T09:58:30Z</time>
      </trkpt>
      <trkpt lat="45.5791" lon="5.62211">
        <ele>248</ele>
        <time>2012-11-04T09:58:31Z</time>
      </trkpt>
      <trkpt lat="45.5791" lon="5.62222">
        <ele>247</ele>
        <time>2012-11-04T09:58:32Z</time>
      </trkpt>
      <trkpt lat="45.57911" lon="5.6223">
        <ele>246</ele>
        <time>2012-11-04T09:58:33Z</time>
      </trkpt>
      <trkpt lat="45.57915" lon="5.62297">
        <ele>243</ele>
        <time>2012-11-04T09:58:38Z</time>
      </trkpt>
      <trkpt lat="45.57915" lon="5.6231">
        <ele>242</ele>
        <time>2012-11-04T09:58:39Z</time>
      </trkpt>
      <trkpt lat="45.57916" lon="5.62323">
        <ele>241</ele>
        <time>2012-11-04T09:58:40Z</time>
      </trkpt>
      <trkpt lat="45.57904" lon="5.62333">
        <ele>241</ele>
        <time>2012-11-04T09:58:41Z</time>
      </trkpt>
      <trkpt lat="45.57905" lon="5.62343">
        <ele>240</ele>
        <time>2012-11-04T09:58:42Z</time>
      </trkpt>
      <trkpt lat="45.57905" lon="5.62353">
        <ele>240</ele>
        <time>2012-11-04T09:58:43Z</time>
      </trkpt>
      <trkpt lat="45.57905" lon="5.62363">
        <ele>240</ele>
        <time>2012-11-04T09:58:44Z</time>
      </trkpt>
      <trkpt lat="45.57905" lon="5.62372">
        <ele>239</ele>
        <time>2012-11-04T09:58:45Z</time>
      </trkpt>
      <trkpt lat="45.57905" lon="5.62382">
        <ele>239</ele>
        <time>2012-11-04T09:58:46Z</time>
      </trkpt>
      <trkpt lat="45.57905" lon="5.62391">
        <ele>239</ele>
        <time>2012-11-04T09:58:47Z</time>
      </trkpt>
      <trkpt lat="45.57905" lon="5.62405">
        <ele>238</ele>
        <time>2012-11-04T09:58:49Z</time>
      </trkpt>
      <trkpt lat="45.57905" lon="5.62421">
        <ele>238</ele>
        <time>2012-11-04T09:58:52Z</time>
      </trkpt>
      <trkpt lat="45.57905" lon="5.62431">
        <ele>238</ele>
        <time>2012-11-04T09:58:53Z</time>
      </trkpt>
      <trkpt lat="45.57905" lon="5.6244">
        <ele>238</ele>
        <time>2012-11-04T09:58:54Z</time>
      </trkpt>
      <trkpt lat="45.57905" lon="5.62452">
        <ele>238</ele>
        <time>2012-11-04T09:58:55Z</time>
      </trkpt>
      <trkpt lat="45.57905" lon="5.6246">
        <ele>238</ele>
        <time>2012-11-04T09:58:56Z</time>
      </trkpt>
      <trkpt lat="45.57904" lon="5.62469">
        <ele>238</ele>
        <time>2012-11-04T09:58:57Z</time>
      </trkpt>
      <trkpt lat="45.57904" lon="5.62477">
        <ele>238</ele>
        <time>2012-11-04T09:58:58Z</time>
      </trkpt>
      <trkpt lat="45.57904" lon="5.62487">
        <ele>239</ele>
        <time>2012-11-04T09:58:59Z</time>
      </trkpt>
      <trkpt lat="45.57904" lon="5.62496">
        <ele>239</ele>
        <time>2012-11-04T09:59:00Z</time>
      </trkpt>
      <trkpt lat="45.57904" lon="5.62506">
        <ele>239</ele>
        <time>2012-11-04T09:59:01Z</time>
      </trkpt>
      <trkpt lat="45.57904" lon="5.62514">
        <ele>239</ele>
        <time>2012-11-04T09:59:02Z</time>
      </trkpt>
      <trkpt lat="45.57904" lon="5.62521">
        <ele>239</ele>
        <time>2012-11-04T09:59:03Z</time>
      </trkpt>
      <trkpt lat="45.57903" lon="5.62531">
        <ele>240</ele>
        <time>2012-11-04T09:59:05Z</time>
      </trkpt>
      <trkpt lat="45.57903" lon="5.62545">
        <ele>239</ele>
        <time>2012-11-04T09:59:07Z</time>
      </trkpt>
      <trkpt lat="45.57917" lon="5.62551">
        <ele>238</ele>
        <time>2012-11-04T09:59:09Z</time>
      </trkpt>
      <trkpt lat="45.5791" lon="5.62553">
        <ele>237</ele>
        <time>2012-11-04T09:59:11Z</time>
      </trkpt>
      <trkpt lat="45.57889" lon="5.62557">
        <ele>237</ele>
        <time>2012-11-04T09:59:17Z</time>
      </trkpt>
      <trkpt lat="45.57877" lon="5.62555">
        <ele>236</ele>
        <time>2012-11-04T09:59:20Z</time>
      </trkpt>
      <trkpt lat="45.57869" lon="5.62557">
        <ele>237</ele>
        <time>2012-11-04T09:59:22Z</time>
      </trkpt>
      <trkpt lat="45.57862" lon="5.6256">
        <ele>237</ele>
        <time>2012-11-04T09:59:24Z</time>
      </trkpt>
      <trkpt lat="45.57855" lon="5.62565">
        <ele>237</ele>
        <time>2012-11-04T09:59:26Z</time>
      </trkpt>
      <trkpt lat="45.57849" lon="5.62569">
        <ele>238</ele>
        <time>2012-11-04T09:59:28Z</time>
      </trkpt>
      <trkpt lat="45.57843" lon="5.62576">
        <ele>238</ele>
        <time>2012-11-04T09:59:30Z</time>
      </trkpt>
      <trkpt lat="45.57838" lon="5.62584">
        <ele>239</ele>
        <time>2012-11-04T09:59:32Z</time>
      </trkpt>
      <trkpt lat="45.57834" lon="5.62595">
        <ele>240</ele>
        <time>2012-11-04T09:59:34Z</time>
      </trkpt>
      <trkpt lat="45.57832" lon="5.62601">
        <ele>240</ele>
        <time>2012-11-04T09:59:35Z</time>
      </trkpt>
      <trkpt lat="45.57829" lon="5.62613">
        <ele>240</ele>
        <time>2012-11-04T09:59:37Z</time>
      </trkpt>
      <trkpt lat="45.57826" lon="5.62624">
        <ele>240</ele>
        <time>2012-11-04T09:59:39Z</time>
      </trkpt>
      <trkpt lat="45.57824" lon="5.62635">
        <ele>241</ele>
        <time>2012-11-04T09:59:41Z</time>
      </trkpt>
      <trkpt lat="45.57821" lon="5.62647">
        <ele>241</ele>
        <time>2012-11-04T09:59:43Z</time>
      </trkpt>
      <trkpt lat="45.57818" lon="5.62658">
        <ele>241</ele>
        <time>2012-11-04T09:59:45Z</time>
      </trkpt>
      <trkpt lat="45.57816" lon="5.62668">
        <ele>241</ele>
        <time>2012-11-04T09:59:47Z</time>
      </trkpt>
      <trkpt lat="45.57814" lon="5.6268">
        <ele>241</ele>
        <time>2012-11-04T09:59:48Z</time>
      </trkpt>
      <trkpt lat="45.57812" lon="5.62687">
        <ele>242</ele>
        <time>2012-11-04T09:59:49Z</time>
      </trkpt>
      <trkpt lat="45.5781" lon="5.62697">
        <ele>242</ele>
        <time>2012-11-04T09:59:50Z</time>
      </trkpt>
      <trkpt lat="45.57809" lon="5.62704">
        <ele>242</ele>
        <time>2012-11-04T09:59:51Z</time>
      </trkpt>
      <trkpt lat="45.57806" lon="5.62715">
        <ele>242</ele>
        <time>2012-11-04T09:59:52Z</time>
      </trkpt>
      <trkpt lat="45.57805" lon="5.62723">
        <ele>242</ele>
        <time>2012-11-04T09:59:53Z</time>
      </trkpt>
      <trkpt lat="45.57792" lon="5.62733">
        <ele>242</ele>
        <time>2012-11-04T09:59:55Z</time>
      </trkpt>
      <trkpt lat="45.5779" lon="5.6274">
        <ele>242</ele>
        <time>2012-11-04T09:59:56Z</time>
      </trkpt>
      <trkpt lat="45.57788" lon="5.62748">
        <ele>241</ele>
        <time>2012-11-04T09:59:57Z</time>
      </trkpt>
      <trkpt lat="45.57785" lon="5.62758">
        <ele>240</ele>
        <time>2012-11-04T09:59:59Z</time>
      </trkpt>
      <trkpt lat="45.57783" lon="5.62768">
        <ele>240</ele>
        <time>2012-11-04T10:00:00Z</time>
      </trkpt>
      <trkpt lat="45.57781" lon="5.62775">
        <ele>240</ele>
        <time>2012-11-04T10:00:01Z</time>
      </trkpt>
      <trkpt lat="45.57779" lon="5.62783">
        <ele>240</ele>
        <time>2012-11-04T10:00:02Z</time>
      </trkpt>
      <trkpt lat="45.57777" lon="5.62789">
        <ele>240</ele>
        <time>2012-11-04T10:00:03Z</time>
      </trkpt>
      <trkpt lat="45.57776" lon="5.62797">
        <ele>240</ele>
        <time>2012-11-04T10:00:04Z</time>
      </trkpt>
      <trkpt lat="45.57773" lon="5.62808">
        <ele>239</ele>
        <time>2012-11-04T10:00:05Z</time>
      </trkpt>
      <trkpt lat="45.5777" lon="5.62825">
        <ele>239</ele>
        <time>2012-11-04T10:00:07Z</time>
      </trkpt>
      <trkpt lat="45.57767" lon="5.62839">
        <ele>239</ele>
        <time>2012-11-04T10:00:09Z</time>
      </trkpt>
      <trkpt lat="45.57765" lon="5.62846">
        <ele>239</ele>
        <time>2012-11-04T10:00:10Z</time>
      </trkpt>
      <trkpt lat="45.57763" lon="5.62855">
        <ele>239</ele>
        <time>2012-11-04T10:00:11Z</time>
      </trkpt>
      <trkpt lat="45.57762" lon="5.62862">
        <ele>238</ele>
        <time>2012-11-04T10:00:12Z</time>
      </trkpt>
      <trkpt lat="45.5776" lon="5.62869">
        <ele>238</ele>
        <time>2012-11-04T10:00:13Z</time>
      </trkpt>
      <trkpt lat="45.57758" lon="5.62875">
        <ele>237</ele>
        <time>2012-11-04T10:00:14Z</time>
      </trkpt>
      <trkpt lat="45.57757" lon="5.62881">
        <ele>237</ele>
        <time>2012-11-04T10:00:15Z</time>
      </trkpt>
      <trkpt lat="45.57755" lon="5.62888">
        <ele>237</ele>
        <time>2012-11-04T10:00:16Z</time>
      </trkpt>
      <trkpt lat="45.57754" lon="5.62894">
        <ele>236</ele>
        <time>2012-11-04T10:00:17Z</time>
      </trkpt>
      <trkpt lat="45.57752" lon="5.62902">
        <ele>235</ele>
        <time>2012-11-04T10:00:18Z</time>
      </trkpt>
      <trkpt lat="45.5775" lon="5.62912">
        <ele>235</ele>
        <time>2012-11-04T10:00:20Z</time>
      </trkpt>
      <trkpt lat="45.57748" lon="5.6292">
        <ele>235</ele>
        <time>2012-11-04T10:00:21Z</time>
      </trkpt>
      <trkpt lat="45.57745" lon="5.62928">
        <ele>235</ele>
        <time>2012-11-04T10:00:22Z</time>
      </trkpt>
      <trkpt lat="45.57744" lon="5.62935">
        <ele>235</ele>
        <time>2012-11-04T10:00:23Z</time>
      </trkpt>
      <trkpt lat="45.5774" lon="5.62946">
        <ele>235</ele>
        <time>2012-11-04T10:00:25Z</time>
      </trkpt>
      <trkpt lat="45.57738" lon="5.62953">
        <ele>234</ele>
        <time>2012-11-04T10:00:26Z</time>
      </trkpt>
      <trkpt lat="45.57736" lon="5.62959">
        <ele>234</ele>
        <time>2012-11-04T10:00:27Z</time>
      </trkpt>
      <trkpt lat="45.57734" lon="5.62966">
        <ele>234</ele>
        <time>2012-11-04T10:00:28Z</time>
      </trkpt>
      <trkpt lat="45.57731" lon="5.62976">
        <ele>233</ele>
        <time>2012-11-04T10:00:30Z</time>
      </trkpt>
      <trkpt lat="45.57729" lon="5.62982">
        <ele>233</ele>
        <time>2012-11-04T10:00:31Z</time>
      </trkpt>
      <trkpt lat="45.57726" lon="5.62989">
        <ele>233</ele>
        <time>2012-11-04T10:00:32Z</time>
      </trkpt>
      <trkpt lat="45.57724" lon="5.62995">
        <ele>233</ele>
        <time>2012-11-04T10:00:33Z</time>
      </trkpt>
      <trkpt lat="45.57722" lon="5.63002">
        <ele>233</ele>
        <time>2012-11-04T10:00:34Z</time>
      </trkpt>
      <trkpt lat="45.5772" lon="5.63009">
        <ele>233</ele>
        <time>2012-11-04T10:00:35Z</time>
      </trkpt>
      <trkpt lat="45.57718" lon="5.63015">
        <ele>233</ele>
        <time>2012-11-04T10:00:36Z</time>
      </trkpt>
      <trkpt lat="45.57715" lon="5.63021">
        <ele>233</ele>
        <time>2012-11-04T10:00:37Z</time>
      </trkpt>
      <trkpt lat="45.57713" lon="5.63028">
        <ele>233</ele>
        <time>2012-11-04T10:00:38Z</time>
      </trkpt>
      <trkpt lat="45.5771" lon="5.63035">
        <ele>233</ele>
        <time>2012-11-04T10:00:40Z</time>
      </trkpt>
      <trkpt lat="45.57708" lon="5.63043">
        <ele>233</ele>
        <time>2012-11-04T10:00:42Z</time>
      </trkpt>
      <trkpt lat="45.57721" lon="5.63068">
        <ele>233</ele>
        <time>2012-11-04T10:00:45Z</time>
      </trkpt>
      <trkpt lat="45.57706" lon="5.6306">
        <ele>233</ele>
        <time>2012-11-04T10:00:46Z</time>
      </trkpt>
      <trkpt lat="45.57669" lon="5.6302">
        <ele>232</ele>
        <time>2012-11-04T10:00:53Z</time>
      </trkpt>
      <trkpt lat="45.57661" lon="5.63014">
        <ele>232</ele>
        <time>2012-11-04T10:00:55Z</time>
      </trkpt>
      <trkpt lat="45.57656" lon="5.63013">
        <ele>232</ele>
        <time>2012-11-04T10:00:56Z</time>
      </trkpt>
      <trkpt lat="45.57651" lon="5.6301">
        <ele>231</ele>
        <time>2012-11-04T10:00:57Z</time>
      </trkpt>
      <trkpt lat="45.57647" lon="5.63008">
        <ele>231</ele>
        <time>2012-11-04T10:00:58Z</time>
      </trkpt>
      <trkpt lat="45.57643" lon="5.63005">
        <ele>230</ele>
        <time>2012-11-04T10:00:59Z</time>
      </trkpt>
      <trkpt lat="45.57636" lon="5.62999">
        <ele>230</ele>
        <time>2012-11-04T10:01:01Z</time>
      </trkpt>
      <trkpt lat="45.57629" lon="5.62996">
        <ele>230</ele>
        <time>2012-11-04T10:01:03Z</time>
      </trkpt>
      <trkpt lat="45.57625" lon="5.62991">
        <ele>230</ele>
        <time>2012-11-04T10:01:04Z</time>
      </trkpt>
      <trkpt lat="45.5762" lon="5.62989">
        <ele>229</ele>
        <time>2012-11-04T10:01:05Z</time>
      </trkpt>
      <trkpt lat="45.57613" lon="5.62984">
        <ele>229</ele>
        <time>2012-11-04T10:01:07Z</time>
      </trkpt>
      <trkpt lat="45.57605" lon="5.62978">
        <ele>228</ele>
        <time>2012-11-04T10:01:09Z</time>
      </trkpt>
      <trkpt lat="45.57599" lon="5.62973">
        <ele>228</ele>
        <time>2012-11-04T10:01:11Z</time>
      </trkpt>
      <trkpt lat="45.57591" lon="5.62967">
        <ele>228</ele>
        <time>2012-11-04T10:01:13Z</time>
      </trkpt>
      <trkpt lat="45.57584" lon="5.62962">
        <ele>228</ele>
        <time>2012-11-04T10:01:15Z</time>
      </trkpt>
      <trkpt lat="45.57576" lon="5.62957">
        <ele>227</ele>
        <time>2012-11-04T10:01:17Z</time>
      </trkpt>
      <trkpt lat="45.57568" lon="5.62951">
        <ele>227</ele>
        <time>2012-11-04T10:01:19Z</time>
      </trkpt>
      <trkpt lat="45.57564" lon="5.62948">
        <ele>227</ele>
        <time>2012-11-04T10:01:20Z</time>
      </trkpt>
      <trkpt lat="45.57556" lon="5.62943">
        <ele>227</ele>
        <time>2012-11-04T10:01:22Z</time>
      </trkpt>
      <trkpt lat="45.57549" lon="5.62937">
        <ele>228</ele>
        <time>2012-11-04T10:01:24Z</time>
      </trkpt>
      <trkpt lat="45.57542" lon="5.62931">
        <ele>228</ele>
        <time>2012-11-04T10:01:26Z</time>
      </trkpt>
      <trkpt lat="45.57536" lon="5.62925">
        <ele>228</ele>
        <time>2012-11-04T10:01:28Z</time>
      </trkpt>
      <trkpt lat="45.57528" lon="5.62919">
        <ele>229</ele>
        <time>2012-11-04T10:01:30Z</time>
      </trkpt>
      <trkpt lat="45.57523" lon="5.62915">
        <ele>229</ele>
        <time>2012-11-04T10:01:32Z</time>
      </trkpt>
      <trkpt lat="45.57519" lon="5.62908">
        <ele>231</ele>
        <time>2012-11-04T10:02:08Z</time>
      </trkpt>
      <trkpt lat="45.57513" lon="5.62904">
        <ele>231</ele>
        <time>2012-11-04T10:02:10Z</time>
      </trkpt>
      <trkpt lat="45.57508" lon="5.62899">
        <ele>231</ele>
        <time>2012-11-04T10:02:12Z</time>
      </trkpt>
      <trkpt lat="45.57501" lon="5.62893">
        <ele>232</ele>
        <time>2012-11-04T10:02:14Z</time>
      </trkpt>
      <trkpt lat="45.57494" lon="5.62888">
        <ele>232</ele>
        <time>2012-11-04T10:02:16Z</time>
      </trkpt>
      <trkpt lat="45.57487" lon="5.62883">
        <ele>233</ele>
        <time>2012-11-04T10:02:18Z</time>
      </trkpt>
      <trkpt lat="45.5748" lon="5.62882">
        <ele>233</ele>
        <time>2012-11-04T10:02:20Z</time>
      </trkpt>
      <trkpt lat="45.57473" lon="5.62884">
        <ele>233</ele>
        <time>2012-11-04T10:02:22Z</time>
      </trkpt>
      <trkpt lat="45.57466" lon="5.62889">
        <ele>232</ele>
        <time>2012-11-04T10:02:24Z</time>
      </trkpt>
      <trkpt lat="45.57458" lon="5.62902">
        <ele>232</ele>
        <time>2012-11-04T10:02:26Z</time>
      </trkpt>
      <trkpt lat="45.57454" lon="5.62905">
        <ele>231</ele>
        <time>2012-11-04T10:02:27Z</time>
      </trkpt>
      <trkpt lat="45.57447" lon="5.62913">
        <ele>231</ele>
        <time>2012-11-04T10:02:29Z</time>
      </trkpt>
      <trkpt lat="45.5744" lon="5.62919">
        <ele>231</ele>
        <time>2012-11-04T10:02:31Z</time>
      </trkpt>
      <trkpt lat="45.57434" lon="5.62924">
        <ele>232</ele>
        <time>2012-11-04T10:02:33Z</time>
      </trkpt>
      <trkpt lat="45.57427" lon="5.62931">
        <ele>232</ele>
        <time>2012-11-04T10:02:35Z</time>
      </trkpt>
      <trkpt lat="45.5742" lon="5.62937">
        <ele>232</ele>
        <time>2012-11-04T10:02:37Z</time>
      </trkpt>
      <trkpt lat="45.5741" lon="5.62945">
        <ele>232</ele>
        <time>2012-11-04T10:02:39Z</time>
      </trkpt>
      <trkpt lat="45.57406" lon="5.62948">
        <ele>232</ele>
        <time>2012-11-04T10:02:40Z</time>
      </trkpt>
      <trkpt lat="45.57399" lon="5.62953">
        <ele>232</ele>
        <time>2012-11-04T10:02:42Z</time>
      </trkpt>
      <trkpt lat="45.57393" lon="5.6296">
        <ele>231</ele>
        <time>2012-11-04T10:02:44Z</time>
      </trkpt>
      <trkpt lat="45.57386" lon="5.62964">
        <ele>231</ele>
        <time>2012-11-04T10:02:46Z</time>
      </trkpt>
      <trkpt lat="45.5738" lon="5.62971">
        <ele>231</ele>
        <time>2012-11-04T10:02:48Z</time>
      </trkpt>
      <trkpt lat="45.57373" lon="5.62976">
        <ele>231</ele>
        <time>2012-11-04T10:02:50Z</time>
      </trkpt>
      <trkpt lat="45.57369" lon="5.62979">
        <ele>231</ele>
        <time>2012-11-04T10:02:51Z</time>
      </trkpt>
      <trkpt lat="45.57365" lon="5.62987">
        <ele>231</ele>
        <time>2012-11-04T10:02:53Z</time>
      </trkpt>
      <trkpt lat="45.57359" lon="5.62994">
        <ele>231</ele>
        <time>2012-11-04T10:02:55Z</time>
      </trkpt>
      <trkpt lat="45.5735" lon="5.63004">
        <ele>232</ele>
        <time>2012-11-04T10:02:58Z</time>
      </trkpt>
      <trkpt lat="45.57345" lon="5.63007">
        <ele>231</ele>
        <time>2012-11-04T10:02:59Z</time>
      </trkpt>
      <trkpt lat="45.57339" lon="5.63013">
        <ele>231</ele>
        <time>2012-11-04T10:03:01Z</time>
      </trkpt>
      <trkpt lat="45.57333" lon="5.63019">
        <ele>231</ele>
        <time>2012-11-04T10:03:03Z</time>
      </trkpt>
      <trkpt lat="45.57326" lon="5.63026">
        <ele>231</ele>
        <time>2012-11-04T10:03:05Z</time>
      </trkpt>
      <trkpt lat="45.57322" lon="5.6303">
        <ele>231</ele>
        <time>2012-11-04T10:03:06Z</time>
      </trkpt>
      <trkpt lat="45.57315" lon="5.63037">
        <ele>230</ele>
        <time>2012-11-04T10:03:08Z</time>
      </trkpt>
      <trkpt lat="45.57309" lon="5.63044">
        <ele>230</ele>
        <time>2012-11-04T10:03:10Z</time>
      </trkpt>
      <trkpt lat="45.57302" lon="5.63049">
        <ele>229</ele>
        <time>2012-11-04T10:03:12Z</time>
      </trkpt>
      <trkpt lat="45.57298" lon="5.63053">
        <ele>229</ele>
        <time>2012-11-04T10:03:13Z</time>
      </trkpt>
      <trkpt lat="45.57291" lon="5.6306">
        <ele>229</ele>
        <time>2012-11-04T10:03:15Z</time>
      </trkpt>
      <trkpt lat="45.57284" lon="5.63066">
        <ele>229</ele>
        <time>2012-11-04T10:03:17Z</time>
      </trkpt>
      <trkpt lat="45.57277" lon="5.63073">
        <ele>230</ele>
        <time>2012-11-04T10:03:19Z</time>
      </trkpt>
      <trkpt lat="45.57271" lon="5.63079">
        <ele>230</ele>
        <time>2012-11-04T10:03:21Z</time>
      </trkpt>
      <trkpt lat="45.57264" lon="5.63086">
        <ele>230</ele>
        <time>2012-11-04T10:03:23Z</time>
      </trkpt>
      <trkpt lat="45.57258" lon="5.63094">
        <ele>230</ele>
        <time>2012-11-04T10:03:25Z</time>
      </trkpt>
      <trkpt lat="45.57251" lon="5.631">
        <ele>230</ele>
        <time>2012-11-04T10:03:27Z</time>
      </trkpt>
      <trkpt lat="45.57245" lon="5.63108">
        <ele>230</ele>
        <time>2012-11-04T10:03:29Z</time>
      </trkpt>
      <trkpt lat="45.5724" lon="5.63117">
        <ele>230</ele>
        <time>2012-11-04T10:03:31Z</time>
      </trkpt>
      <trkpt lat="45.57234" lon="5.63126">
        <ele>230</ele>
        <time>2012-11-04T10:03:33Z</time>
      </trkpt>
      <trkpt lat="45.57229" lon="5.63134">
        <ele>229</ele>
        <time>2012-11-04T10:03:35Z</time>
      </trkpt>
      <trkpt lat="45.57224" lon="5.63143">
        <ele>229</ele>
        <time>2012-11-04T10:03:37Z</time>
      </trkpt>
      <trkpt lat="45.57219" lon="5.63151">
        <ele>229</ele>
        <time>2012-11-04T10:03:39Z</time>
      </trkpt>
      <trkpt lat="45.57213" lon="5.63159">
        <ele>229</ele>
        <time>2012-11-04T10:03:41Z</time>
      </trkpt>
      <trkpt lat="45.57207" lon="5.63168">
        <ele>229</ele>
        <time>2012-11-04T10:03:43Z</time>
      </trkpt>
      <trkpt lat="45.57202" lon="5.63178">
        <ele>229</ele>
        <time>2012-11-04T10:03:45Z</time>
      </trkpt>
      <trkpt lat="45.57197" lon="5.63187">
        <ele>228</ele>
        <time>2012-11-04T10:03:47Z</time>
      </trkpt>
      <trkpt lat="45.57191" lon="5.63197">
        <ele>228</ele>
        <time>2012-11-04T10:03:49Z</time>
      </trkpt>
      <trkpt lat="45.57185" lon="5.63206">
        <ele>228</ele>
        <time>2012-11-04T10:03:51Z</time>
      </trkpt>
      <trkpt lat="45.57182" lon="5.6321">
        <ele>228</ele>
        <time>2012-11-04T10:03:52Z</time>
      </trkpt>
      <trkpt lat="45.57176" lon="5.63219">
        <ele>228</ele>
        <time>2012-11-04T10:03:54Z</time>
      </trkpt>
      <trkpt lat="45.57171" lon="5.63228">
        <ele>228</ele>
        <time>2012-11-04T10:03:56Z</time>
      </trkpt>
      <trkpt lat="45.57165" lon="5.63236">
        <ele>229</ele>
        <time>2012-11-04T10:03:58Z</time>
      </trkpt>
      <trkpt lat="45.5716" lon="5.63244">
        <ele>229</ele>
        <time>2012-11-04T10:04:00Z</time>
      </trkpt>
      <trkpt lat="45.57158" lon="5.6325">
        <ele>229</ele>
        <time>2012-11-04T10:04:01Z</time>
      </trkpt>
      <trkpt lat="45.57159" lon="5.63261">
        <ele>229</ele>
        <time>2012-11-04T10:04:03Z</time>
      </trkpt>
      <trkpt lat="45.57168" lon="5.6327">
        <ele>229</ele>
        <time>2012-11-04T10:04:05Z</time>
      </trkpt>
      <trkpt lat="45.57171" lon="5.63274">
        <ele>229</ele>
        <time>2012-11-04T10:04:06Z</time>
      </trkpt>
      <trkpt lat="45.57179" lon="5.63282">
        <ele>229</ele>
        <time>2012-11-04T10:04:08Z</time>
      </trkpt>
      <trkpt lat="45.57183" lon="5.63286">
        <ele>229</ele>
        <time>2012-11-04T10:04:09Z</time>
      </trkpt>
      <trkpt lat="45.57186" lon="5.6329">
        <ele>229</ele>
        <time>2012-11-04T10:04:10Z</time>
      </trkpt>
      <trkpt lat="45.5719" lon="5.63294">
        <ele>228</ele>
        <time>2012-11-04T10:04:11Z</time>
      </trkpt>
      <trkpt lat="45.57197" lon="5.63302">
        <ele>228</ele>
        <time>2012-11-04T10:04:13Z</time>
      </trkpt>
      <trkpt lat="45.57204" lon="5.6331">
        <ele>227</ele>
        <time>2012-11-04T10:04:15Z</time>
      </trkpt>
      <trkpt lat="45.57207" lon="5.63314">
        <ele>227</ele>
        <time>2012-11-04T10:04:16Z</time>
      </trkpt>
      <trkpt lat="45.57215" lon="5.63322">
        <ele>227</ele>
        <time>2012-11-04T10:04:18Z</time>
      </trkpt>
      <trkpt lat="45.57221" lon="5.6333">
        <ele>227</ele>
        <time>2012-11-04T10:04:20Z</time>
      </trkpt>
      <trkpt lat="45.57228" lon="5.63337">
        <ele>226</ele>
        <time>2012-11-04T10:04:22Z</time>
      </trkpt>
      <trkpt lat="45.57235" lon="5.63345">
        <ele>226</ele>
        <time>2012-11-04T10:04:24Z</time>
      </trkpt>
      <trkpt lat="45.57242" lon="5.63352">
        <ele>226</ele>
        <time>2012-11-04T10:04:26Z</time>
      </trkpt>
      <trkpt lat="45.57249" lon="5.63359">
        <ele>226</ele>
        <time>2012-11-04T10:04:28Z</time>
      </trkpt>
      <trkpt lat="45.57255" lon="5.63366">
        <ele>226</ele>
        <time>2012-11-04T10:04:30Z</time>
      </trkpt>
      <trkpt lat="45.57262" lon="5.63373">
        <ele>226</ele>
        <time>2012-11-04T10:04:32Z</time>
      </trkpt>
      <trkpt lat="45.57268" lon="5.6338">
        <ele>227</ele>
        <time>2012-11-04T10:04:34Z</time>
      </trkpt>
      <trkpt lat="45.57276" lon="5.63387">
        <ele>227</ele>
        <time>2012-11-04T10:04:36Z</time>
      </trkpt>
      <trkpt lat="45.57279" lon="5.63391">
        <ele>227</ele>
        <time>2012-11-04T10:04:37Z</time>
      </trkpt>
      <trkpt lat="45.57286" lon="5.63399">
        <ele>228</ele>
        <time>2012-11-04T10:04:39Z</time>
      </trkpt>
      <trkpt lat="45.57292" lon="5.63407">
        <ele>228</ele>
        <time>2012-11-04T10:04:41Z</time>
      </trkpt>
      <trkpt lat="45.57298" lon="5.63415">
        <ele>228</ele>
        <time>2012-11-04T10:04:43Z</time>
      </trkpt>
      <trkpt lat="45.57297" lon="5.63425">
        <ele>229</ele>
        <time>2012-11-04T10:04:45Z</time>
      </trkpt>
      <trkpt lat="45.57293" lon="5.63434">
        <ele>229</ele>
        <time>2012-11-04T10:04:47Z</time>
      </trkpt>
      <trkpt lat="45.5729" lon="5.6344">
        <ele>229</ele>
        <time>2012-11-04T10:04:48Z</time>
      </trkpt>
      <trkpt lat="45.57285" lon="5.6345">
        <ele>230</ele>
        <time>2012-11-04T10:04:50Z</time>
      </trkpt>
      <trkpt lat="45.57281" lon="5.63461">
        <ele>230</ele>
        <time>2012-11-04T10:04:52Z</time>
      </trkpt>
      <trkpt lat="45.57279" lon="5.63467">
        <ele>230</ele>
        <time>2012-11-04T10:04:53Z</time>
      </trkpt>
      <trkpt lat="45.57276" lon="5.63478">
        <ele>230</ele>
        <time>2012-11-04T10:04:55Z</time>
      </trkpt>
      <trkpt lat="45.57273" lon="5.63489">
        <ele>230</ele>
        <time>2012-11-04T10:04:57Z</time>
      </trkpt>
      <trkpt lat="45.57271" lon="5.63501">
        <ele>230</ele>
        <time>2012-11-04T10:04:59Z</time>
      </trkpt>
      <trkpt lat="45.5727" lon="5.63507">
        <ele>230</ele>
        <time>2012-11-04T10:05:00Z</time>
      </trkpt>
      <trkpt lat="45.57267" lon="5.63519">
        <ele>230</ele>
        <time>2012-11-04T10:05:02Z</time>
      </trkpt>
      <trkpt lat="45.57269" lon="5.63532">
        <ele>231</ele>
        <time>2012-11-04T10:05:04Z</time>
      </trkpt>
      <trkpt lat="45.57271" lon="5.63538">
        <ele>231</ele>
        <time>2012-11-04T10:05:05Z</time>
      </trkpt>
      <trkpt lat="45.57276" lon="5.63545">
        <ele>231</ele>
        <time>2012-11-04T10:05:07Z</time>
      </trkpt>
      <trkpt lat="45.57279" lon="5.6355">
        <ele>231</ele>
        <time>2012-11-04T10:05:08Z</time>
      </trkpt>
      <trkpt lat="45.57285" lon="5.63559">
        <ele>231</ele>
        <time>2012-11-04T10:05:10Z</time>
      </trkpt>
      <trkpt lat="45.57291" lon="5.63568">
        <ele>231</ele>
        <time>2012-11-04T10:05:12Z</time>
      </trkpt>
      <trkpt lat="45.57297" lon="5.63575">
        <ele>230</ele>
        <time>2012-11-04T10:05:14Z</time>
      </trkpt>
      <trkpt lat="45.57302" lon="5.63582">
        <ele>230</ele>
        <time>2012-11-04T10:05:16Z</time>
      </trkpt>
      <trkpt lat="45.57308" lon="5.63591">
        <ele>230</ele>
        <time>2012-11-04T10:05:18Z</time>
      </trkpt>
      <trkpt lat="45.57313" lon="5.636">
        <ele>230</ele>
        <time>2012-11-04T10:05:20Z</time>
      </trkpt>
      <trkpt lat="45.57314" lon="5.63608">
        <ele>230</ele>
        <time>2012-11-04T10:05:22Z</time>
      </trkpt>
      <trkpt lat="45.57308" lon="5.63613">
        <ele>230</ele>
        <time>2012-11-04T10:05:24Z</time>
      </trkpt>
      <trkpt lat="45.57299" lon="5.63615">
        <ele>230</ele>
        <time>2012-11-04T10:05:26Z</time>
      </trkpt>
      <trkpt lat="45.57291" lon="5.63616">
        <ele>230</ele>
        <time>2012-11-04T10:05:28Z</time>
      </trkpt>
      <trkpt lat="45.57282" lon="5.63617">
        <ele>230</ele>
        <time>2012-11-04T10:05:30Z</time>
      </trkpt>
      <trkpt lat="45.57275" lon="5.6362">
        <ele>230</ele>
        <time>2012-11-04T10:05:32Z</time>
      </trkpt>
      <trkpt lat="45.57267" lon="5.63622">
        <ele>230</ele>
        <time>2012-11-04T10:05:34Z</time>
      </trkpt>
      <trkpt lat="45.5726" lon="5.63625">
        <ele>230</ele>
        <time>2012-11-04T10:05:36Z</time>
      </trkpt>
      <trkpt lat="45.57254" lon="5.63629">
        <ele>231</ele>
        <time>2012-11-04T10:05:38Z</time>
      </trkpt>
      <trkpt lat="45.57247" lon="5.63632">
        <ele>231</ele>
        <time>2012-11-04T10:05:40Z</time>
      </trkpt>
      <trkpt lat="45.57241" lon="5.63636">
        <ele>231</ele>
        <time>2012-11-04T10:05:42Z</time>
      </trkpt>
      <trkpt lat="45.57235" lon="5.63641">
        <ele>231</ele>
        <time>2012-11-04T10:05:44Z</time>
      </trkpt>
      <trkpt lat="45.57229" lon="5.63646">
        <ele>232</ele>
        <time>2012-11-04T10:05:46Z</time>
      </trkpt>
      <trkpt lat="45.57223" lon="5.63651">
        <ele>232</ele>
        <time>2012-11-04T10:05:48Z</time>
      </trkpt>
      <trkpt lat="45.57217" lon="5.63657">
        <ele>232</ele>
        <time>2012-11-04T10:05:50Z</time>
      </trkpt>
      <trkpt lat="45.57212" lon="5.63663">
        <ele>232</ele>
        <time>2012-11-04T10:05:52Z</time>
      </trkpt>
      <trkpt lat="45.57207" lon="5.6367">
        <ele>232</ele>
        <time>2012-11-04T10:05:54Z</time>
      </trkpt>
      <trkpt lat="45.57201" lon="5.63676">
        <ele>232</ele>
        <time>2012-11-04T10:05:56Z</time>
      </trkpt>
      <trkpt lat="45.57196" lon="5.63683">
        <ele>233</ele>
        <time>2012-11-04T10:05:58Z</time>
      </trkpt>
      <trkpt lat="45.5719" lon="5.63689">
        <ele>233</ele>
        <time>2012-11-04T10:06:00Z</time>
      </trkpt>
      <trkpt lat="45.57185" lon="5.63695">
        <ele>234</ele>
        <time>2012-11-04T10:06:02Z</time>
      </trkpt>
      <trkpt lat="45.5718" lon="5.63701">
        <ele>234</ele>
        <time>2012-11-04T10:06:04Z</time>
      </trkpt>
      <trkpt lat="45.57174" lon="5.63707">
        <ele>235</ele>
        <time>2012-11-04T10:06:06Z</time>
      </trkpt>
      <trkpt lat="45.57169" lon="5.63713">
        <ele>235</ele>
        <time>2012-11-04T10:06:08Z</time>
      </trkpt>
      <trkpt lat="45.57164" lon="5.63719">
        <ele>236</ele>
        <time>2012-11-04T10:06:10Z</time>
      </trkpt>
      <trkpt lat="45.57159" lon="5.63724">
        <ele>236</ele>
        <time>2012-11-04T10:06:12Z</time>
      </trkpt>
      <trkpt lat="45.57155" lon="5.63729">
        <ele>237</ele>
        <time>2012-11-04T10:06:14Z</time>
      </trkpt>
      <trkpt lat="45.57151" lon="5.63734">
        <ele>237</ele>
        <time>2012-11-04T10:06:16Z</time>
      </trkpt>
      <trkpt lat="45.57146" lon="5.6374">
        <ele>237</ele>
        <time>2012-11-04T10:06:18Z</time>
      </trkpt>
      <trkpt lat="45.57142" lon="5.63745">
        <ele>238</ele>
        <time>2012-11-04T10:06:20Z</time>
      </trkpt>
      <trkpt lat="45.57138" lon="5.63749">
        <ele>238</ele>
        <time>2012-11-04T10:06:22Z</time>
      </trkpt>
      <trkpt lat="45.57132" lon="5.63753">
        <ele>239</ele>
        <time>2012-11-04T10:06:25Z</time>
      </trkpt>
      <trkpt lat="45.57129" lon="5.63759">
        <ele>240</ele>
        <time>2012-11-04T10:06:29Z</time>
      </trkpt>
      <trkpt lat="45.57124" lon="5.63764">
        <ele>240</ele>
        <time>2012-11-04T10:06:31Z</time>
      </trkpt>
      <trkpt lat="45.57119" lon="5.63771">
        <ele>241</ele>
        <time>2012-11-04T10:06:33Z</time>
      </trkpt>
      <trkpt lat="45.57114" lon="5.63775">
        <ele>242</ele>
        <time>2012-11-04T10:06:35Z</time>
      </trkpt>
      <trkpt lat="45.5711" lon="5.6378">
        <ele>243</ele>
        <time>2012-11-04T10:06:37Z</time>
      </trkpt>
      <trkpt lat="45.57107" lon="5.63784">
        <ele>245</ele>
        <time>2012-11-04T10:06:39Z</time>
      </trkpt>
      <trkpt lat="45.57104" lon="5.6379">
        <ele>246</ele>
        <time>2012-11-04T10:06:41Z</time>
      </trkpt>
      <trkpt lat="45.57103" lon="5.63796">
        <ele>248</ele>
        <time>2012-11-04T10:06:43Z</time>
      </trkpt>
      <trkpt lat="45.57104" lon="5.63806">
        <ele>249</ele>
        <time>2012-11-04T10:06:46Z</time>
      </trkpt>
      <trkpt lat="45.57108" lon="5.63815">
        <ele>250</ele>
        <time>2012-11-04T10:06:48Z</time>
      </trkpt>
      <trkpt lat="45.57111" lon="5.63822">
        <ele>250</ele>
        <time>2012-11-04T10:06:50Z</time>
      </trkpt>
      <trkpt lat="45.57115" lon="5.63829">
        <ele>251</ele>
        <time>2012-11-04T10:06:52Z</time>
      </trkpt>
      <trkpt lat="45.57119" lon="5.63836">
        <ele>251</ele>
        <time>2012-11-04T10:06:54Z</time>
      </trkpt>
      <trkpt lat="45.57123" lon="5.63842">
        <ele>252</ele>
        <time>2012-11-04T10:06:56Z</time>
      </trkpt>
      <trkpt lat="45.57127" lon="5.63849">
        <ele>252</ele>
        <time>2012-11-04T10:06:58Z</time>
      </trkpt>
      <trkpt lat="45.5713" lon="5.63855">
        <ele>252</ele>
        <time>2012-11-04T10:07:00Z</time>
      </trkpt>
      <trkpt lat="45.57134" lon="5.63862">
        <ele>252</ele>
        <time>2012-11-04T10:07:02Z</time>
      </trkpt>
      <trkpt lat="45.57137" lon="5.63867">
        <ele>253</ele>
        <time>2012-11-04T10:07:04Z</time>
      </trkpt>
      <trkpt lat="45.5714" lon="5.63874">
        <ele>253</ele>
        <time>2012-11-04T10:07:07Z</time>
      </trkpt>
      <trkpt lat="45.57144" lon="5.63887">
        <ele>259</ele>
        <time>2012-11-04T10:07:13Z</time>
      </trkpt>
      <trkpt lat="45.57146" lon="5.63895">
        <ele>260</ele>
        <time>2012-11-04T10:07:15Z</time>
      </trkpt>
      <trkpt lat="45.57147" lon="5.63903">
        <ele>260</ele>
        <time>2012-11-04T10:07:17Z</time>
      </trkpt>
      <trkpt lat="45.57148" lon="5.63912">
        <ele>259</ele>
        <time>2012-11-04T10:07:19Z</time>
      </trkpt>
      <trkpt lat="45.57148" lon="5.6392">
        <ele>259</ele>
        <time>2012-11-04T10:07:21Z</time>
      </trkpt>
      <trkpt lat="45.57147" lon="5.63928">
        <ele>258</ele>
        <time>2012-11-04T10:07:23Z</time>
      </trkpt>
      <trkpt lat="45.57145" lon="5.63934">
        <ele>258</ele>
        <time>2012-11-04T10:07:25Z</time>
      </trkpt>
      <trkpt lat="45.57142" lon="5.63942">
        <ele>257</ele>
        <time>2012-11-04T10:07:28Z</time>
      </trkpt>
      <trkpt lat="45.5714" lon="5.63947">
        <ele>258</ele>
        <time>2012-11-04T10:07:30Z</time>
      </trkpt>
      <trkpt lat="45.57137" lon="5.63953">
        <ele>259</ele>
        <time>2012-11-04T10:07:32Z</time>
      </trkpt>
      <trkpt lat="45.57133" lon="5.6396">
        <ele>259</ele>
        <time>2012-11-04T10:07:34Z</time>
      </trkpt>
      <trkpt lat="45.57129" lon="5.63966">
        <ele>259</ele>
        <time>2012-11-04T10:07:36Z</time>
      </trkpt>
      <trkpt lat="45.57125" lon="5.63972">
        <ele>259</ele>
        <time>2012-11-04T10:07:38Z</time>
      </trkpt>
      <trkpt lat="45.5712" lon="5.63976">
        <ele>260</ele>
        <time>2012-11-04T10:07:40Z</time>
      </trkpt>
      <trkpt lat="45.57116" lon="5.6398">
        <ele>259</ele>
        <time>2012-11-04T10:07:42Z</time>
      </trkpt>
      <trkpt lat="45.57112" lon="5.63984">
        <ele>259</ele>
        <time>2012-11-04T10:07:44Z</time>
      </trkpt>
      <trkpt lat="45.57107" lon="5.63988">
        <ele>259</ele>
        <time>2012-11-04T10:07:46Z</time>
      </trkpt>
      <trkpt lat="45.57103" lon="5.63993">
        <ele>258</ele>
        <time>2012-11-04T10:07:48Z</time>
      </trkpt>
      <trkpt lat="45.571" lon="5.63998">
        <ele>258</ele>
        <time>2012-11-04T10:07:50Z</time>
      </trkpt>
      <trkpt lat="45.57096" lon="5.64002">
        <ele>258</ele>
        <time>2012-11-04T10:07:52Z</time>
      </trkpt>
      <trkpt lat="45.57093" lon="5.64007">
        <ele>259</ele>
        <time>2012-11-04T10:07:54Z</time>
      </trkpt>
      <trkpt lat="45.57089" lon="5.64012">
        <ele>259</ele>
        <time>2012-11-04T10:07:56Z</time>
      </trkpt>
      <trkpt lat="45.57085" lon="5.64017">
        <ele>259</ele>
        <time>2012-11-04T10:07:58Z</time>
      </trkpt>
      <trkpt lat="45.57081" lon="5.64022">
        <ele>260</ele>
        <time>2012-11-04T10:08:00Z</time>
      </trkpt>
      <trkpt lat="45.57076" lon="5.64027">
        <ele>260</ele>
        <time>2012-11-04T10:08:02Z</time>
      </trkpt>
      <trkpt lat="45.5707" lon="5.64033">
        <ele>260</ele>
        <time>2012-11-04T10:08:04Z</time>
      </trkpt>
      <trkpt lat="45.57065" lon="5.64037">
        <ele>261</ele>
        <time>2012-11-04T10:08:06Z</time>
      </trkpt>
      <trkpt lat="45.57063" lon="5.64043">
        <ele>261</ele>
        <time>2012-11-04T10:08:08Z</time>
      </trkpt>
      <trkpt lat="45.5706" lon="5.64048">
        <ele>262</ele>
        <time>2012-11-04T10:08:10Z</time>
      </trkpt>
      <trkpt lat="45.57057" lon="5.64054">
        <ele>263</ele>
        <time>2012-11-04T10:08:12Z</time>
      </trkpt>
      <trkpt lat="45.57053" lon="5.6406">
        <ele>264</ele>
        <time>2012-11-04T10:08:14Z</time>
      </trkpt>
      <trkpt lat="45.5705" lon="5.64067">
        <ele>265</ele>
        <time>2012-11-04T10:08:16Z</time>
      </trkpt>
      <trkpt lat="45.57047" lon="5.64074">
        <ele>265</ele>
        <time>2012-11-04T10:08:18Z</time>
      </trkpt>
      <trkpt lat="45.57044" lon="5.64082">
        <ele>265</ele>
        <time>2012-11-04T10:08:20Z</time>
      </trkpt>
      <trkpt lat="45.57041" lon="5.64089">
        <ele>266</ele>
        <time>2012-11-04T10:08:22Z</time>
      </trkpt>
      <trkpt lat="45.57039" lon="5.64096">
        <ele>267</ele>
        <time>2012-11-04T10:08:24Z</time>
      </trkpt>
      <trkpt lat="45.57036" lon="5.64108">
        <ele>272</ele>
        <time>2012-11-04T10:08:28Z</time>
      </trkpt>
      <trkpt lat="45.57033" lon="5.64114">
        <ele>273</ele>
        <time>2012-11-04T10:08:30Z</time>
      </trkpt>
      <trkpt lat="45.5703" lon="5.6412">
        <ele>274</ele>
        <time>2012-11-04T10:08:32Z</time>
      </trkpt>
      <trkpt lat="45.57028" lon="5.64126">
        <ele>275</ele>
        <time>2012-11-04T10:08:35Z</time>
      </trkpt>
      <trkpt lat="45.57026" lon="5.64129">
        <ele>275</ele>
        <time>2012-11-04T10:08:42Z</time>
      </trkpt>
      <trkpt lat="45.57025" lon="5.64139">
        <ele>271</ele>
        <time>2012-11-04T10:09:05Z</time>
      </trkpt>
      <trkpt lat="45.57026" lon="5.64133">
        <ele>269</ele>
        <time>2012-11-04T10:10:02Z</time>
      </trkpt>
      <trkpt lat="45.57027" lon="5.64133">
        <ele>268</ele>
        <time>2012-11-04T10:11:49Z</time>
      </trkpt>
      <trkpt lat="45.5703" lon="5.64126">
        <ele>265</ele>
        <time>2012-11-04T10:15:32Z</time>
      </trkpt>
      <trkpt lat="45.57032" lon="5.64119">
        <ele>264</ele>
        <time>2012-11-04T10:15:35Z</time>
      </trkpt>
      <trkpt lat="45.57035" lon="5.64111">
        <ele>263</ele>
        <time>2012-11-04T10:15:38Z</time>
      </trkpt>
      <trkpt lat="45.57037" lon="5.64104">
        <ele>263</ele>
        <time>2012-11-04T10:15:40Z</time>
      </trkpt>
      <trkpt lat="45.57039" lon="5.64098">
        <ele>263</ele>
        <time>2012-11-04T10:15:42Z</time>
      </trkpt>
      <trkpt lat="45.57044" lon="5.64092">
        <ele>263</ele>
        <time>2012-11-04T10:15:45Z</time>
      </trkpt>
      <trkpt lat="45.57049" lon="5.64093">
        <ele>263</ele>
        <time>2012-11-04T10:15:48Z</time>
      </trkpt>
      <trkpt lat="45.57052" lon="5.64093">
        <ele>265</ele>
        <time>2012-11-04T10:15:55Z</time>
      </trkpt>
      <trkpt lat="45.57055" lon="5.64096">
        <ele>267</ele>
        <time>2012-11-04T10:16:20Z</time>
      </trkpt>
      <trkpt lat="45.57052" lon="5.64103">
        <ele>268</ele>
        <time>2012-11-04T10:16:32Z</time>
      </trkpt>
      <trkpt lat="45.57057" lon="5.64105">
        <ele>268</ele>
        <time>2012-11-04T10:16:38Z</time>
      </trkpt>
      <trkpt lat="45.57061" lon="5.64103">
        <ele>268</ele>
        <time>2012-11-04T10:16:42Z</time>
      </trkpt>
      <trkpt lat="45.57064" lon="5.64097">
        <ele>268</ele>
        <time>2012-11-04T10:16:48Z</time>
      </trkpt>
      <trkpt lat="45.57069" lon="5.64092">
        <ele>269</ele>
        <time>2012-11-04T10:17:02Z</time>
      </trkpt>
      <trkpt lat="45.5707" lon="5.64085">
        <ele>269</ele>
        <time>2012-11-04T10:17:10Z</time>
      </trkpt>
      <trkpt lat="45.57067" lon="5.6408">
        <ele>269</ele>
        <time>2012-11-04T10:17:14Z</time>
      </trkpt>
      <trkpt lat="45.57066" lon="5.64071">
        <ele>269</ele>
        <time>2012-11-04T10:17:27Z</time>
      </trkpt>
      <trkpt lat="45.57062" lon="5.64068">
        <ele>268</ele>
        <time>2012-11-04T10:17:34Z</time>
      </trkpt>
      <trkpt lat="45.57059" lon="5.64073">
        <ele>266</ele>
        <time>2012-11-04T10:17:53Z</time>
      </trkpt>
      <trkpt lat="45.57062" lon="5.64078">
        <ele>266</ele>
        <time>2012-11-04T10:17:58Z</time>
      </trkpt>
      <trkpt lat="45.57063" lon="5.64082">
        <ele>261</ele>
        <time>2012-11-04T10:18:27Z</time>
      </trkpt>
      <trkpt lat="45.57064" lon="5.6409">
        <ele>262</ele>
        <time>2012-11-04T10:19:17Z</time>
      </trkpt>
      <trkpt lat="45.5706" lon="5.64088">
        <ele>263</ele>
        <time>2012-11-04T10:19:22Z</time>
      </trkpt>
      <trkpt lat="45.57063" lon="5.64084">
        <ele>264</ele>
        <time>2012-11-04T10:19:59Z</time>
      </trkpt>
      <trkpt lat="45.57061" lon="5.64081">
        <ele>262</ele>
        <time>2012-11-04T10:20:19Z</time>
      </trkpt>
      <trkpt lat="45.57056" lon="5.64081">
        <ele>262</ele>
        <time>2012-11-04T10:21:19Z</time>
      </trkpt>
      <trkpt lat="45.57053" lon="5.64085">
        <ele>263</ele>
        <time>2012-11-04T10:24:27Z</time>
      </trkpt>
      <trkpt lat="45.57052" lon="5.64094">
        <ele>262</ele>
        <time>2012-11-04T10:24:42Z</time>
      </trkpt>
      <trkpt lat="45.57049" lon="5.64101">
        <ele>263</ele>
        <time>2012-11-04T10:24:45Z</time>
      </trkpt>
      <trkpt lat="45.57046" lon="5.64108">
        <ele>264</ele>
        <time>2012-11-04T10:24:48Z</time>
      </trkpt>
      <trkpt lat="45.57041" lon="5.64112">
        <ele>265</ele>
        <time>2012-11-04T10:24:51Z</time>
      </trkpt>
      <trkpt lat="45.57038" lon="5.64116">
        <ele>266</ele>
        <time>2012-11-04T10:24:54Z</time>
      </trkpt>
      <trkpt lat="45.57036" lon="5.64122">
        <ele>265</ele>
        <time>2012-11-04T10:24:57Z</time>
      </trkpt>
      <trkpt lat="45.57031" lon="5.64129">
        <ele>268</ele>
        <time>2012-11-04T10:25:00Z</time>
      </trkpt>
      <trkpt lat="45.57027" lon="5.64134">
        <ele>270</ele>
        <time>2012-11-04T10:25:02Z</time>
      </trkpt>
      <trkpt lat="45.57022" lon="5.64141">
        <ele>271</ele>
        <time>2012-11-04T10:25:04Z</time>
      </trkpt>
      <trkpt lat="45.57017" lon="5.64146">
        <ele>271</ele>
        <time>2012-11-04T10:25:06Z</time>
      </trkpt>
      <trkpt lat="45.57014" lon="5.64151">
        <ele>271</ele>
        <time>2012-11-04T10:25:08Z</time>
      </trkpt>
      <trkpt lat="45.57009" lon="5.64155">
        <ele>272</ele>
        <time>2012-11-04T10:25:11Z</time>
      </trkpt>
      <trkpt lat="45.57003" lon="5.64156">
        <ele>272</ele>
        <time>2012-11-04T10:25:14Z</time>
      </trkpt>
      <trkpt lat="45.56997" lon="5.64156">
        <ele>272</ele>
        <time>2012-11-04T10:25:17Z</time>
      </trkpt>
      <trkpt lat="45.56994" lon="5.64157">
        <ele>270</ele>
        <time>2012-11-04T10:26:37Z</time>
      </trkpt>
    </trkseg>
  </trk>
  <trk>
    <name><![CDATA[4 nov. 2012 14:37:26]]></name>
    <cmt><![CDATA[4 nov. 2012 14:37:26]]></cmt>
    <trkseg>
  </trk>
  <trk>
    <name><![CDATA[4 nov. 2012 14:39:57]]></name>
    <cmt><![CDATA[4 nov. 2012 14:39:57]]></cmt>
    <trkseg>
      <trkpt lat="47" lon="2.34527">
        <ele>167</ele>
      </trkpt>
    </trkseg>
  </trk>
</gpx>